<?xml version="1.0" encoding="UTF-8"?>
<gpx version="1.1" creator="https://www.youtrack.es" xsi:schemaLocation="http://www.topografix.com/GPX/1/1 http://www.topografix.com/GPX/1/1/gpx.xsd http://www.garmin.com/xmlschemas/GpxExtensions/v3 http://www.garmin.com/xmlschemas/GpxExtensionsv3.xsd http://www.garmin.com/xmlschemas/TrackPointExtension/v1 http://www.garmin.com/xmlschemas/TrackPointExtensionv1.xsd" xmlns:gpxtpx="http://www.garmin.com/xmlschemas/TrackPointExtension/v1" xmlns:gpxx="http://www.garmin.com/xmlschemas/GpxExtensions/v3" xmlns:xsi="http://www.w3.org/2001/XMLSchema-instance">
  <metadata>
    <link href="https://www.youtrack.es">
      <text>YouTrack.es</text>
    </link>
    <time>2026-05-08T23:28:01Z</time>
  </metadata>
  <trk>
    <src>https://www.youtrack.es</src>
    <link href="https://www.youtrack.es/ruta/17740-ruta-en-moto">
      <text>YouTrack.es</text>
    </link>
    <trkseg>
      <trkpt lat="38.36201" lon="-0.42084">
        <ele>29.0</ele>
        <time>2020-11-28T07:23:52Z</time>
      </trkpt>
      <trkpt lat="38.36205" lon="-0.42106">
        <ele>28.0</ele>
        <time>2020-11-28T07:23:57Z</time>
      </trkpt>
      <trkpt lat="38.36217" lon="-0.42102">
        <ele>28.0</ele>
        <time>2020-11-28T07:24:08Z</time>
      </trkpt>
      <trkpt lat="38.36235" lon="-0.42091">
        <ele>28.0</ele>
        <time>2020-11-28T07:24:11Z</time>
      </trkpt>
      <trkpt lat="38.36228" lon="-0.42099">
        <ele>28.0</ele>
        <time>2020-11-28T07:24:14Z</time>
      </trkpt>
      <trkpt lat="38.36223" lon="-0.42113">
        <ele>29.0</ele>
        <time>2020-11-28T07:24:29Z</time>
      </trkpt>
      <trkpt lat="38.36209" lon="-0.42124">
        <ele>29.0</ele>
        <time>2020-11-28T07:24:33Z</time>
      </trkpt>
      <trkpt lat="38.36216" lon="-0.42131">
        <ele>28.0</ele>
        <time>2020-11-28T07:24:59Z</time>
      </trkpt>
      <trkpt lat="38.36223" lon="-0.42123">
        <ele>28.0</ele>
        <time>2020-11-28T07:25:04Z</time>
      </trkpt>
      <trkpt lat="38.36222" lon="-0.42105">
        <ele>29.0</ele>
        <time>2020-11-28T07:25:08Z</time>
      </trkpt>
      <trkpt lat="38.36224" lon="-0.42083">
        <ele>28.0</ele>
        <time>2020-11-28T07:25:11Z</time>
      </trkpt>
      <trkpt lat="38.36223" lon="-0.42096">
        <ele>28.0</ele>
        <time>2020-11-28T07:25:14Z</time>
      </trkpt>
      <trkpt lat="38.36242" lon="-0.42087">
        <ele>27.0</ele>
        <time>2020-11-28T07:25:50Z</time>
      </trkpt>
      <trkpt lat="38.36240" lon="-0.42073">
        <ele>29.0</ele>
        <time>2020-11-28T07:26:17Z</time>
      </trkpt>
      <trkpt lat="38.36247" lon="-0.42031">
        <ele>29.0</ele>
        <time>2020-11-28T07:26:20Z</time>
      </trkpt>
      <trkpt lat="38.36229" lon="-0.41982">
        <ele>29.0</ele>
        <time>2020-11-28T07:26:24Z</time>
      </trkpt>
      <trkpt lat="38.36230" lon="-0.41950">
        <ele>30.0</ele>
        <time>2020-11-28T07:26:27Z</time>
      </trkpt>
      <trkpt lat="38.36229" lon="-0.41938">
        <ele>29.0</ele>
        <time>2020-11-28T07:26:32Z</time>
      </trkpt>
      <trkpt lat="38.36219" lon="-0.41930">
        <ele>30.0</ele>
        <time>2020-11-28T07:26:35Z</time>
      </trkpt>
      <trkpt lat="38.36241" lon="-0.41872">
        <ele>29.0</ele>
        <time>2020-11-28T07:26:44Z</time>
      </trkpt>
      <trkpt lat="38.36261" lon="-0.41895">
        <ele>29.0</ele>
        <time>2020-11-28T07:26:47Z</time>
      </trkpt>
      <trkpt lat="38.36288" lon="-0.41916">
        <ele>29.0</ele>
        <time>2020-11-28T07:26:50Z</time>
      </trkpt>
      <trkpt lat="38.36326" lon="-0.41941">
        <ele>29.0</ele>
        <time>2020-11-28T07:26:53Z</time>
      </trkpt>
      <trkpt lat="38.36360" lon="-0.41953">
        <ele>27.0</ele>
        <time>2020-11-28T07:26:56Z</time>
      </trkpt>
      <trkpt lat="38.36401" lon="-0.41955">
        <ele>29.0</ele>
        <time>2020-11-28T07:26:59Z</time>
      </trkpt>
      <trkpt lat="38.36437" lon="-0.41956">
        <ele>27.0</ele>
        <time>2020-11-28T07:27:02Z</time>
      </trkpt>
      <trkpt lat="38.36454" lon="-0.41957">
        <ele>27.0</ele>
        <time>2020-11-28T07:27:06Z</time>
      </trkpt>
      <trkpt lat="38.36477" lon="-0.41958">
        <ele>29.0</ele>
        <time>2020-11-28T07:27:45Z</time>
      </trkpt>
      <trkpt lat="38.36505" lon="-0.41959">
        <ele>28.0</ele>
        <time>2020-11-28T07:27:48Z</time>
      </trkpt>
      <trkpt lat="38.36558" lon="-0.41962">
        <ele>24.0</ele>
        <time>2020-11-28T07:27:51Z</time>
      </trkpt>
      <trkpt lat="38.36603" lon="-0.41965">
        <ele>21.0</ele>
        <time>2020-11-28T07:27:54Z</time>
      </trkpt>
      <trkpt lat="38.36644" lon="-0.41966">
        <ele>18.0</ele>
        <time>2020-11-28T07:27:58Z</time>
      </trkpt>
      <trkpt lat="38.36688" lon="-0.41968">
        <ele>16.0</ele>
        <time>2020-11-28T07:28:01Z</time>
      </trkpt>
      <trkpt lat="38.36728" lon="-0.41970">
        <ele>13.0</ele>
        <time>2020-11-28T07:28:04Z</time>
      </trkpt>
      <trkpt lat="38.36767" lon="-0.41969">
        <ele>11.0</ele>
        <time>2020-11-28T07:28:07Z</time>
      </trkpt>
      <trkpt lat="38.36806" lon="-0.41955">
        <ele>8.0</ele>
        <time>2020-11-28T07:28:10Z</time>
      </trkpt>
      <trkpt lat="38.36842" lon="-0.41957">
        <ele>7.0</ele>
        <time>2020-11-28T07:28:13Z</time>
      </trkpt>
      <trkpt lat="38.36891" lon="-0.41976">
        <ele>7.0</ele>
        <time>2020-11-28T07:28:16Z</time>
      </trkpt>
      <trkpt lat="38.36932" lon="-0.41978">
        <ele>6.0</ele>
        <time>2020-11-28T07:28:20Z</time>
      </trkpt>
      <trkpt lat="38.36965" lon="-0.41979">
        <ele>6.0</ele>
        <time>2020-11-28T07:28:23Z</time>
      </trkpt>
      <trkpt lat="38.36984" lon="-0.41980">
        <ele>6.0</ele>
        <time>2020-11-28T07:28:26Z</time>
      </trkpt>
      <trkpt lat="38.36989" lon="-0.41980">
        <ele>7.0</ele>
        <time>2020-11-28T07:28:50Z</time>
      </trkpt>
      <trkpt lat="38.37001" lon="-0.41981">
        <ele>8.0</ele>
        <time>2020-11-28T07:29:18Z</time>
      </trkpt>
      <trkpt lat="38.37029" lon="-0.41983">
        <ele>7.0</ele>
        <time>2020-11-28T07:29:21Z</time>
      </trkpt>
      <trkpt lat="38.37044" lon="-0.41984">
        <ele>6.0</ele>
        <time>2020-11-28T07:29:25Z</time>
      </trkpt>
      <trkpt lat="38.37065" lon="-0.41985">
        <ele>7.0</ele>
        <time>2020-11-28T07:30:03Z</time>
      </trkpt>
      <trkpt lat="38.37100" lon="-0.41986">
        <ele>8.0</ele>
        <time>2020-11-28T07:30:07Z</time>
      </trkpt>
      <trkpt lat="38.37152" lon="-0.41988">
        <ele>8.0</ele>
        <time>2020-11-28T07:30:10Z</time>
      </trkpt>
      <trkpt lat="38.37216" lon="-0.41991">
        <ele>9.0</ele>
        <time>2020-11-28T07:30:13Z</time>
      </trkpt>
      <trkpt lat="38.37277" lon="-0.41994">
        <ele>8.0</ele>
        <time>2020-11-28T07:30:16Z</time>
      </trkpt>
      <trkpt lat="38.37334" lon="-0.41996">
        <ele>7.0</ele>
        <time>2020-11-28T07:30:19Z</time>
      </trkpt>
      <trkpt lat="38.37397" lon="-0.41999">
        <ele>6.0</ele>
        <time>2020-11-28T07:30:22Z</time>
      </trkpt>
      <trkpt lat="38.37454" lon="-0.42001">
        <ele>6.0</ele>
        <time>2020-11-28T07:30:26Z</time>
      </trkpt>
      <trkpt lat="38.37503" lon="-0.42003">
        <ele>5.0</ele>
        <time>2020-11-28T07:30:29Z</time>
      </trkpt>
      <trkpt lat="38.37547" lon="-0.42005">
        <ele>4.0</ele>
        <time>2020-11-28T07:30:32Z</time>
      </trkpt>
      <trkpt lat="38.37584" lon="-0.42008">
        <ele>4.0</ele>
        <time>2020-11-28T07:30:35Z</time>
      </trkpt>
      <trkpt lat="38.37612" lon="-0.42009">
        <ele>4.0</ele>
        <time>2020-11-28T07:30:38Z</time>
      </trkpt>
      <trkpt lat="38.37624" lon="-0.42005">
        <ele>4.0</ele>
        <time>2020-11-28T07:30:42Z</time>
      </trkpt>
      <trkpt lat="38.37640" lon="-0.41988">
        <ele>4.0</ele>
        <time>2020-11-28T07:30:45Z</time>
      </trkpt>
      <trkpt lat="38.37652" lon="-0.41971">
        <ele>5.0</ele>
        <time>2020-11-28T07:30:48Z</time>
      </trkpt>
      <trkpt lat="38.37673" lon="-0.41987">
        <ele>5.0</ele>
        <time>2020-11-28T07:30:51Z</time>
      </trkpt>
      <trkpt lat="38.37689" lon="-0.42014">
        <ele>6.0</ele>
        <time>2020-11-28T07:30:54Z</time>
      </trkpt>
      <trkpt lat="38.37686" lon="-0.42042">
        <ele>7.0</ele>
        <time>2020-11-28T07:30:57Z</time>
      </trkpt>
      <trkpt lat="38.37698" lon="-0.42066">
        <ele>8.0</ele>
        <time>2020-11-28T07:31:01Z</time>
      </trkpt>
      <trkpt lat="38.37720" lon="-0.42093">
        <ele>11.0</ele>
        <time>2020-11-28T07:31:04Z</time>
      </trkpt>
      <trkpt lat="38.37745" lon="-0.42127">
        <ele>12.0</ele>
        <time>2020-11-28T07:31:07Z</time>
      </trkpt>
      <trkpt lat="38.37772" lon="-0.42162">
        <ele>13.0</ele>
        <time>2020-11-28T07:31:10Z</time>
      </trkpt>
      <trkpt lat="38.37799" lon="-0.42196">
        <ele>12.0</ele>
        <time>2020-11-28T07:31:13Z</time>
      </trkpt>
      <trkpt lat="38.37829" lon="-0.42233">
        <ele>11.0</ele>
        <time>2020-11-28T07:31:17Z</time>
      </trkpt>
      <trkpt lat="38.37859" lon="-0.42271">
        <ele>9.0</ele>
        <time>2020-11-28T07:31:20Z</time>
      </trkpt>
      <trkpt lat="38.37891" lon="-0.42310">
        <ele>8.0</ele>
        <time>2020-11-28T07:31:23Z</time>
      </trkpt>
      <trkpt lat="38.37926" lon="-0.42355">
        <ele>10.0</ele>
        <time>2020-11-28T07:31:26Z</time>
      </trkpt>
      <trkpt lat="38.37962" lon="-0.42400">
        <ele>11.0</ele>
        <time>2020-11-28T07:31:29Z</time>
      </trkpt>
      <trkpt lat="38.37999" lon="-0.42447">
        <ele>11.0</ele>
        <time>2020-11-28T07:31:32Z</time>
      </trkpt>
      <trkpt lat="38.38029" lon="-0.42484">
        <ele>11.0</ele>
        <time>2020-11-28T07:31:36Z</time>
      </trkpt>
      <trkpt lat="38.38052" lon="-0.42514">
        <ele>10.0</ele>
        <time>2020-11-28T07:31:39Z</time>
      </trkpt>
      <trkpt lat="38.38086" lon="-0.42557">
        <ele>11.0</ele>
        <time>2020-11-28T07:31:42Z</time>
      </trkpt>
      <trkpt lat="38.38111" lon="-0.42589">
        <ele>11.0</ele>
        <time>2020-11-28T07:31:45Z</time>
      </trkpt>
      <trkpt lat="38.38126" lon="-0.42607">
        <ele>11.0</ele>
        <time>2020-11-28T07:31:48Z</time>
      </trkpt>
      <trkpt lat="38.38133" lon="-0.42617">
        <ele>10.0</ele>
        <time>2020-11-28T07:31:53Z</time>
      </trkpt>
      <trkpt lat="38.38159" lon="-0.42651">
        <ele>11.0</ele>
        <time>2020-11-28T07:31:57Z</time>
      </trkpt>
      <trkpt lat="38.38192" lon="-0.42693">
        <ele>12.0</ele>
        <time>2020-11-28T07:32:00Z</time>
      </trkpt>
      <trkpt lat="38.38224" lon="-0.42734">
        <ele>13.0</ele>
        <time>2020-11-28T07:32:03Z</time>
      </trkpt>
      <trkpt lat="38.38253" lon="-0.42771">
        <ele>14.0</ele>
        <time>2020-11-28T07:32:06Z</time>
      </trkpt>
      <trkpt lat="38.38272" lon="-0.42796">
        <ele>14.0</ele>
        <time>2020-11-28T07:32:09Z</time>
      </trkpt>
      <trkpt lat="38.38309" lon="-0.42844">
        <ele>15.0</ele>
        <time>2020-11-28T07:32:12Z</time>
      </trkpt>
      <trkpt lat="38.38329" lon="-0.42870">
        <ele>15.0</ele>
        <time>2020-11-28T07:32:16Z</time>
      </trkpt>
      <trkpt lat="38.38341" lon="-0.42885">
        <ele>15.0</ele>
        <time>2020-11-28T07:32:19Z</time>
      </trkpt>
      <trkpt lat="38.38350" lon="-0.42898">
        <ele>15.0</ele>
        <time>2020-11-28T07:32:22Z</time>
      </trkpt>
      <trkpt lat="38.38377" lon="-0.42935">
        <ele>16.0</ele>
        <time>2020-11-28T07:32:25Z</time>
      </trkpt>
      <trkpt lat="38.38406" lon="-0.42977">
        <ele>17.0</ele>
        <time>2020-11-28T07:32:28Z</time>
      </trkpt>
      <trkpt lat="38.38435" lon="-0.43028">
        <ele>17.0</ele>
        <time>2020-11-28T07:32:31Z</time>
      </trkpt>
      <trkpt lat="38.38461" lon="-0.43082">
        <ele>17.0</ele>
        <time>2020-11-28T07:32:35Z</time>
      </trkpt>
      <trkpt lat="38.38484" lon="-0.43141">
        <ele>19.0</ele>
        <time>2020-11-28T07:32:38Z</time>
      </trkpt>
      <trkpt lat="38.38507" lon="-0.43206">
        <ele>19.0</ele>
        <time>2020-11-28T07:32:41Z</time>
      </trkpt>
      <trkpt lat="38.38529" lon="-0.43267">
        <ele>20.0</ele>
        <time>2020-11-28T07:32:44Z</time>
      </trkpt>
      <trkpt lat="38.38550" lon="-0.43327">
        <ele>21.0</ele>
        <time>2020-11-28T07:32:47Z</time>
      </trkpt>
      <trkpt lat="38.38568" lon="-0.43380">
        <ele>21.0</ele>
        <time>2020-11-28T07:32:50Z</time>
      </trkpt>
      <trkpt lat="38.38581" lon="-0.43417">
        <ele>21.0</ele>
        <time>2020-11-28T07:32:53Z</time>
      </trkpt>
      <trkpt lat="38.38591" lon="-0.43442">
        <ele>21.0</ele>
        <time>2020-11-28T07:32:57Z</time>
      </trkpt>
      <trkpt lat="38.38614" lon="-0.43453">
        <ele>21.0</ele>
        <time>2020-11-28T07:33:00Z</time>
      </trkpt>
      <trkpt lat="38.38631" lon="-0.43486">
        <ele>21.0</ele>
        <time>2020-11-28T07:33:03Z</time>
      </trkpt>
      <trkpt lat="38.38624" lon="-0.43512">
        <ele>22.0</ele>
        <time>2020-11-28T07:33:06Z</time>
      </trkpt>
      <trkpt lat="38.38649" lon="-0.43567">
        <ele>22.0</ele>
        <time>2020-11-28T07:33:09Z</time>
      </trkpt>
      <trkpt lat="38.38679" lon="-0.43622">
        <ele>23.0</ele>
        <time>2020-11-28T07:33:12Z</time>
      </trkpt>
      <trkpt lat="38.38711" lon="-0.43676">
        <ele>24.0</ele>
        <time>2020-11-28T07:33:16Z</time>
      </trkpt>
      <trkpt lat="38.38748" lon="-0.43733">
        <ele>26.0</ele>
        <time>2020-11-28T07:33:19Z</time>
      </trkpt>
      <trkpt lat="38.38783" lon="-0.43784">
        <ele>26.0</ele>
        <time>2020-11-28T07:33:22Z</time>
      </trkpt>
      <trkpt lat="38.38811" lon="-0.43824">
        <ele>27.0</ele>
        <time>2020-11-28T07:33:25Z</time>
      </trkpt>
      <trkpt lat="38.38831" lon="-0.43850">
        <ele>28.0</ele>
        <time>2020-11-28T07:33:28Z</time>
      </trkpt>
      <trkpt lat="38.38846" lon="-0.43871">
        <ele>29.0</ele>
        <time>2020-11-28T07:33:31Z</time>
      </trkpt>
      <trkpt lat="38.38882" lon="-0.43877">
        <ele>29.0</ele>
        <time>2020-11-28T07:33:34Z</time>
      </trkpt>
      <trkpt lat="38.38897" lon="-0.43918">
        <ele>29.0</ele>
        <time>2020-11-28T07:33:38Z</time>
      </trkpt>
      <trkpt lat="38.38934" lon="-0.43964">
        <ele>30.0</ele>
        <time>2020-11-28T07:33:41Z</time>
      </trkpt>
      <trkpt lat="38.38965" lon="-0.44008">
        <ele>30.0</ele>
        <time>2020-11-28T07:33:44Z</time>
      </trkpt>
      <trkpt lat="38.38992" lon="-0.44052">
        <ele>30.0</ele>
        <time>2020-11-28T07:33:47Z</time>
      </trkpt>
      <trkpt lat="38.39018" lon="-0.44108">
        <ele>30.0</ele>
        <time>2020-11-28T07:33:50Z</time>
      </trkpt>
      <trkpt lat="38.39040" lon="-0.44158">
        <ele>30.0</ele>
        <time>2020-11-28T07:33:53Z</time>
      </trkpt>
      <trkpt lat="38.39057" lon="-0.44193">
        <ele>30.0</ele>
        <time>2020-11-28T07:33:56Z</time>
      </trkpt>
      <trkpt lat="38.39071" lon="-0.44230">
        <ele>31.0</ele>
        <time>2020-11-28T07:34:00Z</time>
      </trkpt>
      <trkpt lat="38.39095" lon="-0.44267">
        <ele>31.0</ele>
        <time>2020-11-28T07:34:03Z</time>
      </trkpt>
      <trkpt lat="38.39127" lon="-0.44314">
        <ele>32.0</ele>
        <time>2020-11-28T07:34:06Z</time>
      </trkpt>
      <trkpt lat="38.39158" lon="-0.44359">
        <ele>33.0</ele>
        <time>2020-11-28T07:34:09Z</time>
      </trkpt>
      <trkpt lat="38.39185" lon="-0.44400">
        <ele>33.0</ele>
        <time>2020-11-28T07:34:12Z</time>
      </trkpt>
      <trkpt lat="38.39238" lon="-0.44472">
        <ele>34.0</ele>
        <time>2020-11-28T07:34:15Z</time>
      </trkpt>
      <trkpt lat="38.39281" lon="-0.44531">
        <ele>34.0</ele>
        <time>2020-11-28T07:34:18Z</time>
      </trkpt>
      <trkpt lat="38.39331" lon="-0.44601">
        <ele>36.0</ele>
        <time>2020-11-28T07:34:22Z</time>
      </trkpt>
      <trkpt lat="38.39379" lon="-0.44667">
        <ele>36.0</ele>
        <time>2020-11-28T07:34:25Z</time>
      </trkpt>
      <trkpt lat="38.39424" lon="-0.44731">
        <ele>36.0</ele>
        <time>2020-11-28T07:34:28Z</time>
      </trkpt>
      <trkpt lat="38.39466" lon="-0.44790">
        <ele>36.0</ele>
        <time>2020-11-28T07:34:31Z</time>
      </trkpt>
      <trkpt lat="38.39504" lon="-0.44847">
        <ele>36.0</ele>
        <time>2020-11-28T07:34:34Z</time>
      </trkpt>
      <trkpt lat="38.39543" lon="-0.44917">
        <ele>38.0</ele>
        <time>2020-11-28T07:34:38Z</time>
      </trkpt>
      <trkpt lat="38.39579" lon="-0.44997">
        <ele>38.0</ele>
        <time>2020-11-28T07:34:41Z</time>
      </trkpt>
      <trkpt lat="38.39609" lon="-0.45068">
        <ele>39.0</ele>
        <time>2020-11-28T07:34:44Z</time>
      </trkpt>
      <trkpt lat="38.39637" lon="-0.45125">
        <ele>38.0</ele>
        <time>2020-11-28T07:34:47Z</time>
      </trkpt>
      <trkpt lat="38.39673" lon="-0.45175">
        <ele>39.0</ele>
        <time>2020-11-28T07:34:50Z</time>
      </trkpt>
      <trkpt lat="38.39721" lon="-0.45215">
        <ele>42.0</ele>
        <time>2020-11-28T07:34:53Z</time>
      </trkpt>
      <trkpt lat="38.39779" lon="-0.45247">
        <ele>42.0</ele>
        <time>2020-11-28T07:34:56Z</time>
      </trkpt>
      <trkpt lat="38.39836" lon="-0.45275">
        <ele>44.0</ele>
        <time>2020-11-28T07:35:00Z</time>
      </trkpt>
      <trkpt lat="38.39869" lon="-0.45290">
        <ele>45.0</ele>
        <time>2020-11-28T07:35:03Z</time>
      </trkpt>
      <trkpt lat="38.39893" lon="-0.45291">
        <ele>46.0</ele>
        <time>2020-11-28T07:35:06Z</time>
      </trkpt>
      <trkpt lat="38.39921" lon="-0.45295">
        <ele>48.0</ele>
        <time>2020-11-28T07:35:09Z</time>
      </trkpt>
      <trkpt lat="38.39936" lon="-0.45326">
        <ele>49.0</ele>
        <time>2020-11-28T07:35:12Z</time>
      </trkpt>
      <trkpt lat="38.39949" lon="-0.45367">
        <ele>50.0</ele>
        <time>2020-11-28T07:35:15Z</time>
      </trkpt>
      <trkpt lat="38.39978" lon="-0.45406">
        <ele>52.0</ele>
        <time>2020-11-28T07:35:18Z</time>
      </trkpt>
      <trkpt lat="38.40008" lon="-0.45465">
        <ele>53.0</ele>
        <time>2020-11-28T07:35:21Z</time>
      </trkpt>
      <trkpt lat="38.40042" lon="-0.45525">
        <ele>53.0</ele>
        <time>2020-11-28T07:35:25Z</time>
      </trkpt>
      <trkpt lat="38.40079" lon="-0.45584">
        <ele>53.0</ele>
        <time>2020-11-28T07:35:28Z</time>
      </trkpt>
      <trkpt lat="38.40109" lon="-0.45629">
        <ele>51.0</ele>
        <time>2020-11-28T07:35:31Z</time>
      </trkpt>
      <trkpt lat="38.40133" lon="-0.45657">
        <ele>51.0</ele>
        <time>2020-11-28T07:35:34Z</time>
      </trkpt>
      <trkpt lat="38.40146" lon="-0.45669">
        <ele>51.0</ele>
        <time>2020-11-28T07:35:37Z</time>
      </trkpt>
      <trkpt lat="38.40181" lon="-0.45689">
        <ele>50.0</ele>
        <time>2020-11-28T07:35:40Z</time>
      </trkpt>
      <trkpt lat="38.40203" lon="-0.45729">
        <ele>49.0</ele>
        <time>2020-11-28T07:35:43Z</time>
      </trkpt>
      <trkpt lat="38.40238" lon="-0.45771">
        <ele>50.0</ele>
        <time>2020-11-28T07:35:47Z</time>
      </trkpt>
      <trkpt lat="38.40277" lon="-0.45817">
        <ele>52.0</ele>
        <time>2020-11-28T07:35:50Z</time>
      </trkpt>
      <trkpt lat="38.40316" lon="-0.45867">
        <ele>53.0</ele>
        <time>2020-11-28T07:35:53Z</time>
      </trkpt>
      <trkpt lat="38.40354" lon="-0.45912">
        <ele>54.0</ele>
        <time>2020-11-28T07:35:56Z</time>
      </trkpt>
      <trkpt lat="38.40383" lon="-0.45948">
        <ele>54.0</ele>
        <time>2020-11-28T07:35:59Z</time>
      </trkpt>
      <trkpt lat="38.40424" lon="-0.45997">
        <ele>54.0</ele>
        <time>2020-11-28T07:36:02Z</time>
      </trkpt>
      <trkpt lat="38.40474" lon="-0.46048">
        <ele>56.0</ele>
        <time>2020-11-28T07:36:06Z</time>
      </trkpt>
      <trkpt lat="38.40529" lon="-0.46100">
        <ele>58.0</ele>
        <time>2020-11-28T07:36:09Z</time>
      </trkpt>
      <trkpt lat="38.40578" lon="-0.46145">
        <ele>58.0</ele>
        <time>2020-11-28T07:36:12Z</time>
      </trkpt>
      <trkpt lat="38.40626" lon="-0.46181">
        <ele>58.0</ele>
        <time>2020-11-28T07:36:15Z</time>
      </trkpt>
      <trkpt lat="38.40669" lon="-0.46224">
        <ele>60.0</ele>
        <time>2020-11-28T07:36:18Z</time>
      </trkpt>
      <trkpt lat="38.40705" lon="-0.46262">
        <ele>60.0</ele>
        <time>2020-11-28T07:36:21Z</time>
      </trkpt>
      <trkpt lat="38.40725" lon="-0.46302">
        <ele>61.0</ele>
        <time>2020-11-28T07:36:24Z</time>
      </trkpt>
      <trkpt lat="38.40736" lon="-0.46333">
        <ele>62.0</ele>
        <time>2020-11-28T07:36:27Z</time>
      </trkpt>
      <trkpt lat="38.40742" lon="-0.46351">
        <ele>62.0</ele>
        <time>2020-11-28T07:36:31Z</time>
      </trkpt>
      <trkpt lat="38.40748" lon="-0.46369">
        <ele>62.0</ele>
        <time>2020-11-28T07:36:35Z</time>
      </trkpt>
      <trkpt lat="38.40773" lon="-0.46375">
        <ele>62.0</ele>
        <time>2020-11-28T07:36:38Z</time>
      </trkpt>
      <trkpt lat="38.40789" lon="-0.46392">
        <ele>62.0</ele>
        <time>2020-11-28T07:36:41Z</time>
      </trkpt>
      <trkpt lat="38.40799" lon="-0.46420">
        <ele>62.0</ele>
        <time>2020-11-28T07:36:44Z</time>
      </trkpt>
      <trkpt lat="38.40828" lon="-0.46446">
        <ele>63.0</ele>
        <time>2020-11-28T07:36:47Z</time>
      </trkpt>
      <trkpt lat="38.40873" lon="-0.46476">
        <ele>65.0</ele>
        <time>2020-11-28T07:36:50Z</time>
      </trkpt>
      <trkpt lat="38.40922" lon="-0.46508">
        <ele>65.0</ele>
        <time>2020-11-28T07:36:54Z</time>
      </trkpt>
      <trkpt lat="38.40973" lon="-0.46540">
        <ele>67.0</ele>
        <time>2020-11-28T07:36:57Z</time>
      </trkpt>
      <trkpt lat="38.41023" lon="-0.46567">
        <ele>67.0</ele>
        <time>2020-11-28T07:37:00Z</time>
      </trkpt>
      <trkpt lat="38.41063" lon="-0.46572">
        <ele>68.0</ele>
        <time>2020-11-28T07:37:03Z</time>
      </trkpt>
      <trkpt lat="38.41102" lon="-0.46567">
        <ele>69.0</ele>
        <time>2020-11-28T07:37:06Z</time>
      </trkpt>
      <trkpt lat="38.41152" lon="-0.46549">
        <ele>68.0</ele>
        <time>2020-11-28T07:37:09Z</time>
      </trkpt>
      <trkpt lat="38.41205" lon="-0.46525">
        <ele>70.0</ele>
        <time>2020-11-28T07:37:13Z</time>
      </trkpt>
      <trkpt lat="38.41255" lon="-0.46504">
        <ele>71.0</ele>
        <time>2020-11-28T07:37:16Z</time>
      </trkpt>
      <trkpt lat="38.41310" lon="-0.46491">
        <ele>71.0</ele>
        <time>2020-11-28T07:37:19Z</time>
      </trkpt>
      <trkpt lat="38.41358" lon="-0.46489">
        <ele>72.0</ele>
        <time>2020-11-28T07:37:22Z</time>
      </trkpt>
      <trkpt lat="38.41398" lon="-0.46488">
        <ele>72.0</ele>
        <time>2020-11-28T07:37:25Z</time>
      </trkpt>
      <trkpt lat="38.41431" lon="-0.46475">
        <ele>71.0</ele>
        <time>2020-11-28T07:37:28Z</time>
      </trkpt>
      <trkpt lat="38.41473" lon="-0.46455">
        <ele>71.0</ele>
        <time>2020-11-28T07:37:32Z</time>
      </trkpt>
      <trkpt lat="38.41509" lon="-0.46440">
        <ele>72.0</ele>
        <time>2020-11-28T07:37:35Z</time>
      </trkpt>
      <trkpt lat="38.41538" lon="-0.46427">
        <ele>72.0</ele>
        <time>2020-11-28T07:37:38Z</time>
      </trkpt>
      <trkpt lat="38.41554" lon="-0.46420">
        <ele>73.0</ele>
        <time>2020-11-28T07:37:41Z</time>
      </trkpt>
      <trkpt lat="38.41567" lon="-0.46416">
        <ele>73.0</ele>
        <time>2020-11-28T07:38:16Z</time>
      </trkpt>
      <trkpt lat="38.41605" lon="-0.46406">
        <ele>74.0</ele>
        <time>2020-11-28T07:38:19Z</time>
      </trkpt>
      <trkpt lat="38.41650" lon="-0.46398">
        <ele>75.0</ele>
        <time>2020-11-28T07:38:22Z</time>
      </trkpt>
      <trkpt lat="38.41703" lon="-0.46384">
        <ele>76.0</ele>
        <time>2020-11-28T07:38:25Z</time>
      </trkpt>
      <trkpt lat="38.41766" lon="-0.46361">
        <ele>78.0</ele>
        <time>2020-11-28T07:38:28Z</time>
      </trkpt>
      <trkpt lat="38.41836" lon="-0.46340">
        <ele>79.0</ele>
        <time>2020-11-28T07:38:32Z</time>
      </trkpt>
      <trkpt lat="38.41905" lon="-0.46322">
        <ele>80.0</ele>
        <time>2020-11-28T07:38:35Z</time>
      </trkpt>
      <trkpt lat="38.41972" lon="-0.46305">
        <ele>82.0</ele>
        <time>2020-11-28T07:38:38Z</time>
      </trkpt>
      <trkpt lat="38.42032" lon="-0.46289">
        <ele>82.0</ele>
        <time>2020-11-28T07:38:41Z</time>
      </trkpt>
      <trkpt lat="38.42086" lon="-0.46276">
        <ele>82.0</ele>
        <time>2020-11-28T07:38:44Z</time>
      </trkpt>
      <trkpt lat="38.42139" lon="-0.46274">
        <ele>82.0</ele>
        <time>2020-11-28T07:38:47Z</time>
      </trkpt>
      <trkpt lat="38.42198" lon="-0.46286">
        <ele>84.0</ele>
        <time>2020-11-28T07:38:51Z</time>
      </trkpt>
      <trkpt lat="38.42260" lon="-0.46304">
        <ele>85.0</ele>
        <time>2020-11-28T07:38:54Z</time>
      </trkpt>
      <trkpt lat="38.42306" lon="-0.46316">
        <ele>86.0</ele>
        <time>2020-11-28T07:38:57Z</time>
      </trkpt>
      <trkpt lat="38.42369" lon="-0.46340">
        <ele>88.0</ele>
        <time>2020-11-28T07:39:00Z</time>
      </trkpt>
      <trkpt lat="38.42414" lon="-0.46347">
        <ele>87.0</ele>
        <time>2020-11-28T07:39:03Z</time>
      </trkpt>
      <trkpt lat="38.42467" lon="-0.46351">
        <ele>87.0</ele>
        <time>2020-11-28T07:39:06Z</time>
      </trkpt>
      <trkpt lat="38.42526" lon="-0.46364">
        <ele>88.0</ele>
        <time>2020-11-28T07:39:09Z</time>
      </trkpt>
      <trkpt lat="38.42591" lon="-0.46377">
        <ele>89.0</ele>
        <time>2020-11-28T07:39:13Z</time>
      </trkpt>
      <trkpt lat="38.42654" lon="-0.46392">
        <ele>91.0</ele>
        <time>2020-11-28T07:39:16Z</time>
      </trkpt>
      <trkpt lat="38.42705" lon="-0.46403">
        <ele>93.0</ele>
        <time>2020-11-28T07:39:19Z</time>
      </trkpt>
      <trkpt lat="38.42743" lon="-0.46427">
        <ele>95.0</ele>
        <time>2020-11-28T07:39:22Z</time>
      </trkpt>
      <trkpt lat="38.42779" lon="-0.46463">
        <ele>95.0</ele>
        <time>2020-11-28T07:39:25Z</time>
      </trkpt>
      <trkpt lat="38.42818" lon="-0.46486">
        <ele>95.0</ele>
        <time>2020-11-28T07:39:28Z</time>
      </trkpt>
      <trkpt lat="38.42854" lon="-0.46490">
        <ele>95.0</ele>
        <time>2020-11-28T07:39:32Z</time>
      </trkpt>
      <trkpt lat="38.42912" lon="-0.46491">
        <ele>96.0</ele>
        <time>2020-11-28T07:39:35Z</time>
      </trkpt>
      <trkpt lat="38.42972" lon="-0.46491">
        <ele>97.0</ele>
        <time>2020-11-28T07:39:38Z</time>
      </trkpt>
      <trkpt lat="38.43044" lon="-0.46491">
        <ele>98.0</ele>
        <time>2020-11-28T07:39:41Z</time>
      </trkpt>
      <trkpt lat="38.43119" lon="-0.46490">
        <ele>97.0</ele>
        <time>2020-11-28T07:39:44Z</time>
      </trkpt>
      <trkpt lat="38.43189" lon="-0.46490">
        <ele>99.0</ele>
        <time>2020-11-28T07:39:48Z</time>
      </trkpt>
      <trkpt lat="38.43255" lon="-0.46496">
        <ele>102.0</ele>
        <time>2020-11-28T07:39:51Z</time>
      </trkpt>
      <trkpt lat="38.43312" lon="-0.46508">
        <ele>104.0</ele>
        <time>2020-11-28T07:39:54Z</time>
      </trkpt>
      <trkpt lat="38.43371" lon="-0.46521">
        <ele>106.0</ele>
        <time>2020-11-28T07:39:57Z</time>
      </trkpt>
      <trkpt lat="38.43437" lon="-0.46534">
        <ele>107.0</ele>
        <time>2020-11-28T07:40:00Z</time>
      </trkpt>
      <trkpt lat="38.43489" lon="-0.46547">
        <ele>107.0</ele>
        <time>2020-11-28T07:40:04Z</time>
      </trkpt>
      <trkpt lat="38.43530" lon="-0.46551">
        <ele>109.0</ele>
        <time>2020-11-28T07:40:07Z</time>
      </trkpt>
      <trkpt lat="38.43558" lon="-0.46551">
        <ele>111.0</ele>
        <time>2020-11-28T07:40:10Z</time>
      </trkpt>
      <trkpt lat="38.43580" lon="-0.46528">
        <ele>111.0</ele>
        <time>2020-11-28T07:40:13Z</time>
      </trkpt>
      <trkpt lat="38.43617" lon="-0.46504">
        <ele>111.0</ele>
        <time>2020-11-28T07:40:16Z</time>
      </trkpt>
      <trkpt lat="38.43654" lon="-0.46490">
        <ele>111.0</ele>
        <time>2020-11-28T07:40:19Z</time>
      </trkpt>
      <trkpt lat="38.43672" lon="-0.46473">
        <ele>112.0</ele>
        <time>2020-11-28T07:40:23Z</time>
      </trkpt>
      <trkpt lat="38.43689" lon="-0.46436">
        <ele>113.0</ele>
        <time>2020-11-28T07:40:26Z</time>
      </trkpt>
      <trkpt lat="38.43698" lon="-0.46389">
        <ele>114.0</ele>
        <time>2020-11-28T07:40:29Z</time>
      </trkpt>
      <trkpt lat="38.43706" lon="-0.46336">
        <ele>113.0</ele>
        <time>2020-11-28T07:40:32Z</time>
      </trkpt>
      <trkpt lat="38.43713" lon="-0.46278">
        <ele>112.0</ele>
        <time>2020-11-28T07:40:35Z</time>
      </trkpt>
      <trkpt lat="38.43720" lon="-0.46207">
        <ele>112.0</ele>
        <time>2020-11-28T07:40:38Z</time>
      </trkpt>
      <trkpt lat="38.43728" lon="-0.46110">
        <ele>112.0</ele>
        <time>2020-11-28T07:40:42Z</time>
      </trkpt>
      <trkpt lat="38.43736" lon="-0.46018">
        <ele>112.0</ele>
        <time>2020-11-28T07:40:45Z</time>
      </trkpt>
      <trkpt lat="38.43742" lon="-0.45950">
        <ele>112.0</ele>
        <time>2020-11-28T07:40:48Z</time>
      </trkpt>
      <trkpt lat="38.43740" lon="-0.45901">
        <ele>110.0</ele>
        <time>2020-11-28T07:40:51Z</time>
      </trkpt>
      <trkpt lat="38.43727" lon="-0.45860">
        <ele>110.0</ele>
        <time>2020-11-28T07:40:54Z</time>
      </trkpt>
      <trkpt lat="38.43693" lon="-0.45821">
        <ele>109.0</ele>
        <time>2020-11-28T07:40:57Z</time>
      </trkpt>
      <trkpt lat="38.43649" lon="-0.45773">
        <ele>108.0</ele>
        <time>2020-11-28T07:41:01Z</time>
      </trkpt>
      <trkpt lat="38.43614" lon="-0.45727">
        <ele>107.0</ele>
        <time>2020-11-28T07:41:04Z</time>
      </trkpt>
      <trkpt lat="38.43586" lon="-0.45683">
        <ele>104.0</ele>
        <time>2020-11-28T07:41:07Z</time>
      </trkpt>
      <trkpt lat="38.43566" lon="-0.45629">
        <ele>103.0</ele>
        <time>2020-11-28T07:41:10Z</time>
      </trkpt>
      <trkpt lat="38.43551" lon="-0.45572">
        <ele>100.0</ele>
        <time>2020-11-28T07:41:13Z</time>
      </trkpt>
      <trkpt lat="38.43528" lon="-0.45522">
        <ele>99.0</ele>
        <time>2020-11-28T07:41:16Z</time>
      </trkpt>
      <trkpt lat="38.43491" lon="-0.45460">
        <ele>99.0</ele>
        <time>2020-11-28T07:41:19Z</time>
      </trkpt>
      <trkpt lat="38.43454" lon="-0.45401">
        <ele>97.0</ele>
        <time>2020-11-28T07:41:23Z</time>
      </trkpt>
      <trkpt lat="38.43428" lon="-0.45358">
        <ele>96.0</ele>
        <time>2020-11-28T07:41:26Z</time>
      </trkpt>
      <trkpt lat="38.43397" lon="-0.45326">
        <ele>97.0</ele>
        <time>2020-11-28T07:41:29Z</time>
      </trkpt>
      <trkpt lat="38.43368" lon="-0.45292">
        <ele>97.0</ele>
        <time>2020-11-28T07:41:32Z</time>
      </trkpt>
      <trkpt lat="38.43349" lon="-0.45269">
        <ele>97.0</ele>
        <time>2020-11-28T07:41:35Z</time>
      </trkpt>
      <trkpt lat="38.43337" lon="-0.45267">
        <ele>96.0</ele>
        <time>2020-11-28T07:41:38Z</time>
      </trkpt>
      <trkpt lat="38.43308" lon="-0.45249">
        <ele>96.0</ele>
        <time>2020-11-28T07:41:42Z</time>
      </trkpt>
      <trkpt lat="38.43320" lon="-0.45220">
        <ele>96.0</ele>
        <time>2020-11-28T07:41:45Z</time>
      </trkpt>
      <trkpt lat="38.43342" lon="-0.45235">
        <ele>97.0</ele>
        <time>2020-11-28T07:41:48Z</time>
      </trkpt>
      <trkpt lat="38.43347" lon="-0.45266">
        <ele>97.0</ele>
        <time>2020-11-28T07:41:51Z</time>
      </trkpt>
      <trkpt lat="38.43377" lon="-0.45304">
        <ele>98.0</ele>
        <time>2020-11-28T07:41:54Z</time>
      </trkpt>
      <trkpt lat="38.43413" lon="-0.45342">
        <ele>98.0</ele>
        <time>2020-11-28T07:41:57Z</time>
      </trkpt>
      <trkpt lat="38.43462" lon="-0.45392">
        <ele>97.0</ele>
        <time>2020-11-28T07:42:01Z</time>
      </trkpt>
      <trkpt lat="38.43500" lon="-0.45427">
        <ele>97.0</ele>
        <time>2020-11-28T07:42:04Z</time>
      </trkpt>
      <trkpt lat="38.43524" lon="-0.45447">
        <ele>96.0</ele>
        <time>2020-11-28T07:42:07Z</time>
      </trkpt>
      <trkpt lat="38.43543" lon="-0.45456">
        <ele>96.0</ele>
        <time>2020-11-28T07:42:10Z</time>
      </trkpt>
      <trkpt lat="38.43556" lon="-0.45457">
        <ele>96.0</ele>
        <time>2020-11-28T07:42:13Z</time>
      </trkpt>
      <trkpt lat="38.43570" lon="-0.45427">
        <ele>95.0</ele>
        <time>2020-11-28T07:42:17Z</time>
      </trkpt>
      <trkpt lat="38.43593" lon="-0.45440">
        <ele>95.0</ele>
        <time>2020-11-28T07:42:20Z</time>
      </trkpt>
      <trkpt lat="38.43615" lon="-0.45481">
        <ele>94.0</ele>
        <time>2020-11-28T07:42:23Z</time>
      </trkpt>
      <trkpt lat="38.43651" lon="-0.45521">
        <ele>93.0</ele>
        <time>2020-11-28T07:42:26Z</time>
      </trkpt>
      <trkpt lat="38.43699" lon="-0.45574">
        <ele>91.0</ele>
        <time>2020-11-28T07:42:29Z</time>
      </trkpt>
      <trkpt lat="38.43746" lon="-0.45615">
        <ele>92.0</ele>
        <time>2020-11-28T07:42:32Z</time>
      </trkpt>
      <trkpt lat="38.43804" lon="-0.45646">
        <ele>93.0</ele>
        <time>2020-11-28T07:42:35Z</time>
      </trkpt>
      <trkpt lat="38.43859" lon="-0.45682">
        <ele>94.0</ele>
        <time>2020-11-28T07:42:38Z</time>
      </trkpt>
      <trkpt lat="38.43904" lon="-0.45736">
        <ele>97.0</ele>
        <time>2020-11-28T07:42:42Z</time>
      </trkpt>
      <trkpt lat="38.43952" lon="-0.45806">
        <ele>101.0</ele>
        <time>2020-11-28T07:42:45Z</time>
      </trkpt>
      <trkpt lat="38.43994" lon="-0.45870">
        <ele>104.0</ele>
        <time>2020-11-28T07:42:48Z</time>
      </trkpt>
      <trkpt lat="38.44024" lon="-0.45898">
        <ele>109.0</ele>
        <time>2020-11-28T07:42:51Z</time>
      </trkpt>
      <trkpt lat="38.44041" lon="-0.45924">
        <ele>111.0</ele>
        <time>2020-11-28T07:42:54Z</time>
      </trkpt>
      <trkpt lat="38.44049" lon="-0.45935">
        <ele>111.0</ele>
        <time>2020-11-28T07:42:58Z</time>
      </trkpt>
      <trkpt lat="38.44081" lon="-0.45940">
        <ele>112.0</ele>
        <time>2020-11-28T07:43:01Z</time>
      </trkpt>
      <trkpt lat="38.44094" lon="-0.45969">
        <ele>114.0</ele>
        <time>2020-11-28T07:43:04Z</time>
      </trkpt>
      <trkpt lat="38.44112" lon="-0.46005">
        <ele>114.0</ele>
        <time>2020-11-28T07:43:07Z</time>
      </trkpt>
      <trkpt lat="38.44144" lon="-0.46038">
        <ele>114.0</ele>
        <time>2020-11-28T07:43:10Z</time>
      </trkpt>
      <trkpt lat="38.44195" lon="-0.46072">
        <ele>114.0</ele>
        <time>2020-11-28T07:43:13Z</time>
      </trkpt>
      <trkpt lat="38.44249" lon="-0.46105">
        <ele>115.0</ele>
        <time>2020-11-28T07:43:16Z</time>
      </trkpt>
      <trkpt lat="38.44319" lon="-0.46148">
        <ele>117.0</ele>
        <time>2020-11-28T07:43:20Z</time>
      </trkpt>
      <trkpt lat="38.44375" lon="-0.46182">
        <ele>117.0</ele>
        <time>2020-11-28T07:43:23Z</time>
      </trkpt>
      <trkpt lat="38.44437" lon="-0.46221">
        <ele>118.0</ele>
        <time>2020-11-28T07:43:26Z</time>
      </trkpt>
      <trkpt lat="38.44498" lon="-0.46258">
        <ele>118.0</ele>
        <time>2020-11-28T07:43:29Z</time>
      </trkpt>
      <trkpt lat="38.44566" lon="-0.46300">
        <ele>120.0</ele>
        <time>2020-11-28T07:43:32Z</time>
      </trkpt>
      <trkpt lat="38.44631" lon="-0.46340">
        <ele>121.0</ele>
        <time>2020-11-28T07:43:35Z</time>
      </trkpt>
      <trkpt lat="38.44690" lon="-0.46376">
        <ele>121.0</ele>
        <time>2020-11-28T07:43:38Z</time>
      </trkpt>
      <trkpt lat="38.44744" lon="-0.46409">
        <ele>122.0</ele>
        <time>2020-11-28T07:43:41Z</time>
      </trkpt>
      <trkpt lat="38.44795" lon="-0.46441">
        <ele>123.0</ele>
        <time>2020-11-28T07:43:44Z</time>
      </trkpt>
      <trkpt lat="38.44846" lon="-0.46472">
        <ele>124.0</ele>
        <time>2020-11-28T07:43:48Z</time>
      </trkpt>
      <trkpt lat="38.44893" lon="-0.46501">
        <ele>125.0</ele>
        <time>2020-11-28T07:43:51Z</time>
      </trkpt>
      <trkpt lat="38.44940" lon="-0.46530">
        <ele>127.0</ele>
        <time>2020-11-28T07:43:54Z</time>
      </trkpt>
      <trkpt lat="38.44989" lon="-0.46559">
        <ele>129.0</ele>
        <time>2020-11-28T07:43:57Z</time>
      </trkpt>
      <trkpt lat="38.45033" lon="-0.46587">
        <ele>131.0</ele>
        <time>2020-11-28T07:44:00Z</time>
      </trkpt>
      <trkpt lat="38.45079" lon="-0.46617">
        <ele>133.0</ele>
        <time>2020-11-28T07:44:03Z</time>
      </trkpt>
      <trkpt lat="38.45128" lon="-0.46648">
        <ele>136.0</ele>
        <time>2020-11-28T07:44:07Z</time>
      </trkpt>
      <trkpt lat="38.45176" lon="-0.46674">
        <ele>138.0</ele>
        <time>2020-11-28T07:44:10Z</time>
      </trkpt>
      <trkpt lat="38.45222" lon="-0.46699">
        <ele>138.0</ele>
        <time>2020-11-28T07:44:13Z</time>
      </trkpt>
      <trkpt lat="38.45264" lon="-0.46723">
        <ele>140.0</ele>
        <time>2020-11-28T07:44:16Z</time>
      </trkpt>
      <trkpt lat="38.45307" lon="-0.46744">
        <ele>141.0</ele>
        <time>2020-11-28T07:44:19Z</time>
      </trkpt>
      <trkpt lat="38.45352" lon="-0.46758">
        <ele>142.0</ele>
        <time>2020-11-28T07:44:22Z</time>
      </trkpt>
      <trkpt lat="38.45409" lon="-0.46772">
        <ele>143.0</ele>
        <time>2020-11-28T07:44:26Z</time>
      </trkpt>
      <trkpt lat="38.45469" lon="-0.46782">
        <ele>142.0</ele>
        <time>2020-11-28T07:44:29Z</time>
      </trkpt>
      <trkpt lat="38.45530" lon="-0.46792">
        <ele>142.0</ele>
        <time>2020-11-28T07:44:32Z</time>
      </trkpt>
      <trkpt lat="38.45600" lon="-0.46804">
        <ele>143.0</ele>
        <time>2020-11-28T07:44:35Z</time>
      </trkpt>
      <trkpt lat="38.45664" lon="-0.46815">
        <ele>144.0</ele>
        <time>2020-11-28T07:44:38Z</time>
      </trkpt>
      <trkpt lat="38.45728" lon="-0.46827">
        <ele>145.0</ele>
        <time>2020-11-28T07:44:41Z</time>
      </trkpt>
      <trkpt lat="38.45787" lon="-0.46839">
        <ele>147.0</ele>
        <time>2020-11-28T07:44:44Z</time>
      </trkpt>
      <trkpt lat="38.45844" lon="-0.46858">
        <ele>149.0</ele>
        <time>2020-11-28T07:44:48Z</time>
      </trkpt>
      <trkpt lat="38.45904" lon="-0.46887">
        <ele>152.0</ele>
        <time>2020-11-28T07:44:51Z</time>
      </trkpt>
      <trkpt lat="38.45959" lon="-0.46913">
        <ele>155.0</ele>
        <time>2020-11-28T07:44:54Z</time>
      </trkpt>
      <trkpt lat="38.46004" lon="-0.46935">
        <ele>156.0</ele>
        <time>2020-11-28T07:44:57Z</time>
      </trkpt>
      <trkpt lat="38.46045" lon="-0.46952">
        <ele>158.0</ele>
        <time>2020-11-28T07:45:00Z</time>
      </trkpt>
      <trkpt lat="38.46089" lon="-0.46973">
        <ele>160.0</ele>
        <time>2020-11-28T07:45:03Z</time>
      </trkpt>
      <trkpt lat="38.46134" lon="-0.46996">
        <ele>162.0</ele>
        <time>2020-11-28T07:45:06Z</time>
      </trkpt>
      <trkpt lat="38.46181" lon="-0.47020">
        <ele>162.0</ele>
        <time>2020-11-28T07:45:10Z</time>
      </trkpt>
      <trkpt lat="38.46231" lon="-0.47043">
        <ele>163.0</ele>
        <time>2020-11-28T07:45:13Z</time>
      </trkpt>
      <trkpt lat="38.46284" lon="-0.47068">
        <ele>165.0</ele>
        <time>2020-11-28T07:45:16Z</time>
      </trkpt>
      <trkpt lat="38.46333" lon="-0.47091">
        <ele>167.0</ele>
        <time>2020-11-28T07:45:19Z</time>
      </trkpt>
      <trkpt lat="38.46386" lon="-0.47117">
        <ele>170.0</ele>
        <time>2020-11-28T07:45:22Z</time>
      </trkpt>
      <trkpt lat="38.46438" lon="-0.47141">
        <ele>173.0</ele>
        <time>2020-11-28T07:45:25Z</time>
      </trkpt>
      <trkpt lat="38.46490" lon="-0.47165">
        <ele>176.0</ele>
        <time>2020-11-28T07:45:29Z</time>
      </trkpt>
      <trkpt lat="38.46544" lon="-0.47191">
        <ele>179.0</ele>
        <time>2020-11-28T07:45:32Z</time>
      </trkpt>
      <trkpt lat="38.46595" lon="-0.47216">
        <ele>181.0</ele>
        <time>2020-11-28T07:45:35Z</time>
      </trkpt>
      <trkpt lat="38.46648" lon="-0.47237">
        <ele>184.0</ele>
        <time>2020-11-28T07:45:38Z</time>
      </trkpt>
      <trkpt lat="38.46708" lon="-0.47257">
        <ele>185.0</ele>
        <time>2020-11-28T07:45:41Z</time>
      </trkpt>
      <trkpt lat="38.46781" lon="-0.47282">
        <ele>185.0</ele>
        <time>2020-11-28T07:45:45Z</time>
      </trkpt>
      <trkpt lat="38.46860" lon="-0.47307">
        <ele>184.0</ele>
        <time>2020-11-28T07:45:48Z</time>
      </trkpt>
      <trkpt lat="38.46932" lon="-0.47329">
        <ele>186.0</ele>
        <time>2020-11-28T07:45:51Z</time>
      </trkpt>
      <trkpt lat="38.47003" lon="-0.47352">
        <ele>186.0</ele>
        <time>2020-11-28T07:45:54Z</time>
      </trkpt>
      <trkpt lat="38.47074" lon="-0.47374">
        <ele>186.0</ele>
        <time>2020-11-28T07:45:57Z</time>
      </trkpt>
      <trkpt lat="38.47143" lon="-0.47395">
        <ele>188.0</ele>
        <time>2020-11-28T07:46:01Z</time>
      </trkpt>
      <trkpt lat="38.47211" lon="-0.47416">
        <ele>191.0</ele>
        <time>2020-11-28T07:46:04Z</time>
      </trkpt>
      <trkpt lat="38.47291" lon="-0.47441">
        <ele>194.0</ele>
        <time>2020-11-28T07:46:07Z</time>
      </trkpt>
      <trkpt lat="38.47351" lon="-0.47460">
        <ele>195.0</ele>
        <time>2020-11-28T07:46:10Z</time>
      </trkpt>
      <trkpt lat="38.47427" lon="-0.47484">
        <ele>195.0</ele>
        <time>2020-11-28T07:46:13Z</time>
      </trkpt>
      <trkpt lat="38.47506" lon="-0.47509">
        <ele>195.0</ele>
        <time>2020-11-28T07:46:17Z</time>
      </trkpt>
      <trkpt lat="38.47603" lon="-0.47539">
        <ele>199.0</ele>
        <time>2020-11-28T07:46:21Z</time>
      </trkpt>
      <trkpt lat="38.47667" lon="-0.47559">
        <ele>202.0</ele>
        <time>2020-11-28T07:46:24Z</time>
      </trkpt>
      <trkpt lat="38.47720" lon="-0.47575">
        <ele>204.0</ele>
        <time>2020-11-28T07:46:27Z</time>
      </trkpt>
      <trkpt lat="38.47760" lon="-0.47575">
        <ele>204.0</ele>
        <time>2020-11-28T07:46:30Z</time>
      </trkpt>
      <trkpt lat="38.47795" lon="-0.47564">
        <ele>207.0</ele>
        <time>2020-11-28T07:46:33Z</time>
      </trkpt>
      <trkpt lat="38.47837" lon="-0.47541">
        <ele>208.0</ele>
        <time>2020-11-28T07:46:36Z</time>
      </trkpt>
      <trkpt lat="38.47890" lon="-0.47501">
        <ele>208.0</ele>
        <time>2020-11-28T07:46:40Z</time>
      </trkpt>
      <trkpt lat="38.47938" lon="-0.47457">
        <ele>209.0</ele>
        <time>2020-11-28T07:46:43Z</time>
      </trkpt>
      <trkpt lat="38.47982" lon="-0.47437">
        <ele>210.0</ele>
        <time>2020-11-28T07:46:46Z</time>
      </trkpt>
      <trkpt lat="38.48037" lon="-0.47431">
        <ele>212.0</ele>
        <time>2020-11-28T07:46:49Z</time>
      </trkpt>
      <trkpt lat="38.48107" lon="-0.47429">
        <ele>215.0</ele>
        <time>2020-11-28T07:46:52Z</time>
      </trkpt>
      <trkpt lat="38.48181" lon="-0.47428">
        <ele>219.0</ele>
        <time>2020-11-28T07:46:55Z</time>
      </trkpt>
      <trkpt lat="38.48257" lon="-0.47426">
        <ele>222.0</ele>
        <time>2020-11-28T07:46:59Z</time>
      </trkpt>
      <trkpt lat="38.48325" lon="-0.47424">
        <ele>224.0</ele>
        <time>2020-11-28T07:47:02Z</time>
      </trkpt>
      <trkpt lat="38.48377" lon="-0.47426">
        <ele>225.0</ele>
        <time>2020-11-28T07:47:05Z</time>
      </trkpt>
      <trkpt lat="38.48416" lon="-0.47448">
        <ele>225.0</ele>
        <time>2020-11-28T07:47:08Z</time>
      </trkpt>
      <trkpt lat="38.48457" lon="-0.47486">
        <ele>227.0</ele>
        <time>2020-11-28T07:47:11Z</time>
      </trkpt>
      <trkpt lat="38.48510" lon="-0.47534">
        <ele>226.0</ele>
        <time>2020-11-28T07:47:15Z</time>
      </trkpt>
      <trkpt lat="38.48565" lon="-0.47583">
        <ele>224.0</ele>
        <time>2020-11-28T07:47:18Z</time>
      </trkpt>
      <trkpt lat="38.48626" lon="-0.47636">
        <ele>227.0</ele>
        <time>2020-11-28T07:47:21Z</time>
      </trkpt>
      <trkpt lat="38.48676" lon="-0.47682">
        <ele>228.0</ele>
        <time>2020-11-28T07:47:24Z</time>
      </trkpt>
      <trkpt lat="38.48713" lon="-0.47715">
        <ele>229.0</ele>
        <time>2020-11-28T07:47:27Z</time>
      </trkpt>
      <trkpt lat="38.48754" lon="-0.47733">
        <ele>230.0</ele>
        <time>2020-11-28T07:47:30Z</time>
      </trkpt>
      <trkpt lat="38.48808" lon="-0.47736">
        <ele>232.0</ele>
        <time>2020-11-28T07:47:33Z</time>
      </trkpt>
      <trkpt lat="38.48875" lon="-0.47736">
        <ele>233.0</ele>
        <time>2020-11-28T07:47:37Z</time>
      </trkpt>
      <trkpt lat="38.48935" lon="-0.47742">
        <ele>233.0</ele>
        <time>2020-11-28T07:47:40Z</time>
      </trkpt>
      <trkpt lat="38.48993" lon="-0.47770">
        <ele>235.0</ele>
        <time>2020-11-28T07:47:43Z</time>
      </trkpt>
      <trkpt lat="38.49068" lon="-0.47805">
        <ele>236.0</ele>
        <time>2020-11-28T07:47:47Z</time>
      </trkpt>
      <trkpt lat="38.49141" lon="-0.47842">
        <ele>238.0</ele>
        <time>2020-11-28T07:47:50Z</time>
      </trkpt>
      <trkpt lat="38.49212" lon="-0.47879">
        <ele>237.0</ele>
        <time>2020-11-28T07:47:53Z</time>
      </trkpt>
      <trkpt lat="38.49272" lon="-0.47909">
        <ele>238.0</ele>
        <time>2020-11-28T07:47:56Z</time>
      </trkpt>
      <trkpt lat="38.49328" lon="-0.47927">
        <ele>240.0</ele>
        <time>2020-11-28T07:47:59Z</time>
      </trkpt>
      <trkpt lat="38.49392" lon="-0.47935">
        <ele>241.0</ele>
        <time>2020-11-28T07:48:02Z</time>
      </trkpt>
      <trkpt lat="38.49467" lon="-0.47946">
        <ele>242.0</ele>
        <time>2020-11-28T07:48:05Z</time>
      </trkpt>
      <trkpt lat="38.49535" lon="-0.47955">
        <ele>239.0</ele>
        <time>2020-11-28T07:48:09Z</time>
      </trkpt>
      <trkpt lat="38.49598" lon="-0.47964">
        <ele>235.0</ele>
        <time>2020-11-28T07:48:12Z</time>
      </trkpt>
      <trkpt lat="38.49643" lon="-0.47975">
        <ele>237.0</ele>
        <time>2020-11-28T07:48:15Z</time>
      </trkpt>
      <trkpt lat="38.49690" lon="-0.48013">
        <ele>240.0</ele>
        <time>2020-11-28T07:48:18Z</time>
      </trkpt>
      <trkpt lat="38.49741" lon="-0.48065">
        <ele>244.0</ele>
        <time>2020-11-28T07:48:21Z</time>
      </trkpt>
      <trkpt lat="38.49781" lon="-0.48099">
        <ele>246.0</ele>
        <time>2020-11-28T07:48:24Z</time>
      </trkpt>
      <trkpt lat="38.49823" lon="-0.48120">
        <ele>248.0</ele>
        <time>2020-11-28T07:48:28Z</time>
      </trkpt>
      <trkpt lat="38.49875" lon="-0.48133">
        <ele>252.0</ele>
        <time>2020-11-28T07:48:31Z</time>
      </trkpt>
      <trkpt lat="38.49929" lon="-0.48153">
        <ele>255.0</ele>
        <time>2020-11-28T07:48:34Z</time>
      </trkpt>
      <trkpt lat="38.49989" lon="-0.48187">
        <ele>259.0</ele>
        <time>2020-11-28T07:48:37Z</time>
      </trkpt>
      <trkpt lat="38.50063" lon="-0.48229">
        <ele>261.0</ele>
        <time>2020-11-28T07:48:40Z</time>
      </trkpt>
      <trkpt lat="38.50137" lon="-0.48270">
        <ele>266.0</ele>
        <time>2020-11-28T07:48:43Z</time>
      </trkpt>
      <trkpt lat="38.50212" lon="-0.48313">
        <ele>268.0</ele>
        <time>2020-11-28T07:48:47Z</time>
      </trkpt>
      <trkpt lat="38.50283" lon="-0.48353">
        <ele>271.0</ele>
        <time>2020-11-28T07:48:50Z</time>
      </trkpt>
      <trkpt lat="38.50358" lon="-0.48396">
        <ele>275.0</ele>
        <time>2020-11-28T07:48:53Z</time>
      </trkpt>
      <trkpt lat="38.50428" lon="-0.48436">
        <ele>280.0</ele>
        <time>2020-11-28T07:48:56Z</time>
      </trkpt>
      <trkpt lat="38.50493" lon="-0.48472">
        <ele>283.0</ele>
        <time>2020-11-28T07:48:59Z</time>
      </trkpt>
      <trkpt lat="38.50547" lon="-0.48503">
        <ele>284.0</ele>
        <time>2020-11-28T07:49:03Z</time>
      </trkpt>
      <trkpt lat="38.50585" lon="-0.48524">
        <ele>286.0</ele>
        <time>2020-11-28T07:49:06Z</time>
      </trkpt>
      <trkpt lat="38.50638" lon="-0.48527">
        <ele>288.0</ele>
        <time>2020-11-28T07:49:09Z</time>
      </trkpt>
      <trkpt lat="38.50674" lon="-0.48517">
        <ele>290.0</ele>
        <time>2020-11-28T07:49:12Z</time>
      </trkpt>
      <trkpt lat="38.50744" lon="-0.48496">
        <ele>293.0</ele>
        <time>2020-11-28T07:49:15Z</time>
      </trkpt>
      <trkpt lat="38.50814" lon="-0.48474">
        <ele>296.0</ele>
        <time>2020-11-28T07:49:18Z</time>
      </trkpt>
      <trkpt lat="38.50893" lon="-0.48450">
        <ele>299.0</ele>
        <time>2020-11-28T07:49:21Z</time>
      </trkpt>
      <trkpt lat="38.50950" lon="-0.48433">
        <ele>302.0</ele>
        <time>2020-11-28T07:49:25Z</time>
      </trkpt>
      <trkpt lat="38.51021" lon="-0.48427">
        <ele>306.0</ele>
        <time>2020-11-28T07:49:28Z</time>
      </trkpt>
      <trkpt lat="38.51098" lon="-0.48421">
        <ele>309.0</ele>
        <time>2020-11-28T07:49:31Z</time>
      </trkpt>
      <trkpt lat="38.51164" lon="-0.48417">
        <ele>312.0</ele>
        <time>2020-11-28T07:49:34Z</time>
      </trkpt>
      <trkpt lat="38.51209" lon="-0.48414">
        <ele>316.0</ele>
        <time>2020-11-28T07:49:37Z</time>
      </trkpt>
      <trkpt lat="38.51251" lon="-0.48428">
        <ele>320.0</ele>
        <time>2020-11-28T07:49:41Z</time>
      </trkpt>
      <trkpt lat="38.51297" lon="-0.48477">
        <ele>324.0</ele>
        <time>2020-11-28T07:49:44Z</time>
      </trkpt>
      <trkpt lat="38.51346" lon="-0.48539">
        <ele>326.0</ele>
        <time>2020-11-28T07:49:47Z</time>
      </trkpt>
      <trkpt lat="38.51399" lon="-0.48606">
        <ele>328.0</ele>
        <time>2020-11-28T07:49:50Z</time>
      </trkpt>
      <trkpt lat="38.51454" lon="-0.48669">
        <ele>327.0</ele>
        <time>2020-11-28T07:49:53Z</time>
      </trkpt>
      <trkpt lat="38.51496" lon="-0.48722">
        <ele>330.0</ele>
        <time>2020-11-28T07:49:57Z</time>
      </trkpt>
      <trkpt lat="38.51528" lon="-0.48761">
        <ele>331.0</ele>
        <time>2020-11-28T07:50:00Z</time>
      </trkpt>
      <trkpt lat="38.51560" lon="-0.48800">
        <ele>331.0</ele>
        <time>2020-11-28T07:50:03Z</time>
      </trkpt>
      <trkpt lat="38.51610" lon="-0.48834">
        <ele>330.0</ele>
        <time>2020-11-28T07:50:06Z</time>
      </trkpt>
      <trkpt lat="38.51652" lon="-0.48863">
        <ele>330.0</ele>
        <time>2020-11-28T07:50:10Z</time>
      </trkpt>
      <trkpt lat="38.51689" lon="-0.48878">
        <ele>330.0</ele>
        <time>2020-11-28T07:50:13Z</time>
      </trkpt>
      <trkpt lat="38.51738" lon="-0.48876">
        <ele>331.0</ele>
        <time>2020-11-28T07:50:16Z</time>
      </trkpt>
      <trkpt lat="38.51779" lon="-0.48874">
        <ele>332.0</ele>
        <time>2020-11-28T07:50:19Z</time>
      </trkpt>
      <trkpt lat="38.51810" lon="-0.48901">
        <ele>334.0</ele>
        <time>2020-11-28T07:50:22Z</time>
      </trkpt>
      <trkpt lat="38.51835" lon="-0.48953">
        <ele>335.0</ele>
        <time>2020-11-28T07:50:25Z</time>
      </trkpt>
      <trkpt lat="38.51859" lon="-0.48997">
        <ele>336.0</ele>
        <time>2020-11-28T07:50:28Z</time>
      </trkpt>
      <trkpt lat="38.51881" lon="-0.49031">
        <ele>337.0</ele>
        <time>2020-11-28T07:50:31Z</time>
      </trkpt>
      <trkpt lat="38.51903" lon="-0.49052">
        <ele>337.0</ele>
        <time>2020-11-28T07:50:35Z</time>
      </trkpt>
      <trkpt lat="38.51907" lon="-0.49070">
        <ele>336.0</ele>
        <time>2020-11-28T07:50:38Z</time>
      </trkpt>
      <trkpt lat="38.51902" lon="-0.49109">
        <ele>336.0</ele>
        <time>2020-11-28T07:50:41Z</time>
      </trkpt>
      <trkpt lat="38.51921" lon="-0.49159">
        <ele>337.0</ele>
        <time>2020-11-28T07:50:44Z</time>
      </trkpt>
      <trkpt lat="38.51945" lon="-0.49214">
        <ele>337.0</ele>
        <time>2020-11-28T07:50:47Z</time>
      </trkpt>
      <trkpt lat="38.51975" lon="-0.49262">
        <ele>337.0</ele>
        <time>2020-11-28T07:50:50Z</time>
      </trkpt>
      <trkpt lat="38.52021" lon="-0.49312">
        <ele>337.0</ele>
        <time>2020-11-28T07:50:53Z</time>
      </trkpt>
      <trkpt lat="38.52059" lon="-0.49350">
        <ele>336.0</ele>
        <time>2020-11-28T07:50:57Z</time>
      </trkpt>
      <trkpt lat="38.52093" lon="-0.49379">
        <ele>332.0</ele>
        <time>2020-11-28T07:51:00Z</time>
      </trkpt>
      <trkpt lat="38.52130" lon="-0.49391">
        <ele>330.0</ele>
        <time>2020-11-28T07:51:03Z</time>
      </trkpt>
      <trkpt lat="38.52178" lon="-0.49405">
        <ele>329.0</ele>
        <time>2020-11-28T07:51:06Z</time>
      </trkpt>
      <trkpt lat="38.52229" lon="-0.49432">
        <ele>326.0</ele>
        <time>2020-11-28T07:51:09Z</time>
      </trkpt>
      <trkpt lat="38.52277" lon="-0.49461">
        <ele>324.0</ele>
        <time>2020-11-28T07:51:12Z</time>
      </trkpt>
      <trkpt lat="38.52325" lon="-0.49491">
        <ele>322.0</ele>
        <time>2020-11-28T07:51:16Z</time>
      </trkpt>
      <trkpt lat="38.52368" lon="-0.49526">
        <ele>321.0</ele>
        <time>2020-11-28T07:51:19Z</time>
      </trkpt>
      <trkpt lat="38.52406" lon="-0.49559">
        <ele>321.0</ele>
        <time>2020-11-28T07:51:22Z</time>
      </trkpt>
      <trkpt lat="38.52442" lon="-0.49572">
        <ele>321.0</ele>
        <time>2020-11-28T07:51:25Z</time>
      </trkpt>
      <trkpt lat="38.52480" lon="-0.49573">
        <ele>321.0</ele>
        <time>2020-11-28T07:51:28Z</time>
      </trkpt>
      <trkpt lat="38.52504" lon="-0.49593">
        <ele>322.0</ele>
        <time>2020-11-28T07:51:31Z</time>
      </trkpt>
      <trkpt lat="38.52506" lon="-0.49631">
        <ele>326.0</ele>
        <time>2020-11-28T07:51:35Z</time>
      </trkpt>
      <trkpt lat="38.52482" lon="-0.49664">
        <ele>330.0</ele>
        <time>2020-11-28T07:51:38Z</time>
      </trkpt>
      <trkpt lat="38.52450" lon="-0.49694">
        <ele>330.0</ele>
        <time>2020-11-28T07:51:41Z</time>
      </trkpt>
      <trkpt lat="38.52434" lon="-0.49713">
        <ele>331.0</ele>
        <time>2020-11-28T07:51:44Z</time>
      </trkpt>
      <trkpt lat="38.52436" lon="-0.49742">
        <ele>333.0</ele>
        <time>2020-11-28T07:51:48Z</time>
      </trkpt>
      <trkpt lat="38.52458" lon="-0.49756">
        <ele>336.0</ele>
        <time>2020-11-28T07:51:51Z</time>
      </trkpt>
      <trkpt lat="38.52482" lon="-0.49739">
        <ele>338.0</ele>
        <time>2020-11-28T07:51:54Z</time>
      </trkpt>
      <trkpt lat="38.52488" lon="-0.49702">
        <ele>339.0</ele>
        <time>2020-11-28T07:51:58Z</time>
      </trkpt>
      <trkpt lat="38.52511" lon="-0.49679">
        <ele>339.0</ele>
        <time>2020-11-28T07:52:01Z</time>
      </trkpt>
      <trkpt lat="38.52539" lon="-0.49693">
        <ele>340.0</ele>
        <time>2020-11-28T07:52:04Z</time>
      </trkpt>
      <trkpt lat="38.52555" lon="-0.49732">
        <ele>343.0</ele>
        <time>2020-11-28T07:52:07Z</time>
      </trkpt>
      <trkpt lat="38.52579" lon="-0.49756">
        <ele>345.0</ele>
        <time>2020-11-28T07:52:10Z</time>
      </trkpt>
      <trkpt lat="38.52616" lon="-0.49763">
        <ele>347.0</ele>
        <time>2020-11-28T07:52:14Z</time>
      </trkpt>
      <trkpt lat="38.52671" lon="-0.49770">
        <ele>352.0</ele>
        <time>2020-11-28T07:52:17Z</time>
      </trkpt>
      <trkpt lat="38.52725" lon="-0.49778">
        <ele>357.0</ele>
        <time>2020-11-28T07:52:20Z</time>
      </trkpt>
      <trkpt lat="38.52777" lon="-0.49784">
        <ele>358.0</ele>
        <time>2020-11-28T07:52:23Z</time>
      </trkpt>
      <trkpt lat="38.52801" lon="-0.49804">
        <ele>359.0</ele>
        <time>2020-11-28T07:52:26Z</time>
      </trkpt>
      <trkpt lat="38.52803" lon="-0.49840">
        <ele>361.0</ele>
        <time>2020-11-28T07:52:29Z</time>
      </trkpt>
      <trkpt lat="38.52795" lon="-0.49899">
        <ele>365.0</ele>
        <time>2020-11-28T07:52:32Z</time>
      </trkpt>
      <trkpt lat="38.52786" lon="-0.49964">
        <ele>370.0</ele>
        <time>2020-11-28T07:52:36Z</time>
      </trkpt>
      <trkpt lat="38.52784" lon="-0.50017">
        <ele>374.0</ele>
        <time>2020-11-28T07:52:39Z</time>
      </trkpt>
      <trkpt lat="38.52794" lon="-0.50072">
        <ele>377.0</ele>
        <time>2020-11-28T07:52:42Z</time>
      </trkpt>
      <trkpt lat="38.52814" lon="-0.50124">
        <ele>381.0</ele>
        <time>2020-11-28T07:52:45Z</time>
      </trkpt>
      <trkpt lat="38.52842" lon="-0.50168">
        <ele>384.0</ele>
        <time>2020-11-28T07:52:48Z</time>
      </trkpt>
      <trkpt lat="38.52882" lon="-0.50216">
        <ele>388.0</ele>
        <time>2020-11-28T07:52:51Z</time>
      </trkpt>
      <trkpt lat="38.52916" lon="-0.50258">
        <ele>391.0</ele>
        <time>2020-11-28T07:52:55Z</time>
      </trkpt>
      <trkpt lat="38.52952" lon="-0.50301">
        <ele>396.0</ele>
        <time>2020-11-28T07:52:58Z</time>
      </trkpt>
      <trkpt lat="38.52990" lon="-0.50343">
        <ele>401.0</ele>
        <time>2020-11-28T07:53:01Z</time>
      </trkpt>
      <trkpt lat="38.53032" lon="-0.50381">
        <ele>402.0</ele>
        <time>2020-11-28T07:53:04Z</time>
      </trkpt>
      <trkpt lat="38.53084" lon="-0.50412">
        <ele>404.0</ele>
        <time>2020-11-28T07:53:07Z</time>
      </trkpt>
      <trkpt lat="38.53141" lon="-0.50424">
        <ele>407.0</ele>
        <time>2020-11-28T07:53:11Z</time>
      </trkpt>
      <trkpt lat="38.53199" lon="-0.50427">
        <ele>405.0</ele>
        <time>2020-11-28T07:53:14Z</time>
      </trkpt>
      <trkpt lat="38.53254" lon="-0.50409">
        <ele>406.0</ele>
        <time>2020-11-28T07:53:17Z</time>
      </trkpt>
      <trkpt lat="38.53316" lon="-0.50379">
        <ele>405.0</ele>
        <time>2020-11-28T07:53:20Z</time>
      </trkpt>
      <trkpt lat="38.53381" lon="-0.50337">
        <ele>407.0</ele>
        <time>2020-11-28T07:53:23Z</time>
      </trkpt>
      <trkpt lat="38.53438" lon="-0.50288">
        <ele>404.0</ele>
        <time>2020-11-28T07:53:27Z</time>
      </trkpt>
      <trkpt lat="38.53495" lon="-0.50225">
        <ele>402.0</ele>
        <time>2020-11-28T07:53:30Z</time>
      </trkpt>
      <trkpt lat="38.53553" lon="-0.50146">
        <ele>402.0</ele>
        <time>2020-11-28T07:53:33Z</time>
      </trkpt>
      <trkpt lat="38.53618" lon="-0.50050">
        <ele>407.0</ele>
        <time>2020-11-28T07:53:36Z</time>
      </trkpt>
      <trkpt lat="38.53670" lon="-0.49974">
        <ele>409.0</ele>
        <time>2020-11-28T07:53:39Z</time>
      </trkpt>
      <trkpt lat="38.53712" lon="-0.49915">
        <ele>410.0</ele>
        <time>2020-11-28T07:53:42Z</time>
      </trkpt>
      <trkpt lat="38.53763" lon="-0.49870">
        <ele>421.0</ele>
        <time>2020-11-28T07:53:46Z</time>
      </trkpt>
      <trkpt lat="38.53822" lon="-0.49836">
        <ele>427.0</ele>
        <time>2020-11-28T07:53:49Z</time>
      </trkpt>
      <trkpt lat="38.53877" lon="-0.49804">
        <ele>431.0</ele>
        <time>2020-11-28T07:53:52Z</time>
      </trkpt>
      <trkpt lat="38.53925" lon="-0.49767">
        <ele>433.0</ele>
        <time>2020-11-28T07:53:55Z</time>
      </trkpt>
      <trkpt lat="38.53962" lon="-0.49725">
        <ele>436.0</ele>
        <time>2020-11-28T07:53:58Z</time>
      </trkpt>
      <trkpt lat="38.54002" lon="-0.49665">
        <ele>439.0</ele>
        <time>2020-11-28T07:54:02Z</time>
      </trkpt>
      <trkpt lat="38.54052" lon="-0.49603">
        <ele>442.0</ele>
        <time>2020-11-28T07:54:05Z</time>
      </trkpt>
      <trkpt lat="38.54108" lon="-0.49557">
        <ele>444.0</ele>
        <time>2020-11-28T07:54:08Z</time>
      </trkpt>
      <trkpt lat="38.54163" lon="-0.49524">
        <ele>444.0</ele>
        <time>2020-11-28T07:54:11Z</time>
      </trkpt>
      <trkpt lat="38.54222" lon="-0.49521">
        <ele>447.0</ele>
        <time>2020-11-28T07:54:14Z</time>
      </trkpt>
      <trkpt lat="38.54281" lon="-0.49533">
        <ele>445.0</ele>
        <time>2020-11-28T07:54:18Z</time>
      </trkpt>
      <trkpt lat="38.54342" lon="-0.49568">
        <ele>444.0</ele>
        <time>2020-11-28T07:54:21Z</time>
      </trkpt>
      <trkpt lat="38.54411" lon="-0.49613">
        <ele>444.0</ele>
        <time>2020-11-28T07:54:24Z</time>
      </trkpt>
      <trkpt lat="38.54486" lon="-0.49662">
        <ele>442.0</ele>
        <time>2020-11-28T07:54:27Z</time>
      </trkpt>
      <trkpt lat="38.54552" lon="-0.49707">
        <ele>445.0</ele>
        <time>2020-11-28T07:54:30Z</time>
      </trkpt>
      <trkpt lat="38.54610" lon="-0.49756">
        <ele>443.0</ele>
        <time>2020-11-28T07:54:33Z</time>
      </trkpt>
      <trkpt lat="38.54659" lon="-0.49828">
        <ele>444.0</ele>
        <time>2020-11-28T07:54:37Z</time>
      </trkpt>
      <trkpt lat="38.54682" lon="-0.49908">
        <ele>447.0</ele>
        <time>2020-11-28T07:54:40Z</time>
      </trkpt>
      <trkpt lat="38.54696" lon="-0.49991">
        <ele>451.0</ele>
        <time>2020-11-28T07:54:43Z</time>
      </trkpt>
      <trkpt lat="38.54709" lon="-0.50069">
        <ele>454.0</ele>
        <time>2020-11-28T07:54:46Z</time>
      </trkpt>
      <trkpt lat="38.54726" lon="-0.50137">
        <ele>463.0</ele>
        <time>2020-11-28T07:54:49Z</time>
      </trkpt>
      <trkpt lat="38.54770" lon="-0.50214">
        <ele>468.0</ele>
        <time>2020-11-28T07:54:52Z</time>
      </trkpt>
      <trkpt lat="38.54803" lon="-0.50251">
        <ele>474.0</ele>
        <time>2020-11-28T07:54:56Z</time>
      </trkpt>
      <trkpt lat="38.54856" lon="-0.50290">
        <ele>480.0</ele>
        <time>2020-11-28T07:54:59Z</time>
      </trkpt>
      <trkpt lat="38.54923" lon="-0.50333">
        <ele>487.0</ele>
        <time>2020-11-28T07:55:02Z</time>
      </trkpt>
      <trkpt lat="38.54996" lon="-0.50384">
        <ele>493.0</ele>
        <time>2020-11-28T07:55:05Z</time>
      </trkpt>
      <trkpt lat="38.55065" lon="-0.50437">
        <ele>496.0</ele>
        <time>2020-11-28T07:55:08Z</time>
      </trkpt>
      <trkpt lat="38.55136" lon="-0.50486">
        <ele>502.0</ele>
        <time>2020-11-28T07:55:11Z</time>
      </trkpt>
      <trkpt lat="38.55202" lon="-0.50531">
        <ele>509.0</ele>
        <time>2020-11-28T07:55:15Z</time>
      </trkpt>
      <trkpt lat="38.55256" lon="-0.50566">
        <ele>517.0</ele>
        <time>2020-11-28T07:55:18Z</time>
      </trkpt>
      <trkpt lat="38.55293" lon="-0.50575">
        <ele>518.0</ele>
        <time>2020-11-28T07:55:21Z</time>
      </trkpt>
      <trkpt lat="38.55318" lon="-0.50575">
        <ele>517.0</ele>
        <time>2020-11-28T07:55:24Z</time>
      </trkpt>
      <trkpt lat="38.55336" lon="-0.50586">
        <ele>517.0</ele>
        <time>2020-11-28T07:55:27Z</time>
      </trkpt>
      <trkpt lat="38.55343" lon="-0.50604">
        <ele>520.0</ele>
        <time>2020-11-28T07:55:30Z</time>
      </trkpt>
      <trkpt lat="38.55379" lon="-0.50650">
        <ele>520.0</ele>
        <time>2020-11-28T07:55:34Z</time>
      </trkpt>
      <trkpt lat="38.55426" lon="-0.50685">
        <ele>522.0</ele>
        <time>2020-11-28T07:55:37Z</time>
      </trkpt>
      <trkpt lat="38.55465" lon="-0.50724">
        <ele>523.0</ele>
        <time>2020-11-28T07:55:40Z</time>
      </trkpt>
      <trkpt lat="38.55493" lon="-0.50775">
        <ele>525.0</ele>
        <time>2020-11-28T07:55:43Z</time>
      </trkpt>
      <trkpt lat="38.55519" lon="-0.50828">
        <ele>527.0</ele>
        <time>2020-11-28T07:55:46Z</time>
      </trkpt>
      <trkpt lat="38.55534" lon="-0.50863">
        <ele>525.0</ele>
        <time>2020-11-28T07:55:49Z</time>
      </trkpt>
      <trkpt lat="38.55546" lon="-0.50891">
        <ele>525.0</ele>
        <time>2020-11-28T07:55:52Z</time>
      </trkpt>
      <trkpt lat="38.55554" lon="-0.50910">
        <ele>524.0</ele>
        <time>2020-11-28T07:55:56Z</time>
      </trkpt>
      <trkpt lat="38.55562" lon="-0.50928">
        <ele>524.0</ele>
        <time>2020-11-28T07:55:59Z</time>
      </trkpt>
      <trkpt lat="38.55571" lon="-0.50948">
        <ele>524.0</ele>
        <time>2020-11-28T08:00:42Z</time>
      </trkpt>
      <trkpt lat="38.55588" lon="-0.50988">
        <ele>527.0</ele>
        <time>2020-11-28T08:00:45Z</time>
      </trkpt>
      <trkpt lat="38.55604" lon="-0.51036">
        <ele>529.0</ele>
        <time>2020-11-28T08:00:48Z</time>
      </trkpt>
      <trkpt lat="38.55619" lon="-0.51098">
        <ele>530.0</ele>
        <time>2020-11-28T08:00:51Z</time>
      </trkpt>
      <trkpt lat="38.55622" lon="-0.51150">
        <ele>528.0</ele>
        <time>2020-11-28T08:00:54Z</time>
      </trkpt>
      <trkpt lat="38.55621" lon="-0.51187">
        <ele>529.0</ele>
        <time>2020-11-28T08:00:57Z</time>
      </trkpt>
      <trkpt lat="38.55646" lon="-0.51209">
        <ele>527.0</ele>
        <time>2020-11-28T08:01:00Z</time>
      </trkpt>
      <trkpt lat="38.55676" lon="-0.51212">
        <ele>526.0</ele>
        <time>2020-11-28T08:01:04Z</time>
      </trkpt>
      <trkpt lat="38.55712" lon="-0.51213">
        <ele>527.0</ele>
        <time>2020-11-28T08:01:07Z</time>
      </trkpt>
      <trkpt lat="38.55752" lon="-0.51202">
        <ele>527.0</ele>
        <time>2020-11-28T08:01:10Z</time>
      </trkpt>
      <trkpt lat="38.55797" lon="-0.51171">
        <ele>529.0</ele>
        <time>2020-11-28T08:01:13Z</time>
      </trkpt>
      <trkpt lat="38.55845" lon="-0.51136">
        <ele>530.0</ele>
        <time>2020-11-28T08:01:16Z</time>
      </trkpt>
      <trkpt lat="38.55893" lon="-0.51110">
        <ele>532.0</ele>
        <time>2020-11-28T08:01:19Z</time>
      </trkpt>
      <trkpt lat="38.55942" lon="-0.51085">
        <ele>534.0</ele>
        <time>2020-11-28T08:01:22Z</time>
      </trkpt>
      <trkpt lat="38.55989" lon="-0.51073">
        <ele>536.0</ele>
        <time>2020-11-28T08:01:25Z</time>
      </trkpt>
      <trkpt lat="38.56041" lon="-0.51067">
        <ele>539.0</ele>
        <time>2020-11-28T08:01:29Z</time>
      </trkpt>
      <trkpt lat="38.56104" lon="-0.51044">
        <ele>542.0</ele>
        <time>2020-11-28T08:01:32Z</time>
      </trkpt>
      <trkpt lat="38.56177" lon="-0.51019">
        <ele>545.0</ele>
        <time>2020-11-28T08:01:35Z</time>
      </trkpt>
      <trkpt lat="38.56225" lon="-0.51002">
        <ele>548.0</ele>
        <time>2020-11-28T08:01:38Z</time>
      </trkpt>
      <trkpt lat="38.56315" lon="-0.50979">
        <ele>553.0</ele>
        <time>2020-11-28T08:01:41Z</time>
      </trkpt>
      <trkpt lat="38.56373" lon="-0.50970">
        <ele>558.0</ele>
        <time>2020-11-28T08:01:45Z</time>
      </trkpt>
      <trkpt lat="38.56417" lon="-0.50959">
        <ele>563.0</ele>
        <time>2020-11-28T08:01:48Z</time>
      </trkpt>
      <trkpt lat="38.56455" lon="-0.50927">
        <ele>567.0</ele>
        <time>2020-11-28T08:01:51Z</time>
      </trkpt>
      <trkpt lat="38.56489" lon="-0.50879">
        <ele>570.0</ele>
        <time>2020-11-28T08:01:54Z</time>
      </trkpt>
      <trkpt lat="38.56524" lon="-0.50828">
        <ele>572.0</ele>
        <time>2020-11-28T08:01:57Z</time>
      </trkpt>
      <trkpt lat="38.56538" lon="-0.50765">
        <ele>576.0</ele>
        <time>2020-11-28T08:02:01Z</time>
      </trkpt>
      <trkpt lat="38.56535" lon="-0.50701">
        <ele>579.0</ele>
        <time>2020-11-28T08:02:05Z</time>
      </trkpt>
      <trkpt lat="38.56539" lon="-0.50659">
        <ele>581.0</ele>
        <time>2020-11-28T08:02:08Z</time>
      </trkpt>
      <trkpt lat="38.56556" lon="-0.50636">
        <ele>583.0</ele>
        <time>2020-11-28T08:02:11Z</time>
      </trkpt>
      <trkpt lat="38.56596" lon="-0.50616">
        <ele>585.0</ele>
        <time>2020-11-28T08:02:14Z</time>
      </trkpt>
      <trkpt lat="38.56650" lon="-0.50594">
        <ele>588.0</ele>
        <time>2020-11-28T08:02:17Z</time>
      </trkpt>
      <trkpt lat="38.56702" lon="-0.50578">
        <ele>591.0</ele>
        <time>2020-11-28T08:02:20Z</time>
      </trkpt>
      <trkpt lat="38.56761" lon="-0.50563">
        <ele>592.0</ele>
        <time>2020-11-28T08:02:24Z</time>
      </trkpt>
      <trkpt lat="38.56804" lon="-0.50551">
        <ele>595.0</ele>
        <time>2020-11-28T08:02:27Z</time>
      </trkpt>
      <trkpt lat="38.56822" lon="-0.50526">
        <ele>598.0</ele>
        <time>2020-11-28T08:02:30Z</time>
      </trkpt>
      <trkpt lat="38.56832" lon="-0.50486">
        <ele>601.0</ele>
        <time>2020-11-28T08:02:33Z</time>
      </trkpt>
      <trkpt lat="38.56854" lon="-0.50440">
        <ele>604.0</ele>
        <time>2020-11-28T08:02:36Z</time>
      </trkpt>
      <trkpt lat="38.56894" lon="-0.50387">
        <ele>606.0</ele>
        <time>2020-11-28T08:02:39Z</time>
      </trkpt>
      <trkpt lat="38.56918" lon="-0.50350">
        <ele>607.0</ele>
        <time>2020-11-28T08:02:43Z</time>
      </trkpt>
      <trkpt lat="38.56925" lon="-0.50313">
        <ele>608.0</ele>
        <time>2020-11-28T08:02:46Z</time>
      </trkpt>
      <trkpt lat="38.56927" lon="-0.50277">
        <ele>611.0</ele>
        <time>2020-11-28T08:02:49Z</time>
      </trkpt>
      <trkpt lat="38.56949" lon="-0.50248">
        <ele>613.0</ele>
        <time>2020-11-28T08:02:52Z</time>
      </trkpt>
      <trkpt lat="38.56984" lon="-0.50245">
        <ele>614.0</ele>
        <time>2020-11-28T08:02:55Z</time>
      </trkpt>
      <trkpt lat="38.57020" lon="-0.50259">
        <ele>618.0</ele>
        <time>2020-11-28T08:02:59Z</time>
      </trkpt>
      <trkpt lat="38.57053" lon="-0.50249">
        <ele>621.0</ele>
        <time>2020-11-28T08:03:02Z</time>
      </trkpt>
      <trkpt lat="38.57078" lon="-0.50220">
        <ele>622.0</ele>
        <time>2020-11-28T08:03:05Z</time>
      </trkpt>
      <trkpt lat="38.57119" lon="-0.50169">
        <ele>625.0</ele>
        <time>2020-11-28T08:03:08Z</time>
      </trkpt>
      <trkpt lat="38.57162" lon="-0.50114">
        <ele>628.0</ele>
        <time>2020-11-28T08:03:11Z</time>
      </trkpt>
      <trkpt lat="38.57200" lon="-0.50069">
        <ele>631.0</ele>
        <time>2020-11-28T08:03:14Z</time>
      </trkpt>
      <trkpt lat="38.57248" lon="-0.50036">
        <ele>635.0</ele>
        <time>2020-11-28T08:03:17Z</time>
      </trkpt>
      <trkpt lat="38.57307" lon="-0.49999">
        <ele>639.0</ele>
        <time>2020-11-28T08:03:21Z</time>
      </trkpt>
      <trkpt lat="38.57347" lon="-0.49967">
        <ele>643.0</ele>
        <time>2020-11-28T08:03:24Z</time>
      </trkpt>
      <trkpt lat="38.57363" lon="-0.49947">
        <ele>645.0</ele>
        <time>2020-11-28T08:03:27Z</time>
      </trkpt>
      <trkpt lat="38.57387" lon="-0.49919">
        <ele>647.0</ele>
        <time>2020-11-28T08:03:30Z</time>
      </trkpt>
      <trkpt lat="38.57415" lon="-0.49895">
        <ele>650.0</ele>
        <time>2020-11-28T08:03:33Z</time>
      </trkpt>
      <trkpt lat="38.57449" lon="-0.49891">
        <ele>653.0</ele>
        <time>2020-11-28T08:03:36Z</time>
      </trkpt>
      <trkpt lat="38.57494" lon="-0.49890">
        <ele>656.0</ele>
        <time>2020-11-28T08:03:40Z</time>
      </trkpt>
      <trkpt lat="38.57529" lon="-0.49880">
        <ele>659.0</ele>
        <time>2020-11-28T08:03:43Z</time>
      </trkpt>
      <trkpt lat="38.57558" lon="-0.49847">
        <ele>662.0</ele>
        <time>2020-11-28T08:03:46Z</time>
      </trkpt>
      <trkpt lat="38.57592" lon="-0.49807">
        <ele>665.0</ele>
        <time>2020-11-28T08:03:49Z</time>
      </trkpt>
      <trkpt lat="38.57628" lon="-0.49782">
        <ele>665.0</ele>
        <time>2020-11-28T08:03:52Z</time>
      </trkpt>
      <trkpt lat="38.57657" lon="-0.49773">
        <ele>666.0</ele>
        <time>2020-11-28T08:03:55Z</time>
      </trkpt>
      <trkpt lat="38.57686" lon="-0.49769">
        <ele>665.0</ele>
        <time>2020-11-28T08:03:59Z</time>
      </trkpt>
      <trkpt lat="38.57729" lon="-0.49776">
        <ele>668.0</ele>
        <time>2020-11-28T08:04:02Z</time>
      </trkpt>
      <trkpt lat="38.57771" lon="-0.49787">
        <ele>670.0</ele>
        <time>2020-11-28T08:04:05Z</time>
      </trkpt>
      <trkpt lat="38.57792" lon="-0.49804">
        <ele>669.0</ele>
        <time>2020-11-28T08:04:08Z</time>
      </trkpt>
      <trkpt lat="38.57790" lon="-0.49824">
        <ele>670.0</ele>
        <time>2020-11-28T08:04:11Z</time>
      </trkpt>
      <trkpt lat="38.57772" lon="-0.49837">
        <ele>672.0</ele>
        <time>2020-11-28T08:04:14Z</time>
      </trkpt>
      <trkpt lat="38.57738" lon="-0.49849">
        <ele>674.0</ele>
        <time>2020-11-28T08:04:18Z</time>
      </trkpt>
      <trkpt lat="38.57714" lon="-0.49873">
        <ele>676.0</ele>
        <time>2020-11-28T08:04:21Z</time>
      </trkpt>
      <trkpt lat="38.57699" lon="-0.49912">
        <ele>678.0</ele>
        <time>2020-11-28T08:04:24Z</time>
      </trkpt>
      <trkpt lat="38.57676" lon="-0.49962">
        <ele>682.0</ele>
        <time>2020-11-28T08:04:27Z</time>
      </trkpt>
      <trkpt lat="38.57658" lon="-0.50005">
        <ele>683.0</ele>
        <time>2020-11-28T08:04:30Z</time>
      </trkpt>
      <trkpt lat="38.57646" lon="-0.50052">
        <ele>687.0</ele>
        <time>2020-11-28T08:04:34Z</time>
      </trkpt>
      <trkpt lat="38.57620" lon="-0.50086">
        <ele>690.0</ele>
        <time>2020-11-28T08:04:37Z</time>
      </trkpt>
      <trkpt lat="38.57589" lon="-0.50113">
        <ele>689.0</ele>
        <time>2020-11-28T08:04:40Z</time>
      </trkpt>
      <trkpt lat="38.57576" lon="-0.50142">
        <ele>691.0</ele>
        <time>2020-11-28T08:04:43Z</time>
      </trkpt>
      <trkpt lat="38.57562" lon="-0.50190">
        <ele>693.0</ele>
        <time>2020-11-28T08:04:46Z</time>
      </trkpt>
      <trkpt lat="38.57545" lon="-0.50248">
        <ele>695.0</ele>
        <time>2020-11-28T08:04:50Z</time>
      </trkpt>
      <trkpt lat="38.57535" lon="-0.50312">
        <ele>699.0</ele>
        <time>2020-11-28T08:04:53Z</time>
      </trkpt>
      <trkpt lat="38.57523" lon="-0.50373">
        <ele>701.0</ele>
        <time>2020-11-28T08:04:56Z</time>
      </trkpt>
      <trkpt lat="38.57508" lon="-0.50424">
        <ele>703.0</ele>
        <time>2020-11-28T08:04:59Z</time>
      </trkpt>
      <trkpt lat="38.57477" lon="-0.50459">
        <ele>706.0</ele>
        <time>2020-11-28T08:05:02Z</time>
      </trkpt>
      <trkpt lat="38.57448" lon="-0.50491">
        <ele>707.0</ele>
        <time>2020-11-28T08:05:05Z</time>
      </trkpt>
      <trkpt lat="38.57440" lon="-0.50521">
        <ele>707.0</ele>
        <time>2020-11-28T08:05:08Z</time>
      </trkpt>
      <trkpt lat="38.57451" lon="-0.50546">
        <ele>709.0</ele>
        <time>2020-11-28T08:05:12Z</time>
      </trkpt>
      <trkpt lat="38.57475" lon="-0.50572">
        <ele>712.0</ele>
        <time>2020-11-28T08:05:15Z</time>
      </trkpt>
      <trkpt lat="38.57487" lon="-0.50611">
        <ele>713.0</ele>
        <time>2020-11-28T08:05:18Z</time>
      </trkpt>
      <trkpt lat="38.57483" lon="-0.50668">
        <ele>715.0</ele>
        <time>2020-11-28T08:05:22Z</time>
      </trkpt>
      <trkpt lat="38.57469" lon="-0.50731">
        <ele>719.0</ele>
        <time>2020-11-28T08:05:25Z</time>
      </trkpt>
      <trkpt lat="38.57446" lon="-0.50780">
        <ele>721.0</ele>
        <time>2020-11-28T08:05:28Z</time>
      </trkpt>
      <trkpt lat="38.57416" lon="-0.50808">
        <ele>723.0</ele>
        <time>2020-11-28T08:05:31Z</time>
      </trkpt>
      <trkpt lat="38.57384" lon="-0.50823">
        <ele>724.0</ele>
        <time>2020-11-28T08:05:34Z</time>
      </trkpt>
      <trkpt lat="38.57354" lon="-0.50822">
        <ele>724.0</ele>
        <time>2020-11-28T08:05:37Z</time>
      </trkpt>
      <trkpt lat="38.57339" lon="-0.50831">
        <ele>724.0</ele>
        <time>2020-11-28T08:05:40Z</time>
      </trkpt>
      <trkpt lat="38.57339" lon="-0.50851">
        <ele>725.0</ele>
        <time>2020-11-28T08:05:44Z</time>
      </trkpt>
      <trkpt lat="38.57360" lon="-0.50870">
        <ele>728.0</ele>
        <time>2020-11-28T08:05:47Z</time>
      </trkpt>
      <trkpt lat="38.57392" lon="-0.50869">
        <ele>729.0</ele>
        <time>2020-11-28T08:05:50Z</time>
      </trkpt>
      <trkpt lat="38.57433" lon="-0.50848">
        <ele>730.0</ele>
        <time>2020-11-28T08:05:53Z</time>
      </trkpt>
      <trkpt lat="38.57471" lon="-0.50823">
        <ele>733.0</ele>
        <time>2020-11-28T08:05:57Z</time>
      </trkpt>
      <trkpt lat="38.57511" lon="-0.50769">
        <ele>736.0</ele>
        <time>2020-11-28T08:06:00Z</time>
      </trkpt>
      <trkpt lat="38.57557" lon="-0.50702">
        <ele>740.0</ele>
        <time>2020-11-28T08:06:03Z</time>
      </trkpt>
      <trkpt lat="38.57603" lon="-0.50638">
        <ele>743.0</ele>
        <time>2020-11-28T08:06:06Z</time>
      </trkpt>
      <trkpt lat="38.57656" lon="-0.50562">
        <ele>746.0</ele>
        <time>2020-11-28T08:06:09Z</time>
      </trkpt>
      <trkpt lat="38.57699" lon="-0.50493">
        <ele>749.0</ele>
        <time>2020-11-28T08:06:12Z</time>
      </trkpt>
      <trkpt lat="38.57735" lon="-0.50432">
        <ele>751.0</ele>
        <time>2020-11-28T08:06:15Z</time>
      </trkpt>
      <trkpt lat="38.57761" lon="-0.50398">
        <ele>751.0</ele>
        <time>2020-11-28T08:06:19Z</time>
      </trkpt>
      <trkpt lat="38.57789" lon="-0.50385">
        <ele>751.0</ele>
        <time>2020-11-28T08:06:22Z</time>
      </trkpt>
      <trkpt lat="38.57817" lon="-0.50401">
        <ele>750.0</ele>
        <time>2020-11-28T08:06:25Z</time>
      </trkpt>
      <trkpt lat="38.57819" lon="-0.50433">
        <ele>753.0</ele>
        <time>2020-11-28T08:06:28Z</time>
      </trkpt>
      <trkpt lat="38.57810" lon="-0.50472">
        <ele>755.0</ele>
        <time>2020-11-28T08:06:31Z</time>
      </trkpt>
      <trkpt lat="38.57791" lon="-0.50526">
        <ele>759.0</ele>
        <time>2020-11-28T08:06:35Z</time>
      </trkpt>
      <trkpt lat="38.57760" lon="-0.50567">
        <ele>762.0</ele>
        <time>2020-11-28T08:06:38Z</time>
      </trkpt>
      <trkpt lat="38.57715" lon="-0.50617">
        <ele>765.0</ele>
        <time>2020-11-28T08:06:41Z</time>
      </trkpt>
      <trkpt lat="38.57678" lon="-0.50668">
        <ele>768.0</ele>
        <time>2020-11-28T08:06:44Z</time>
      </trkpt>
      <trkpt lat="38.57649" lon="-0.50723">
        <ele>770.0</ele>
        <time>2020-11-28T08:06:47Z</time>
      </trkpt>
      <trkpt lat="38.57618" lon="-0.50792">
        <ele>774.0</ele>
        <time>2020-11-28T08:06:51Z</time>
      </trkpt>
      <trkpt lat="38.57581" lon="-0.50861">
        <ele>780.0</ele>
        <time>2020-11-28T08:06:54Z</time>
      </trkpt>
      <trkpt lat="38.57550" lon="-0.50924">
        <ele>785.0</ele>
        <time>2020-11-28T08:06:57Z</time>
      </trkpt>
      <trkpt lat="38.57518" lon="-0.50962">
        <ele>785.0</ele>
        <time>2020-11-28T08:07:00Z</time>
      </trkpt>
      <trkpt lat="38.57479" lon="-0.51003">
        <ele>788.0</ele>
        <time>2020-11-28T08:07:03Z</time>
      </trkpt>
      <trkpt lat="38.57446" lon="-0.51057">
        <ele>790.0</ele>
        <time>2020-11-28T08:07:07Z</time>
      </trkpt>
      <trkpt lat="38.57415" lon="-0.51119">
        <ele>796.0</ele>
        <time>2020-11-28T08:07:10Z</time>
      </trkpt>
      <trkpt lat="38.57390" lon="-0.51170">
        <ele>797.0</ele>
        <time>2020-11-28T08:07:13Z</time>
      </trkpt>
      <trkpt lat="38.57357" lon="-0.51201">
        <ele>800.0</ele>
        <time>2020-11-28T08:07:16Z</time>
      </trkpt>
      <trkpt lat="38.57324" lon="-0.51219">
        <ele>801.0</ele>
        <time>2020-11-28T08:07:19Z</time>
      </trkpt>
      <trkpt lat="38.57306" lon="-0.51244">
        <ele>802.0</ele>
        <time>2020-11-28T08:07:22Z</time>
      </trkpt>
      <trkpt lat="38.57314" lon="-0.51283">
        <ele>803.0</ele>
        <time>2020-11-28T08:07:26Z</time>
      </trkpt>
      <trkpt lat="38.57336" lon="-0.51321">
        <ele>805.0</ele>
        <time>2020-11-28T08:07:29Z</time>
      </trkpt>
      <trkpt lat="38.57360" lon="-0.51336">
        <ele>808.0</ele>
        <time>2020-11-28T08:07:32Z</time>
      </trkpt>
      <trkpt lat="38.57380" lon="-0.51327">
        <ele>810.0</ele>
        <time>2020-11-28T08:07:36Z</time>
      </trkpt>
      <trkpt lat="38.57406" lon="-0.51291">
        <ele>814.0</ele>
        <time>2020-11-28T08:07:39Z</time>
      </trkpt>
      <trkpt lat="38.57438" lon="-0.51237">
        <ele>820.0</ele>
        <time>2020-11-28T08:07:42Z</time>
      </trkpt>
      <trkpt lat="38.57464" lon="-0.51184">
        <ele>823.0</ele>
        <time>2020-11-28T08:07:45Z</time>
      </trkpt>
      <trkpt lat="38.57507" lon="-0.51125">
        <ele>827.0</ele>
        <time>2020-11-28T08:07:48Z</time>
      </trkpt>
      <trkpt lat="38.57539" lon="-0.51067">
        <ele>829.0</ele>
        <time>2020-11-28T08:07:52Z</time>
      </trkpt>
      <trkpt lat="38.57581" lon="-0.51014">
        <ele>832.0</ele>
        <time>2020-11-28T08:07:55Z</time>
      </trkpt>
      <trkpt lat="38.57623" lon="-0.50958">
        <ele>834.0</ele>
        <time>2020-11-28T08:07:58Z</time>
      </trkpt>
      <trkpt lat="38.57669" lon="-0.50907">
        <ele>838.0</ele>
        <time>2020-11-28T08:08:01Z</time>
      </trkpt>
      <trkpt lat="38.57700" lon="-0.50859">
        <ele>841.0</ele>
        <time>2020-11-28T08:08:04Z</time>
      </trkpt>
      <trkpt lat="38.57742" lon="-0.50807">
        <ele>844.0</ele>
        <time>2020-11-28T08:08:07Z</time>
      </trkpt>
      <trkpt lat="38.57781" lon="-0.50771">
        <ele>845.0</ele>
        <time>2020-11-28T08:08:11Z</time>
      </trkpt>
      <trkpt lat="38.57835" lon="-0.50733">
        <ele>850.0</ele>
        <time>2020-11-28T08:08:14Z</time>
      </trkpt>
      <trkpt lat="38.57893" lon="-0.50694">
        <ele>855.0</ele>
        <time>2020-11-28T08:08:17Z</time>
      </trkpt>
      <trkpt lat="38.57950" lon="-0.50651">
        <ele>858.0</ele>
        <time>2020-11-28T08:08:20Z</time>
      </trkpt>
      <trkpt lat="38.58007" lon="-0.50601">
        <ele>862.0</ele>
        <time>2020-11-28T08:08:23Z</time>
      </trkpt>
      <trkpt lat="38.58059" lon="-0.50547">
        <ele>864.0</ele>
        <time>2020-11-28T08:08:26Z</time>
      </trkpt>
      <trkpt lat="38.58113" lon="-0.50486">
        <ele>869.0</ele>
        <time>2020-11-28T08:08:29Z</time>
      </trkpt>
      <trkpt lat="38.58155" lon="-0.50435">
        <ele>873.0</ele>
        <time>2020-11-28T08:08:33Z</time>
      </trkpt>
      <trkpt lat="38.58193" lon="-0.50379">
        <ele>877.0</ele>
        <time>2020-11-28T08:08:36Z</time>
      </trkpt>
      <trkpt lat="38.58227" lon="-0.50321">
        <ele>881.0</ele>
        <time>2020-11-28T08:08:39Z</time>
      </trkpt>
      <trkpt lat="38.58260" lon="-0.50276">
        <ele>884.0</ele>
        <time>2020-11-28T08:08:42Z</time>
      </trkpt>
      <trkpt lat="38.58308" lon="-0.50231">
        <ele>885.0</ele>
        <time>2020-11-28T08:08:45Z</time>
      </trkpt>
      <trkpt lat="38.58364" lon="-0.50178">
        <ele>889.0</ele>
        <time>2020-11-28T08:08:49Z</time>
      </trkpt>
      <trkpt lat="38.58425" lon="-0.50122">
        <ele>893.0</ele>
        <time>2020-11-28T08:08:52Z</time>
      </trkpt>
      <trkpt lat="38.58486" lon="-0.50069">
        <ele>897.0</ele>
        <time>2020-11-28T08:08:55Z</time>
      </trkpt>
      <trkpt lat="38.58547" lon="-0.50009">
        <ele>901.0</ele>
        <time>2020-11-28T08:08:58Z</time>
      </trkpt>
      <trkpt lat="38.58601" lon="-0.49956">
        <ele>906.0</ele>
        <time>2020-11-28T08:09:01Z</time>
      </trkpt>
      <trkpt lat="38.58647" lon="-0.49912">
        <ele>909.0</ele>
        <time>2020-11-28T08:09:05Z</time>
      </trkpt>
      <trkpt lat="38.58706" lon="-0.49872">
        <ele>913.0</ele>
        <time>2020-11-28T08:09:08Z</time>
      </trkpt>
      <trkpt lat="38.58773" lon="-0.49827">
        <ele>917.0</ele>
        <time>2020-11-28T08:09:11Z</time>
      </trkpt>
      <trkpt lat="38.58837" lon="-0.49779">
        <ele>922.0</ele>
        <time>2020-11-28T08:09:14Z</time>
      </trkpt>
      <trkpt lat="38.58908" lon="-0.49732">
        <ele>924.0</ele>
        <time>2020-11-28T08:09:17Z</time>
      </trkpt>
      <trkpt lat="38.58969" lon="-0.49688">
        <ele>928.0</ele>
        <time>2020-11-28T08:09:21Z</time>
      </trkpt>
      <trkpt lat="38.59023" lon="-0.49638">
        <ele>931.0</ele>
        <time>2020-11-28T08:09:24Z</time>
      </trkpt>
      <trkpt lat="38.59069" lon="-0.49595">
        <ele>935.0</ele>
        <time>2020-11-28T08:09:27Z</time>
      </trkpt>
      <trkpt lat="38.59117" lon="-0.49572">
        <ele>938.0</ele>
        <time>2020-11-28T08:09:30Z</time>
      </trkpt>
      <trkpt lat="38.59149" lon="-0.49562">
        <ele>939.0</ele>
        <time>2020-11-28T08:09:33Z</time>
      </trkpt>
      <trkpt lat="38.59188" lon="-0.49534">
        <ele>939.0</ele>
        <time>2020-11-28T08:09:36Z</time>
      </trkpt>
      <trkpt lat="38.59234" lon="-0.49481">
        <ele>944.0</ele>
        <time>2020-11-28T08:09:39Z</time>
      </trkpt>
      <trkpt lat="38.59285" lon="-0.49429">
        <ele>947.0</ele>
        <time>2020-11-28T08:09:43Z</time>
      </trkpt>
      <trkpt lat="38.59318" lon="-0.49387">
        <ele>949.0</ele>
        <time>2020-11-28T08:09:46Z</time>
      </trkpt>
      <trkpt lat="38.59342" lon="-0.49327">
        <ele>952.0</ele>
        <time>2020-11-28T08:09:49Z</time>
      </trkpt>
      <trkpt lat="38.59364" lon="-0.49273">
        <ele>956.0</ele>
        <time>2020-11-28T08:09:53Z</time>
      </trkpt>
      <trkpt lat="38.59390" lon="-0.49245">
        <ele>961.0</ele>
        <time>2020-11-28T08:09:56Z</time>
      </trkpt>
      <trkpt lat="38.59434" lon="-0.49227">
        <ele>962.0</ele>
        <time>2020-11-28T08:09:59Z</time>
      </trkpt>
      <trkpt lat="38.59472" lon="-0.49209">
        <ele>963.0</ele>
        <time>2020-11-28T08:10:02Z</time>
      </trkpt>
      <trkpt lat="38.59496" lon="-0.49174">
        <ele>964.0</ele>
        <time>2020-11-28T08:10:05Z</time>
      </trkpt>
      <trkpt lat="38.59519" lon="-0.49124">
        <ele>966.0</ele>
        <time>2020-11-28T08:10:09Z</time>
      </trkpt>
      <trkpt lat="38.59553" lon="-0.49082">
        <ele>970.0</ele>
        <time>2020-11-28T08:10:12Z</time>
      </trkpt>
      <trkpt lat="38.59593" lon="-0.49036">
        <ele>972.0</ele>
        <time>2020-11-28T08:10:15Z</time>
      </trkpt>
      <trkpt lat="38.59631" lon="-0.48978">
        <ele>976.0</ele>
        <time>2020-11-28T08:10:18Z</time>
      </trkpt>
      <trkpt lat="38.59666" lon="-0.48921">
        <ele>978.0</ele>
        <time>2020-11-28T08:10:21Z</time>
      </trkpt>
      <trkpt lat="38.59703" lon="-0.48883">
        <ele>980.0</ele>
        <time>2020-11-28T08:10:24Z</time>
      </trkpt>
      <trkpt lat="38.59756" lon="-0.48839">
        <ele>984.0</ele>
        <time>2020-11-28T08:10:28Z</time>
      </trkpt>
      <trkpt lat="38.59807" lon="-0.48794">
        <ele>988.0</ele>
        <time>2020-11-28T08:10:31Z</time>
      </trkpt>
      <trkpt lat="38.59848" lon="-0.48764">
        <ele>990.0</ele>
        <time>2020-11-28T08:10:34Z</time>
      </trkpt>
      <trkpt lat="38.59885" lon="-0.48756">
        <ele>992.0</ele>
        <time>2020-11-28T08:10:37Z</time>
      </trkpt>
      <trkpt lat="38.59938" lon="-0.48746">
        <ele>995.0</ele>
        <time>2020-11-28T08:10:41Z</time>
      </trkpt>
      <trkpt lat="38.59979" lon="-0.48741">
        <ele>997.0</ele>
        <time>2020-11-28T08:10:44Z</time>
      </trkpt>
      <trkpt lat="38.60008" lon="-0.48757">
        <ele>999.0</ele>
        <time>2020-11-28T08:10:47Z</time>
      </trkpt>
      <trkpt lat="38.60053" lon="-0.48797">
        <ele>1002.0</ele>
        <time>2020-11-28T08:10:50Z</time>
      </trkpt>
      <trkpt lat="38.60086" lon="-0.48824">
        <ele>1005.0</ele>
        <time>2020-11-28T08:10:53Z</time>
      </trkpt>
      <trkpt lat="38.60118" lon="-0.48831">
        <ele>1006.0</ele>
        <time>2020-11-28T08:10:56Z</time>
      </trkpt>
      <trkpt lat="38.60162" lon="-0.48822">
        <ele>1008.0</ele>
        <time>2020-11-28T08:11:00Z</time>
      </trkpt>
      <trkpt lat="38.60205" lon="-0.48807">
        <ele>1009.0</ele>
        <time>2020-11-28T08:11:03Z</time>
      </trkpt>
      <trkpt lat="38.60241" lon="-0.48777">
        <ele>1013.0</ele>
        <time>2020-11-28T08:11:06Z</time>
      </trkpt>
      <trkpt lat="38.60274" lon="-0.48727">
        <ele>1015.0</ele>
        <time>2020-11-28T08:11:09Z</time>
      </trkpt>
      <trkpt lat="38.60310" lon="-0.48671">
        <ele>1016.0</ele>
        <time>2020-11-28T08:11:12Z</time>
      </trkpt>
      <trkpt lat="38.60339" lon="-0.48637">
        <ele>1016.0</ele>
        <time>2020-11-28T08:11:15Z</time>
      </trkpt>
      <trkpt lat="38.60381" lon="-0.48614">
        <ele>1018.0</ele>
        <time>2020-11-28T08:11:18Z</time>
      </trkpt>
      <trkpt lat="38.60417" lon="-0.48601">
        <ele>1019.0</ele>
        <time>2020-11-28T08:11:22Z</time>
      </trkpt>
      <trkpt lat="38.60458" lon="-0.48610">
        <ele>1019.0</ele>
        <time>2020-11-28T08:11:25Z</time>
      </trkpt>
      <trkpt lat="38.60509" lon="-0.48627">
        <ele>1020.0</ele>
        <time>2020-11-28T08:11:28Z</time>
      </trkpt>
      <trkpt lat="38.60565" lon="-0.48641">
        <ele>1019.0</ele>
        <time>2020-11-28T08:11:31Z</time>
      </trkpt>
      <trkpt lat="38.60623" lon="-0.48648">
        <ele>1019.0</ele>
        <time>2020-11-28T08:11:34Z</time>
      </trkpt>
      <trkpt lat="38.60689" lon="-0.48654">
        <ele>1020.0</ele>
        <time>2020-11-28T08:11:38Z</time>
      </trkpt>
      <trkpt lat="38.60753" lon="-0.48660">
        <ele>1019.0</ele>
        <time>2020-11-28T08:11:41Z</time>
      </trkpt>
      <trkpt lat="38.60818" lon="-0.48667">
        <ele>1017.0</ele>
        <time>2020-11-28T08:11:44Z</time>
      </trkpt>
      <trkpt lat="38.60883" lon="-0.48673">
        <ele>1013.0</ele>
        <time>2020-11-28T08:11:47Z</time>
      </trkpt>
      <trkpt lat="38.60945" lon="-0.48678">
        <ele>1012.0</ele>
        <time>2020-11-28T08:11:50Z</time>
      </trkpt>
      <trkpt lat="38.60991" lon="-0.48675">
        <ele>1008.0</ele>
        <time>2020-11-28T08:11:53Z</time>
      </trkpt>
      <trkpt lat="38.61037" lon="-0.48657">
        <ele>1005.0</ele>
        <time>2020-11-28T08:11:57Z</time>
      </trkpt>
      <trkpt lat="38.61090" lon="-0.48632">
        <ele>1002.0</ele>
        <time>2020-11-28T08:12:00Z</time>
      </trkpt>
      <trkpt lat="38.61135" lon="-0.48596">
        <ele>999.0</ele>
        <time>2020-11-28T08:12:03Z</time>
      </trkpt>
      <trkpt lat="38.61189" lon="-0.48547">
        <ele>997.0</ele>
        <time>2020-11-28T08:12:06Z</time>
      </trkpt>
      <trkpt lat="38.61245" lon="-0.48497">
        <ele>993.0</ele>
        <time>2020-11-28T08:12:09Z</time>
      </trkpt>
      <trkpt lat="38.61297" lon="-0.48451">
        <ele>991.0</ele>
        <time>2020-11-28T08:12:13Z</time>
      </trkpt>
      <trkpt lat="38.61362" lon="-0.48406">
        <ele>988.0</ele>
        <time>2020-11-28T08:12:16Z</time>
      </trkpt>
      <trkpt lat="38.61429" lon="-0.48360">
        <ele>983.0</ele>
        <time>2020-11-28T08:12:19Z</time>
      </trkpt>
      <trkpt lat="38.61487" lon="-0.48320">
        <ele>982.0</ele>
        <time>2020-11-28T08:12:22Z</time>
      </trkpt>
      <trkpt lat="38.61552" lon="-0.48283">
        <ele>978.0</ele>
        <time>2020-11-28T08:12:25Z</time>
      </trkpt>
      <trkpt lat="38.61619" lon="-0.48247">
        <ele>973.0</ele>
        <time>2020-11-28T08:12:29Z</time>
      </trkpt>
      <trkpt lat="38.61674" lon="-0.48218">
        <ele>969.0</ele>
        <time>2020-11-28T08:12:32Z</time>
      </trkpt>
      <trkpt lat="38.61719" lon="-0.48193">
        <ele>966.0</ele>
        <time>2020-11-28T08:12:35Z</time>
      </trkpt>
      <trkpt lat="38.61758" lon="-0.48175">
        <ele>962.0</ele>
        <time>2020-11-28T08:12:38Z</time>
      </trkpt>
      <trkpt lat="38.61794" lon="-0.48176">
        <ele>961.0</ele>
        <time>2020-11-28T08:12:41Z</time>
      </trkpt>
      <trkpt lat="38.61819" lon="-0.48176">
        <ele>960.0</ele>
        <time>2020-11-28T08:12:45Z</time>
      </trkpt>
      <trkpt lat="38.61837" lon="-0.48154">
        <ele>960.0</ele>
        <time>2020-11-28T08:12:48Z</time>
      </trkpt>
      <trkpt lat="38.61863" lon="-0.48114">
        <ele>960.0</ele>
        <time>2020-11-28T08:12:51Z</time>
      </trkpt>
      <trkpt lat="38.61893" lon="-0.48097">
        <ele>958.0</ele>
        <time>2020-11-28T08:12:55Z</time>
      </trkpt>
      <trkpt lat="38.61922" lon="-0.48111">
        <ele>955.0</ele>
        <time>2020-11-28T08:12:58Z</time>
      </trkpt>
      <trkpt lat="38.61952" lon="-0.48130">
        <ele>952.0</ele>
        <time>2020-11-28T08:13:01Z</time>
      </trkpt>
      <trkpt lat="38.61981" lon="-0.48127">
        <ele>950.0</ele>
        <time>2020-11-28T08:13:04Z</time>
      </trkpt>
      <trkpt lat="38.62008" lon="-0.48103">
        <ele>949.0</ele>
        <time>2020-11-28T08:13:07Z</time>
      </trkpt>
      <trkpt lat="38.62048" lon="-0.48056">
        <ele>947.0</ele>
        <time>2020-11-28T08:13:11Z</time>
      </trkpt>
      <trkpt lat="38.62088" lon="-0.48008">
        <ele>944.0</ele>
        <time>2020-11-28T08:13:14Z</time>
      </trkpt>
      <trkpt lat="38.62131" lon="-0.47956">
        <ele>943.0</ele>
        <time>2020-11-28T08:13:17Z</time>
      </trkpt>
      <trkpt lat="38.62159" lon="-0.47925">
        <ele>940.0</ele>
        <time>2020-11-28T08:13:20Z</time>
      </trkpt>
      <trkpt lat="38.62187" lon="-0.47922">
        <ele>938.0</ele>
        <time>2020-11-28T08:13:23Z</time>
      </trkpt>
      <trkpt lat="38.62231" lon="-0.47936">
        <ele>935.0</ele>
        <time>2020-11-28T08:13:26Z</time>
      </trkpt>
      <trkpt lat="38.62280" lon="-0.47952">
        <ele>932.0</ele>
        <time>2020-11-28T08:13:30Z</time>
      </trkpt>
      <trkpt lat="38.62322" lon="-0.47966">
        <ele>928.0</ele>
        <time>2020-11-28T08:13:33Z</time>
      </trkpt>
      <trkpt lat="38.62348" lon="-0.47970">
        <ele>925.0</ele>
        <time>2020-11-28T08:13:36Z</time>
      </trkpt>
      <trkpt lat="38.62383" lon="-0.47955">
        <ele>924.0</ele>
        <time>2020-11-28T08:13:39Z</time>
      </trkpt>
      <trkpt lat="38.62432" lon="-0.47920">
        <ele>922.0</ele>
        <time>2020-11-28T08:13:43Z</time>
      </trkpt>
      <trkpt lat="38.62492" lon="-0.47875">
        <ele>919.0</ele>
        <time>2020-11-28T08:13:46Z</time>
      </trkpt>
      <trkpt lat="38.62549" lon="-0.47836">
        <ele>918.0</ele>
        <time>2020-11-28T08:13:49Z</time>
      </trkpt>
      <trkpt lat="38.62596" lon="-0.47804">
        <ele>914.0</ele>
        <time>2020-11-28T08:13:52Z</time>
      </trkpt>
      <trkpt lat="38.62636" lon="-0.47790">
        <ele>912.0</ele>
        <time>2020-11-28T08:13:55Z</time>
      </trkpt>
      <trkpt lat="38.62669" lon="-0.47770">
        <ele>908.0</ele>
        <time>2020-11-28T08:13:59Z</time>
      </trkpt>
      <trkpt lat="38.62691" lon="-0.47733">
        <ele>905.0</ele>
        <time>2020-11-28T08:14:02Z</time>
      </trkpt>
      <trkpt lat="38.62717" lon="-0.47671">
        <ele>904.0</ele>
        <time>2020-11-28T08:14:05Z</time>
      </trkpt>
      <trkpt lat="38.62739" lon="-0.47624">
        <ele>901.0</ele>
        <time>2020-11-28T08:14:08Z</time>
      </trkpt>
      <trkpt lat="38.62772" lon="-0.47592">
        <ele>899.0</ele>
        <time>2020-11-28T08:14:11Z</time>
      </trkpt>
      <trkpt lat="38.62817" lon="-0.47562">
        <ele>897.0</ele>
        <time>2020-11-28T08:14:14Z</time>
      </trkpt>
      <trkpt lat="38.62844" lon="-0.47541">
        <ele>894.0</ele>
        <time>2020-11-28T08:14:17Z</time>
      </trkpt>
      <trkpt lat="38.62864" lon="-0.47502">
        <ele>892.0</ele>
        <time>2020-11-28T08:14:21Z</time>
      </trkpt>
      <trkpt lat="38.62881" lon="-0.47445">
        <ele>890.0</ele>
        <time>2020-11-28T08:14:24Z</time>
      </trkpt>
      <trkpt lat="38.62912" lon="-0.47393">
        <ele>887.0</ele>
        <time>2020-11-28T08:14:27Z</time>
      </trkpt>
      <trkpt lat="38.62957" lon="-0.47330">
        <ele>886.0</ele>
        <time>2020-11-28T08:14:30Z</time>
      </trkpt>
      <trkpt lat="38.62985" lon="-0.47292">
        <ele>883.0</ele>
        <time>2020-11-28T08:14:34Z</time>
      </trkpt>
      <trkpt lat="38.63022" lon="-0.47279">
        <ele>882.0</ele>
        <time>2020-11-28T08:14:37Z</time>
      </trkpt>
      <trkpt lat="38.63071" lon="-0.47276">
        <ele>880.0</ele>
        <time>2020-11-28T08:14:40Z</time>
      </trkpt>
      <trkpt lat="38.63109" lon="-0.47291">
        <ele>879.0</ele>
        <time>2020-11-28T08:14:43Z</time>
      </trkpt>
      <trkpt lat="38.63156" lon="-0.47323">
        <ele>878.0</ele>
        <time>2020-11-28T08:14:46Z</time>
      </trkpt>
      <trkpt lat="38.63195" lon="-0.47349">
        <ele>876.0</ele>
        <time>2020-11-28T08:14:49Z</time>
      </trkpt>
      <trkpt lat="38.63227" lon="-0.47358">
        <ele>873.0</ele>
        <time>2020-11-28T08:14:52Z</time>
      </trkpt>
      <trkpt lat="38.63267" lon="-0.47345">
        <ele>870.0</ele>
        <time>2020-11-28T08:14:56Z</time>
      </trkpt>
      <trkpt lat="38.63314" lon="-0.47344">
        <ele>866.0</ele>
        <time>2020-11-28T08:14:59Z</time>
      </trkpt>
      <trkpt lat="38.63376" lon="-0.47353">
        <ele>861.0</ele>
        <time>2020-11-28T08:15:02Z</time>
      </trkpt>
      <trkpt lat="38.63434" lon="-0.47366">
        <ele>857.0</ele>
        <time>2020-11-28T08:15:05Z</time>
      </trkpt>
      <trkpt lat="38.63482" lon="-0.47384">
        <ele>853.0</ele>
        <time>2020-11-28T08:15:08Z</time>
      </trkpt>
      <trkpt lat="38.63514" lon="-0.47407">
        <ele>850.0</ele>
        <time>2020-11-28T08:15:11Z</time>
      </trkpt>
      <trkpt lat="38.63541" lon="-0.47446">
        <ele>847.0</ele>
        <time>2020-11-28T08:15:15Z</time>
      </trkpt>
      <trkpt lat="38.63568" lon="-0.47489">
        <ele>847.0</ele>
        <time>2020-11-28T08:15:18Z</time>
      </trkpt>
      <trkpt lat="38.63611" lon="-0.47536">
        <ele>846.0</ele>
        <time>2020-11-28T08:15:21Z</time>
      </trkpt>
      <trkpt lat="38.63656" lon="-0.47582">
        <ele>844.0</ele>
        <time>2020-11-28T08:15:24Z</time>
      </trkpt>
      <trkpt lat="38.63690" lon="-0.47618">
        <ele>842.0</ele>
        <time>2020-11-28T08:15:27Z</time>
      </trkpt>
      <trkpt lat="38.63714" lon="-0.47671">
        <ele>839.0</ele>
        <time>2020-11-28T08:15:31Z</time>
      </trkpt>
      <trkpt lat="38.63731" lon="-0.47716">
        <ele>837.0</ele>
        <time>2020-11-28T08:15:34Z</time>
      </trkpt>
      <trkpt lat="38.63748" lon="-0.47741">
        <ele>833.0</ele>
        <time>2020-11-28T08:15:37Z</time>
      </trkpt>
      <trkpt lat="38.63780" lon="-0.47750">
        <ele>832.0</ele>
        <time>2020-11-28T08:15:40Z</time>
      </trkpt>
      <trkpt lat="38.63831" lon="-0.47754">
        <ele>829.0</ele>
        <time>2020-11-28T08:15:43Z</time>
      </trkpt>
      <trkpt lat="38.63896" lon="-0.47761">
        <ele>825.0</ele>
        <time>2020-11-28T08:15:46Z</time>
      </trkpt>
      <trkpt lat="38.63961" lon="-0.47764">
        <ele>821.0</ele>
        <time>2020-11-28T08:15:49Z</time>
      </trkpt>
      <trkpt lat="38.64027" lon="-0.47757">
        <ele>817.0</ele>
        <time>2020-11-28T08:15:52Z</time>
      </trkpt>
      <trkpt lat="38.64108" lon="-0.47742">
        <ele>815.0</ele>
        <time>2020-11-28T08:15:56Z</time>
      </trkpt>
      <trkpt lat="38.64183" lon="-0.47730">
        <ele>808.0</ele>
        <time>2020-11-28T08:15:59Z</time>
      </trkpt>
      <trkpt lat="38.64258" lon="-0.47717">
        <ele>808.0</ele>
        <time>2020-11-28T08:16:02Z</time>
      </trkpt>
      <trkpt lat="38.64316" lon="-0.47706">
        <ele>807.0</ele>
        <time>2020-11-28T08:16:05Z</time>
      </trkpt>
      <trkpt lat="38.64392" lon="-0.47691">
        <ele>802.0</ele>
        <time>2020-11-28T08:16:08Z</time>
      </trkpt>
      <trkpt lat="38.64464" lon="-0.47677">
        <ele>797.0</ele>
        <time>2020-11-28T08:16:11Z</time>
      </trkpt>
      <trkpt lat="38.64542" lon="-0.47655">
        <ele>793.0</ele>
        <time>2020-11-28T08:16:15Z</time>
      </trkpt>
      <trkpt lat="38.64614" lon="-0.47640">
        <ele>794.0</ele>
        <time>2020-11-28T08:16:18Z</time>
      </trkpt>
      <trkpt lat="38.64664" lon="-0.47630">
        <ele>791.0</ele>
        <time>2020-11-28T08:16:21Z</time>
      </trkpt>
      <trkpt lat="38.64697" lon="-0.47625">
        <ele>791.0</ele>
        <time>2020-11-28T08:16:24Z</time>
      </trkpt>
      <trkpt lat="38.64717" lon="-0.47621">
        <ele>791.0</ele>
        <time>2020-11-28T08:16:27Z</time>
      </trkpt>
      <trkpt lat="38.64739" lon="-0.47586">
        <ele>791.0</ele>
        <time>2020-11-28T08:16:30Z</time>
      </trkpt>
      <trkpt lat="38.64768" lon="-0.47602">
        <ele>791.0</ele>
        <time>2020-11-28T08:16:33Z</time>
      </trkpt>
      <trkpt lat="38.64814" lon="-0.47585">
        <ele>790.0</ele>
        <time>2020-11-28T08:16:36Z</time>
      </trkpt>
      <trkpt lat="38.64861" lon="-0.47565">
        <ele>788.0</ele>
        <time>2020-11-28T08:16:40Z</time>
      </trkpt>
      <trkpt lat="38.64911" lon="-0.47529">
        <ele>785.0</ele>
        <time>2020-11-28T08:16:43Z</time>
      </trkpt>
      <trkpt lat="38.64953" lon="-0.47481">
        <ele>782.0</ele>
        <time>2020-11-28T08:16:46Z</time>
      </trkpt>
      <trkpt lat="38.64995" lon="-0.47423">
        <ele>777.0</ele>
        <time>2020-11-28T08:16:49Z</time>
      </trkpt>
      <trkpt lat="38.65045" lon="-0.47358">
        <ele>775.0</ele>
        <time>2020-11-28T08:16:52Z</time>
      </trkpt>
      <trkpt lat="38.65103" lon="-0.47298">
        <ele>773.0</ele>
        <time>2020-11-28T08:16:55Z</time>
      </trkpt>
      <trkpt lat="38.65167" lon="-0.47247">
        <ele>773.0</ele>
        <time>2020-11-28T08:16:58Z</time>
      </trkpt>
      <trkpt lat="38.65232" lon="-0.47200">
        <ele>773.0</ele>
        <time>2020-11-28T08:17:01Z</time>
      </trkpt>
      <trkpt lat="38.65293" lon="-0.47152">
        <ele>773.0</ele>
        <time>2020-11-28T08:17:04Z</time>
      </trkpt>
      <trkpt lat="38.65359" lon="-0.47089">
        <ele>772.0</ele>
        <time>2020-11-28T08:17:08Z</time>
      </trkpt>
      <trkpt lat="38.65421" lon="-0.47013">
        <ele>769.0</ele>
        <time>2020-11-28T08:17:11Z</time>
      </trkpt>
      <trkpt lat="38.65481" lon="-0.46919">
        <ele>770.0</ele>
        <time>2020-11-28T08:17:14Z</time>
      </trkpt>
      <trkpt lat="38.65528" lon="-0.46825">
        <ele>771.0</ele>
        <time>2020-11-28T08:17:17Z</time>
      </trkpt>
      <trkpt lat="38.65567" lon="-0.46743">
        <ele>769.0</ele>
        <time>2020-11-28T08:17:21Z</time>
      </trkpt>
      <trkpt lat="38.65608" lon="-0.46671">
        <ele>766.0</ele>
        <time>2020-11-28T08:17:24Z</time>
      </trkpt>
      <trkpt lat="38.65657" lon="-0.46606">
        <ele>762.0</ele>
        <time>2020-11-28T08:17:27Z</time>
      </trkpt>
      <trkpt lat="38.65712" lon="-0.46548">
        <ele>761.0</ele>
        <time>2020-11-28T08:17:30Z</time>
      </trkpt>
      <trkpt lat="38.65776" lon="-0.46496">
        <ele>758.0</ele>
        <time>2020-11-28T08:17:33Z</time>
      </trkpt>
      <trkpt lat="38.65841" lon="-0.46460">
        <ele>756.0</ele>
        <time>2020-11-28T08:17:36Z</time>
      </trkpt>
      <trkpt lat="38.65906" lon="-0.46437">
        <ele>753.0</ele>
        <time>2020-11-28T08:17:40Z</time>
      </trkpt>
      <trkpt lat="38.65979" lon="-0.46421">
        <ele>749.0</ele>
        <time>2020-11-28T08:17:43Z</time>
      </trkpt>
      <trkpt lat="38.66063" lon="-0.46420">
        <ele>745.0</ele>
        <time>2020-11-28T08:17:46Z</time>
      </trkpt>
      <trkpt lat="38.66113" lon="-0.46423">
        <ele>743.0</ele>
        <time>2020-11-28T08:17:49Z</time>
      </trkpt>
      <trkpt lat="38.66125" lon="-0.46424">
        <ele>743.0</ele>
        <time>2020-11-28T08:17:53Z</time>
      </trkpt>
      <trkpt lat="38.66227" lon="-0.46438">
        <ele>743.0</ele>
        <time>2020-11-28T08:17:57Z</time>
      </trkpt>
      <trkpt lat="38.66297" lon="-0.46446">
        <ele>743.0</ele>
        <time>2020-11-28T08:18:00Z</time>
      </trkpt>
      <trkpt lat="38.66362" lon="-0.46450">
        <ele>743.0</ele>
        <time>2020-11-28T08:18:03Z</time>
      </trkpt>
      <trkpt lat="38.66471" lon="-0.46456">
        <ele>743.0</ele>
        <time>2020-11-28T08:18:06Z</time>
      </trkpt>
      <trkpt lat="38.66555" lon="-0.46460">
        <ele>743.0</ele>
        <time>2020-11-28T08:18:09Z</time>
      </trkpt>
      <trkpt lat="38.66625" lon="-0.46463">
        <ele>743.0</ele>
        <time>2020-11-28T08:18:12Z</time>
      </trkpt>
      <trkpt lat="38.66710" lon="-0.46466">
        <ele>743.0</ele>
        <time>2020-11-28T08:18:16Z</time>
      </trkpt>
      <trkpt lat="38.66801" lon="-0.46471">
        <ele>743.0</ele>
        <time>2020-11-28T08:18:19Z</time>
      </trkpt>
      <trkpt lat="38.67229" lon="-0.46485">
        <ele>1198.0</ele>
        <time>2020-11-28T08:18:22Z</time>
      </trkpt>
      <trkpt lat="38.67289" lon="-0.46484">
        <ele>1143.0</ele>
        <time>2020-11-28T08:18:25Z</time>
      </trkpt>
      <trkpt lat="38.67339" lon="-0.46481">
        <ele>1143.0</ele>
        <time>2020-11-28T08:18:28Z</time>
      </trkpt>
      <trkpt lat="38.67365" lon="-0.46479">
        <ele>692.0</ele>
        <time>2020-11-28T08:18:50Z</time>
      </trkpt>
      <trkpt lat="38.67511" lon="-0.46452">
        <ele>1081.0</ele>
        <time>2020-11-28T08:18:53Z</time>
      </trkpt>
      <trkpt lat="38.67548" lon="-0.46440">
        <ele>951.0</ele>
        <time>2020-11-28T08:18:57Z</time>
      </trkpt>
      <trkpt lat="38.67612" lon="-0.46416">
        <ele>817.0</ele>
        <time>2020-11-28T08:19:00Z</time>
      </trkpt>
      <trkpt lat="38.67680" lon="-0.46384">
        <ele>751.0</ele>
        <time>2020-11-28T08:19:03Z</time>
      </trkpt>
      <trkpt lat="38.67755" lon="-0.46342">
        <ele>716.0</ele>
        <time>2020-11-28T08:19:06Z</time>
      </trkpt>
      <trkpt lat="38.67833" lon="-0.46289">
        <ele>696.0</ele>
        <time>2020-11-28T08:19:09Z</time>
      </trkpt>
      <trkpt lat="38.67906" lon="-0.46237">
        <ele>690.0</ele>
        <time>2020-11-28T08:19:12Z</time>
      </trkpt>
      <trkpt lat="38.67982" lon="-0.46183">
        <ele>664.0</ele>
        <time>2020-11-28T08:19:15Z</time>
      </trkpt>
      <trkpt lat="38.68060" lon="-0.46131">
        <ele>662.0</ele>
        <time>2020-11-28T08:19:19Z</time>
      </trkpt>
      <trkpt lat="38.68147" lon="-0.46113">
        <ele>660.0</ele>
        <time>2020-11-28T08:19:22Z</time>
      </trkpt>
      <trkpt lat="38.68232" lon="-0.46098">
        <ele>654.0</ele>
        <time>2020-11-28T08:19:25Z</time>
      </trkpt>
      <trkpt lat="38.68320" lon="-0.46095">
        <ele>654.0</ele>
        <time>2020-11-28T08:19:28Z</time>
      </trkpt>
      <trkpt lat="38.68400" lon="-0.46092">
        <ele>654.0</ele>
        <time>2020-11-28T08:19:31Z</time>
      </trkpt>
      <trkpt lat="38.68473" lon="-0.46082">
        <ele>655.0</ele>
        <time>2020-11-28T08:19:34Z</time>
      </trkpt>
      <trkpt lat="38.68542" lon="-0.46061">
        <ele>654.0</ele>
        <time>2020-11-28T08:19:37Z</time>
      </trkpt>
      <trkpt lat="38.68628" lon="-0.46018">
        <ele>655.0</ele>
        <time>2020-11-28T08:19:40Z</time>
      </trkpt>
      <trkpt lat="38.68677" lon="-0.45983">
        <ele>658.0</ele>
        <time>2020-11-28T08:19:44Z</time>
      </trkpt>
      <trkpt lat="38.68737" lon="-0.45929">
        <ele>661.0</ele>
        <time>2020-11-28T08:19:47Z</time>
      </trkpt>
      <trkpt lat="38.68796" lon="-0.45867">
        <ele>656.0</ele>
        <time>2020-11-28T08:19:50Z</time>
      </trkpt>
      <trkpt lat="38.68858" lon="-0.45802">
        <ele>658.0</ele>
        <time>2020-11-28T08:19:53Z</time>
      </trkpt>
      <trkpt lat="38.68916" lon="-0.45748">
        <ele>653.0</ele>
        <time>2020-11-28T08:19:56Z</time>
      </trkpt>
      <trkpt lat="38.68979" lon="-0.45701">
        <ele>649.0</ele>
        <time>2020-11-28T08:19:59Z</time>
      </trkpt>
      <trkpt lat="38.69045" lon="-0.45660">
        <ele>643.0</ele>
        <time>2020-11-28T08:20:03Z</time>
      </trkpt>
      <trkpt lat="38.69120" lon="-0.45624">
        <ele>638.0</ele>
        <time>2020-11-28T08:20:06Z</time>
      </trkpt>
      <trkpt lat="38.69192" lon="-0.45594">
        <ele>636.0</ele>
        <time>2020-11-28T08:20:09Z</time>
      </trkpt>
      <trkpt lat="38.69258" lon="-0.45564">
        <ele>630.0</ele>
        <time>2020-11-28T08:20:12Z</time>
      </trkpt>
      <trkpt lat="38.69319" lon="-0.45529">
        <ele>623.0</ele>
        <time>2020-11-28T08:20:15Z</time>
      </trkpt>
      <trkpt lat="38.69386" lon="-0.45481">
        <ele>618.0</ele>
        <time>2020-11-28T08:20:18Z</time>
      </trkpt>
      <trkpt lat="38.69452" lon="-0.45423">
        <ele>612.0</ele>
        <time>2020-11-28T08:20:22Z</time>
      </trkpt>
      <trkpt lat="38.69516" lon="-0.45366">
        <ele>606.0</ele>
        <time>2020-11-28T08:20:25Z</time>
      </trkpt>
      <trkpt lat="38.69575" lon="-0.45320">
        <ele>600.0</ele>
        <time>2020-11-28T08:20:28Z</time>
      </trkpt>
      <trkpt lat="38.69644" lon="-0.45282">
        <ele>597.0</ele>
        <time>2020-11-28T08:20:31Z</time>
      </trkpt>
      <trkpt lat="38.69719" lon="-0.45259">
        <ele>588.0</ele>
        <time>2020-11-28T08:20:35Z</time>
      </trkpt>
      <trkpt lat="38.69794" lon="-0.45249">
        <ele>580.0</ele>
        <time>2020-11-28T08:20:38Z</time>
      </trkpt>
      <trkpt lat="38.69871" lon="-0.45254">
        <ele>572.0</ele>
        <time>2020-11-28T08:20:41Z</time>
      </trkpt>
      <trkpt lat="38.69945" lon="-0.45274">
        <ele>564.0</ele>
        <time>2020-11-28T08:20:44Z</time>
      </trkpt>
      <trkpt lat="38.70012" lon="-0.45306">
        <ele>565.0</ele>
        <time>2020-11-28T08:20:47Z</time>
      </trkpt>
      <trkpt lat="38.70076" lon="-0.45348">
        <ele>561.0</ele>
        <time>2020-11-28T08:20:50Z</time>
      </trkpt>
      <trkpt lat="38.70135" lon="-0.45391">
        <ele>558.0</ele>
        <time>2020-11-28T08:20:53Z</time>
      </trkpt>
      <trkpt lat="38.70191" lon="-0.45427">
        <ele>561.0</ele>
        <time>2020-11-28T08:20:57Z</time>
      </trkpt>
      <trkpt lat="38.70252" lon="-0.45454">
        <ele>559.0</ele>
        <time>2020-11-28T08:21:00Z</time>
      </trkpt>
      <trkpt lat="38.70320" lon="-0.45471">
        <ele>553.0</ele>
        <time>2020-11-28T08:21:03Z</time>
      </trkpt>
      <trkpt lat="38.70394" lon="-0.45472">
        <ele>550.0</ele>
        <time>2020-11-28T08:21:06Z</time>
      </trkpt>
      <trkpt lat="38.70468" lon="-0.45459">
        <ele>545.0</ele>
        <time>2020-11-28T08:21:09Z</time>
      </trkpt>
      <trkpt lat="38.70543" lon="-0.45428">
        <ele>540.0</ele>
        <time>2020-11-28T08:21:12Z</time>
      </trkpt>
      <trkpt lat="38.70618" lon="-0.45384">
        <ele>535.0</ele>
        <time>2020-11-28T08:21:16Z</time>
      </trkpt>
      <trkpt lat="38.70703" lon="-0.45333">
        <ele>529.0</ele>
        <time>2020-11-28T08:21:19Z</time>
      </trkpt>
      <trkpt lat="38.70780" lon="-0.45288">
        <ele>524.0</ele>
        <time>2020-11-28T08:21:22Z</time>
      </trkpt>
      <trkpt lat="38.70854" lon="-0.45243">
        <ele>516.0</ele>
        <time>2020-11-28T08:21:25Z</time>
      </trkpt>
      <trkpt lat="38.70919" lon="-0.45201">
        <ele>514.0</ele>
        <time>2020-11-28T08:21:28Z</time>
      </trkpt>
      <trkpt lat="38.70979" lon="-0.45151">
        <ele>511.0</ele>
        <time>2020-11-28T08:21:31Z</time>
      </trkpt>
      <trkpt lat="38.71036" lon="-0.45084">
        <ele>509.0</ele>
        <time>2020-11-28T08:21:35Z</time>
      </trkpt>
      <trkpt lat="38.71079" lon="-0.45012">
        <ele>508.0</ele>
        <time>2020-11-28T08:21:38Z</time>
      </trkpt>
      <trkpt lat="38.71115" lon="-0.44927">
        <ele>506.0</ele>
        <time>2020-11-28T08:21:41Z</time>
      </trkpt>
      <trkpt lat="38.71142" lon="-0.44829">
        <ele>507.0</ele>
        <time>2020-11-28T08:21:44Z</time>
      </trkpt>
      <trkpt lat="38.71164" lon="-0.44732">
        <ele>505.0</ele>
        <time>2020-11-28T08:21:47Z</time>
      </trkpt>
      <trkpt lat="38.71191" lon="-0.44642">
        <ele>502.0</ele>
        <time>2020-11-28T08:21:50Z</time>
      </trkpt>
      <trkpt lat="38.71227" lon="-0.44556">
        <ele>499.0</ele>
        <time>2020-11-28T08:21:54Z</time>
      </trkpt>
      <trkpt lat="38.71274" lon="-0.44475">
        <ele>494.0</ele>
        <time>2020-11-28T08:21:57Z</time>
      </trkpt>
      <trkpt lat="38.71332" lon="-0.44400">
        <ele>490.0</ele>
        <time>2020-11-28T08:22:00Z</time>
      </trkpt>
      <trkpt lat="38.71392" lon="-0.44341">
        <ele>484.0</ele>
        <time>2020-11-28T08:22:03Z</time>
      </trkpt>
      <trkpt lat="38.71463" lon="-0.44291">
        <ele>481.0</ele>
        <time>2020-11-28T08:22:06Z</time>
      </trkpt>
      <trkpt lat="38.71544" lon="-0.44253">
        <ele>477.0</ele>
        <time>2020-11-28T08:22:09Z</time>
      </trkpt>
      <trkpt lat="38.71624" lon="-0.44232">
        <ele>475.0</ele>
        <time>2020-11-28T08:22:13Z</time>
      </trkpt>
      <trkpt lat="38.71703" lon="-0.44225">
        <ele>472.0</ele>
        <time>2020-11-28T08:22:16Z</time>
      </trkpt>
      <trkpt lat="38.71790" lon="-0.44228">
        <ele>472.0</ele>
        <time>2020-11-28T08:22:19Z</time>
      </trkpt>
      <trkpt lat="38.71876" lon="-0.44231">
        <ele>472.0</ele>
        <time>2020-11-28T08:22:22Z</time>
      </trkpt>
      <trkpt lat="38.71937" lon="-0.44234">
        <ele>470.0</ele>
        <time>2020-11-28T08:22:25Z</time>
      </trkpt>
      <trkpt lat="38.72044" lon="-0.44238">
        <ele>468.0</ele>
        <time>2020-11-28T08:22:28Z</time>
      </trkpt>
      <trkpt lat="38.72121" lon="-0.44242">
        <ele>469.0</ele>
        <time>2020-11-28T08:22:31Z</time>
      </trkpt>
      <trkpt lat="38.72195" lon="-0.44243">
        <ele>470.0</ele>
        <time>2020-11-28T08:22:34Z</time>
      </trkpt>
      <trkpt lat="38.72270" lon="-0.44239">
        <ele>470.0</ele>
        <time>2020-11-28T08:22:38Z</time>
      </trkpt>
      <trkpt lat="38.72341" lon="-0.44220">
        <ele>471.0</ele>
        <time>2020-11-28T08:22:41Z</time>
      </trkpt>
      <trkpt lat="38.72411" lon="-0.44200">
        <ele>472.0</ele>
        <time>2020-11-28T08:22:44Z</time>
      </trkpt>
      <trkpt lat="38.72484" lon="-0.44160">
        <ele>471.0</ele>
        <time>2020-11-28T08:22:47Z</time>
      </trkpt>
      <trkpt lat="38.72546" lon="-0.44110">
        <ele>473.0</ele>
        <time>2020-11-28T08:22:50Z</time>
      </trkpt>
      <trkpt lat="38.72608" lon="-0.44048">
        <ele>473.0</ele>
        <time>2020-11-28T08:22:53Z</time>
      </trkpt>
      <trkpt lat="38.72671" lon="-0.43977">
        <ele>473.0</ele>
        <time>2020-11-28T08:22:56Z</time>
      </trkpt>
      <trkpt lat="38.72733" lon="-0.43910">
        <ele>472.0</ele>
        <time>2020-11-28T08:23:00Z</time>
      </trkpt>
      <trkpt lat="38.72792" lon="-0.43845">
        <ele>473.0</ele>
        <time>2020-11-28T08:23:03Z</time>
      </trkpt>
      <trkpt lat="38.72849" lon="-0.43783">
        <ele>473.0</ele>
        <time>2020-11-28T08:23:06Z</time>
      </trkpt>
      <trkpt lat="38.72902" lon="-0.43725">
        <ele>472.0</ele>
        <time>2020-11-28T08:23:09Z</time>
      </trkpt>
      <trkpt lat="38.72953" lon="-0.43675">
        <ele>472.0</ele>
        <time>2020-11-28T08:23:12Z</time>
      </trkpt>
      <trkpt lat="38.73011" lon="-0.43627">
        <ele>472.0</ele>
        <time>2020-11-28T08:23:15Z</time>
      </trkpt>
      <trkpt lat="38.73069" lon="-0.43585">
        <ele>470.0</ele>
        <time>2020-11-28T08:23:18Z</time>
      </trkpt>
      <trkpt lat="38.73122" lon="-0.43548">
        <ele>466.0</ele>
        <time>2020-11-28T08:23:22Z</time>
      </trkpt>
      <trkpt lat="38.73170" lon="-0.43511">
        <ele>461.0</ele>
        <time>2020-11-28T08:23:25Z</time>
      </trkpt>
      <trkpt lat="38.73227" lon="-0.43460">
        <ele>460.0</ele>
        <time>2020-11-28T08:23:28Z</time>
      </trkpt>
      <trkpt lat="38.73266" lon="-0.43414">
        <ele>455.0</ele>
        <time>2020-11-28T08:23:31Z</time>
      </trkpt>
      <trkpt lat="38.73293" lon="-0.43372">
        <ele>453.0</ele>
        <time>2020-11-28T08:23:34Z</time>
      </trkpt>
      <trkpt lat="38.73309" lon="-0.43329">
        <ele>450.0</ele>
        <time>2020-11-28T08:23:37Z</time>
      </trkpt>
      <trkpt lat="38.73326" lon="-0.43276">
        <ele>447.0</ele>
        <time>2020-11-28T08:23:40Z</time>
      </trkpt>
      <trkpt lat="38.73344" lon="-0.43227">
        <ele>445.0</ele>
        <time>2020-11-28T08:23:44Z</time>
      </trkpt>
      <trkpt lat="38.73375" lon="-0.43187">
        <ele>440.0</ele>
        <time>2020-11-28T08:23:47Z</time>
      </trkpt>
      <trkpt lat="38.73414" lon="-0.43162">
        <ele>438.0</ele>
        <time>2020-11-28T08:23:50Z</time>
      </trkpt>
      <trkpt lat="38.73453" lon="-0.43158">
        <ele>437.0</ele>
        <time>2020-11-28T08:23:53Z</time>
      </trkpt>
      <trkpt lat="38.73490" lon="-0.43172">
        <ele>437.0</ele>
        <time>2020-11-28T08:23:56Z</time>
      </trkpt>
      <trkpt lat="38.73528" lon="-0.43193">
        <ele>438.0</ele>
        <time>2020-11-28T08:23:59Z</time>
      </trkpt>
      <trkpt lat="38.73566" lon="-0.43210">
        <ele>439.0</ele>
        <time>2020-11-28T08:24:02Z</time>
      </trkpt>
      <trkpt lat="38.73600" lon="-0.43218">
        <ele>440.0</ele>
        <time>2020-11-28T08:24:05Z</time>
      </trkpt>
      <trkpt lat="38.73634" lon="-0.43215">
        <ele>440.0</ele>
        <time>2020-11-28T08:24:08Z</time>
      </trkpt>
      <trkpt lat="38.73685" lon="-0.43201">
        <ele>438.0</ele>
        <time>2020-11-28T08:24:12Z</time>
      </trkpt>
      <trkpt lat="38.73740" lon="-0.43192">
        <ele>437.0</ele>
        <time>2020-11-28T08:24:15Z</time>
      </trkpt>
      <trkpt lat="38.73802" lon="-0.43183">
        <ele>435.0</ele>
        <time>2020-11-28T08:24:18Z</time>
      </trkpt>
      <trkpt lat="38.73869" lon="-0.43186">
        <ele>433.0</ele>
        <time>2020-11-28T08:24:21Z</time>
      </trkpt>
      <trkpt lat="38.73942" lon="-0.43198">
        <ele>433.0</ele>
        <time>2020-11-28T08:24:24Z</time>
      </trkpt>
      <trkpt lat="38.74011" lon="-0.43211">
        <ele>430.0</ele>
        <time>2020-11-28T08:24:28Z</time>
      </trkpt>
      <trkpt lat="38.74077" lon="-0.43223">
        <ele>427.0</ele>
        <time>2020-11-28T08:24:31Z</time>
      </trkpt>
      <trkpt lat="38.74136" lon="-0.43231">
        <ele>426.0</ele>
        <time>2020-11-28T08:24:34Z</time>
      </trkpt>
      <trkpt lat="38.74205" lon="-0.43232">
        <ele>425.0</ele>
        <time>2020-11-28T08:24:37Z</time>
      </trkpt>
      <trkpt lat="38.74273" lon="-0.43227">
        <ele>423.0</ele>
        <time>2020-11-28T08:24:40Z</time>
      </trkpt>
      <trkpt lat="38.74347" lon="-0.43221">
        <ele>422.0</ele>
        <time>2020-11-28T08:24:44Z</time>
      </trkpt>
      <trkpt lat="38.74415" lon="-0.43220">
        <ele>420.0</ele>
        <time>2020-11-28T08:24:47Z</time>
      </trkpt>
      <trkpt lat="38.74488" lon="-0.43227">
        <ele>417.0</ele>
        <time>2020-11-28T08:24:50Z</time>
      </trkpt>
      <trkpt lat="38.74565" lon="-0.43245">
        <ele>415.0</ele>
        <time>2020-11-28T08:24:53Z</time>
      </trkpt>
      <trkpt lat="38.74644" lon="-0.43274">
        <ele>415.0</ele>
        <time>2020-11-28T08:24:56Z</time>
      </trkpt>
      <trkpt lat="38.74726" lon="-0.43307">
        <ele>413.0</ele>
        <time>2020-11-28T08:25:00Z</time>
      </trkpt>
      <trkpt lat="38.74808" lon="-0.43338">
        <ele>411.0</ele>
        <time>2020-11-28T08:25:03Z</time>
      </trkpt>
      <trkpt lat="38.74894" lon="-0.43369">
        <ele>410.0</ele>
        <time>2020-11-28T08:25:06Z</time>
      </trkpt>
      <trkpt lat="38.74972" lon="-0.43398">
        <ele>408.0</ele>
        <time>2020-11-28T08:25:09Z</time>
      </trkpt>
      <trkpt lat="38.75054" lon="-0.43428">
        <ele>411.0</ele>
        <time>2020-11-28T08:25:12Z</time>
      </trkpt>
      <trkpt lat="38.75130" lon="-0.43456">
        <ele>411.0</ele>
        <time>2020-11-28T08:25:15Z</time>
      </trkpt>
      <trkpt lat="38.75199" lon="-0.43483">
        <ele>410.0</ele>
        <time>2020-11-28T08:25:19Z</time>
      </trkpt>
      <trkpt lat="38.75268" lon="-0.43521">
        <ele>417.0</ele>
        <time>2020-11-28T08:25:22Z</time>
      </trkpt>
      <trkpt lat="38.75331" lon="-0.43565">
        <ele>419.0</ele>
        <time>2020-11-28T08:25:25Z</time>
      </trkpt>
      <trkpt lat="38.75389" lon="-0.43617">
        <ele>422.0</ele>
        <time>2020-11-28T08:25:28Z</time>
      </trkpt>
      <trkpt lat="38.75449" lon="-0.43671">
        <ele>424.0</ele>
        <time>2020-11-28T08:25:31Z</time>
      </trkpt>
      <trkpt lat="38.75489" lon="-0.43739">
        <ele>423.0</ele>
        <time>2020-11-28T08:25:34Z</time>
      </trkpt>
      <trkpt lat="38.75530" lon="-0.43809">
        <ele>426.0</ele>
        <time>2020-11-28T08:25:37Z</time>
      </trkpt>
      <trkpt lat="38.75559" lon="-0.43852">
        <ele>424.0</ele>
        <time>2020-11-28T08:25:40Z</time>
      </trkpt>
      <trkpt lat="38.75593" lon="-0.43895">
        <ele>425.0</ele>
        <time>2020-11-28T08:25:43Z</time>
      </trkpt>
      <trkpt lat="38.75638" lon="-0.43940">
        <ele>426.0</ele>
        <time>2020-11-28T08:25:47Z</time>
      </trkpt>
      <trkpt lat="38.75682" lon="-0.43968">
        <ele>427.0</ele>
        <time>2020-11-28T08:25:50Z</time>
      </trkpt>
      <trkpt lat="38.75715" lon="-0.43989">
        <ele>429.0</ele>
        <time>2020-11-28T08:25:53Z</time>
      </trkpt>
      <trkpt lat="38.75743" lon="-0.44007">
        <ele>429.0</ele>
        <time>2020-11-28T08:25:56Z</time>
      </trkpt>
      <trkpt lat="38.75786" lon="-0.44038">
        <ele>432.0</ele>
        <time>2020-11-28T08:25:59Z</time>
      </trkpt>
      <trkpt lat="38.75834" lon="-0.44086">
        <ele>436.0</ele>
        <time>2020-11-28T08:26:02Z</time>
      </trkpt>
      <trkpt lat="38.75876" lon="-0.44128">
        <ele>440.0</ele>
        <time>2020-11-28T08:26:06Z</time>
      </trkpt>
      <trkpt lat="38.75922" lon="-0.44176">
        <ele>443.0</ele>
        <time>2020-11-28T08:26:09Z</time>
      </trkpt>
      <trkpt lat="38.75960" lon="-0.44216">
        <ele>443.0</ele>
        <time>2020-11-28T08:26:12Z</time>
      </trkpt>
      <trkpt lat="38.75997" lon="-0.44256">
        <ele>444.0</ele>
        <time>2020-11-28T08:26:15Z</time>
      </trkpt>
      <trkpt lat="38.76031" lon="-0.44289">
        <ele>444.0</ele>
        <time>2020-11-28T08:26:19Z</time>
      </trkpt>
      <trkpt lat="38.76071" lon="-0.44313">
        <ele>444.0</ele>
        <time>2020-11-28T08:26:22Z</time>
      </trkpt>
      <trkpt lat="38.76119" lon="-0.44329">
        <ele>443.0</ele>
        <time>2020-11-28T08:26:25Z</time>
      </trkpt>
      <trkpt lat="38.76176" lon="-0.44342">
        <ele>445.0</ele>
        <time>2020-11-28T08:26:28Z</time>
      </trkpt>
      <trkpt lat="38.76238" lon="-0.44354">
        <ele>447.0</ele>
        <time>2020-11-28T08:26:31Z</time>
      </trkpt>
      <trkpt lat="38.76301" lon="-0.44368">
        <ele>448.0</ele>
        <time>2020-11-28T08:26:35Z</time>
      </trkpt>
      <trkpt lat="38.76371" lon="-0.44385">
        <ele>448.0</ele>
        <time>2020-11-28T08:26:38Z</time>
      </trkpt>
      <trkpt lat="38.76435" lon="-0.44400">
        <ele>448.0</ele>
        <time>2020-11-28T08:26:41Z</time>
      </trkpt>
      <trkpt lat="38.76485" lon="-0.44410">
        <ele>448.0</ele>
        <time>2020-11-28T08:26:44Z</time>
      </trkpt>
      <trkpt lat="38.76526" lon="-0.44421">
        <ele>447.0</ele>
        <time>2020-11-28T08:26:47Z</time>
      </trkpt>
      <trkpt lat="38.76556" lon="-0.44428">
        <ele>445.0</ele>
        <time>2020-11-28T08:26:51Z</time>
      </trkpt>
      <trkpt lat="38.76579" lon="-0.44434">
        <ele>443.0</ele>
        <time>2020-11-28T08:26:54Z</time>
      </trkpt>
      <trkpt lat="38.76594" lon="-0.44437">
        <ele>443.0</ele>
        <time>2020-11-28T08:26:57Z</time>
      </trkpt>
      <trkpt lat="38.76627" lon="-0.44446">
        <ele>443.0</ele>
        <time>2020-11-28T08:27:00Z</time>
      </trkpt>
      <trkpt lat="38.76678" lon="-0.44458">
        <ele>444.0</ele>
        <time>2020-11-28T08:27:03Z</time>
      </trkpt>
      <trkpt lat="38.76739" lon="-0.44473">
        <ele>444.0</ele>
        <time>2020-11-28T08:27:06Z</time>
      </trkpt>
      <trkpt lat="38.76805" lon="-0.44489">
        <ele>444.0</ele>
        <time>2020-11-28T08:27:10Z</time>
      </trkpt>
      <trkpt lat="38.76874" lon="-0.44508">
        <ele>442.0</ele>
        <time>2020-11-28T08:27:13Z</time>
      </trkpt>
      <trkpt lat="38.76941" lon="-0.44525">
        <ele>441.0</ele>
        <time>2020-11-28T08:27:16Z</time>
      </trkpt>
      <trkpt lat="38.77005" lon="-0.44538">
        <ele>440.0</ele>
        <time>2020-11-28T08:27:19Z</time>
      </trkpt>
      <trkpt lat="38.77069" lon="-0.44554">
        <ele>438.0</ele>
        <time>2020-11-28T08:27:22Z</time>
      </trkpt>
      <trkpt lat="38.77136" lon="-0.44577">
        <ele>437.0</ele>
        <time>2020-11-28T08:27:25Z</time>
      </trkpt>
      <trkpt lat="38.77202" lon="-0.44606">
        <ele>436.0</ele>
        <time>2020-11-28T08:27:28Z</time>
      </trkpt>
      <trkpt lat="38.77264" lon="-0.44641">
        <ele>431.0</ele>
        <time>2020-11-28T08:27:32Z</time>
      </trkpt>
      <trkpt lat="38.77318" lon="-0.44671">
        <ele>430.0</ele>
        <time>2020-11-28T08:27:35Z</time>
      </trkpt>
      <trkpt lat="38.77370" lon="-0.44691">
        <ele>432.0</ele>
        <time>2020-11-28T08:27:38Z</time>
      </trkpt>
      <trkpt lat="38.77431" lon="-0.44695">
        <ele>429.0</ele>
        <time>2020-11-28T08:27:41Z</time>
      </trkpt>
      <trkpt lat="38.77484" lon="-0.44703">
        <ele>427.0</ele>
        <time>2020-11-28T08:27:44Z</time>
      </trkpt>
      <trkpt lat="38.77556" lon="-0.44712">
        <ele>426.0</ele>
        <time>2020-11-28T08:27:47Z</time>
      </trkpt>
      <trkpt lat="38.77635" lon="-0.44725">
        <ele>427.0</ele>
        <time>2020-11-28T08:27:50Z</time>
      </trkpt>
      <trkpt lat="38.77706" lon="-0.44736">
        <ele>428.0</ele>
        <time>2020-11-28T08:27:53Z</time>
      </trkpt>
      <trkpt lat="38.77778" lon="-0.44748">
        <ele>424.0</ele>
        <time>2020-11-28T08:27:56Z</time>
      </trkpt>
      <trkpt lat="38.77846" lon="-0.44759">
        <ele>424.0</ele>
        <time>2020-11-28T08:28:00Z</time>
      </trkpt>
      <trkpt lat="38.77918" lon="-0.44770">
        <ele>423.0</ele>
        <time>2020-11-28T08:28:03Z</time>
      </trkpt>
      <trkpt lat="38.77977" lon="-0.44781">
        <ele>420.0</ele>
        <time>2020-11-28T08:28:06Z</time>
      </trkpt>
      <trkpt lat="38.78052" lon="-0.44794">
        <ele>418.0</ele>
        <time>2020-11-28T08:28:09Z</time>
      </trkpt>
      <trkpt lat="38.78103" lon="-0.44803">
        <ele>414.0</ele>
        <time>2020-11-28T08:28:12Z</time>
      </trkpt>
      <trkpt lat="38.78144" lon="-0.44809">
        <ele>411.0</ele>
        <time>2020-11-28T08:28:15Z</time>
      </trkpt>
      <trkpt lat="38.78179" lon="-0.44809">
        <ele>412.0</ele>
        <time>2020-11-28T08:28:18Z</time>
      </trkpt>
      <trkpt lat="38.78204" lon="-0.44802">
        <ele>411.0</ele>
        <time>2020-11-28T08:28:21Z</time>
      </trkpt>
      <trkpt lat="38.78222" lon="-0.44790">
        <ele>407.0</ele>
        <time>2020-11-28T08:28:24Z</time>
      </trkpt>
      <trkpt lat="38.78241" lon="-0.44776">
        <ele>407.0</ele>
        <time>2020-11-28T08:28:28Z</time>
      </trkpt>
      <trkpt lat="38.78254" lon="-0.44765">
        <ele>406.0</ele>
        <time>2020-11-28T08:28:31Z</time>
      </trkpt>
      <trkpt lat="38.78265" lon="-0.44747">
        <ele>405.0</ele>
        <time>2020-11-28T08:28:34Z</time>
      </trkpt>
      <trkpt lat="38.78255" lon="-0.44711">
        <ele>404.0</ele>
        <time>2020-11-28T08:28:37Z</time>
      </trkpt>
      <trkpt lat="38.78246" lon="-0.44671">
        <ele>406.0</ele>
        <time>2020-11-28T08:28:40Z</time>
      </trkpt>
      <trkpt lat="38.78234" lon="-0.44622">
        <ele>406.0</ele>
        <time>2020-11-28T08:28:43Z</time>
      </trkpt>
      <trkpt lat="38.78224" lon="-0.44581">
        <ele>405.0</ele>
        <time>2020-11-28T08:28:46Z</time>
      </trkpt>
      <trkpt lat="38.78215" lon="-0.44543">
        <ele>405.0</ele>
        <time>2020-11-28T08:28:50Z</time>
      </trkpt>
      <trkpt lat="38.78205" lon="-0.44506">
        <ele>404.0</ele>
        <time>2020-11-28T08:28:53Z</time>
      </trkpt>
      <trkpt lat="38.78197" lon="-0.44472">
        <ele>405.0</ele>
        <time>2020-11-28T08:28:56Z</time>
      </trkpt>
      <trkpt lat="38.78188" lon="-0.44430">
        <ele>403.0</ele>
        <time>2020-11-28T08:28:59Z</time>
      </trkpt>
      <trkpt lat="38.78179" lon="-0.44391">
        <ele>404.0</ele>
        <time>2020-11-28T08:29:02Z</time>
      </trkpt>
      <trkpt lat="38.78172" lon="-0.44360">
        <ele>405.0</ele>
        <time>2020-11-28T08:29:05Z</time>
      </trkpt>
      <trkpt lat="38.78168" lon="-0.44343">
        <ele>406.0</ele>
        <time>2020-11-28T08:29:09Z</time>
      </trkpt>
      <trkpt lat="38.78165" lon="-0.44331">
        <ele>407.0</ele>
        <time>2020-11-28T08:29:13Z</time>
      </trkpt>
      <trkpt lat="38.78149" lon="-0.44339">
        <ele>408.0</ele>
        <time>2020-11-28T08:29:16Z</time>
      </trkpt>
      <trkpt lat="38.78128" lon="-0.44347">
        <ele>409.0</ele>
        <time>2020-11-28T08:29:19Z</time>
      </trkpt>
      <trkpt lat="38.78109" lon="-0.44355">
        <ele>410.0</ele>
        <time>2020-11-28T08:29:22Z</time>
      </trkpt>
      <trkpt lat="38.78100" lon="-0.44359">
        <ele>410.0</ele>
        <time>2020-11-28T08:29:25Z</time>
      </trkpt>
      <trkpt lat="38.78087" lon="-0.44363">
        <ele>411.0</ele>
        <time>2020-11-28T08:29:38Z</time>
      </trkpt>
      <trkpt lat="38.78071" lon="-0.44329">
        <ele>411.0</ele>
        <time>2020-11-28T08:29:41Z</time>
      </trkpt>
      <trkpt lat="38.78058" lon="-0.44294">
        <ele>411.0</ele>
        <time>2020-11-28T08:29:45Z</time>
      </trkpt>
      <trkpt lat="38.78048" lon="-0.44265">
        <ele>412.0</ele>
        <time>2020-11-28T08:29:48Z</time>
      </trkpt>
      <trkpt lat="38.78037" lon="-0.44230">
        <ele>412.0</ele>
        <time>2020-11-28T08:29:51Z</time>
      </trkpt>
      <trkpt lat="38.78029" lon="-0.44207">
        <ele>410.0</ele>
        <time>2020-11-28T08:29:54Z</time>
      </trkpt>
      <trkpt lat="38.78023" lon="-0.44191">
        <ele>409.0</ele>
        <time>2020-11-28T08:29:57Z</time>
      </trkpt>
      <trkpt lat="38.78019" lon="-0.44177">
        <ele>408.0</ele>
        <time>2020-11-28T08:30:00Z</time>
      </trkpt>
      <trkpt lat="38.78007" lon="-0.44164">
        <ele>408.0</ele>
        <time>2020-11-28T08:30:03Z</time>
      </trkpt>
      <trkpt lat="38.78025" lon="-0.44157">
        <ele>408.0</ele>
        <time>2020-11-28T08:30:06Z</time>
      </trkpt>
      <trkpt lat="38.78046" lon="-0.44162">
        <ele>409.0</ele>
        <time>2020-11-28T08:30:09Z</time>
      </trkpt>
      <trkpt lat="38.78066" lon="-0.44161">
        <ele>409.0</ele>
        <time>2020-11-28T08:30:13Z</time>
      </trkpt>
      <trkpt lat="38.78088" lon="-0.44157">
        <ele>407.0</ele>
        <time>2020-11-28T08:30:16Z</time>
      </trkpt>
      <trkpt lat="38.78100" lon="-0.44155">
        <ele>407.0</ele>
        <time>2020-11-28T08:30:19Z</time>
      </trkpt>
      <trkpt lat="38.78126" lon="-0.44151">
        <ele>420.0</ele>
        <time>2020-11-28T08:31:24Z</time>
      </trkpt>
      <trkpt lat="38.78129" lon="-0.44162">
        <ele>419.0</ele>
        <time>2020-11-28T08:31:28Z</time>
      </trkpt>
      <trkpt lat="38.78139" lon="-0.44206">
        <ele>418.0</ele>
        <time>2020-11-28T08:31:31Z</time>
      </trkpt>
      <trkpt lat="38.78148" lon="-0.44243">
        <ele>419.0</ele>
        <time>2020-11-28T08:31:34Z</time>
      </trkpt>
      <trkpt lat="38.78151" lon="-0.44256">
        <ele>419.0</ele>
        <time>2020-11-28T08:31:37Z</time>
      </trkpt>
      <trkpt lat="38.78166" lon="-0.44333">
        <ele>419.0</ele>
        <time>2020-11-28T08:31:40Z</time>
      </trkpt>
      <trkpt lat="38.78176" lon="-0.44378">
        <ele>418.0</ele>
        <time>2020-11-28T08:31:43Z</time>
      </trkpt>
      <trkpt lat="38.78182" lon="-0.44406">
        <ele>417.0</ele>
        <time>2020-11-28T08:31:46Z</time>
      </trkpt>
      <trkpt lat="38.78194" lon="-0.44460">
        <ele>416.0</ele>
        <time>2020-11-28T08:31:50Z</time>
      </trkpt>
      <trkpt lat="38.78203" lon="-0.44499">
        <ele>415.0</ele>
        <time>2020-11-28T08:31:53Z</time>
      </trkpt>
      <trkpt lat="38.78216" lon="-0.44549">
        <ele>414.0</ele>
        <time>2020-11-28T08:31:56Z</time>
      </trkpt>
      <trkpt lat="38.78229" lon="-0.44598">
        <ele>416.0</ele>
        <time>2020-11-28T08:31:59Z</time>
      </trkpt>
      <trkpt lat="38.78238" lon="-0.44638">
        <ele>416.0</ele>
        <time>2020-11-28T08:32:02Z</time>
      </trkpt>
      <trkpt lat="38.78247" lon="-0.44678">
        <ele>416.0</ele>
        <time>2020-11-28T08:32:06Z</time>
      </trkpt>
      <trkpt lat="38.78252" lon="-0.44699">
        <ele>417.0</ele>
        <time>2020-11-28T08:32:09Z</time>
      </trkpt>
      <trkpt lat="38.78256" lon="-0.44717">
        <ele>416.0</ele>
        <time>2020-11-28T08:32:13Z</time>
      </trkpt>
      <trkpt lat="38.78260" lon="-0.44739">
        <ele>417.0</ele>
        <time>2020-11-28T08:32:16Z</time>
      </trkpt>
      <trkpt lat="38.78269" lon="-0.44749">
        <ele>417.0</ele>
        <time>2020-11-28T08:32:19Z</time>
      </trkpt>
      <trkpt lat="38.78264" lon="-0.44783">
        <ele>414.0</ele>
        <time>2020-11-28T08:32:22Z</time>
      </trkpt>
      <trkpt lat="38.78268" lon="-0.44834">
        <ele>411.0</ele>
        <time>2020-11-28T08:32:25Z</time>
      </trkpt>
      <trkpt lat="38.78274" lon="-0.44867">
        <ele>414.0</ele>
        <time>2020-11-28T08:32:28Z</time>
      </trkpt>
      <trkpt lat="38.78295" lon="-0.44899">
        <ele>416.0</ele>
        <time>2020-11-28T08:32:31Z</time>
      </trkpt>
      <trkpt lat="38.78309" lon="-0.44921">
        <ele>418.0</ele>
        <time>2020-11-28T08:32:34Z</time>
      </trkpt>
      <trkpt lat="38.78315" lon="-0.44955">
        <ele>420.0</ele>
        <time>2020-11-28T08:32:38Z</time>
      </trkpt>
      <trkpt lat="38.78335" lon="-0.45013">
        <ele>421.0</ele>
        <time>2020-11-28T08:32:41Z</time>
      </trkpt>
      <trkpt lat="38.78357" lon="-0.45072">
        <ele>422.0</ele>
        <time>2020-11-28T08:32:44Z</time>
      </trkpt>
      <trkpt lat="38.78382" lon="-0.45136">
        <ele>424.0</ele>
        <time>2020-11-28T08:32:47Z</time>
      </trkpt>
      <trkpt lat="38.78408" lon="-0.45205">
        <ele>429.0</ele>
        <time>2020-11-28T08:32:50Z</time>
      </trkpt>
      <trkpt lat="38.78436" lon="-0.45283">
        <ele>429.0</ele>
        <time>2020-11-28T08:32:53Z</time>
      </trkpt>
      <trkpt lat="38.78466" lon="-0.45361">
        <ele>435.0</ele>
        <time>2020-11-28T08:32:57Z</time>
      </trkpt>
      <trkpt lat="38.78493" lon="-0.45430">
        <ele>440.0</ele>
        <time>2020-11-28T08:33:00Z</time>
      </trkpt>
      <trkpt lat="38.78520" lon="-0.45497">
        <ele>444.0</ele>
        <time>2020-11-28T08:33:03Z</time>
      </trkpt>
      <trkpt lat="38.78543" lon="-0.45558">
        <ele>443.0</ele>
        <time>2020-11-28T08:33:06Z</time>
      </trkpt>
      <trkpt lat="38.78565" lon="-0.45617">
        <ele>444.0</ele>
        <time>2020-11-28T08:33:09Z</time>
      </trkpt>
      <trkpt lat="38.78583" lon="-0.45683">
        <ele>447.0</ele>
        <time>2020-11-28T08:33:13Z</time>
      </trkpt>
      <trkpt lat="38.78592" lon="-0.45753">
        <ele>448.0</ele>
        <time>2020-11-28T08:33:16Z</time>
      </trkpt>
      <trkpt lat="38.78603" lon="-0.45821">
        <ele>450.0</ele>
        <time>2020-11-28T08:33:19Z</time>
      </trkpt>
      <trkpt lat="38.78614" lon="-0.45882">
        <ele>453.0</ele>
        <time>2020-11-28T08:33:22Z</time>
      </trkpt>
      <trkpt lat="38.78628" lon="-0.45927">
        <ele>453.0</ele>
        <time>2020-11-28T08:33:25Z</time>
      </trkpt>
      <trkpt lat="38.78649" lon="-0.45957">
        <ele>453.0</ele>
        <time>2020-11-28T08:33:28Z</time>
      </trkpt>
      <trkpt lat="38.78684" lon="-0.46005">
        <ele>456.0</ele>
        <time>2020-11-28T08:33:31Z</time>
      </trkpt>
      <trkpt lat="38.78715" lon="-0.46046">
        <ele>458.0</ele>
        <time>2020-11-28T08:33:35Z</time>
      </trkpt>
      <trkpt lat="38.78745" lon="-0.46076">
        <ele>460.0</ele>
        <time>2020-11-28T08:33:38Z</time>
      </trkpt>
      <trkpt lat="38.78783" lon="-0.46092">
        <ele>461.0</ele>
        <time>2020-11-28T08:33:41Z</time>
      </trkpt>
      <trkpt lat="38.78838" lon="-0.46111">
        <ele>462.0</ele>
        <time>2020-11-28T08:33:44Z</time>
      </trkpt>
      <trkpt lat="38.78890" lon="-0.46128">
        <ele>465.0</ele>
        <time>2020-11-28T08:33:47Z</time>
      </trkpt>
      <trkpt lat="38.78928" lon="-0.46150">
        <ele>466.0</ele>
        <time>2020-11-28T08:33:51Z</time>
      </trkpt>
      <trkpt lat="38.78951" lon="-0.46172">
        <ele>467.0</ele>
        <time>2020-11-28T08:33:54Z</time>
      </trkpt>
      <trkpt lat="38.78968" lon="-0.46205">
        <ele>467.0</ele>
        <time>2020-11-28T08:33:57Z</time>
      </trkpt>
      <trkpt lat="38.78986" lon="-0.46257">
        <ele>469.0</ele>
        <time>2020-11-28T08:34:00Z</time>
      </trkpt>
      <trkpt lat="38.79005" lon="-0.46312">
        <ele>472.0</ele>
        <time>2020-11-28T08:34:03Z</time>
      </trkpt>
      <trkpt lat="38.79018" lon="-0.46361">
        <ele>471.0</ele>
        <time>2020-11-28T08:34:07Z</time>
      </trkpt>
      <trkpt lat="38.79020" lon="-0.46415">
        <ele>472.0</ele>
        <time>2020-11-28T08:34:10Z</time>
      </trkpt>
      <trkpt lat="38.79030" lon="-0.46457">
        <ele>472.0</ele>
        <time>2020-11-28T08:34:13Z</time>
      </trkpt>
      <trkpt lat="38.79049" lon="-0.46504">
        <ele>472.0</ele>
        <time>2020-11-28T08:34:16Z</time>
      </trkpt>
      <trkpt lat="38.79062" lon="-0.46570">
        <ele>475.0</ele>
        <time>2020-11-28T08:34:19Z</time>
      </trkpt>
      <trkpt lat="38.79075" lon="-0.46623">
        <ele>474.0</ele>
        <time>2020-11-28T08:34:23Z</time>
      </trkpt>
      <trkpt lat="38.79084" lon="-0.46671">
        <ele>475.0</ele>
        <time>2020-11-28T08:34:26Z</time>
      </trkpt>
      <trkpt lat="38.79083" lon="-0.46728">
        <ele>474.0</ele>
        <time>2020-11-28T08:34:29Z</time>
      </trkpt>
      <trkpt lat="38.79090" lon="-0.46775">
        <ele>475.0</ele>
        <time>2020-11-28T08:34:32Z</time>
      </trkpt>
      <trkpt lat="38.79103" lon="-0.46817">
        <ele>476.0</ele>
        <time>2020-11-28T08:34:35Z</time>
      </trkpt>
      <trkpt lat="38.79127" lon="-0.46870">
        <ele>477.0</ele>
        <time>2020-11-28T08:34:39Z</time>
      </trkpt>
      <trkpt lat="38.79143" lon="-0.46910">
        <ele>477.0</ele>
        <time>2020-11-28T08:34:42Z</time>
      </trkpt>
      <trkpt lat="38.79150" lon="-0.46941">
        <ele>477.0</ele>
        <time>2020-11-28T08:34:45Z</time>
      </trkpt>
      <trkpt lat="38.79146" lon="-0.46993">
        <ele>479.0</ele>
        <time>2020-11-28T08:34:48Z</time>
      </trkpt>
      <trkpt lat="38.79142" lon="-0.47045">
        <ele>480.0</ele>
        <time>2020-11-28T08:34:51Z</time>
      </trkpt>
      <trkpt lat="38.79144" lon="-0.47090">
        <ele>481.0</ele>
        <time>2020-11-28T08:34:55Z</time>
      </trkpt>
      <trkpt lat="38.79147" lon="-0.47140">
        <ele>483.0</ele>
        <time>2020-11-28T08:34:58Z</time>
      </trkpt>
      <trkpt lat="38.79143" lon="-0.47187">
        <ele>484.0</ele>
        <time>2020-11-28T08:35:01Z</time>
      </trkpt>
      <trkpt lat="38.79142" lon="-0.47228">
        <ele>485.0</ele>
        <time>2020-11-28T08:35:04Z</time>
      </trkpt>
      <trkpt lat="38.79148" lon="-0.47269">
        <ele>486.0</ele>
        <time>2020-11-28T08:35:07Z</time>
      </trkpt>
      <trkpt lat="38.79158" lon="-0.47303">
        <ele>487.0</ele>
        <time>2020-11-28T08:35:11Z</time>
      </trkpt>
      <trkpt lat="38.79178" lon="-0.47321">
        <ele>487.0</ele>
        <time>2020-11-28T08:35:14Z</time>
      </trkpt>
      <trkpt lat="38.79206" lon="-0.47340">
        <ele>487.0</ele>
        <time>2020-11-28T08:35:17Z</time>
      </trkpt>
      <trkpt lat="38.79224" lon="-0.47366">
        <ele>487.0</ele>
        <time>2020-11-28T08:35:20Z</time>
      </trkpt>
      <trkpt lat="38.79231" lon="-0.47401">
        <ele>489.0</ele>
        <time>2020-11-28T08:35:23Z</time>
      </trkpt>
      <trkpt lat="38.79238" lon="-0.47448">
        <ele>492.0</ele>
        <time>2020-11-28T08:35:27Z</time>
      </trkpt>
      <trkpt lat="38.79249" lon="-0.47483">
        <ele>495.0</ele>
        <time>2020-11-28T08:35:30Z</time>
      </trkpt>
      <trkpt lat="38.79264" lon="-0.47520">
        <ele>495.0</ele>
        <time>2020-11-28T08:35:33Z</time>
      </trkpt>
      <trkpt lat="38.79262" lon="-0.47547">
        <ele>493.0</ele>
        <time>2020-11-28T08:35:36Z</time>
      </trkpt>
      <trkpt lat="38.79250" lon="-0.47567">
        <ele>494.0</ele>
        <time>2020-11-28T08:35:39Z</time>
      </trkpt>
      <trkpt lat="38.79228" lon="-0.47588">
        <ele>497.0</ele>
        <time>2020-11-28T08:35:42Z</time>
      </trkpt>
      <trkpt lat="38.79211" lon="-0.47604">
        <ele>496.0</ele>
        <time>2020-11-28T08:35:46Z</time>
      </trkpt>
      <trkpt lat="38.79199" lon="-0.47626">
        <ele>496.0</ele>
        <time>2020-11-28T08:35:49Z</time>
      </trkpt>
      <trkpt lat="38.79199" lon="-0.47666">
        <ele>496.0</ele>
        <time>2020-11-28T08:35:52Z</time>
      </trkpt>
      <trkpt lat="38.79209" lon="-0.47719">
        <ele>498.0</ele>
        <time>2020-11-28T08:35:55Z</time>
      </trkpt>
      <trkpt lat="38.79221" lon="-0.47751">
        <ele>498.0</ele>
        <time>2020-11-28T08:35:58Z</time>
      </trkpt>
      <trkpt lat="38.79244" lon="-0.47775">
        <ele>498.0</ele>
        <time>2020-11-28T08:36:02Z</time>
      </trkpt>
      <trkpt lat="38.79277" lon="-0.47802">
        <ele>499.0</ele>
        <time>2020-11-28T08:36:05Z</time>
      </trkpt>
      <trkpt lat="38.79322" lon="-0.47839">
        <ele>500.0</ele>
        <time>2020-11-28T08:36:08Z</time>
      </trkpt>
      <trkpt lat="38.79354" lon="-0.47868">
        <ele>498.0</ele>
        <time>2020-11-28T08:36:11Z</time>
      </trkpt>
      <trkpt lat="38.79363" lon="-0.47888">
        <ele>497.0</ele>
        <time>2020-11-28T08:36:15Z</time>
      </trkpt>
      <trkpt lat="38.79358" lon="-0.47919">
        <ele>498.0</ele>
        <time>2020-11-28T08:36:18Z</time>
      </trkpt>
      <trkpt lat="38.79346" lon="-0.47958">
        <ele>498.0</ele>
        <time>2020-11-28T08:36:21Z</time>
      </trkpt>
      <trkpt lat="38.79346" lon="-0.47978">
        <ele>498.0</ele>
        <time>2020-11-28T08:36:24Z</time>
      </trkpt>
      <trkpt lat="38.79359" lon="-0.48010">
        <ele>499.0</ele>
        <time>2020-11-28T08:36:27Z</time>
      </trkpt>
      <trkpt lat="38.79374" lon="-0.48048">
        <ele>501.0</ele>
        <time>2020-11-28T08:36:30Z</time>
      </trkpt>
      <trkpt lat="38.79378" lon="-0.48079">
        <ele>502.0</ele>
        <time>2020-11-28T08:36:34Z</time>
      </trkpt>
      <trkpt lat="38.79377" lon="-0.48121">
        <ele>504.0</ele>
        <time>2020-11-28T08:36:37Z</time>
      </trkpt>
      <trkpt lat="38.79381" lon="-0.48164">
        <ele>505.0</ele>
        <time>2020-11-28T08:36:40Z</time>
      </trkpt>
      <trkpt lat="38.79382" lon="-0.48222">
        <ele>505.0</ele>
        <time>2020-11-28T08:36:43Z</time>
      </trkpt>
      <trkpt lat="38.79380" lon="-0.48272">
        <ele>506.0</ele>
        <time>2020-11-28T08:36:46Z</time>
      </trkpt>
      <trkpt lat="38.79370" lon="-0.48319">
        <ele>506.0</ele>
        <time>2020-11-28T08:36:49Z</time>
      </trkpt>
      <trkpt lat="38.79352" lon="-0.48365">
        <ele>507.0</ele>
        <time>2020-11-28T08:36:53Z</time>
      </trkpt>
      <trkpt lat="38.79344" lon="-0.48411">
        <ele>507.0</ele>
        <time>2020-11-28T08:36:56Z</time>
      </trkpt>
      <trkpt lat="38.79336" lon="-0.48471">
        <ele>508.0</ele>
        <time>2020-11-28T08:36:59Z</time>
      </trkpt>
      <trkpt lat="38.79333" lon="-0.48536">
        <ele>511.0</ele>
        <time>2020-11-28T08:37:02Z</time>
      </trkpt>
      <trkpt lat="38.79331" lon="-0.48600">
        <ele>511.0</ele>
        <time>2020-11-28T08:37:05Z</time>
      </trkpt>
      <trkpt lat="38.79332" lon="-0.48648">
        <ele>511.0</ele>
        <time>2020-11-28T08:37:08Z</time>
      </trkpt>
      <trkpt lat="38.79341" lon="-0.48693">
        <ele>512.0</ele>
        <time>2020-11-28T08:37:12Z</time>
      </trkpt>
      <trkpt lat="38.79356" lon="-0.48742">
        <ele>513.0</ele>
        <time>2020-11-28T08:37:15Z</time>
      </trkpt>
      <trkpt lat="38.79361" lon="-0.48792">
        <ele>515.0</ele>
        <time>2020-11-28T08:37:18Z</time>
      </trkpt>
      <trkpt lat="38.79362" lon="-0.48848">
        <ele>516.0</ele>
        <time>2020-11-28T08:37:21Z</time>
      </trkpt>
      <trkpt lat="38.79357" lon="-0.48890">
        <ele>516.0</ele>
        <time>2020-11-28T08:37:24Z</time>
      </trkpt>
      <trkpt lat="38.79337" lon="-0.48927">
        <ele>518.0</ele>
        <time>2020-11-28T08:37:28Z</time>
      </trkpt>
      <trkpt lat="38.79325" lon="-0.48953">
        <ele>519.0</ele>
        <time>2020-11-28T08:37:31Z</time>
      </trkpt>
      <trkpt lat="38.79325" lon="-0.48984">
        <ele>520.0</ele>
        <time>2020-11-28T08:37:34Z</time>
      </trkpt>
      <trkpt lat="38.79333" lon="-0.49029">
        <ele>523.0</ele>
        <time>2020-11-28T08:37:37Z</time>
      </trkpt>
      <trkpt lat="38.79347" lon="-0.49083">
        <ele>526.0</ele>
        <time>2020-11-28T08:37:40Z</time>
      </trkpt>
      <trkpt lat="38.79362" lon="-0.49137">
        <ele>528.0</ele>
        <time>2020-11-28T08:37:43Z</time>
      </trkpt>
      <trkpt lat="38.79369" lon="-0.49194">
        <ele>529.0</ele>
        <time>2020-11-28T08:37:47Z</time>
      </trkpt>
      <trkpt lat="38.79372" lon="-0.49255">
        <ele>533.0</ele>
        <time>2020-11-28T08:37:50Z</time>
      </trkpt>
      <trkpt lat="38.79376" lon="-0.49310">
        <ele>535.0</ele>
        <time>2020-11-28T08:37:53Z</time>
      </trkpt>
      <trkpt lat="38.79371" lon="-0.49363">
        <ele>539.0</ele>
        <time>2020-11-28T08:37:56Z</time>
      </trkpt>
      <trkpt lat="38.79367" lon="-0.49402">
        <ele>538.0</ele>
        <time>2020-11-28T08:37:59Z</time>
      </trkpt>
      <trkpt lat="38.79368" lon="-0.49429">
        <ele>536.0</ele>
        <time>2020-11-28T08:38:02Z</time>
      </trkpt>
      <trkpt lat="38.79376" lon="-0.49463">
        <ele>534.0</ele>
        <time>2020-11-28T08:38:06Z</time>
      </trkpt>
      <trkpt lat="38.79377" lon="-0.49490">
        <ele>531.0</ele>
        <time>2020-11-28T08:38:09Z</time>
      </trkpt>
      <trkpt lat="38.79364" lon="-0.49508">
        <ele>531.0</ele>
        <time>2020-11-28T08:38:12Z</time>
      </trkpt>
      <trkpt lat="38.79346" lon="-0.49507">
        <ele>530.0</ele>
        <time>2020-11-28T08:38:15Z</time>
      </trkpt>
      <trkpt lat="38.79327" lon="-0.49491">
        <ele>531.0</ele>
        <time>2020-11-28T08:38:18Z</time>
      </trkpt>
      <trkpt lat="38.79309" lon="-0.49489">
        <ele>532.0</ele>
        <time>2020-11-28T08:38:22Z</time>
      </trkpt>
      <trkpt lat="38.79276" lon="-0.49506">
        <ele>533.0</ele>
        <time>2020-11-28T08:38:25Z</time>
      </trkpt>
      <trkpt lat="38.79252" lon="-0.49522">
        <ele>535.0</ele>
        <time>2020-11-28T08:38:28Z</time>
      </trkpt>
      <trkpt lat="38.79237" lon="-0.49550">
        <ele>537.0</ele>
        <time>2020-11-28T08:38:31Z</time>
      </trkpt>
      <trkpt lat="38.79222" lon="-0.49602">
        <ele>540.0</ele>
        <time>2020-11-28T08:38:34Z</time>
      </trkpt>
      <trkpt lat="38.79206" lon="-0.49656">
        <ele>543.0</ele>
        <time>2020-11-28T08:38:38Z</time>
      </trkpt>
      <trkpt lat="38.79192" lon="-0.49703">
        <ele>545.0</ele>
        <time>2020-11-28T08:38:41Z</time>
      </trkpt>
      <trkpt lat="38.79185" lon="-0.49736">
        <ele>546.0</ele>
        <time>2020-11-28T08:38:44Z</time>
      </trkpt>
      <trkpt lat="38.79192" lon="-0.49766">
        <ele>546.0</ele>
        <time>2020-11-28T08:38:47Z</time>
      </trkpt>
      <trkpt lat="38.79208" lon="-0.49821">
        <ele>547.0</ele>
        <time>2020-11-28T08:38:50Z</time>
      </trkpt>
      <trkpt lat="38.79226" lon="-0.49880">
        <ele>549.0</ele>
        <time>2020-11-28T08:38:54Z</time>
      </trkpt>
      <trkpt lat="38.79243" lon="-0.49940">
        <ele>548.0</ele>
        <time>2020-11-28T08:38:57Z</time>
      </trkpt>
      <trkpt lat="38.79259" lon="-0.50002">
        <ele>546.0</ele>
        <time>2020-11-28T08:39:00Z</time>
      </trkpt>
      <trkpt lat="38.79272" lon="-0.50053">
        <ele>546.0</ele>
        <time>2020-11-28T08:39:03Z</time>
      </trkpt>
      <trkpt lat="38.79282" lon="-0.50088">
        <ele>545.0</ele>
        <time>2020-11-28T08:39:06Z</time>
      </trkpt>
      <trkpt lat="38.79295" lon="-0.50101">
        <ele>545.0</ele>
        <time>2020-11-28T08:39:09Z</time>
      </trkpt>
      <trkpt lat="38.79328" lon="-0.50112">
        <ele>547.0</ele>
        <time>2020-11-28T08:39:13Z</time>
      </trkpt>
      <trkpt lat="38.79345" lon="-0.50134">
        <ele>549.0</ele>
        <time>2020-11-28T08:39:17Z</time>
      </trkpt>
      <trkpt lat="38.79350" lon="-0.50161">
        <ele>551.0</ele>
        <time>2020-11-28T08:39:20Z</time>
      </trkpt>
      <trkpt lat="38.79346" lon="-0.50195">
        <ele>553.0</ele>
        <time>2020-11-28T08:39:23Z</time>
      </trkpt>
      <trkpt lat="38.79327" lon="-0.50221">
        <ele>555.0</ele>
        <time>2020-11-28T08:39:27Z</time>
      </trkpt>
      <trkpt lat="38.79285" lon="-0.50237">
        <ele>558.0</ele>
        <time>2020-11-28T08:39:30Z</time>
      </trkpt>
      <trkpt lat="38.79261" lon="-0.50243">
        <ele>559.0</ele>
        <time>2020-11-28T08:39:34Z</time>
      </trkpt>
      <trkpt lat="38.79237" lon="-0.50249">
        <ele>559.0</ele>
        <time>2020-11-28T08:39:37Z</time>
      </trkpt>
      <trkpt lat="38.79227" lon="-0.50255">
        <ele>561.0</ele>
        <time>2020-11-28T08:39:40Z</time>
      </trkpt>
      <trkpt lat="38.79220" lon="-0.50277">
        <ele>563.0</ele>
        <time>2020-11-28T08:39:43Z</time>
      </trkpt>
      <trkpt lat="38.79226" lon="-0.50317">
        <ele>564.0</ele>
        <time>2020-11-28T08:39:46Z</time>
      </trkpt>
      <trkpt lat="38.79229" lon="-0.50369">
        <ele>567.0</ele>
        <time>2020-11-28T08:39:49Z</time>
      </trkpt>
      <trkpt lat="38.79234" lon="-0.50419">
        <ele>568.0</ele>
        <time>2020-11-28T08:39:53Z</time>
      </trkpt>
      <trkpt lat="38.79239" lon="-0.50466">
        <ele>568.0</ele>
        <time>2020-11-28T08:39:56Z</time>
      </trkpt>
      <trkpt lat="38.79234" lon="-0.50494">
        <ele>569.0</ele>
        <time>2020-11-28T08:39:59Z</time>
      </trkpt>
      <trkpt lat="38.79217" lon="-0.50522">
        <ele>571.0</ele>
        <time>2020-11-28T08:40:02Z</time>
      </trkpt>
      <trkpt lat="38.79191" lon="-0.50542">
        <ele>573.0</ele>
        <time>2020-11-28T08:40:05Z</time>
      </trkpt>
      <trkpt lat="38.79170" lon="-0.50560">
        <ele>574.0</ele>
        <time>2020-11-28T08:40:09Z</time>
      </trkpt>
      <trkpt lat="38.79156" lon="-0.50594">
        <ele>575.0</ele>
        <time>2020-11-28T08:40:12Z</time>
      </trkpt>
      <trkpt lat="38.79137" lon="-0.50630">
        <ele>577.0</ele>
        <time>2020-11-28T08:40:15Z</time>
      </trkpt>
      <trkpt lat="38.79119" lon="-0.50662">
        <ele>579.0</ele>
        <time>2020-11-28T08:40:18Z</time>
      </trkpt>
      <trkpt lat="38.79115" lon="-0.50689">
        <ele>580.0</ele>
        <time>2020-11-28T08:40:21Z</time>
      </trkpt>
      <trkpt lat="38.79126" lon="-0.50718">
        <ele>581.0</ele>
        <time>2020-11-28T08:40:25Z</time>
      </trkpt>
      <trkpt lat="38.79134" lon="-0.50755">
        <ele>585.0</ele>
        <time>2020-11-28T08:40:28Z</time>
      </trkpt>
      <trkpt lat="38.79127" lon="-0.50784">
        <ele>586.0</ele>
        <time>2020-11-28T08:40:31Z</time>
      </trkpt>
      <trkpt lat="38.79106" lon="-0.50815">
        <ele>588.0</ele>
        <time>2020-11-28T08:40:34Z</time>
      </trkpt>
      <trkpt lat="38.79076" lon="-0.50845">
        <ele>590.0</ele>
        <time>2020-11-28T08:40:37Z</time>
      </trkpt>
      <trkpt lat="38.79054" lon="-0.50885">
        <ele>593.0</ele>
        <time>2020-11-28T08:40:40Z</time>
      </trkpt>
      <trkpt lat="38.79030" lon="-0.50933">
        <ele>595.0</ele>
        <time>2020-11-28T08:40:44Z</time>
      </trkpt>
      <trkpt lat="38.79009" lon="-0.50969">
        <ele>598.0</ele>
        <time>2020-11-28T08:40:47Z</time>
      </trkpt>
      <trkpt lat="38.78973" lon="-0.51001">
        <ele>601.0</ele>
        <time>2020-11-28T08:40:50Z</time>
      </trkpt>
      <trkpt lat="38.78929" lon="-0.51037">
        <ele>605.0</ele>
        <time>2020-11-28T08:40:53Z</time>
      </trkpt>
      <trkpt lat="38.78894" lon="-0.51066">
        <ele>609.0</ele>
        <time>2020-11-28T08:40:56Z</time>
      </trkpt>
      <trkpt lat="38.78863" lon="-0.51092">
        <ele>612.0</ele>
        <time>2020-11-28T08:40:59Z</time>
      </trkpt>
      <trkpt lat="38.78834" lon="-0.51122">
        <ele>614.0</ele>
        <time>2020-11-28T08:41:02Z</time>
      </trkpt>
      <trkpt lat="38.78807" lon="-0.51164">
        <ele>615.0</ele>
        <time>2020-11-28T08:41:06Z</time>
      </trkpt>
      <trkpt lat="38.78782" lon="-0.51217">
        <ele>617.0</ele>
        <time>2020-11-28T08:41:09Z</time>
      </trkpt>
      <trkpt lat="38.78755" lon="-0.51276">
        <ele>619.0</ele>
        <time>2020-11-28T08:41:12Z</time>
      </trkpt>
      <trkpt lat="38.78733" lon="-0.51319">
        <ele>621.0</ele>
        <time>2020-11-28T08:41:15Z</time>
      </trkpt>
      <trkpt lat="38.78712" lon="-0.51338">
        <ele>623.0</ele>
        <time>2020-11-28T08:41:18Z</time>
      </trkpt>
      <trkpt lat="38.78680" lon="-0.51361">
        <ele>625.0</ele>
        <time>2020-11-28T08:41:22Z</time>
      </trkpt>
      <trkpt lat="38.78661" lon="-0.51388">
        <ele>627.0</ele>
        <time>2020-11-28T08:41:25Z</time>
      </trkpt>
      <trkpt lat="38.78649" lon="-0.51433">
        <ele>629.0</ele>
        <time>2020-11-28T08:41:28Z</time>
      </trkpt>
      <trkpt lat="38.78642" lon="-0.51485">
        <ele>632.0</ele>
        <time>2020-11-28T08:41:31Z</time>
      </trkpt>
      <trkpt lat="38.78643" lon="-0.51539">
        <ele>635.0</ele>
        <time>2020-11-28T08:41:34Z</time>
      </trkpt>
      <trkpt lat="38.78644" lon="-0.51582">
        <ele>637.0</ele>
        <time>2020-11-28T08:41:37Z</time>
      </trkpt>
      <trkpt lat="38.78634" lon="-0.51615">
        <ele>639.0</ele>
        <time>2020-11-28T08:41:41Z</time>
      </trkpt>
      <trkpt lat="38.78615" lon="-0.51650">
        <ele>641.0</ele>
        <time>2020-11-28T08:41:44Z</time>
      </trkpt>
      <trkpt lat="38.78586" lon="-0.51674">
        <ele>644.0</ele>
        <time>2020-11-28T08:41:47Z</time>
      </trkpt>
      <trkpt lat="38.78548" lon="-0.51689">
        <ele>646.0</ele>
        <time>2020-11-28T08:41:50Z</time>
      </trkpt>
      <trkpt lat="38.78510" lon="-0.51693">
        <ele>649.0</ele>
        <time>2020-11-28T08:41:53Z</time>
      </trkpt>
      <trkpt lat="38.78470" lon="-0.51687">
        <ele>652.0</ele>
        <time>2020-11-28T08:41:57Z</time>
      </trkpt>
      <trkpt lat="38.78435" lon="-0.51677">
        <ele>656.0</ele>
        <time>2020-11-28T08:42:00Z</time>
      </trkpt>
      <trkpt lat="38.78406" lon="-0.51680">
        <ele>658.0</ele>
        <time>2020-11-28T08:42:03Z</time>
      </trkpt>
      <trkpt lat="38.78377" lon="-0.51690">
        <ele>660.0</ele>
        <time>2020-11-28T08:42:06Z</time>
      </trkpt>
      <trkpt lat="38.78343" lon="-0.51714">
        <ele>659.0</ele>
        <time>2020-11-28T08:42:10Z</time>
      </trkpt>
      <trkpt lat="38.78330" lon="-0.51745">
        <ele>658.0</ele>
        <time>2020-11-28T08:42:14Z</time>
      </trkpt>
      <trkpt lat="38.78318" lon="-0.51793">
        <ele>659.0</ele>
        <time>2020-11-28T08:42:17Z</time>
      </trkpt>
      <trkpt lat="38.78303" lon="-0.51841">
        <ele>659.0</ele>
        <time>2020-11-28T08:42:20Z</time>
      </trkpt>
      <trkpt lat="38.78283" lon="-0.51880">
        <ele>659.0</ele>
        <time>2020-11-28T08:42:23Z</time>
      </trkpt>
      <trkpt lat="38.78257" lon="-0.51908">
        <ele>659.0</ele>
        <time>2020-11-28T08:42:26Z</time>
      </trkpt>
      <trkpt lat="38.78219" lon="-0.51936">
        <ele>659.0</ele>
        <time>2020-11-28T08:42:30Z</time>
      </trkpt>
      <trkpt lat="38.78193" lon="-0.51957">
        <ele>659.0</ele>
        <time>2020-11-28T08:42:33Z</time>
      </trkpt>
      <trkpt lat="38.78181" lon="-0.51979">
        <ele>659.0</ele>
        <time>2020-11-28T08:42:36Z</time>
      </trkpt>
      <trkpt lat="38.78182" lon="-0.52025">
        <ele>659.0</ele>
        <time>2020-11-28T08:42:39Z</time>
      </trkpt>
      <trkpt lat="38.78184" lon="-0.52068">
        <ele>659.0</ele>
        <time>2020-11-28T08:42:42Z</time>
      </trkpt>
      <trkpt lat="38.78174" lon="-0.52090">
        <ele>659.0</ele>
        <time>2020-11-28T08:42:46Z</time>
      </trkpt>
      <trkpt lat="38.78150" lon="-0.52109">
        <ele>660.0</ele>
        <time>2020-11-28T08:42:49Z</time>
      </trkpt>
      <trkpt lat="38.78125" lon="-0.52138">
        <ele>660.0</ele>
        <time>2020-11-28T08:42:52Z</time>
      </trkpt>
      <trkpt lat="38.78099" lon="-0.52185">
        <ele>660.0</ele>
        <time>2020-11-28T08:42:55Z</time>
      </trkpt>
      <trkpt lat="38.78080" lon="-0.52223">
        <ele>660.0</ele>
        <time>2020-11-28T08:42:58Z</time>
      </trkpt>
      <trkpt lat="38.78074" lon="-0.52250">
        <ele>660.0</ele>
        <time>2020-11-28T08:43:01Z</time>
      </trkpt>
      <trkpt lat="38.78087" lon="-0.52275">
        <ele>660.0</ele>
        <time>2020-11-28T08:43:05Z</time>
      </trkpt>
      <trkpt lat="38.78126" lon="-0.52297">
        <ele>660.0</ele>
        <time>2020-11-28T08:43:08Z</time>
      </trkpt>
      <trkpt lat="38.78173" lon="-0.52322">
        <ele>660.0</ele>
        <time>2020-11-28T08:43:11Z</time>
      </trkpt>
      <trkpt lat="38.78218" lon="-0.52346">
        <ele>660.0</ele>
        <time>2020-11-28T08:43:14Z</time>
      </trkpt>
      <trkpt lat="38.78254" lon="-0.52365">
        <ele>660.0</ele>
        <time>2020-11-28T08:43:17Z</time>
      </trkpt>
      <trkpt lat="38.78272" lon="-0.52383">
        <ele>660.0</ele>
        <time>2020-11-28T08:43:20Z</time>
      </trkpt>
      <trkpt lat="38.78276" lon="-0.52411">
        <ele>660.0</ele>
        <time>2020-11-28T08:43:24Z</time>
      </trkpt>
      <trkpt lat="38.78267" lon="-0.52455">
        <ele>660.0</ele>
        <time>2020-11-28T08:43:27Z</time>
      </trkpt>
      <trkpt lat="38.78267" lon="-0.52493">
        <ele>660.0</ele>
        <time>2020-11-28T08:43:30Z</time>
      </trkpt>
      <trkpt lat="38.78276" lon="-0.52541">
        <ele>661.0</ele>
        <time>2020-11-28T08:43:33Z</time>
      </trkpt>
      <trkpt lat="38.78274" lon="-0.52595">
        <ele>662.0</ele>
        <time>2020-11-28T08:43:36Z</time>
      </trkpt>
      <trkpt lat="38.78266" lon="-0.52653">
        <ele>663.0</ele>
        <time>2020-11-28T08:43:39Z</time>
      </trkpt>
      <trkpt lat="38.78257" lon="-0.52707">
        <ele>663.0</ele>
        <time>2020-11-28T08:43:43Z</time>
      </trkpt>
      <trkpt lat="38.78247" lon="-0.52741">
        <ele>663.0</ele>
        <time>2020-11-28T08:43:46Z</time>
      </trkpt>
      <trkpt lat="38.78219" lon="-0.52779">
        <ele>664.0</ele>
        <time>2020-11-28T08:43:49Z</time>
      </trkpt>
      <trkpt lat="38.78191" lon="-0.52811">
        <ele>665.0</ele>
        <time>2020-11-28T08:43:52Z</time>
      </trkpt>
      <trkpt lat="38.78164" lon="-0.52821">
        <ele>665.0</ele>
        <time>2020-11-28T08:43:56Z</time>
      </trkpt>
      <trkpt lat="38.78127" lon="-0.52821">
        <ele>665.0</ele>
        <time>2020-11-28T08:43:59Z</time>
      </trkpt>
      <trkpt lat="38.78098" lon="-0.52821">
        <ele>665.0</ele>
        <time>2020-11-28T08:44:02Z</time>
      </trkpt>
      <trkpt lat="38.78075" lon="-0.52837">
        <ele>665.0</ele>
        <time>2020-11-28T08:44:05Z</time>
      </trkpt>
      <trkpt lat="38.78057" lon="-0.52877">
        <ele>666.0</ele>
        <time>2020-11-28T08:44:08Z</time>
      </trkpt>
      <trkpt lat="38.78039" lon="-0.52915">
        <ele>668.0</ele>
        <time>2020-11-28T08:44:12Z</time>
      </trkpt>
      <trkpt lat="38.78012" lon="-0.52944">
        <ele>668.0</ele>
        <time>2020-11-28T08:44:15Z</time>
      </trkpt>
      <trkpt lat="38.77990" lon="-0.52968">
        <ele>668.0</ele>
        <time>2020-11-28T08:44:18Z</time>
      </trkpt>
      <trkpt lat="38.77983" lon="-0.52994">
        <ele>667.0</ele>
        <time>2020-11-28T08:44:21Z</time>
      </trkpt>
      <trkpt lat="38.77981" lon="-0.53040">
        <ele>664.0</ele>
        <time>2020-11-28T08:44:24Z</time>
      </trkpt>
      <trkpt lat="38.77977" lon="-0.53076">
        <ele>662.0</ele>
        <time>2020-11-28T08:44:28Z</time>
      </trkpt>
      <trkpt lat="38.77962" lon="-0.53109">
        <ele>659.0</ele>
        <time>2020-11-28T08:44:31Z</time>
      </trkpt>
      <trkpt lat="38.77952" lon="-0.53145">
        <ele>657.0</ele>
        <time>2020-11-28T08:44:34Z</time>
      </trkpt>
      <trkpt lat="38.77948" lon="-0.53182">
        <ele>655.0</ele>
        <time>2020-11-28T08:44:37Z</time>
      </trkpt>
      <trkpt lat="38.77928" lon="-0.53211">
        <ele>653.0</ele>
        <time>2020-11-28T08:44:40Z</time>
      </trkpt>
      <trkpt lat="38.77906" lon="-0.53235">
        <ele>652.0</ele>
        <time>2020-11-28T08:44:43Z</time>
      </trkpt>
      <trkpt lat="38.77891" lon="-0.53279">
        <ele>651.0</ele>
        <time>2020-11-28T08:44:46Z</time>
      </trkpt>
      <trkpt lat="38.77869" lon="-0.53344">
        <ele>649.0</ele>
        <time>2020-11-28T08:44:49Z</time>
      </trkpt>
      <trkpt lat="38.77845" lon="-0.53404">
        <ele>647.0</ele>
        <time>2020-11-28T08:44:53Z</time>
      </trkpt>
      <trkpt lat="38.77822" lon="-0.53464">
        <ele>645.0</ele>
        <time>2020-11-28T08:44:56Z</time>
      </trkpt>
      <trkpt lat="38.77801" lon="-0.53514">
        <ele>644.0</ele>
        <time>2020-11-28T08:44:59Z</time>
      </trkpt>
      <trkpt lat="38.77781" lon="-0.53555">
        <ele>643.0</ele>
        <time>2020-11-28T08:45:02Z</time>
      </trkpt>
      <trkpt lat="38.77760" lon="-0.53584">
        <ele>642.0</ele>
        <time>2020-11-28T08:45:05Z</time>
      </trkpt>
      <trkpt lat="38.77734" lon="-0.53608">
        <ele>642.0</ele>
        <time>2020-11-28T08:45:09Z</time>
      </trkpt>
      <trkpt lat="38.77727" lon="-0.53632">
        <ele>642.0</ele>
        <time>2020-11-28T08:45:12Z</time>
      </trkpt>
      <trkpt lat="38.77721" lon="-0.53680">
        <ele>643.0</ele>
        <time>2020-11-28T08:45:15Z</time>
      </trkpt>
      <trkpt lat="38.77702" lon="-0.53739">
        <ele>643.0</ele>
        <time>2020-11-28T08:45:18Z</time>
      </trkpt>
      <trkpt lat="38.77685" lon="-0.53791">
        <ele>642.0</ele>
        <time>2020-11-28T08:45:21Z</time>
      </trkpt>
      <trkpt lat="38.77678" lon="-0.53831">
        <ele>641.0</ele>
        <time>2020-11-28T08:45:25Z</time>
      </trkpt>
      <trkpt lat="38.77678" lon="-0.53873">
        <ele>639.0</ele>
        <time>2020-11-28T08:45:28Z</time>
      </trkpt>
      <trkpt lat="38.77681" lon="-0.53908">
        <ele>638.0</ele>
        <time>2020-11-28T08:45:31Z</time>
      </trkpt>
      <trkpt lat="38.77699" lon="-0.53936">
        <ele>637.0</ele>
        <time>2020-11-28T08:45:34Z</time>
      </trkpt>
      <trkpt lat="38.77734" lon="-0.53961">
        <ele>636.0</ele>
        <time>2020-11-28T08:45:37Z</time>
      </trkpt>
      <trkpt lat="38.77764" lon="-0.53983">
        <ele>635.0</ele>
        <time>2020-11-28T08:45:40Z</time>
      </trkpt>
      <trkpt lat="38.77785" lon="-0.54008">
        <ele>634.0</ele>
        <time>2020-11-28T08:45:44Z</time>
      </trkpt>
      <trkpt lat="38.77787" lon="-0.54038">
        <ele>633.0</ele>
        <time>2020-11-28T08:45:47Z</time>
      </trkpt>
      <trkpt lat="38.77783" lon="-0.54077">
        <ele>632.0</ele>
        <time>2020-11-28T08:45:50Z</time>
      </trkpt>
      <trkpt lat="38.77771" lon="-0.54106">
        <ele>631.0</ele>
        <time>2020-11-28T08:45:53Z</time>
      </trkpt>
      <trkpt lat="38.77744" lon="-0.54141">
        <ele>629.0</ele>
        <time>2020-11-28T08:45:56Z</time>
      </trkpt>
      <trkpt lat="38.77712" lon="-0.54180">
        <ele>627.0</ele>
        <time>2020-11-28T08:46:00Z</time>
      </trkpt>
      <trkpt lat="38.77685" lon="-0.54215">
        <ele>624.0</ele>
        <time>2020-11-28T08:46:03Z</time>
      </trkpt>
      <trkpt lat="38.77670" lon="-0.54241">
        <ele>622.0</ele>
        <time>2020-11-28T08:46:06Z</time>
      </trkpt>
      <trkpt lat="38.77664" lon="-0.54286">
        <ele>620.0</ele>
        <time>2020-11-28T08:46:09Z</time>
      </trkpt>
      <trkpt lat="38.77658" lon="-0.54346">
        <ele>618.0</ele>
        <time>2020-11-28T08:46:13Z</time>
      </trkpt>
      <trkpt lat="38.77654" lon="-0.54389">
        <ele>615.0</ele>
        <time>2020-11-28T08:46:16Z</time>
      </trkpt>
      <trkpt lat="38.77648" lon="-0.54414">
        <ele>613.0</ele>
        <time>2020-11-28T08:46:19Z</time>
      </trkpt>
      <trkpt lat="38.77627" lon="-0.54431">
        <ele>612.0</ele>
        <time>2020-11-28T08:46:22Z</time>
      </trkpt>
      <trkpt lat="38.77607" lon="-0.54450">
        <ele>611.0</ele>
        <time>2020-11-28T08:46:25Z</time>
      </trkpt>
      <trkpt lat="38.77605" lon="-0.54482">
        <ele>612.0</ele>
        <time>2020-11-28T08:46:28Z</time>
      </trkpt>
      <trkpt lat="38.77611" lon="-0.54535">
        <ele>612.0</ele>
        <time>2020-11-28T08:46:32Z</time>
      </trkpt>
      <trkpt lat="38.77617" lon="-0.54599">
        <ele>610.0</ele>
        <time>2020-11-28T08:46:35Z</time>
      </trkpt>
      <trkpt lat="38.77628" lon="-0.54666">
        <ele>607.0</ele>
        <time>2020-11-28T08:46:38Z</time>
      </trkpt>
      <trkpt lat="38.77642" lon="-0.54738">
        <ele>603.0</ele>
        <time>2020-11-28T08:46:41Z</time>
      </trkpt>
      <trkpt lat="38.77655" lon="-0.54803">
        <ele>600.0</ele>
        <time>2020-11-28T08:46:44Z</time>
      </trkpt>
      <trkpt lat="38.77665" lon="-0.54869">
        <ele>598.0</ele>
        <time>2020-11-28T08:46:48Z</time>
      </trkpt>
      <trkpt lat="38.77672" lon="-0.54939">
        <ele>594.0</ele>
        <time>2020-11-28T08:46:51Z</time>
      </trkpt>
      <trkpt lat="38.77674" lon="-0.54987">
        <ele>590.0</ele>
        <time>2020-11-28T08:46:54Z</time>
      </trkpt>
      <trkpt lat="38.77663" lon="-0.55040">
        <ele>588.0</ele>
        <time>2020-11-28T08:46:57Z</time>
      </trkpt>
      <trkpt lat="38.77649" lon="-0.55102">
        <ele>586.0</ele>
        <time>2020-11-28T08:47:00Z</time>
      </trkpt>
      <trkpt lat="38.77640" lon="-0.55145">
        <ele>583.0</ele>
        <time>2020-11-28T08:47:03Z</time>
      </trkpt>
      <trkpt lat="38.77625" lon="-0.55172">
        <ele>581.0</ele>
        <time>2020-11-28T08:47:06Z</time>
      </trkpt>
      <trkpt lat="38.77602" lon="-0.55196">
        <ele>580.0</ele>
        <time>2020-11-28T08:47:10Z</time>
      </trkpt>
      <trkpt lat="38.77592" lon="-0.55219">
        <ele>579.0</ele>
        <time>2020-11-28T08:47:13Z</time>
      </trkpt>
      <trkpt lat="38.77601" lon="-0.55255">
        <ele>580.0</ele>
        <time>2020-11-28T08:47:16Z</time>
      </trkpt>
      <trkpt lat="38.77614" lon="-0.55292">
        <ele>580.0</ele>
        <time>2020-11-28T08:47:19Z</time>
      </trkpt>
      <trkpt lat="38.77611" lon="-0.55322">
        <ele>579.0</ele>
        <time>2020-11-28T08:47:22Z</time>
      </trkpt>
      <trkpt lat="38.77596" lon="-0.55361">
        <ele>579.0</ele>
        <time>2020-11-28T08:47:25Z</time>
      </trkpt>
      <trkpt lat="38.77573" lon="-0.55392">
        <ele>579.0</ele>
        <time>2020-11-28T08:47:29Z</time>
      </trkpt>
      <trkpt lat="38.77550" lon="-0.55423">
        <ele>579.0</ele>
        <time>2020-11-28T08:47:32Z</time>
      </trkpt>
      <trkpt lat="38.77526" lon="-0.55454">
        <ele>578.0</ele>
        <time>2020-11-28T08:47:35Z</time>
      </trkpt>
      <trkpt lat="38.77501" lon="-0.55485">
        <ele>579.0</ele>
        <time>2020-11-28T08:47:38Z</time>
      </trkpt>
      <trkpt lat="38.77471" lon="-0.55503">
        <ele>579.0</ele>
        <time>2020-11-28T08:47:41Z</time>
      </trkpt>
      <trkpt lat="38.77439" lon="-0.55511">
        <ele>579.0</ele>
        <time>2020-11-28T08:47:45Z</time>
      </trkpt>
      <trkpt lat="38.77405" lon="-0.55520">
        <ele>579.0</ele>
        <time>2020-11-28T08:47:48Z</time>
      </trkpt>
      <trkpt lat="38.77383" lon="-0.55526">
        <ele>578.0</ele>
        <time>2020-11-28T08:47:51Z</time>
      </trkpt>
      <trkpt lat="38.77365" lon="-0.55537">
        <ele>577.0</ele>
        <time>2020-11-28T08:47:54Z</time>
      </trkpt>
      <trkpt lat="38.77349" lon="-0.55572">
        <ele>577.0</ele>
        <time>2020-11-28T08:47:57Z</time>
      </trkpt>
      <trkpt lat="38.77335" lon="-0.55611">
        <ele>577.0</ele>
        <time>2020-11-28T08:48:01Z</time>
      </trkpt>
      <trkpt lat="38.77320" lon="-0.55651">
        <ele>574.0</ele>
        <time>2020-11-28T08:48:04Z</time>
      </trkpt>
      <trkpt lat="38.77305" lon="-0.55691">
        <ele>573.0</ele>
        <time>2020-11-28T08:48:07Z</time>
      </trkpt>
      <trkpt lat="38.77294" lon="-0.55723">
        <ele>572.0</ele>
        <time>2020-11-28T08:48:10Z</time>
      </trkpt>
      <trkpt lat="38.77294" lon="-0.55749">
        <ele>570.0</ele>
        <time>2020-11-28T08:48:13Z</time>
      </trkpt>
      <trkpt lat="38.77314" lon="-0.55779">
        <ele>568.0</ele>
        <time>2020-11-28T08:48:16Z</time>
      </trkpt>
      <trkpt lat="38.77341" lon="-0.55818">
        <ele>569.0</ele>
        <time>2020-11-28T08:48:20Z</time>
      </trkpt>
      <trkpt lat="38.77366" lon="-0.55848">
        <ele>569.0</ele>
        <time>2020-11-28T08:48:23Z</time>
      </trkpt>
      <trkpt lat="38.77396" lon="-0.55865">
        <ele>569.0</ele>
        <time>2020-11-28T08:48:26Z</time>
      </trkpt>
      <trkpt lat="38.77428" lon="-0.55883">
        <ele>569.0</ele>
        <time>2020-11-28T08:48:29Z</time>
      </trkpt>
      <trkpt lat="38.77447" lon="-0.55906">
        <ele>569.0</ele>
        <time>2020-11-28T08:48:32Z</time>
      </trkpt>
      <trkpt lat="38.77457" lon="-0.55944">
        <ele>568.0</ele>
        <time>2020-11-28T08:48:36Z</time>
      </trkpt>
      <trkpt lat="38.77462" lon="-0.56003">
        <ele>568.0</ele>
        <time>2020-11-28T08:48:39Z</time>
      </trkpt>
      <trkpt lat="38.77468" lon="-0.56069">
        <ele>568.0</ele>
        <time>2020-11-28T08:48:42Z</time>
      </trkpt>
      <trkpt lat="38.77475" lon="-0.56140">
        <ele>569.0</ele>
        <time>2020-11-28T08:48:45Z</time>
      </trkpt>
      <trkpt lat="38.77481" lon="-0.56202">
        <ele>568.0</ele>
        <time>2020-11-28T08:48:48Z</time>
      </trkpt>
      <trkpt lat="38.77488" lon="-0.56269">
        <ele>567.0</ele>
        <time>2020-11-28T08:48:52Z</time>
      </trkpt>
      <trkpt lat="38.77495" lon="-0.56334">
        <ele>566.0</ele>
        <time>2020-11-28T08:48:55Z</time>
      </trkpt>
      <trkpt lat="38.77501" lon="-0.56389">
        <ele>565.0</ele>
        <time>2020-11-28T08:48:58Z</time>
      </trkpt>
      <trkpt lat="38.77506" lon="-0.56426">
        <ele>563.0</ele>
        <time>2020-11-28T08:49:01Z</time>
      </trkpt>
      <trkpt lat="38.77522" lon="-0.56456">
        <ele>562.0</ele>
        <time>2020-11-28T08:49:04Z</time>
      </trkpt>
      <trkpt lat="38.77546" lon="-0.56492">
        <ele>561.0</ele>
        <time>2020-11-28T08:49:07Z</time>
      </trkpt>
      <trkpt lat="38.77557" lon="-0.56535">
        <ele>560.0</ele>
        <time>2020-11-28T08:49:11Z</time>
      </trkpt>
      <trkpt lat="38.77552" lon="-0.56588">
        <ele>561.0</ele>
        <time>2020-11-28T08:49:14Z</time>
      </trkpt>
      <trkpt lat="38.77544" lon="-0.56659">
        <ele>562.0</ele>
        <time>2020-11-28T08:49:17Z</time>
      </trkpt>
      <trkpt lat="38.77535" lon="-0.56731">
        <ele>561.0</ele>
        <time>2020-11-28T08:49:20Z</time>
      </trkpt>
      <trkpt lat="38.77529" lon="-0.56787">
        <ele>562.0</ele>
        <time>2020-11-28T08:49:23Z</time>
      </trkpt>
      <trkpt lat="38.77527" lon="-0.56829">
        <ele>562.0</ele>
        <time>2020-11-28T08:49:26Z</time>
      </trkpt>
      <trkpt lat="38.77540" lon="-0.56879">
        <ele>562.0</ele>
        <time>2020-11-28T08:49:30Z</time>
      </trkpt>
      <trkpt lat="38.77548" lon="-0.56934">
        <ele>562.0</ele>
        <time>2020-11-28T08:49:33Z</time>
      </trkpt>
      <trkpt lat="38.77552" lon="-0.57009">
        <ele>562.0</ele>
        <time>2020-11-28T08:49:36Z</time>
      </trkpt>
      <trkpt lat="38.77557" lon="-0.57096">
        <ele>560.0</ele>
        <time>2020-11-28T08:49:39Z</time>
      </trkpt>
      <trkpt lat="38.77562" lon="-0.57170">
        <ele>560.0</ele>
        <time>2020-11-28T08:49:42Z</time>
      </trkpt>
      <trkpt lat="38.77564" lon="-0.57234">
        <ele>561.0</ele>
        <time>2020-11-28T08:49:45Z</time>
      </trkpt>
      <trkpt lat="38.77557" lon="-0.57288">
        <ele>562.0</ele>
        <time>2020-11-28T08:49:48Z</time>
      </trkpt>
      <trkpt lat="38.77544" lon="-0.57363">
        <ele>562.0</ele>
        <time>2020-11-28T08:49:52Z</time>
      </trkpt>
      <trkpt lat="38.77532" lon="-0.57431">
        <ele>562.0</ele>
        <time>2020-11-28T08:49:55Z</time>
      </trkpt>
      <trkpt lat="38.77522" lon="-0.57484">
        <ele>562.0</ele>
        <time>2020-11-28T08:49:58Z</time>
      </trkpt>
      <trkpt lat="38.77517" lon="-0.57525">
        <ele>561.0</ele>
        <time>2020-11-28T08:50:01Z</time>
      </trkpt>
      <trkpt lat="38.77526" lon="-0.57569">
        <ele>561.0</ele>
        <time>2020-11-28T08:50:04Z</time>
      </trkpt>
      <trkpt lat="38.77551" lon="-0.57611">
        <ele>563.0</ele>
        <time>2020-11-28T08:50:07Z</time>
      </trkpt>
      <trkpt lat="38.77576" lon="-0.57651">
        <ele>564.0</ele>
        <time>2020-11-28T08:50:11Z</time>
      </trkpt>
      <trkpt lat="38.77589" lon="-0.57702">
        <ele>565.0</ele>
        <time>2020-11-28T08:50:14Z</time>
      </trkpt>
      <trkpt lat="38.77602" lon="-0.57764">
        <ele>566.0</ele>
        <time>2020-11-28T08:50:17Z</time>
      </trkpt>
      <trkpt lat="38.77624" lon="-0.57832">
        <ele>568.0</ele>
        <time>2020-11-28T08:50:20Z</time>
      </trkpt>
      <trkpt lat="38.77645" lon="-0.57893">
        <ele>570.0</ele>
        <time>2020-11-28T08:50:23Z</time>
      </trkpt>
      <trkpt lat="38.77661" lon="-0.57940">
        <ele>571.0</ele>
        <time>2020-11-28T08:50:26Z</time>
      </trkpt>
      <trkpt lat="38.77660" lon="-0.57972">
        <ele>572.0</ele>
        <time>2020-11-28T08:50:30Z</time>
      </trkpt>
      <trkpt lat="38.77641" lon="-0.58013">
        <ele>572.0</ele>
        <time>2020-11-28T08:50:33Z</time>
      </trkpt>
      <trkpt lat="38.77614" lon="-0.58049">
        <ele>573.0</ele>
        <time>2020-11-28T08:50:36Z</time>
      </trkpt>
      <trkpt lat="38.77574" lon="-0.58083">
        <ele>572.0</ele>
        <time>2020-11-28T08:50:39Z</time>
      </trkpt>
      <trkpt lat="38.77553" lon="-0.58113">
        <ele>571.0</ele>
        <time>2020-11-28T08:50:42Z</time>
      </trkpt>
      <trkpt lat="38.77535" lon="-0.58161">
        <ele>571.0</ele>
        <time>2020-11-28T08:50:45Z</time>
      </trkpt>
      <trkpt lat="38.77512" lon="-0.58228">
        <ele>571.0</ele>
        <time>2020-11-28T08:50:49Z</time>
      </trkpt>
      <trkpt lat="38.77489" lon="-0.58294">
        <ele>572.0</ele>
        <time>2020-11-28T08:50:52Z</time>
      </trkpt>
      <trkpt lat="38.77478" lon="-0.58330">
        <ele>572.0</ele>
        <time>2020-11-28T08:50:55Z</time>
      </trkpt>
      <trkpt lat="38.77480" lon="-0.58347">
        <ele>572.0</ele>
        <time>2020-11-28T08:50:58Z</time>
      </trkpt>
      <trkpt lat="38.77495" lon="-0.58369">
        <ele>571.0</ele>
        <time>2020-11-28T08:51:02Z</time>
      </trkpt>
      <trkpt lat="38.77528" lon="-0.58379">
        <ele>572.0</ele>
        <time>2020-11-28T08:51:05Z</time>
      </trkpt>
      <trkpt lat="38.77570" lon="-0.58386">
        <ele>572.0</ele>
        <time>2020-11-28T08:51:08Z</time>
      </trkpt>
      <trkpt lat="38.77597" lon="-0.58395">
        <ele>571.0</ele>
        <time>2020-11-28T08:51:11Z</time>
      </trkpt>
      <trkpt lat="38.77614" lon="-0.58418">
        <ele>570.0</ele>
        <time>2020-11-28T08:51:14Z</time>
      </trkpt>
      <trkpt lat="38.77627" lon="-0.58457">
        <ele>569.0</ele>
        <time>2020-11-28T08:51:17Z</time>
      </trkpt>
      <trkpt lat="38.77628" lon="-0.58492">
        <ele>569.0</ele>
        <time>2020-11-28T08:51:20Z</time>
      </trkpt>
      <trkpt lat="38.77616" lon="-0.58537">
        <ele>569.0</ele>
        <time>2020-11-28T08:51:24Z</time>
      </trkpt>
      <trkpt lat="38.77597" lon="-0.58595">
        <ele>570.0</ele>
        <time>2020-11-28T08:51:27Z</time>
      </trkpt>
      <trkpt lat="38.77579" lon="-0.58654">
        <ele>570.0</ele>
        <time>2020-11-28T08:51:30Z</time>
      </trkpt>
      <trkpt lat="38.77560" lon="-0.58711">
        <ele>568.0</ele>
        <time>2020-11-28T08:51:33Z</time>
      </trkpt>
      <trkpt lat="38.77545" lon="-0.58758">
        <ele>566.0</ele>
        <time>2020-11-28T08:51:36Z</time>
      </trkpt>
      <trkpt lat="38.77532" lon="-0.58790">
        <ele>565.0</ele>
        <time>2020-11-28T08:51:39Z</time>
      </trkpt>
      <trkpt lat="38.77504" lon="-0.58813">
        <ele>563.0</ele>
        <time>2020-11-28T08:51:42Z</time>
      </trkpt>
      <trkpt lat="38.77482" lon="-0.58832">
        <ele>562.0</ele>
        <time>2020-11-28T08:51:46Z</time>
      </trkpt>
      <trkpt lat="38.77470" lon="-0.58866">
        <ele>560.0</ele>
        <time>2020-11-28T08:51:49Z</time>
      </trkpt>
      <trkpt lat="38.77472" lon="-0.58900">
        <ele>559.0</ele>
        <time>2020-11-28T08:51:52Z</time>
      </trkpt>
      <trkpt lat="38.77487" lon="-0.58937">
        <ele>560.0</ele>
        <time>2020-11-28T08:51:55Z</time>
      </trkpt>
      <trkpt lat="38.77488" lon="-0.58967">
        <ele>561.0</ele>
        <time>2020-11-28T08:51:58Z</time>
      </trkpt>
      <trkpt lat="38.77473" lon="-0.59010">
        <ele>563.0</ele>
        <time>2020-11-28T08:52:01Z</time>
      </trkpt>
      <trkpt lat="38.77457" lon="-0.59044">
        <ele>563.0</ele>
        <time>2020-11-28T08:52:05Z</time>
      </trkpt>
      <trkpt lat="38.77434" lon="-0.59067">
        <ele>564.0</ele>
        <time>2020-11-28T08:52:08Z</time>
      </trkpt>
      <trkpt lat="38.77415" lon="-0.59086">
        <ele>564.0</ele>
        <time>2020-11-28T08:52:11Z</time>
      </trkpt>
      <trkpt lat="38.77399" lon="-0.59112">
        <ele>565.0</ele>
        <time>2020-11-28T08:52:14Z</time>
      </trkpt>
      <trkpt lat="38.77388" lon="-0.59137">
        <ele>565.0</ele>
        <time>2020-11-28T08:52:17Z</time>
      </trkpt>
      <trkpt lat="38.77390" lon="-0.59155">
        <ele>566.0</ele>
        <time>2020-11-28T08:52:20Z</time>
      </trkpt>
      <trkpt lat="38.77396" lon="-0.59180">
        <ele>567.0</ele>
        <time>2020-11-28T08:52:23Z</time>
      </trkpt>
      <trkpt lat="38.77407" lon="-0.59185">
        <ele>566.0</ele>
        <time>2020-11-28T08:52:27Z</time>
      </trkpt>
      <trkpt lat="38.77444" lon="-0.59160">
        <ele>566.0</ele>
        <time>2020-11-28T08:52:30Z</time>
      </trkpt>
      <trkpt lat="38.77479" lon="-0.59117">
        <ele>564.0</ele>
        <time>2020-11-28T08:52:33Z</time>
      </trkpt>
      <trkpt lat="38.77515" lon="-0.59076">
        <ele>561.0</ele>
        <time>2020-11-28T08:52:36Z</time>
      </trkpt>
      <trkpt lat="38.77549" lon="-0.59038">
        <ele>559.0</ele>
        <time>2020-11-28T08:52:39Z</time>
      </trkpt>
      <trkpt lat="38.77583" lon="-0.59022">
        <ele>555.0</ele>
        <time>2020-11-28T08:52:42Z</time>
      </trkpt>
      <trkpt lat="38.77637" lon="-0.59024">
        <ele>553.0</ele>
        <time>2020-11-28T08:52:45Z</time>
      </trkpt>
      <trkpt lat="38.77681" lon="-0.59027">
        <ele>551.0</ele>
        <time>2020-11-28T08:52:49Z</time>
      </trkpt>
      <trkpt lat="38.77727" lon="-0.59037">
        <ele>547.0</ele>
        <time>2020-11-28T08:52:52Z</time>
      </trkpt>
      <trkpt lat="38.77775" lon="-0.59058">
        <ele>544.0</ele>
        <time>2020-11-28T08:52:55Z</time>
      </trkpt>
      <trkpt lat="38.77814" lon="-0.59074">
        <ele>542.0</ele>
        <time>2020-11-28T08:52:58Z</time>
      </trkpt>
      <trkpt lat="38.77850" lon="-0.59072">
        <ele>540.0</ele>
        <time>2020-11-28T08:53:01Z</time>
      </trkpt>
      <trkpt lat="38.77888" lon="-0.59050">
        <ele>538.0</ele>
        <time>2020-11-28T08:53:04Z</time>
      </trkpt>
      <trkpt lat="38.77931" lon="-0.59017">
        <ele>537.0</ele>
        <time>2020-11-28T08:53:08Z</time>
      </trkpt>
      <trkpt lat="38.77960" lon="-0.58996">
        <ele>535.0</ele>
        <time>2020-11-28T08:53:11Z</time>
      </trkpt>
      <trkpt lat="38.78017" lon="-0.58969">
        <ele>534.0</ele>
        <time>2020-11-28T08:53:14Z</time>
      </trkpt>
      <trkpt lat="38.78049" lon="-0.58957">
        <ele>532.0</ele>
        <time>2020-11-28T08:53:17Z</time>
      </trkpt>
      <trkpt lat="38.78073" lon="-0.58967">
        <ele>529.0</ele>
        <time>2020-11-28T08:53:20Z</time>
      </trkpt>
      <trkpt lat="38.78083" lon="-0.58996">
        <ele>527.0</ele>
        <time>2020-11-28T08:53:24Z</time>
      </trkpt>
      <trkpt lat="38.78090" lon="-0.59025">
        <ele>525.0</ele>
        <time>2020-11-28T08:53:27Z</time>
      </trkpt>
      <trkpt lat="38.78113" lon="-0.59042">
        <ele>523.0</ele>
        <time>2020-11-28T08:53:30Z</time>
      </trkpt>
      <trkpt lat="38.78144" lon="-0.59040">
        <ele>521.0</ele>
        <time>2020-11-28T08:53:33Z</time>
      </trkpt>
      <trkpt lat="38.78175" lon="-0.59018">
        <ele>520.0</ele>
        <time>2020-11-28T08:53:36Z</time>
      </trkpt>
      <trkpt lat="38.78200" lon="-0.58986">
        <ele>520.0</ele>
        <time>2020-11-28T08:53:39Z</time>
      </trkpt>
      <trkpt lat="38.78225" lon="-0.58974">
        <ele>520.0</ele>
        <time>2020-11-28T08:53:43Z</time>
      </trkpt>
      <trkpt lat="38.78248" lon="-0.58993">
        <ele>521.0</ele>
        <time>2020-11-28T08:53:46Z</time>
      </trkpt>
      <trkpt lat="38.78270" lon="-0.59022">
        <ele>520.0</ele>
        <time>2020-11-28T08:53:49Z</time>
      </trkpt>
      <trkpt lat="38.78294" lon="-0.59026">
        <ele>517.0</ele>
        <time>2020-11-28T08:53:52Z</time>
      </trkpt>
      <trkpt lat="38.78329" lon="-0.59009">
        <ele>514.0</ele>
        <time>2020-11-28T08:53:55Z</time>
      </trkpt>
      <trkpt lat="38.78360" lon="-0.58990">
        <ele>513.0</ele>
        <time>2020-11-28T08:53:58Z</time>
      </trkpt>
      <trkpt lat="38.78386" lon="-0.58953">
        <ele>511.0</ele>
        <time>2020-11-28T08:54:02Z</time>
      </trkpt>
      <trkpt lat="38.78415" lon="-0.58932">
        <ele>511.0</ele>
        <time>2020-11-28T08:54:05Z</time>
      </trkpt>
      <trkpt lat="38.78452" lon="-0.58938">
        <ele>509.0</ele>
        <time>2020-11-28T08:54:08Z</time>
      </trkpt>
      <trkpt lat="38.78489" lon="-0.58946">
        <ele>508.0</ele>
        <time>2020-11-28T08:54:11Z</time>
      </trkpt>
      <trkpt lat="38.78513" lon="-0.58962">
        <ele>505.0</ele>
        <time>2020-11-28T08:54:15Z</time>
      </trkpt>
      <trkpt lat="38.78520" lon="-0.58990">
        <ele>506.0</ele>
        <time>2020-11-28T08:54:18Z</time>
      </trkpt>
      <trkpt lat="38.78512" lon="-0.59022">
        <ele>506.0</ele>
        <time>2020-11-28T08:54:21Z</time>
      </trkpt>
      <trkpt lat="38.78508" lon="-0.59055">
        <ele>504.0</ele>
        <time>2020-11-28T08:54:24Z</time>
      </trkpt>
      <trkpt lat="38.78522" lon="-0.59090">
        <ele>501.0</ele>
        <time>2020-11-28T08:54:27Z</time>
      </trkpt>
      <trkpt lat="38.78557" lon="-0.59116">
        <ele>499.0</ele>
        <time>2020-11-28T08:54:30Z</time>
      </trkpt>
      <trkpt lat="38.78580" lon="-0.59143">
        <ele>499.0</ele>
        <time>2020-11-28T08:54:34Z</time>
      </trkpt>
      <trkpt lat="38.78592" lon="-0.59181">
        <ele>497.0</ele>
        <time>2020-11-28T08:54:37Z</time>
      </trkpt>
      <trkpt lat="38.78616" lon="-0.59208">
        <ele>494.0</ele>
        <time>2020-11-28T08:54:40Z</time>
      </trkpt>
      <trkpt lat="38.78655" lon="-0.59224">
        <ele>494.0</ele>
        <time>2020-11-28T08:54:43Z</time>
      </trkpt>
      <trkpt lat="38.78697" lon="-0.59226">
        <ele>495.0</ele>
        <time>2020-11-28T08:54:46Z</time>
      </trkpt>
      <trkpt lat="38.78739" lon="-0.59243">
        <ele>494.0</ele>
        <time>2020-11-28T08:54:49Z</time>
      </trkpt>
      <trkpt lat="38.78776" lon="-0.59256">
        <ele>493.0</ele>
        <time>2020-11-28T08:54:53Z</time>
      </trkpt>
      <trkpt lat="38.78800" lon="-0.59272">
        <ele>489.0</ele>
        <time>2020-11-28T08:54:56Z</time>
      </trkpt>
      <trkpt lat="38.78809" lon="-0.59304">
        <ele>487.0</ele>
        <time>2020-11-28T08:54:59Z</time>
      </trkpt>
      <trkpt lat="38.78810" lon="-0.59358">
        <ele>486.0</ele>
        <time>2020-11-28T08:55:02Z</time>
      </trkpt>
      <trkpt lat="38.78810" lon="-0.59405">
        <ele>487.0</ele>
        <time>2020-11-28T08:55:05Z</time>
      </trkpt>
      <trkpt lat="38.78817" lon="-0.59442">
        <ele>486.0</ele>
        <time>2020-11-28T08:55:08Z</time>
      </trkpt>
      <trkpt lat="38.78844" lon="-0.59493">
        <ele>486.0</ele>
        <time>2020-11-28T08:55:12Z</time>
      </trkpt>
      <trkpt lat="38.78872" lon="-0.59540">
        <ele>486.0</ele>
        <time>2020-11-28T08:55:15Z</time>
      </trkpt>
      <trkpt lat="38.78905" lon="-0.59586">
        <ele>486.0</ele>
        <time>2020-11-28T08:55:18Z</time>
      </trkpt>
      <trkpt lat="38.78931" lon="-0.59619">
        <ele>487.0</ele>
        <time>2020-11-28T08:55:21Z</time>
      </trkpt>
      <trkpt lat="38.78960" lon="-0.59631">
        <ele>488.0</ele>
        <time>2020-11-28T08:55:24Z</time>
      </trkpt>
      <trkpt lat="38.78988" lon="-0.59638">
        <ele>489.0</ele>
        <time>2020-11-28T08:55:27Z</time>
      </trkpt>
      <trkpt lat="38.79016" lon="-0.59661">
        <ele>489.0</ele>
        <time>2020-11-28T08:55:31Z</time>
      </trkpt>
      <trkpt lat="38.79043" lon="-0.59680">
        <ele>489.0</ele>
        <time>2020-11-28T08:55:34Z</time>
      </trkpt>
      <trkpt lat="38.79070" lon="-0.59672">
        <ele>488.0</ele>
        <time>2020-11-28T08:55:37Z</time>
      </trkpt>
      <trkpt lat="38.79096" lon="-0.59640">
        <ele>487.0</ele>
        <time>2020-11-28T08:55:40Z</time>
      </trkpt>
      <trkpt lat="38.79123" lon="-0.59604">
        <ele>485.0</ele>
        <time>2020-11-28T08:55:43Z</time>
      </trkpt>
      <trkpt lat="38.79146" lon="-0.59563">
        <ele>483.0</ele>
        <time>2020-11-28T08:55:46Z</time>
      </trkpt>
      <trkpt lat="38.79163" lon="-0.59514">
        <ele>481.0</ele>
        <time>2020-11-28T08:55:50Z</time>
      </trkpt>
      <trkpt lat="38.79182" lon="-0.59473">
        <ele>478.0</ele>
        <time>2020-11-28T08:55:53Z</time>
      </trkpt>
      <trkpt lat="38.79209" lon="-0.59444">
        <ele>476.0</ele>
        <time>2020-11-28T08:55:56Z</time>
      </trkpt>
      <trkpt lat="38.79243" lon="-0.59428">
        <ele>474.0</ele>
        <time>2020-11-28T08:55:59Z</time>
      </trkpt>
      <trkpt lat="38.79282" lon="-0.59423">
        <ele>473.0</ele>
        <time>2020-11-28T08:56:02Z</time>
      </trkpt>
      <trkpt lat="38.79320" lon="-0.59401">
        <ele>471.0</ele>
        <time>2020-11-28T08:56:05Z</time>
      </trkpt>
      <trkpt lat="38.79357" lon="-0.59385">
        <ele>470.0</ele>
        <time>2020-11-28T08:56:09Z</time>
      </trkpt>
      <trkpt lat="38.79389" lon="-0.59389">
        <ele>467.0</ele>
        <time>2020-11-28T08:56:12Z</time>
      </trkpt>
      <trkpt lat="38.79412" lon="-0.59417">
        <ele>465.0</ele>
        <time>2020-11-28T08:56:15Z</time>
      </trkpt>
      <trkpt lat="38.79441" lon="-0.59452">
        <ele>463.0</ele>
        <time>2020-11-28T08:56:18Z</time>
      </trkpt>
      <trkpt lat="38.79470" lon="-0.59488">
        <ele>460.0</ele>
        <time>2020-11-28T08:56:21Z</time>
      </trkpt>
      <trkpt lat="38.79497" lon="-0.59526">
        <ele>456.0</ele>
        <time>2020-11-28T08:56:24Z</time>
      </trkpt>
      <trkpt lat="38.79530" lon="-0.59557">
        <ele>452.0</ele>
        <time>2020-11-28T08:56:28Z</time>
      </trkpt>
      <trkpt lat="38.79569" lon="-0.59577">
        <ele>449.0</ele>
        <time>2020-11-28T08:56:31Z</time>
      </trkpt>
      <trkpt lat="38.79607" lon="-0.59586">
        <ele>447.0</ele>
        <time>2020-11-28T08:56:34Z</time>
      </trkpt>
      <trkpt lat="38.79626" lon="-0.59602">
        <ele>445.0</ele>
        <time>2020-11-28T08:56:37Z</time>
      </trkpt>
      <trkpt lat="38.79630" lon="-0.59630">
        <ele>443.0</ele>
        <time>2020-11-28T08:56:41Z</time>
      </trkpt>
      <trkpt lat="38.79621" lon="-0.59665">
        <ele>442.0</ele>
        <time>2020-11-28T08:56:44Z</time>
      </trkpt>
      <trkpt lat="38.79611" lon="-0.59705">
        <ele>440.0</ele>
        <time>2020-11-28T08:56:47Z</time>
      </trkpt>
      <trkpt lat="38.79609" lon="-0.59752">
        <ele>439.0</ele>
        <time>2020-11-28T08:56:50Z</time>
      </trkpt>
      <trkpt lat="38.79635" lon="-0.59786">
        <ele>438.0</ele>
        <time>2020-11-28T08:56:53Z</time>
      </trkpt>
      <trkpt lat="38.79683" lon="-0.59810">
        <ele>438.0</ele>
        <time>2020-11-28T08:56:57Z</time>
      </trkpt>
      <trkpt lat="38.79709" lon="-0.59829">
        <ele>438.0</ele>
        <time>2020-11-28T08:57:00Z</time>
      </trkpt>
      <trkpt lat="38.79737" lon="-0.59862">
        <ele>436.0</ele>
        <time>2020-11-28T08:57:03Z</time>
      </trkpt>
      <trkpt lat="38.79746" lon="-0.59901">
        <ele>435.0</ele>
        <time>2020-11-28T08:57:06Z</time>
      </trkpt>
      <trkpt lat="38.79743" lon="-0.59936">
        <ele>434.0</ele>
        <time>2020-11-28T08:57:09Z</time>
      </trkpt>
      <trkpt lat="38.79726" lon="-0.59977">
        <ele>432.0</ele>
        <time>2020-11-28T08:57:12Z</time>
      </trkpt>
      <trkpt lat="38.79699" lon="-0.60029">
        <ele>430.0</ele>
        <time>2020-11-28T08:57:16Z</time>
      </trkpt>
      <trkpt lat="38.79677" lon="-0.60070">
        <ele>426.0</ele>
        <time>2020-11-28T08:57:19Z</time>
      </trkpt>
      <trkpt lat="38.79649" lon="-0.60122">
        <ele>424.0</ele>
        <time>2020-11-28T08:57:22Z</time>
      </trkpt>
      <trkpt lat="38.79633" lon="-0.60152">
        <ele>422.0</ele>
        <time>2020-11-28T08:57:25Z</time>
      </trkpt>
      <trkpt lat="38.79629" lon="-0.60188">
        <ele>422.0</ele>
        <time>2020-11-28T08:57:28Z</time>
      </trkpt>
      <trkpt lat="38.79652" lon="-0.60211">
        <ele>422.0</ele>
        <time>2020-11-28T08:57:32Z</time>
      </trkpt>
      <trkpt lat="38.79687" lon="-0.60228">
        <ele>421.0</ele>
        <time>2020-11-28T08:57:35Z</time>
      </trkpt>
      <trkpt lat="38.79712" lon="-0.60249">
        <ele>422.0</ele>
        <time>2020-11-28T08:57:38Z</time>
      </trkpt>
      <trkpt lat="38.79724" lon="-0.60267">
        <ele>420.0</ele>
        <time>2020-11-28T08:57:41Z</time>
      </trkpt>
      <trkpt lat="38.79727" lon="-0.60303">
        <ele>418.0</ele>
        <time>2020-11-28T08:57:44Z</time>
      </trkpt>
      <trkpt lat="38.79708" lon="-0.60331">
        <ele>417.0</ele>
        <time>2020-11-28T08:57:48Z</time>
      </trkpt>
      <trkpt lat="38.79686" lon="-0.60350">
        <ele>415.0</ele>
        <time>2020-11-28T08:57:51Z</time>
      </trkpt>
      <trkpt lat="38.79659" lon="-0.60369">
        <ele>414.0</ele>
        <time>2020-11-28T08:57:54Z</time>
      </trkpt>
      <trkpt lat="38.79638" lon="-0.60385">
        <ele>412.0</ele>
        <time>2020-11-28T08:57:57Z</time>
      </trkpt>
      <trkpt lat="38.79626" lon="-0.60411">
        <ele>411.0</ele>
        <time>2020-11-28T08:58:00Z</time>
      </trkpt>
      <trkpt lat="38.79635" lon="-0.60458">
        <ele>412.0</ele>
        <time>2020-11-28T08:58:03Z</time>
      </trkpt>
      <trkpt lat="38.79644" lon="-0.60487">
        <ele>411.0</ele>
        <time>2020-11-28T08:58:07Z</time>
      </trkpt>
      <trkpt lat="38.79651" lon="-0.60508">
        <ele>411.0</ele>
        <time>2020-11-28T08:58:10Z</time>
      </trkpt>
      <trkpt lat="38.79656" lon="-0.60524">
        <ele>411.0</ele>
        <time>2020-11-28T08:58:13Z</time>
      </trkpt>
      <trkpt lat="38.79663" lon="-0.60545">
        <ele>410.0</ele>
        <time>2020-11-28T08:58:16Z</time>
      </trkpt>
      <trkpt lat="38.79674" lon="-0.60579">
        <ele>411.0</ele>
        <time>2020-11-28T08:58:20Z</time>
      </trkpt>
      <trkpt lat="38.79687" lon="-0.60625">
        <ele>412.0</ele>
        <time>2020-11-28T08:58:23Z</time>
      </trkpt>
      <trkpt lat="38.79694" lon="-0.60666">
        <ele>411.0</ele>
        <time>2020-11-28T08:58:26Z</time>
      </trkpt>
      <trkpt lat="38.79690" lon="-0.60700">
        <ele>410.0</ele>
        <time>2020-11-28T08:58:29Z</time>
      </trkpt>
      <trkpt lat="38.79678" lon="-0.60736">
        <ele>410.0</ele>
        <time>2020-11-28T08:58:32Z</time>
      </trkpt>
      <trkpt lat="38.79656" lon="-0.60765">
        <ele>410.0</ele>
        <time>2020-11-28T08:58:35Z</time>
      </trkpt>
      <trkpt lat="38.79641" lon="-0.60786">
        <ele>409.0</ele>
        <time>2020-11-28T08:58:38Z</time>
      </trkpt>
      <trkpt lat="38.79636" lon="-0.60819">
        <ele>409.0</ele>
        <time>2020-11-28T08:58:42Z</time>
      </trkpt>
      <trkpt lat="38.79654" lon="-0.60856">
        <ele>410.0</ele>
        <time>2020-11-28T08:58:45Z</time>
      </trkpt>
      <trkpt lat="38.79678" lon="-0.60870">
        <ele>410.0</ele>
        <time>2020-11-28T08:58:48Z</time>
      </trkpt>
      <trkpt lat="38.79706" lon="-0.60874">
        <ele>410.0</ele>
        <time>2020-11-28T08:58:51Z</time>
      </trkpt>
      <trkpt lat="38.79735" lon="-0.60854">
        <ele>410.0</ele>
        <time>2020-11-28T08:58:54Z</time>
      </trkpt>
      <trkpt lat="38.79762" lon="-0.60853">
        <ele>410.0</ele>
        <time>2020-11-28T08:58:57Z</time>
      </trkpt>
      <trkpt lat="38.79781" lon="-0.60879">
        <ele>410.0</ele>
        <time>2020-11-28T08:59:01Z</time>
      </trkpt>
      <trkpt lat="38.79802" lon="-0.60912">
        <ele>411.0</ele>
        <time>2020-11-28T08:59:04Z</time>
      </trkpt>
      <trkpt lat="38.79813" lon="-0.60951">
        <ele>410.0</ele>
        <time>2020-11-28T08:59:07Z</time>
      </trkpt>
      <trkpt lat="38.79823" lon="-0.61008">
        <ele>412.0</ele>
        <time>2020-11-28T08:59:10Z</time>
      </trkpt>
      <trkpt lat="38.79830" lon="-0.61066">
        <ele>409.0</ele>
        <time>2020-11-28T08:59:13Z</time>
      </trkpt>
      <trkpt lat="38.79836" lon="-0.61120">
        <ele>407.0</ele>
        <time>2020-11-28T08:59:16Z</time>
      </trkpt>
      <trkpt lat="38.79836" lon="-0.61159">
        <ele>405.0</ele>
        <time>2020-11-28T08:59:19Z</time>
      </trkpt>
      <trkpt lat="38.79836" lon="-0.61184">
        <ele>402.0</ele>
        <time>2020-11-28T08:59:22Z</time>
      </trkpt>
      <trkpt lat="38.79836" lon="-0.61213">
        <ele>401.0</ele>
        <time>2020-11-28T08:59:26Z</time>
      </trkpt>
      <trkpt lat="38.79870" lon="-0.61220">
        <ele>399.0</ele>
        <time>2020-11-28T08:59:29Z</time>
      </trkpt>
      <trkpt lat="38.79919" lon="-0.61190">
        <ele>396.0</ele>
        <time>2020-11-28T08:59:32Z</time>
      </trkpt>
      <trkpt lat="38.79960" lon="-0.61186">
        <ele>398.0</ele>
        <time>2020-11-28T08:59:35Z</time>
      </trkpt>
      <trkpt lat="38.80009" lon="-0.61192">
        <ele>400.0</ele>
        <time>2020-11-28T08:59:38Z</time>
      </trkpt>
      <trkpt lat="38.80051" lon="-0.61180">
        <ele>401.0</ele>
        <time>2020-11-28T08:59:41Z</time>
      </trkpt>
      <trkpt lat="38.80084" lon="-0.61161">
        <ele>403.0</ele>
        <time>2020-11-28T08:59:44Z</time>
      </trkpt>
      <trkpt lat="38.80107" lon="-0.61133">
        <ele>404.0</ele>
        <time>2020-11-28T08:59:48Z</time>
      </trkpt>
      <trkpt lat="38.80134" lon="-0.61098">
        <ele>405.0</ele>
        <time>2020-11-28T08:59:51Z</time>
      </trkpt>
      <trkpt lat="38.80173" lon="-0.61077">
        <ele>407.0</ele>
        <time>2020-11-28T08:59:54Z</time>
      </trkpt>
      <trkpt lat="38.80216" lon="-0.61077">
        <ele>409.0</ele>
        <time>2020-11-28T08:59:57Z</time>
      </trkpt>
      <trkpt lat="38.80266" lon="-0.61100">
        <ele>411.0</ele>
        <time>2020-11-28T09:00:00Z</time>
      </trkpt>
      <trkpt lat="38.80315" lon="-0.61125">
        <ele>414.0</ele>
        <time>2020-11-28T09:00:04Z</time>
      </trkpt>
      <trkpt lat="38.80359" lon="-0.61148">
        <ele>415.0</ele>
        <time>2020-11-28T09:00:07Z</time>
      </trkpt>
      <trkpt lat="38.80401" lon="-0.61168">
        <ele>414.0</ele>
        <time>2020-11-28T09:00:10Z</time>
      </trkpt>
      <trkpt lat="38.80441" lon="-0.61182">
        <ele>415.0</ele>
        <time>2020-11-28T09:00:13Z</time>
      </trkpt>
      <trkpt lat="38.80484" lon="-0.61182">
        <ele>416.0</ele>
        <time>2020-11-28T09:00:16Z</time>
      </trkpt>
      <trkpt lat="38.80532" lon="-0.61168">
        <ele>416.0</ele>
        <time>2020-11-28T09:00:19Z</time>
      </trkpt>
      <trkpt lat="38.80587" lon="-0.61149">
        <ele>416.0</ele>
        <time>2020-11-28T09:00:23Z</time>
      </trkpt>
      <trkpt lat="38.80638" lon="-0.61130">
        <ele>413.0</ele>
        <time>2020-11-28T09:00:26Z</time>
      </trkpt>
      <trkpt lat="38.80687" lon="-0.61111">
        <ele>411.0</ele>
        <time>2020-11-28T09:00:29Z</time>
      </trkpt>
      <trkpt lat="38.80741" lon="-0.61089">
        <ele>409.0</ele>
        <time>2020-11-28T09:00:32Z</time>
      </trkpt>
      <trkpt lat="38.80791" lon="-0.61070">
        <ele>405.0</ele>
        <time>2020-11-28T09:00:35Z</time>
      </trkpt>
      <trkpt lat="38.80830" lon="-0.61055">
        <ele>401.0</ele>
        <time>2020-11-28T09:00:38Z</time>
      </trkpt>
      <trkpt lat="38.80856" lon="-0.61044">
        <ele>399.0</ele>
        <time>2020-11-28T09:00:41Z</time>
      </trkpt>
      <trkpt lat="38.80874" lon="-0.61036">
        <ele>396.0</ele>
        <time>2020-11-28T09:00:44Z</time>
      </trkpt>
      <trkpt lat="38.80887" lon="-0.60995">
        <ele>395.0</ele>
        <time>2020-11-28T09:00:47Z</time>
      </trkpt>
      <trkpt lat="38.80913" lon="-0.60986">
        <ele>395.0</ele>
        <time>2020-11-28T09:00:51Z</time>
      </trkpt>
      <trkpt lat="38.80934" lon="-0.61005">
        <ele>394.0</ele>
        <time>2020-11-28T09:00:54Z</time>
      </trkpt>
      <trkpt lat="38.80937" lon="-0.61033">
        <ele>394.0</ele>
        <time>2020-11-28T09:00:57Z</time>
      </trkpt>
      <trkpt lat="38.80924" lon="-0.61057">
        <ele>395.0</ele>
        <time>2020-11-28T09:01:00Z</time>
      </trkpt>
      <trkpt lat="38.80911" lon="-0.61064">
        <ele>395.0</ele>
        <time>2020-11-28T09:01:03Z</time>
      </trkpt>
      <trkpt lat="38.80926" lon="-0.61121">
        <ele>392.0</ele>
        <time>2020-11-28T09:01:06Z</time>
      </trkpt>
      <trkpt lat="38.80942" lon="-0.61177">
        <ele>391.0</ele>
        <time>2020-11-28T09:01:10Z</time>
      </trkpt>
      <trkpt lat="38.80963" lon="-0.61225">
        <ele>388.0</ele>
        <time>2020-11-28T09:01:13Z</time>
      </trkpt>
      <trkpt lat="38.80993" lon="-0.61273">
        <ele>385.0</ele>
        <time>2020-11-28T09:01:16Z</time>
      </trkpt>
      <trkpt lat="38.81027" lon="-0.61315">
        <ele>383.0</ele>
        <time>2020-11-28T09:01:19Z</time>
      </trkpt>
      <trkpt lat="38.81069" lon="-0.61356">
        <ele>382.0</ele>
        <time>2020-11-28T09:01:22Z</time>
      </trkpt>
      <trkpt lat="38.81110" lon="-0.61388">
        <ele>380.0</ele>
        <time>2020-11-28T09:01:25Z</time>
      </trkpt>
      <trkpt lat="38.81142" lon="-0.61411">
        <ele>378.0</ele>
        <time>2020-11-28T09:01:28Z</time>
      </trkpt>
      <trkpt lat="38.81162" lon="-0.61425">
        <ele>377.0</ele>
        <time>2020-11-28T09:01:32Z</time>
      </trkpt>
      <trkpt lat="38.81173" lon="-0.61433">
        <ele>375.0</ele>
        <time>2020-11-28T09:01:35Z</time>
      </trkpt>
      <trkpt lat="38.81194" lon="-0.61421">
        <ele>375.0</ele>
        <time>2020-11-28T09:01:38Z</time>
      </trkpt>
      <trkpt lat="38.81212" lon="-0.61415">
        <ele>375.0</ele>
        <time>2020-11-28T09:01:41Z</time>
      </trkpt>
      <trkpt lat="38.81232" lon="-0.61426">
        <ele>376.0</ele>
        <time>2020-11-28T09:01:44Z</time>
      </trkpt>
      <trkpt lat="38.81236" lon="-0.61450">
        <ele>375.0</ele>
        <time>2020-11-28T09:01:48Z</time>
      </trkpt>
      <trkpt lat="38.81230" lon="-0.61466">
        <ele>375.0</ele>
        <time>2020-11-28T09:01:51Z</time>
      </trkpt>
      <trkpt lat="38.81262" lon="-0.61494">
        <ele>375.0</ele>
        <time>2020-11-28T09:01:54Z</time>
      </trkpt>
      <trkpt lat="38.81305" lon="-0.61525">
        <ele>375.0</ele>
        <time>2020-11-28T09:01:57Z</time>
      </trkpt>
      <trkpt lat="38.81354" lon="-0.61559">
        <ele>375.0</ele>
        <time>2020-11-28T09:02:00Z</time>
      </trkpt>
      <trkpt lat="38.81408" lon="-0.61596">
        <ele>374.0</ele>
        <time>2020-11-28T09:02:03Z</time>
      </trkpt>
      <trkpt lat="38.81456" lon="-0.61629">
        <ele>375.0</ele>
        <time>2020-11-28T09:02:06Z</time>
      </trkpt>
      <trkpt lat="38.81499" lon="-0.61657">
        <ele>374.0</ele>
        <time>2020-11-28T09:02:10Z</time>
      </trkpt>
      <trkpt lat="38.81539" lon="-0.61684">
        <ele>371.0</ele>
        <time>2020-11-28T09:02:14Z</time>
      </trkpt>
      <trkpt lat="38.81556" lon="-0.61696">
        <ele>370.0</ele>
        <time>2020-11-28T09:02:17Z</time>
      </trkpt>
      <trkpt lat="38.81573" lon="-0.61699">
        <ele>370.0</ele>
        <time>2020-11-28T09:02:20Z</time>
      </trkpt>
      <trkpt lat="38.81601" lon="-0.61684">
        <ele>369.0</ele>
        <time>2020-11-28T09:02:23Z</time>
      </trkpt>
      <trkpt lat="38.81619" lon="-0.61702">
        <ele>369.0</ele>
        <time>2020-11-28T09:02:26Z</time>
      </trkpt>
      <trkpt lat="38.81628" lon="-0.61733">
        <ele>369.0</ele>
        <time>2020-11-28T09:02:29Z</time>
      </trkpt>
      <trkpt lat="38.81653" lon="-0.61751">
        <ele>368.0</ele>
        <time>2020-11-28T09:02:33Z</time>
      </trkpt>
      <trkpt lat="38.81694" lon="-0.61770">
        <ele>369.0</ele>
        <time>2020-11-28T09:02:36Z</time>
      </trkpt>
      <trkpt lat="38.81740" lon="-0.61796">
        <ele>370.0</ele>
        <time>2020-11-28T09:02:39Z</time>
      </trkpt>
      <trkpt lat="38.81784" lon="-0.61834">
        <ele>371.0</ele>
        <time>2020-11-28T09:02:42Z</time>
      </trkpt>
      <trkpt lat="38.81830" lon="-0.61870">
        <ele>371.0</ele>
        <time>2020-11-28T09:02:45Z</time>
      </trkpt>
      <trkpt lat="38.81880" lon="-0.61900">
        <ele>373.0</ele>
        <time>2020-11-28T09:02:48Z</time>
      </trkpt>
      <trkpt lat="38.81933" lon="-0.61918">
        <ele>375.0</ele>
        <time>2020-11-28T09:02:51Z</time>
      </trkpt>
      <trkpt lat="38.81983" lon="-0.61922">
        <ele>376.0</ele>
        <time>2020-11-28T09:02:54Z</time>
      </trkpt>
      <trkpt lat="38.82026" lon="-0.61924">
        <ele>378.0</ele>
        <time>2020-11-28T09:02:58Z</time>
      </trkpt>
      <trkpt lat="38.82052" lon="-0.61921">
        <ele>381.0</ele>
        <time>2020-11-28T09:03:01Z</time>
      </trkpt>
      <trkpt lat="38.82069" lon="-0.61915">
        <ele>380.0</ele>
        <time>2020-11-28T09:03:04Z</time>
      </trkpt>
      <trkpt lat="38.82092" lon="-0.61900">
        <ele>380.0</ele>
        <time>2020-11-28T09:03:07Z</time>
      </trkpt>
      <trkpt lat="38.82114" lon="-0.61906">
        <ele>381.0</ele>
        <time>2020-11-28T09:03:10Z</time>
      </trkpt>
      <trkpt lat="38.82124" lon="-0.61934">
        <ele>381.0</ele>
        <time>2020-11-28T09:03:13Z</time>
      </trkpt>
      <trkpt lat="38.82110" lon="-0.61964">
        <ele>383.0</ele>
        <time>2020-11-28T09:03:17Z</time>
      </trkpt>
      <trkpt lat="38.82094" lon="-0.62001">
        <ele>382.0</ele>
        <time>2020-11-28T09:03:20Z</time>
      </trkpt>
      <trkpt lat="38.82090" lon="-0.62052">
        <ele>385.0</ele>
        <time>2020-11-28T09:03:23Z</time>
      </trkpt>
      <trkpt lat="38.82090" lon="-0.62118">
        <ele>389.0</ele>
        <time>2020-11-28T09:03:26Z</time>
      </trkpt>
      <trkpt lat="38.82087" lon="-0.62189">
        <ele>390.0</ele>
        <time>2020-11-28T09:03:29Z</time>
      </trkpt>
      <trkpt lat="38.82093" lon="-0.62248">
        <ele>392.0</ele>
        <time>2020-11-28T09:03:32Z</time>
      </trkpt>
      <trkpt lat="38.82096" lon="-0.62284">
        <ele>393.0</ele>
        <time>2020-11-28T09:03:35Z</time>
      </trkpt>
      <trkpt lat="38.82097" lon="-0.62306">
        <ele>393.0</ele>
        <time>2020-11-28T09:03:38Z</time>
      </trkpt>
      <trkpt lat="38.82103" lon="-0.62321">
        <ele>392.0</ele>
        <time>2020-11-28T09:03:42Z</time>
      </trkpt>
      <trkpt lat="38.82097" lon="-0.62348">
        <ele>393.0</ele>
        <time>2020-11-28T09:03:46Z</time>
      </trkpt>
      <trkpt lat="38.82092" lon="-0.62413">
        <ele>393.0</ele>
        <time>2020-11-28T09:03:49Z</time>
      </trkpt>
      <trkpt lat="38.82099" lon="-0.62484">
        <ele>395.0</ele>
        <time>2020-11-28T09:03:52Z</time>
      </trkpt>
      <trkpt lat="38.82106" lon="-0.62550">
        <ele>396.0</ele>
        <time>2020-11-28T09:03:55Z</time>
      </trkpt>
      <trkpt lat="38.82113" lon="-0.62616">
        <ele>396.0</ele>
        <time>2020-11-28T09:03:59Z</time>
      </trkpt>
      <trkpt lat="38.82127" lon="-0.62670">
        <ele>396.0</ele>
        <time>2020-11-28T09:04:02Z</time>
      </trkpt>
      <trkpt lat="38.82142" lon="-0.62722">
        <ele>395.0</ele>
        <time>2020-11-28T09:04:05Z</time>
      </trkpt>
      <trkpt lat="38.82127" lon="-0.62793">
        <ele>392.0</ele>
        <time>2020-11-28T09:04:08Z</time>
      </trkpt>
      <trkpt lat="38.82122" lon="-0.62832">
        <ele>390.0</ele>
        <time>2020-11-28T09:04:11Z</time>
      </trkpt>
      <trkpt lat="38.82100" lon="-0.62865">
        <ele>388.0</ele>
        <time>2020-11-28T09:04:14Z</time>
      </trkpt>
      <trkpt lat="38.82062" lon="-0.62907">
        <ele>386.0</ele>
        <time>2020-11-28T09:04:17Z</time>
      </trkpt>
      <trkpt lat="38.82032" lon="-0.62940">
        <ele>385.0</ele>
        <time>2020-11-28T09:04:20Z</time>
      </trkpt>
      <trkpt lat="38.82012" lon="-0.62966">
        <ele>384.0</ele>
        <time>2020-11-28T09:04:23Z</time>
      </trkpt>
      <trkpt lat="38.82003" lon="-0.62998">
        <ele>384.0</ele>
        <time>2020-11-28T09:04:27Z</time>
      </trkpt>
      <trkpt lat="38.82000" lon="-0.63075">
        <ele>386.0</ele>
        <time>2020-11-28T09:04:30Z</time>
      </trkpt>
      <trkpt lat="38.81998" lon="-0.63148">
        <ele>387.0</ele>
        <time>2020-11-28T09:04:33Z</time>
      </trkpt>
      <trkpt lat="38.81994" lon="-0.63242">
        <ele>390.0</ele>
        <time>2020-11-28T09:04:36Z</time>
      </trkpt>
      <trkpt lat="38.81991" lon="-0.63326">
        <ele>390.0</ele>
        <time>2020-11-28T09:04:39Z</time>
      </trkpt>
      <trkpt lat="38.81989" lon="-0.63398">
        <ele>389.0</ele>
        <time>2020-11-28T09:04:42Z</time>
      </trkpt>
      <trkpt lat="38.81980" lon="-0.63454">
        <ele>388.0</ele>
        <time>2020-11-28T09:04:45Z</time>
      </trkpt>
      <trkpt lat="38.81954" lon="-0.63527">
        <ele>391.0</ele>
        <time>2020-11-28T09:04:49Z</time>
      </trkpt>
      <trkpt lat="38.81928" lon="-0.63603">
        <ele>395.0</ele>
        <time>2020-11-28T09:04:52Z</time>
      </trkpt>
      <trkpt lat="38.81903" lon="-0.63676">
        <ele>398.0</ele>
        <time>2020-11-28T09:04:55Z</time>
      </trkpt>
      <trkpt lat="38.81885" lon="-0.63732">
        <ele>398.0</ele>
        <time>2020-11-28T09:04:58Z</time>
      </trkpt>
      <trkpt lat="38.81875" lon="-0.63770">
        <ele>400.0</ele>
        <time>2020-11-28T09:05:01Z</time>
      </trkpt>
      <trkpt lat="38.81871" lon="-0.63799">
        <ele>400.0</ele>
        <time>2020-11-28T09:05:04Z</time>
      </trkpt>
      <trkpt lat="38.81878" lon="-0.63865">
        <ele>400.0</ele>
        <time>2020-11-28T09:05:07Z</time>
      </trkpt>
      <trkpt lat="38.81894" lon="-0.63934">
        <ele>400.0</ele>
        <time>2020-11-28T09:05:11Z</time>
      </trkpt>
      <trkpt lat="38.81915" lon="-0.64016">
        <ele>402.0</ele>
        <time>2020-11-28T09:05:14Z</time>
      </trkpt>
      <trkpt lat="38.81940" lon="-0.64097">
        <ele>405.0</ele>
        <time>2020-11-28T09:05:17Z</time>
      </trkpt>
      <trkpt lat="38.81963" lon="-0.64173">
        <ele>406.0</ele>
        <time>2020-11-28T09:05:20Z</time>
      </trkpt>
      <trkpt lat="38.81977" lon="-0.64254">
        <ele>409.0</ele>
        <time>2020-11-28T09:05:23Z</time>
      </trkpt>
      <trkpt lat="38.81988" lon="-0.64349">
        <ele>412.0</ele>
        <time>2020-11-28T09:05:26Z</time>
      </trkpt>
      <trkpt lat="38.81998" lon="-0.64437">
        <ele>415.0</ele>
        <time>2020-11-28T09:05:29Z</time>
      </trkpt>
      <trkpt lat="38.82010" lon="-0.64538">
        <ele>419.0</ele>
        <time>2020-11-28T09:05:33Z</time>
      </trkpt>
      <trkpt lat="38.82021" lon="-0.64635">
        <ele>422.0</ele>
        <time>2020-11-28T09:05:36Z</time>
      </trkpt>
      <trkpt lat="38.82029" lon="-0.64713">
        <ele>421.0</ele>
        <time>2020-11-28T09:05:39Z</time>
      </trkpt>
      <trkpt lat="38.82025" lon="-0.64796">
        <ele>422.0</ele>
        <time>2020-11-28T09:05:42Z</time>
      </trkpt>
      <trkpt lat="38.82019" lon="-0.64895">
        <ele>426.0</ele>
        <time>2020-11-28T09:05:45Z</time>
      </trkpt>
      <trkpt lat="38.82013" lon="-0.65003">
        <ele>429.0</ele>
        <time>2020-11-28T09:05:49Z</time>
      </trkpt>
      <trkpt lat="38.82006" lon="-0.65106">
        <ele>433.0</ele>
        <time>2020-11-28T09:05:52Z</time>
      </trkpt>
      <trkpt lat="38.82001" lon="-0.65190">
        <ele>436.0</ele>
        <time>2020-11-28T09:05:55Z</time>
      </trkpt>
      <trkpt lat="38.81997" lon="-0.65271">
        <ele>437.0</ele>
        <time>2020-11-28T09:05:58Z</time>
      </trkpt>
      <trkpt lat="38.81996" lon="-0.65333">
        <ele>439.0</ele>
        <time>2020-11-28T09:06:01Z</time>
      </trkpt>
      <trkpt lat="38.82005" lon="-0.65396">
        <ele>440.0</ele>
        <time>2020-11-28T09:06:04Z</time>
      </trkpt>
      <trkpt lat="38.82022" lon="-0.65483">
        <ele>442.0</ele>
        <time>2020-11-28T09:06:08Z</time>
      </trkpt>
      <trkpt lat="38.82039" lon="-0.65573">
        <ele>445.0</ele>
        <time>2020-11-28T09:06:11Z</time>
      </trkpt>
      <trkpt lat="38.82053" lon="-0.65644">
        <ele>447.0</ele>
        <time>2020-11-28T09:06:14Z</time>
      </trkpt>
      <trkpt lat="38.82064" lon="-0.65706">
        <ele>448.0</ele>
        <time>2020-11-28T09:06:17Z</time>
      </trkpt>
      <trkpt lat="38.82074" lon="-0.65765">
        <ele>449.0</ele>
        <time>2020-11-28T09:06:20Z</time>
      </trkpt>
      <trkpt lat="38.82071" lon="-0.65812">
        <ele>451.0</ele>
        <time>2020-11-28T09:06:23Z</time>
      </trkpt>
      <trkpt lat="38.82051" lon="-0.65870">
        <ele>453.0</ele>
        <time>2020-11-28T09:06:26Z</time>
      </trkpt>
      <trkpt lat="38.82026" lon="-0.65939">
        <ele>454.0</ele>
        <time>2020-11-28T09:06:30Z</time>
      </trkpt>
      <trkpt lat="38.81997" lon="-0.66020">
        <ele>456.0</ele>
        <time>2020-11-28T09:06:33Z</time>
      </trkpt>
      <trkpt lat="38.81969" lon="-0.66094">
        <ele>457.0</ele>
        <time>2020-11-28T09:06:36Z</time>
      </trkpt>
      <trkpt lat="38.81949" lon="-0.66149">
        <ele>458.0</ele>
        <time>2020-11-28T09:06:39Z</time>
      </trkpt>
      <trkpt lat="38.81937" lon="-0.66204">
        <ele>459.0</ele>
        <time>2020-11-28T09:06:42Z</time>
      </trkpt>
      <trkpt lat="38.81929" lon="-0.66286">
        <ele>461.0</ele>
        <time>2020-11-28T09:06:45Z</time>
      </trkpt>
      <trkpt lat="38.81921" lon="-0.66367">
        <ele>464.0</ele>
        <time>2020-11-28T09:06:49Z</time>
      </trkpt>
      <trkpt lat="38.81915" lon="-0.66432">
        <ele>465.0</ele>
        <time>2020-11-28T09:06:52Z</time>
      </trkpt>
      <trkpt lat="38.81902" lon="-0.66490">
        <ele>463.0</ele>
        <time>2020-11-28T09:06:55Z</time>
      </trkpt>
      <trkpt lat="38.81872" lon="-0.66568">
        <ele>468.0</ele>
        <time>2020-11-28T09:06:58Z</time>
      </trkpt>
      <trkpt lat="38.81840" lon="-0.66651">
        <ele>470.0</ele>
        <time>2020-11-28T09:07:01Z</time>
      </trkpt>
      <trkpt lat="38.81816" lon="-0.66713">
        <ele>466.0</ele>
        <time>2020-11-28T09:07:04Z</time>
      </trkpt>
      <trkpt lat="38.81791" lon="-0.66758">
        <ele>469.0</ele>
        <time>2020-11-28T09:07:08Z</time>
      </trkpt>
      <trkpt lat="38.81747" lon="-0.66799">
        <ele>472.0</ele>
        <time>2020-11-28T09:07:11Z</time>
      </trkpt>
      <trkpt lat="38.81702" lon="-0.66838">
        <ele>473.0</ele>
        <time>2020-11-28T09:07:14Z</time>
      </trkpt>
      <trkpt lat="38.81674" lon="-0.66868">
        <ele>473.0</ele>
        <time>2020-11-28T09:07:17Z</time>
      </trkpt>
      <trkpt lat="38.81654" lon="-0.66910">
        <ele>472.0</ele>
        <time>2020-11-28T09:07:20Z</time>
      </trkpt>
      <trkpt lat="38.81628" lon="-0.66973">
        <ele>472.0</ele>
        <time>2020-11-28T09:07:23Z</time>
      </trkpt>
      <trkpt lat="38.81605" lon="-0.67037">
        <ele>475.0</ele>
        <time>2020-11-28T09:07:27Z</time>
      </trkpt>
      <trkpt lat="38.81587" lon="-0.67097">
        <ele>473.0</ele>
        <time>2020-11-28T09:07:30Z</time>
      </trkpt>
      <trkpt lat="38.81578" lon="-0.67167">
        <ele>474.0</ele>
        <time>2020-11-28T09:07:33Z</time>
      </trkpt>
      <trkpt lat="38.81563" lon="-0.67218">
        <ele>473.0</ele>
        <time>2020-11-28T09:07:36Z</time>
      </trkpt>
      <trkpt lat="38.81529" lon="-0.67282">
        <ele>474.0</ele>
        <time>2020-11-28T09:07:39Z</time>
      </trkpt>
      <trkpt lat="38.81493" lon="-0.67345">
        <ele>474.0</ele>
        <time>2020-11-28T09:07:42Z</time>
      </trkpt>
      <trkpt lat="38.81466" lon="-0.67393">
        <ele>474.0</ele>
        <time>2020-11-28T09:07:45Z</time>
      </trkpt>
      <trkpt lat="38.81443" lon="-0.67442">
        <ele>474.0</ele>
        <time>2020-11-28T09:07:49Z</time>
      </trkpt>
      <trkpt lat="38.81426" lon="-0.67498">
        <ele>476.0</ele>
        <time>2020-11-28T09:07:52Z</time>
      </trkpt>
      <trkpt lat="38.81429" lon="-0.67563">
        <ele>477.0</ele>
        <time>2020-11-28T09:07:55Z</time>
      </trkpt>
      <trkpt lat="38.81458" lon="-0.67634">
        <ele>478.0</ele>
        <time>2020-11-28T09:07:58Z</time>
      </trkpt>
      <trkpt lat="38.81488" lon="-0.67712">
        <ele>480.0</ele>
        <time>2020-11-28T09:08:01Z</time>
      </trkpt>
      <trkpt lat="38.81503" lon="-0.67769">
        <ele>483.0</ele>
        <time>2020-11-28T09:08:04Z</time>
      </trkpt>
      <trkpt lat="38.81510" lon="-0.67848">
        <ele>486.0</ele>
        <time>2020-11-28T09:08:08Z</time>
      </trkpt>
      <trkpt lat="38.81517" lon="-0.67927">
        <ele>489.0</ele>
        <time>2020-11-28T09:08:11Z</time>
      </trkpt>
      <trkpt lat="38.81521" lon="-0.67992">
        <ele>490.0</ele>
        <time>2020-11-28T09:08:14Z</time>
      </trkpt>
      <trkpt lat="38.81516" lon="-0.68064">
        <ele>493.0</ele>
        <time>2020-11-28T09:08:17Z</time>
      </trkpt>
      <trkpt lat="38.81511" lon="-0.68134">
        <ele>494.0</ele>
        <time>2020-11-28T09:08:20Z</time>
      </trkpt>
      <trkpt lat="38.81506" lon="-0.68205">
        <ele>492.0</ele>
        <time>2020-11-28T09:08:24Z</time>
      </trkpt>
      <trkpt lat="38.81502" lon="-0.68259">
        <ele>491.0</ele>
        <time>2020-11-28T09:08:27Z</time>
      </trkpt>
      <trkpt lat="38.81507" lon="-0.68298">
        <ele>488.0</ele>
        <time>2020-11-28T09:08:30Z</time>
      </trkpt>
      <trkpt lat="38.81529" lon="-0.68354">
        <ele>488.0</ele>
        <time>2020-11-28T09:08:33Z</time>
      </trkpt>
      <trkpt lat="38.81552" lon="-0.68409">
        <ele>488.0</ele>
        <time>2020-11-28T09:08:36Z</time>
      </trkpt>
      <trkpt lat="38.81562" lon="-0.68466">
        <ele>489.0</ele>
        <time>2020-11-28T09:08:39Z</time>
      </trkpt>
      <trkpt lat="38.81558" lon="-0.68538">
        <ele>495.0</ele>
        <time>2020-11-28T09:08:42Z</time>
      </trkpt>
      <trkpt lat="38.81553" lon="-0.68589">
        <ele>498.0</ele>
        <time>2020-11-28T09:08:46Z</time>
      </trkpt>
      <trkpt lat="38.81564" lon="-0.68645">
        <ele>499.0</ele>
        <time>2020-11-28T09:08:49Z</time>
      </trkpt>
      <trkpt lat="38.81587" lon="-0.68723">
        <ele>498.0</ele>
        <time>2020-11-28T09:08:52Z</time>
      </trkpt>
      <trkpt lat="38.81614" lon="-0.68811">
        <ele>499.0</ele>
        <time>2020-11-28T09:08:55Z</time>
      </trkpt>
      <trkpt lat="38.81641" lon="-0.68900">
        <ele>502.0</ele>
        <time>2020-11-28T09:08:58Z</time>
      </trkpt>
      <trkpt lat="38.81661" lon="-0.68974">
        <ele>501.0</ele>
        <time>2020-11-28T09:09:02Z</time>
      </trkpt>
      <trkpt lat="38.81670" lon="-0.69033">
        <ele>502.0</ele>
        <time>2020-11-28T09:09:05Z</time>
      </trkpt>
      <trkpt lat="38.81673" lon="-0.69109">
        <ele>504.0</ele>
        <time>2020-11-28T09:09:08Z</time>
      </trkpt>
      <trkpt lat="38.81681" lon="-0.69163">
        <ele>505.0</ele>
        <time>2020-11-28T09:09:11Z</time>
      </trkpt>
      <trkpt lat="38.81703" lon="-0.69236">
        <ele>505.0</ele>
        <time>2020-11-28T09:09:14Z</time>
      </trkpt>
      <trkpt lat="38.81726" lon="-0.69311">
        <ele>508.0</ele>
        <time>2020-11-28T09:09:18Z</time>
      </trkpt>
      <trkpt lat="38.81738" lon="-0.69365">
        <ele>509.0</ele>
        <time>2020-11-28T09:09:21Z</time>
      </trkpt>
      <trkpt lat="38.81738" lon="-0.69438">
        <ele>511.0</ele>
        <time>2020-11-28T09:09:24Z</time>
      </trkpt>
      <trkpt lat="38.81737" lon="-0.69533">
        <ele>513.0</ele>
        <time>2020-11-28T09:09:27Z</time>
      </trkpt>
      <trkpt lat="38.81736" lon="-0.69621">
        <ele>512.0</ele>
        <time>2020-11-28T09:09:30Z</time>
      </trkpt>
      <trkpt lat="38.81730" lon="-0.69707">
        <ele>514.0</ele>
        <time>2020-11-28T09:09:34Z</time>
      </trkpt>
      <trkpt lat="38.81720" lon="-0.69781">
        <ele>515.0</ele>
        <time>2020-11-28T09:09:37Z</time>
      </trkpt>
      <trkpt lat="38.81701" lon="-0.69846">
        <ele>516.0</ele>
        <time>2020-11-28T09:09:40Z</time>
      </trkpt>
      <trkpt lat="38.81665" lon="-0.69922">
        <ele>517.0</ele>
        <time>2020-11-28T09:09:43Z</time>
      </trkpt>
      <trkpt lat="38.81639" lon="-0.69985">
        <ele>521.0</ele>
        <time>2020-11-28T09:09:46Z</time>
      </trkpt>
      <trkpt lat="38.81621" lon="-0.70029">
        <ele>523.0</ele>
        <time>2020-11-28T09:09:50Z</time>
      </trkpt>
      <trkpt lat="38.81618" lon="-0.70083">
        <ele>522.0</ele>
        <time>2020-11-28T09:09:53Z</time>
      </trkpt>
      <trkpt lat="38.81621" lon="-0.70149">
        <ele>527.0</ele>
        <time>2020-11-28T09:09:56Z</time>
      </trkpt>
      <trkpt lat="38.81627" lon="-0.70197">
        <ele>528.0</ele>
        <time>2020-11-28T09:09:59Z</time>
      </trkpt>
      <trkpt lat="38.81661" lon="-0.70256">
        <ele>531.0</ele>
        <time>2020-11-28T09:10:02Z</time>
      </trkpt>
      <trkpt lat="38.81691" lon="-0.70314">
        <ele>530.0</ele>
        <time>2020-11-28T09:10:05Z</time>
      </trkpt>
      <trkpt lat="38.81704" lon="-0.70378">
        <ele>534.0</ele>
        <time>2020-11-28T09:10:08Z</time>
      </trkpt>
      <trkpt lat="38.81713" lon="-0.70462">
        <ele>536.0</ele>
        <time>2020-11-28T09:10:12Z</time>
      </trkpt>
      <trkpt lat="38.81722" lon="-0.70541">
        <ele>536.0</ele>
        <time>2020-11-28T09:10:15Z</time>
      </trkpt>
      <trkpt lat="38.81731" lon="-0.70617">
        <ele>538.0</ele>
        <time>2020-11-28T09:10:18Z</time>
      </trkpt>
      <trkpt lat="38.81741" lon="-0.70680">
        <ele>537.0</ele>
        <time>2020-11-28T09:10:21Z</time>
      </trkpt>
      <trkpt lat="38.81767" lon="-0.70749">
        <ele>536.0</ele>
        <time>2020-11-28T09:10:24Z</time>
      </trkpt>
      <trkpt lat="38.81786" lon="-0.70806">
        <ele>534.0</ele>
        <time>2020-11-28T09:10:27Z</time>
      </trkpt>
      <trkpt lat="38.81787" lon="-0.70872">
        <ele>533.0</ele>
        <time>2020-11-28T09:10:31Z</time>
      </trkpt>
      <trkpt lat="38.81775" lon="-0.70944">
        <ele>533.0</ele>
        <time>2020-11-28T09:10:34Z</time>
      </trkpt>
      <trkpt lat="38.81757" lon="-0.71008">
        <ele>532.0</ele>
        <time>2020-11-28T09:10:37Z</time>
      </trkpt>
      <trkpt lat="38.81744" lon="-0.71060">
        <ele>531.0</ele>
        <time>2020-11-28T09:10:40Z</time>
      </trkpt>
      <trkpt lat="38.81739" lon="-0.71123">
        <ele>531.0</ele>
        <time>2020-11-28T09:10:44Z</time>
      </trkpt>
      <trkpt lat="38.81746" lon="-0.71198">
        <ele>528.0</ele>
        <time>2020-11-28T09:10:47Z</time>
      </trkpt>
      <trkpt lat="38.81756" lon="-0.71271">
        <ele>526.0</ele>
        <time>2020-11-28T09:10:50Z</time>
      </trkpt>
      <trkpt lat="38.81755" lon="-0.71355">
        <ele>522.0</ele>
        <time>2020-11-28T09:10:53Z</time>
      </trkpt>
      <trkpt lat="38.81753" lon="-0.71425">
        <ele>519.0</ele>
        <time>2020-11-28T09:10:56Z</time>
      </trkpt>
      <trkpt lat="38.81736" lon="-0.71486">
        <ele>518.0</ele>
        <time>2020-11-28T09:11:00Z</time>
      </trkpt>
      <trkpt lat="38.81721" lon="-0.71539">
        <ele>520.0</ele>
        <time>2020-11-28T09:11:03Z</time>
      </trkpt>
      <trkpt lat="38.81714" lon="-0.71576">
        <ele>517.0</ele>
        <time>2020-11-28T09:11:06Z</time>
      </trkpt>
      <trkpt lat="38.81721" lon="-0.71622">
        <ele>519.0</ele>
        <time>2020-11-28T09:11:09Z</time>
      </trkpt>
      <trkpt lat="38.81719" lon="-0.71668">
        <ele>518.0</ele>
        <time>2020-11-28T09:11:12Z</time>
      </trkpt>
      <trkpt lat="38.81708" lon="-0.71725">
        <ele>522.0</ele>
        <time>2020-11-28T09:11:15Z</time>
      </trkpt>
      <trkpt lat="38.81711" lon="-0.71802">
        <ele>524.0</ele>
        <time>2020-11-28T09:11:19Z</time>
      </trkpt>
      <trkpt lat="38.81706" lon="-0.71868">
        <ele>527.0</ele>
        <time>2020-11-28T09:11:22Z</time>
      </trkpt>
      <trkpt lat="38.81688" lon="-0.71946">
        <ele>529.0</ele>
        <time>2020-11-28T09:11:25Z</time>
      </trkpt>
      <trkpt lat="38.81670" lon="-0.72021">
        <ele>532.0</ele>
        <time>2020-11-28T09:11:28Z</time>
      </trkpt>
      <trkpt lat="38.81651" lon="-0.72081">
        <ele>534.0</ele>
        <time>2020-11-28T09:11:31Z</time>
      </trkpt>
      <trkpt lat="38.81616" lon="-0.72137">
        <ele>539.0</ele>
        <time>2020-11-28T09:11:34Z</time>
      </trkpt>
      <trkpt lat="38.81572" lon="-0.72179">
        <ele>540.0</ele>
        <time>2020-11-28T09:11:38Z</time>
      </trkpt>
      <trkpt lat="38.81515" lon="-0.72211">
        <ele>545.0</ele>
        <time>2020-11-28T09:11:41Z</time>
      </trkpt>
      <trkpt lat="38.81447" lon="-0.72241">
        <ele>550.0</ele>
        <time>2020-11-28T09:11:44Z</time>
      </trkpt>
      <trkpt lat="38.81394" lon="-0.72263">
        <ele>550.0</ele>
        <time>2020-11-28T09:11:47Z</time>
      </trkpt>
      <trkpt lat="38.81353" lon="-0.72281">
        <ele>553.0</ele>
        <time>2020-11-28T09:11:51Z</time>
      </trkpt>
      <trkpt lat="38.81323" lon="-0.72304">
        <ele>554.0</ele>
        <time>2020-11-28T09:11:54Z</time>
      </trkpt>
      <trkpt lat="38.81300" lon="-0.72348">
        <ele>557.0</ele>
        <time>2020-11-28T09:11:57Z</time>
      </trkpt>
      <trkpt lat="38.81297" lon="-0.72404">
        <ele>561.0</ele>
        <time>2020-11-28T09:12:00Z</time>
      </trkpt>
      <trkpt lat="38.81307" lon="-0.72445">
        <ele>564.0</ele>
        <time>2020-11-28T09:12:03Z</time>
      </trkpt>
      <trkpt lat="38.81305" lon="-0.72505">
        <ele>566.0</ele>
        <time>2020-11-28T09:12:06Z</time>
      </trkpt>
      <trkpt lat="38.81281" lon="-0.72535">
        <ele>568.0</ele>
        <time>2020-11-28T09:12:10Z</time>
      </trkpt>
      <trkpt lat="38.81235" lon="-0.72568">
        <ele>573.0</ele>
        <time>2020-11-28T09:12:13Z</time>
      </trkpt>
      <trkpt lat="38.81219" lon="-0.72587">
        <ele>577.0</ele>
        <time>2020-11-28T09:12:16Z</time>
      </trkpt>
      <trkpt lat="38.81196" lon="-0.72652">
        <ele>579.0</ele>
        <time>2020-11-28T09:12:19Z</time>
      </trkpt>
      <trkpt lat="38.81192" lon="-0.72716">
        <ele>583.0</ele>
        <time>2020-11-28T09:12:23Z</time>
      </trkpt>
      <trkpt lat="38.81173" lon="-0.72762">
        <ele>588.0</ele>
        <time>2020-11-28T09:12:26Z</time>
      </trkpt>
      <trkpt lat="38.81148" lon="-0.72791">
        <ele>592.0</ele>
        <time>2020-11-28T09:12:29Z</time>
      </trkpt>
      <trkpt lat="38.81108" lon="-0.72868">
        <ele>595.0</ele>
        <time>2020-11-28T09:12:32Z</time>
      </trkpt>
      <trkpt lat="38.81100" lon="-0.72911">
        <ele>596.0</ele>
        <time>2020-11-28T09:12:35Z</time>
      </trkpt>
      <trkpt lat="38.81089" lon="-0.72988">
        <ele>598.0</ele>
        <time>2020-11-28T09:12:39Z</time>
      </trkpt>
      <trkpt lat="38.81076" lon="-0.73058">
        <ele>598.0</ele>
        <time>2020-11-28T09:12:42Z</time>
      </trkpt>
      <trkpt lat="38.81058" lon="-0.73123">
        <ele>597.0</ele>
        <time>2020-11-28T09:12:45Z</time>
      </trkpt>
      <trkpt lat="38.81030" lon="-0.73185">
        <ele>597.0</ele>
        <time>2020-11-28T09:12:48Z</time>
      </trkpt>
      <trkpt lat="38.80991" lon="-0.73263">
        <ele>597.0</ele>
        <time>2020-11-28T09:12:51Z</time>
      </trkpt>
      <trkpt lat="38.80962" lon="-0.73323">
        <ele>598.0</ele>
        <time>2020-11-28T09:12:54Z</time>
      </trkpt>
      <trkpt lat="38.80939" lon="-0.73376">
        <ele>600.0</ele>
        <time>2020-11-28T09:12:58Z</time>
      </trkpt>
      <trkpt lat="38.80925" lon="-0.73430">
        <ele>601.0</ele>
        <time>2020-11-28T09:13:01Z</time>
      </trkpt>
      <trkpt lat="38.80919" lon="-0.73501">
        <ele>605.0</ele>
        <time>2020-11-28T09:13:04Z</time>
      </trkpt>
      <trkpt lat="38.80907" lon="-0.73572">
        <ele>606.0</ele>
        <time>2020-11-28T09:13:07Z</time>
      </trkpt>
      <trkpt lat="38.80883" lon="-0.73643">
        <ele>609.0</ele>
        <time>2020-11-28T09:13:10Z</time>
      </trkpt>
      <trkpt lat="38.80853" lon="-0.73711">
        <ele>611.0</ele>
        <time>2020-11-28T09:13:13Z</time>
      </trkpt>
      <trkpt lat="38.80827" lon="-0.73792">
        <ele>615.0</ele>
        <time>2020-11-28T09:13:17Z</time>
      </trkpt>
      <trkpt lat="38.80811" lon="-0.73875">
        <ele>618.0</ele>
        <time>2020-11-28T09:13:20Z</time>
      </trkpt>
      <trkpt lat="38.80788" lon="-0.73997">
        <ele>622.0</ele>
        <time>2020-11-28T09:13:23Z</time>
      </trkpt>
      <trkpt lat="38.80771" lon="-0.74077">
        <ele>624.0</ele>
        <time>2020-11-28T09:13:26Z</time>
      </trkpt>
      <trkpt lat="38.80757" lon="-0.74144">
        <ele>627.0</ele>
        <time>2020-11-28T09:13:30Z</time>
      </trkpt>
      <trkpt lat="38.80749" lon="-0.74202">
        <ele>627.0</ele>
        <time>2020-11-28T09:13:33Z</time>
      </trkpt>
      <trkpt lat="38.80753" lon="-0.74273">
        <ele>631.0</ele>
        <time>2020-11-28T09:13:36Z</time>
      </trkpt>
      <trkpt lat="38.80753" lon="-0.74338">
        <ele>631.0</ele>
        <time>2020-11-28T09:13:39Z</time>
      </trkpt>
      <trkpt lat="38.80740" lon="-0.74406">
        <ele>633.0</ele>
        <time>2020-11-28T09:13:42Z</time>
      </trkpt>
      <trkpt lat="38.80716" lon="-0.74484">
        <ele>633.0</ele>
        <time>2020-11-28T09:13:46Z</time>
      </trkpt>
      <trkpt lat="38.80691" lon="-0.74566">
        <ele>636.0</ele>
        <time>2020-11-28T09:13:49Z</time>
      </trkpt>
      <trkpt lat="38.80666" lon="-0.74652">
        <ele>636.0</ele>
        <time>2020-11-28T09:13:52Z</time>
      </trkpt>
      <trkpt lat="38.80638" lon="-0.74754">
        <ele>637.0</ele>
        <time>2020-11-28T09:13:55Z</time>
      </trkpt>
      <trkpt lat="38.80615" lon="-0.74854">
        <ele>638.0</ele>
        <time>2020-11-28T09:13:58Z</time>
      </trkpt>
      <trkpt lat="38.80594" lon="-0.74941">
        <ele>639.0</ele>
        <time>2020-11-28T09:14:01Z</time>
      </trkpt>
      <trkpt lat="38.80575" lon="-0.75024">
        <ele>640.0</ele>
        <time>2020-11-28T09:14:04Z</time>
      </trkpt>
      <trkpt lat="38.80564" lon="-0.75116">
        <ele>641.0</ele>
        <time>2020-11-28T09:14:07Z</time>
      </trkpt>
      <trkpt lat="38.80552" lon="-0.75214">
        <ele>642.0</ele>
        <time>2020-11-28T09:14:11Z</time>
      </trkpt>
      <trkpt lat="38.80535" lon="-0.75296">
        <ele>642.0</ele>
        <time>2020-11-28T09:14:14Z</time>
      </trkpt>
      <trkpt lat="38.80513" lon="-0.75384">
        <ele>646.0</ele>
        <time>2020-11-28T09:14:17Z</time>
      </trkpt>
      <trkpt lat="38.80488" lon="-0.75477">
        <ele>649.0</ele>
        <time>2020-11-28T09:14:20Z</time>
      </trkpt>
      <trkpt lat="38.80466" lon="-0.75561">
        <ele>653.0</ele>
        <time>2020-11-28T09:14:24Z</time>
      </trkpt>
      <trkpt lat="38.80450" lon="-0.75630">
        <ele>655.0</ele>
        <time>2020-11-28T09:14:27Z</time>
      </trkpt>
      <trkpt lat="38.80442" lon="-0.75708">
        <ele>654.0</ele>
        <time>2020-11-28T09:14:30Z</time>
      </trkpt>
      <trkpt lat="38.80441" lon="-0.75797">
        <ele>655.0</ele>
        <time>2020-11-28T09:14:33Z</time>
      </trkpt>
      <trkpt lat="38.80446" lon="-0.75899">
        <ele>655.0</ele>
        <time>2020-11-28T09:14:37Z</time>
      </trkpt>
      <trkpt lat="38.80452" lon="-0.75982">
        <ele>655.0</ele>
        <time>2020-11-28T09:14:40Z</time>
      </trkpt>
      <trkpt lat="38.80458" lon="-0.76064">
        <ele>652.0</ele>
        <time>2020-11-28T09:14:43Z</time>
      </trkpt>
      <trkpt lat="38.80449" lon="-0.76147">
        <ele>650.0</ele>
        <time>2020-11-28T09:14:46Z</time>
      </trkpt>
      <trkpt lat="38.80433" lon="-0.76232">
        <ele>650.0</ele>
        <time>2020-11-28T09:14:49Z</time>
      </trkpt>
      <trkpt lat="38.80419" lon="-0.76305">
        <ele>649.0</ele>
        <time>2020-11-28T09:14:53Z</time>
      </trkpt>
      <trkpt lat="38.80401" lon="-0.76361">
        <ele>647.0</ele>
        <time>2020-11-28T09:14:56Z</time>
      </trkpt>
      <trkpt lat="38.80368" lon="-0.76424">
        <ele>648.0</ele>
        <time>2020-11-28T09:14:59Z</time>
      </trkpt>
      <trkpt lat="38.80327" lon="-0.76487">
        <ele>647.0</ele>
        <time>2020-11-28T09:15:02Z</time>
      </trkpt>
      <trkpt lat="38.80288" lon="-0.76545">
        <ele>645.0</ele>
        <time>2020-11-28T09:15:05Z</time>
      </trkpt>
      <trkpt lat="38.80251" lon="-0.76604">
        <ele>643.0</ele>
        <time>2020-11-28T09:15:08Z</time>
      </trkpt>
      <trkpt lat="38.80213" lon="-0.76680">
        <ele>642.0</ele>
        <time>2020-11-28T09:15:12Z</time>
      </trkpt>
      <trkpt lat="38.80175" lon="-0.76759">
        <ele>641.0</ele>
        <time>2020-11-28T09:15:15Z</time>
      </trkpt>
      <trkpt lat="38.80138" lon="-0.76832">
        <ele>640.0</ele>
        <time>2020-11-28T09:15:18Z</time>
      </trkpt>
      <trkpt lat="38.80100" lon="-0.76908">
        <ele>638.0</ele>
        <time>2020-11-28T09:15:21Z</time>
      </trkpt>
      <trkpt lat="38.80064" lon="-0.76983">
        <ele>637.0</ele>
        <time>2020-11-28T09:15:24Z</time>
      </trkpt>
      <trkpt lat="38.80031" lon="-0.77052">
        <ele>637.0</ele>
        <time>2020-11-28T09:15:27Z</time>
      </trkpt>
      <trkpt lat="38.79997" lon="-0.77123">
        <ele>638.0</ele>
        <time>2020-11-28T09:15:30Z</time>
      </trkpt>
      <trkpt lat="38.79959" lon="-0.77198">
        <ele>635.0</ele>
        <time>2020-11-28T09:15:34Z</time>
      </trkpt>
      <trkpt lat="38.79926" lon="-0.77265">
        <ele>635.0</ele>
        <time>2020-11-28T09:15:37Z</time>
      </trkpt>
      <trkpt lat="38.79899" lon="-0.77326">
        <ele>634.0</ele>
        <time>2020-11-28T09:15:40Z</time>
      </trkpt>
      <trkpt lat="38.79864" lon="-0.77379">
        <ele>630.0</ele>
        <time>2020-11-28T09:15:43Z</time>
      </trkpt>
      <trkpt lat="38.79828" lon="-0.77429">
        <ele>629.0</ele>
        <time>2020-11-28T09:15:46Z</time>
      </trkpt>
      <trkpt lat="38.79798" lon="-0.77475">
        <ele>627.0</ele>
        <time>2020-11-28T09:15:49Z</time>
      </trkpt>
      <trkpt lat="38.79781" lon="-0.77535">
        <ele>626.0</ele>
        <time>2020-11-28T09:15:52Z</time>
      </trkpt>
      <trkpt lat="38.79764" lon="-0.77615">
        <ele>627.0</ele>
        <time>2020-11-28T09:15:56Z</time>
      </trkpt>
      <trkpt lat="38.79751" lon="-0.77678">
        <ele>627.0</ele>
        <time>2020-11-28T09:15:59Z</time>
      </trkpt>
      <trkpt lat="38.79737" lon="-0.77743">
        <ele>628.0</ele>
        <time>2020-11-28T09:16:02Z</time>
      </trkpt>
      <trkpt lat="38.79722" lon="-0.77811">
        <ele>626.0</ele>
        <time>2020-11-28T09:16:05Z</time>
      </trkpt>
      <trkpt lat="38.79709" lon="-0.77879">
        <ele>627.0</ele>
        <time>2020-11-28T09:16:08Z</time>
      </trkpt>
      <trkpt lat="38.79696" lon="-0.77941">
        <ele>628.0</ele>
        <time>2020-11-28T09:16:11Z</time>
      </trkpt>
      <trkpt lat="38.79684" lon="-0.78005">
        <ele>627.0</ele>
        <time>2020-11-28T09:16:15Z</time>
      </trkpt>
      <trkpt lat="38.79669" lon="-0.78081">
        <ele>623.0</ele>
        <time>2020-11-28T09:16:18Z</time>
      </trkpt>
      <trkpt lat="38.79653" lon="-0.78140">
        <ele>621.0</ele>
        <time>2020-11-28T09:16:21Z</time>
      </trkpt>
      <trkpt lat="38.79628" lon="-0.78192">
        <ele>621.0</ele>
        <time>2020-11-28T09:16:24Z</time>
      </trkpt>
      <trkpt lat="38.79594" lon="-0.78233">
        <ele>621.0</ele>
        <time>2020-11-28T09:16:27Z</time>
      </trkpt>
      <trkpt lat="38.79541" lon="-0.78268">
        <ele>620.0</ele>
        <time>2020-11-28T09:16:31Z</time>
      </trkpt>
      <trkpt lat="38.79489" lon="-0.78298">
        <ele>619.0</ele>
        <time>2020-11-28T09:16:34Z</time>
      </trkpt>
      <trkpt lat="38.79435" lon="-0.78324">
        <ele>617.0</ele>
        <time>2020-11-28T09:16:37Z</time>
      </trkpt>
      <trkpt lat="38.79381" lon="-0.78348">
        <ele>616.0</ele>
        <time>2020-11-28T09:16:40Z</time>
      </trkpt>
      <trkpt lat="38.79326" lon="-0.78365">
        <ele>614.0</ele>
        <time>2020-11-28T09:16:43Z</time>
      </trkpt>
      <trkpt lat="38.79275" lon="-0.78378">
        <ele>611.0</ele>
        <time>2020-11-28T09:16:46Z</time>
      </trkpt>
      <trkpt lat="38.79228" lon="-0.78397">
        <ele>610.0</ele>
        <time>2020-11-28T09:16:50Z</time>
      </trkpt>
      <trkpt lat="38.79173" lon="-0.78430">
        <ele>609.0</ele>
        <time>2020-11-28T09:16:53Z</time>
      </trkpt>
      <trkpt lat="38.79127" lon="-0.78469">
        <ele>607.0</ele>
        <time>2020-11-28T09:16:56Z</time>
      </trkpt>
      <trkpt lat="38.79082" lon="-0.78506">
        <ele>605.0</ele>
        <time>2020-11-28T09:16:59Z</time>
      </trkpt>
      <trkpt lat="38.79029" lon="-0.78554">
        <ele>604.0</ele>
        <time>2020-11-28T09:17:02Z</time>
      </trkpt>
      <trkpt lat="38.78985" lon="-0.78600">
        <ele>603.0</ele>
        <time>2020-11-28T09:17:05Z</time>
      </trkpt>
      <trkpt lat="38.78944" lon="-0.78642">
        <ele>603.0</ele>
        <time>2020-11-28T09:17:08Z</time>
      </trkpt>
      <trkpt lat="38.78902" lon="-0.78685">
        <ele>603.0</ele>
        <time>2020-11-28T09:17:12Z</time>
      </trkpt>
      <trkpt lat="38.78863" lon="-0.78725">
        <ele>604.0</ele>
        <time>2020-11-28T09:17:15Z</time>
      </trkpt>
      <trkpt lat="38.78832" lon="-0.78757">
        <ele>605.0</ele>
        <time>2020-11-28T09:17:18Z</time>
      </trkpt>
      <trkpt lat="38.78807" lon="-0.78786">
        <ele>605.0</ele>
        <time>2020-11-28T09:17:21Z</time>
      </trkpt>
      <trkpt lat="38.78787" lon="-0.78833">
        <ele>607.0</ele>
        <time>2020-11-28T09:17:24Z</time>
      </trkpt>
      <trkpt lat="38.78774" lon="-0.78884">
        <ele>609.0</ele>
        <time>2020-11-28T09:17:27Z</time>
      </trkpt>
      <trkpt lat="38.78761" lon="-0.78932">
        <ele>612.0</ele>
        <time>2020-11-28T09:17:30Z</time>
      </trkpt>
      <trkpt lat="38.78750" lon="-0.78970">
        <ele>613.0</ele>
        <time>2020-11-28T09:17:33Z</time>
      </trkpt>
      <trkpt lat="38.78744" lon="-0.78991">
        <ele>613.0</ele>
        <time>2020-11-28T09:17:36Z</time>
      </trkpt>
      <trkpt lat="38.78730" lon="-0.79031">
        <ele>614.0</ele>
        <time>2020-11-28T09:17:40Z</time>
      </trkpt>
      <trkpt lat="38.78706" lon="-0.79091">
        <ele>616.0</ele>
        <time>2020-11-28T09:17:43Z</time>
      </trkpt>
      <trkpt lat="38.78674" lon="-0.79154">
        <ele>618.0</ele>
        <time>2020-11-28T09:17:46Z</time>
      </trkpt>
      <trkpt lat="38.78643" lon="-0.79213">
        <ele>620.0</ele>
        <time>2020-11-28T09:17:49Z</time>
      </trkpt>
      <trkpt lat="38.78605" lon="-0.79269">
        <ele>622.0</ele>
        <time>2020-11-28T09:17:52Z</time>
      </trkpt>
      <trkpt lat="38.78551" lon="-0.79341">
        <ele>622.0</ele>
        <time>2020-11-28T09:17:55Z</time>
      </trkpt>
      <trkpt lat="38.78496" lon="-0.79416">
        <ele>623.0</ele>
        <time>2020-11-28T09:17:58Z</time>
      </trkpt>
      <trkpt lat="38.78439" lon="-0.79490">
        <ele>622.0</ele>
        <time>2020-11-28T09:18:02Z</time>
      </trkpt>
      <trkpt lat="38.78382" lon="-0.79560">
        <ele>621.0</ele>
        <time>2020-11-28T09:18:05Z</time>
      </trkpt>
      <trkpt lat="38.78327" lon="-0.79632">
        <ele>621.0</ele>
        <time>2020-11-28T09:18:08Z</time>
      </trkpt>
      <trkpt lat="38.78275" lon="-0.79701">
        <ele>620.0</ele>
        <time>2020-11-28T09:18:11Z</time>
      </trkpt>
      <trkpt lat="38.78219" lon="-0.79773">
        <ele>621.0</ele>
        <time>2020-11-28T09:18:14Z</time>
      </trkpt>
      <trkpt lat="38.78168" lon="-0.79842">
        <ele>621.0</ele>
        <time>2020-11-28T09:18:17Z</time>
      </trkpt>
      <trkpt lat="38.78113" lon="-0.79903">
        <ele>620.0</ele>
        <time>2020-11-28T09:18:21Z</time>
      </trkpt>
      <trkpt lat="38.78047" lon="-0.79964">
        <ele>622.0</ele>
        <time>2020-11-28T09:18:24Z</time>
      </trkpt>
      <trkpt lat="38.77996" lon="-0.80009">
        <ele>620.0</ele>
        <time>2020-11-28T09:18:27Z</time>
      </trkpt>
      <trkpt lat="38.77953" lon="-0.80046">
        <ele>618.0</ele>
        <time>2020-11-28T09:18:30Z</time>
      </trkpt>
      <trkpt lat="38.77916" lon="-0.80086">
        <ele>617.0</ele>
        <time>2020-11-28T09:18:33Z</time>
      </trkpt>
      <trkpt lat="38.77874" lon="-0.80146">
        <ele>617.0</ele>
        <time>2020-11-28T09:18:37Z</time>
      </trkpt>
      <trkpt lat="38.77839" lon="-0.80206">
        <ele>616.0</ele>
        <time>2020-11-28T09:18:40Z</time>
      </trkpt>
      <trkpt lat="38.77795" lon="-0.80272">
        <ele>613.0</ele>
        <time>2020-11-28T09:18:43Z</time>
      </trkpt>
      <trkpt lat="38.77746" lon="-0.80345">
        <ele>613.0</ele>
        <time>2020-11-28T09:18:46Z</time>
      </trkpt>
      <trkpt lat="38.77701" lon="-0.80415">
        <ele>614.0</ele>
        <time>2020-11-28T09:18:49Z</time>
      </trkpt>
      <trkpt lat="38.77652" lon="-0.80503">
        <ele>614.0</ele>
        <time>2020-11-28T09:18:52Z</time>
      </trkpt>
      <trkpt lat="38.77605" lon="-0.80589">
        <ele>615.0</ele>
        <time>2020-11-28T09:18:55Z</time>
      </trkpt>
      <trkpt lat="38.77565" lon="-0.80666">
        <ele>614.0</ele>
        <time>2020-11-28T09:18:59Z</time>
      </trkpt>
      <trkpt lat="38.77538" lon="-0.80717">
        <ele>615.0</ele>
        <time>2020-11-28T09:19:02Z</time>
      </trkpt>
      <trkpt lat="38.77518" lon="-0.80763">
        <ele>613.0</ele>
        <time>2020-11-28T09:19:05Z</time>
      </trkpt>
      <trkpt lat="38.77506" lon="-0.80802">
        <ele>611.0</ele>
        <time>2020-11-28T09:19:08Z</time>
      </trkpt>
      <trkpt lat="38.77503" lon="-0.80842">
        <ele>611.0</ele>
        <time>2020-11-28T09:19:11Z</time>
      </trkpt>
      <trkpt lat="38.77507" lon="-0.80890">
        <ele>611.0</ele>
        <time>2020-11-28T09:19:15Z</time>
      </trkpt>
      <trkpt lat="38.77520" lon="-0.80946">
        <ele>610.0</ele>
        <time>2020-11-28T09:19:18Z</time>
      </trkpt>
      <trkpt lat="38.77544" lon="-0.81024">
        <ele>611.0</ele>
        <time>2020-11-28T09:19:21Z</time>
      </trkpt>
      <trkpt lat="38.77569" lon="-0.81108">
        <ele>613.0</ele>
        <time>2020-11-28T09:19:24Z</time>
      </trkpt>
      <trkpt lat="38.77599" lon="-0.81193">
        <ele>615.0</ele>
        <time>2020-11-28T09:19:27Z</time>
      </trkpt>
      <trkpt lat="38.77631" lon="-0.81288">
        <ele>618.0</ele>
        <time>2020-11-28T09:19:30Z</time>
      </trkpt>
      <trkpt lat="38.77660" lon="-0.81378">
        <ele>618.0</ele>
        <time>2020-11-28T09:19:33Z</time>
      </trkpt>
      <trkpt lat="38.77683" lon="-0.81450">
        <ele>617.0</ele>
        <time>2020-11-28T09:19:37Z</time>
      </trkpt>
      <trkpt lat="38.77701" lon="-0.81517">
        <ele>616.0</ele>
        <time>2020-11-28T09:19:40Z</time>
      </trkpt>
      <trkpt lat="38.77709" lon="-0.81584">
        <ele>617.0</ele>
        <time>2020-11-28T09:19:43Z</time>
      </trkpt>
      <trkpt lat="38.77714" lon="-0.81677">
        <ele>621.0</ele>
        <time>2020-11-28T09:19:46Z</time>
      </trkpt>
      <trkpt lat="38.77713" lon="-0.81759">
        <ele>623.0</ele>
        <time>2020-11-28T09:19:49Z</time>
      </trkpt>
      <trkpt lat="38.77713" lon="-0.81848">
        <ele>622.0</ele>
        <time>2020-11-28T09:19:52Z</time>
      </trkpt>
      <trkpt lat="38.77712" lon="-0.81960">
        <ele>619.0</ele>
        <time>2020-11-28T09:19:56Z</time>
      </trkpt>
      <trkpt lat="38.77712" lon="-0.82068">
        <ele>620.0</ele>
        <time>2020-11-28T09:19:59Z</time>
      </trkpt>
      <trkpt lat="38.77712" lon="-0.82164">
        <ele>619.0</ele>
        <time>2020-11-28T09:20:02Z</time>
      </trkpt>
      <trkpt lat="38.77711" lon="-0.82263">
        <ele>619.0</ele>
        <time>2020-11-28T09:20:05Z</time>
      </trkpt>
      <trkpt lat="38.77711" lon="-0.82361">
        <ele>618.0</ele>
        <time>2020-11-28T09:20:08Z</time>
      </trkpt>
      <trkpt lat="38.77714" lon="-0.82489">
        <ele>618.0</ele>
        <time>2020-11-28T09:20:11Z</time>
      </trkpt>
      <trkpt lat="38.77718" lon="-0.82565">
        <ele>619.0</ele>
        <time>2020-11-28T09:20:15Z</time>
      </trkpt>
      <trkpt lat="38.77723" lon="-0.82667">
        <ele>617.0</ele>
        <time>2020-11-28T09:20:18Z</time>
      </trkpt>
      <trkpt lat="38.77728" lon="-0.82776">
        <ele>616.0</ele>
        <time>2020-11-28T09:20:21Z</time>
      </trkpt>
      <trkpt lat="38.77732" lon="-0.82868">
        <ele>617.0</ele>
        <time>2020-11-28T09:20:24Z</time>
      </trkpt>
      <trkpt lat="38.77735" lon="-0.82943">
        <ele>618.0</ele>
        <time>2020-11-28T09:20:27Z</time>
      </trkpt>
      <trkpt lat="38.77738" lon="-0.83004">
        <ele>617.0</ele>
        <time>2020-11-28T09:20:30Z</time>
      </trkpt>
      <trkpt lat="38.77739" lon="-0.83050">
        <ele>617.0</ele>
        <time>2020-11-28T09:20:33Z</time>
      </trkpt>
      <trkpt lat="38.77739" lon="-0.83088">
        <ele>615.0</ele>
        <time>2020-11-28T09:20:37Z</time>
      </trkpt>
      <trkpt lat="38.77737" lon="-0.83137">
        <ele>617.0</ele>
        <time>2020-11-28T09:20:40Z</time>
      </trkpt>
      <trkpt lat="38.77733" lon="-0.83203">
        <ele>616.0</ele>
        <time>2020-11-28T09:20:43Z</time>
      </trkpt>
      <trkpt lat="38.77731" lon="-0.83277">
        <ele>618.0</ele>
        <time>2020-11-28T09:20:46Z</time>
      </trkpt>
      <trkpt lat="38.77737" lon="-0.83382">
        <ele>620.0</ele>
        <time>2020-11-28T09:20:49Z</time>
      </trkpt>
      <trkpt lat="38.77743" lon="-0.83473">
        <ele>622.0</ele>
        <time>2020-11-28T09:20:52Z</time>
      </trkpt>
      <trkpt lat="38.77749" lon="-0.83556">
        <ele>625.0</ele>
        <time>2020-11-28T09:20:56Z</time>
      </trkpt>
      <trkpt lat="38.77756" lon="-0.83650">
        <ele>626.0</ele>
        <time>2020-11-28T09:20:59Z</time>
      </trkpt>
      <trkpt lat="38.77763" lon="-0.83746">
        <ele>626.0</ele>
        <time>2020-11-28T09:21:02Z</time>
      </trkpt>
      <trkpt lat="38.77764" lon="-0.83849">
        <ele>628.0</ele>
        <time>2020-11-28T09:21:05Z</time>
      </trkpt>
      <trkpt lat="38.77764" lon="-0.83931">
        <ele>627.0</ele>
        <time>2020-11-28T09:21:08Z</time>
      </trkpt>
      <trkpt lat="38.77768" lon="-0.84015">
        <ele>624.0</ele>
        <time>2020-11-28T09:21:11Z</time>
      </trkpt>
      <trkpt lat="38.77780" lon="-0.84114">
        <ele>625.0</ele>
        <time>2020-11-28T09:21:15Z</time>
      </trkpt>
      <trkpt lat="38.77790" lon="-0.84189">
        <ele>621.0</ele>
        <time>2020-11-28T09:21:18Z</time>
      </trkpt>
      <trkpt lat="38.77806" lon="-0.84263">
        <ele>620.0</ele>
        <time>2020-11-28T09:21:21Z</time>
      </trkpt>
      <trkpt lat="38.77837" lon="-0.84357">
        <ele>618.0</ele>
        <time>2020-11-28T09:21:24Z</time>
      </trkpt>
      <trkpt lat="38.77872" lon="-0.84462">
        <ele>619.0</ele>
        <time>2020-11-28T09:21:27Z</time>
      </trkpt>
      <trkpt lat="38.77909" lon="-0.84571">
        <ele>618.0</ele>
        <time>2020-11-28T09:21:31Z</time>
      </trkpt>
      <trkpt lat="38.77947" lon="-0.84686">
        <ele>620.0</ele>
        <time>2020-11-28T09:21:34Z</time>
      </trkpt>
      <trkpt lat="38.77980" lon="-0.84785">
        <ele>621.0</ele>
        <time>2020-11-28T09:21:37Z</time>
      </trkpt>
      <trkpt lat="38.78010" lon="-0.84876">
        <ele>624.0</ele>
        <time>2020-11-28T09:21:40Z</time>
      </trkpt>
      <trkpt lat="38.78039" lon="-0.84959">
        <ele>627.0</ele>
        <time>2020-11-28T09:21:44Z</time>
      </trkpt>
      <trkpt lat="38.78064" lon="-0.85031">
        <ele>629.0</ele>
        <time>2020-11-28T09:21:47Z</time>
      </trkpt>
      <trkpt lat="38.78082" lon="-0.85088">
        <ele>630.0</ele>
        <time>2020-11-28T09:21:50Z</time>
      </trkpt>
      <trkpt lat="38.78097" lon="-0.85132">
        <ele>633.0</ele>
        <time>2020-11-28T09:21:53Z</time>
      </trkpt>
      <trkpt lat="38.78113" lon="-0.85160">
        <ele>635.0</ele>
        <time>2020-11-28T09:21:56Z</time>
      </trkpt>
      <trkpt lat="38.78149" lon="-0.85176">
        <ele>635.0</ele>
        <time>2020-11-28T09:21:59Z</time>
      </trkpt>
      <trkpt lat="38.78204" lon="-0.85195">
        <ele>639.0</ele>
        <time>2020-11-28T09:22:03Z</time>
      </trkpt>
      <trkpt lat="38.78264" lon="-0.85215">
        <ele>641.0</ele>
        <time>2020-11-28T09:22:06Z</time>
      </trkpt>
      <trkpt lat="38.78322" lon="-0.85235">
        <ele>641.0</ele>
        <time>2020-11-28T09:22:09Z</time>
      </trkpt>
      <trkpt lat="38.78363" lon="-0.85250">
        <ele>642.0</ele>
        <time>2020-11-28T09:22:12Z</time>
      </trkpt>
      <trkpt lat="38.78383" lon="-0.85269">
        <ele>640.0</ele>
        <time>2020-11-28T09:22:15Z</time>
      </trkpt>
      <trkpt lat="38.78408" lon="-0.85316">
        <ele>641.0</ele>
        <time>2020-11-28T09:22:18Z</time>
      </trkpt>
      <trkpt lat="38.78437" lon="-0.85374">
        <ele>642.0</ele>
        <time>2020-11-28T09:22:22Z</time>
      </trkpt>
      <trkpt lat="38.78456" lon="-0.85415">
        <ele>640.0</ele>
        <time>2020-11-28T09:22:25Z</time>
      </trkpt>
      <trkpt lat="38.78461" lon="-0.85450">
        <ele>638.0</ele>
        <time>2020-11-28T09:22:28Z</time>
      </trkpt>
      <trkpt lat="38.78445" lon="-0.85498">
        <ele>638.0</ele>
        <time>2020-11-28T09:22:31Z</time>
      </trkpt>
      <trkpt lat="38.78435" lon="-0.85538">
        <ele>638.0</ele>
        <time>2020-11-28T09:22:34Z</time>
      </trkpt>
      <trkpt lat="38.78443" lon="-0.85578">
        <ele>638.0</ele>
        <time>2020-11-28T09:22:38Z</time>
      </trkpt>
      <trkpt lat="38.78469" lon="-0.85645">
        <ele>638.0</ele>
        <time>2020-11-28T09:22:41Z</time>
      </trkpt>
      <trkpt lat="38.78495" lon="-0.85715">
        <ele>639.0</ele>
        <time>2020-11-28T09:22:44Z</time>
      </trkpt>
      <trkpt lat="38.78523" lon="-0.85789">
        <ele>638.0</ele>
        <time>2020-11-28T09:22:47Z</time>
      </trkpt>
      <trkpt lat="38.78544" lon="-0.85844">
        <ele>636.0</ele>
        <time>2020-11-28T09:22:50Z</time>
      </trkpt>
      <trkpt lat="38.78562" lon="-0.85898">
        <ele>635.0</ele>
        <time>2020-11-28T09:22:53Z</time>
      </trkpt>
      <trkpt lat="38.78576" lon="-0.85978">
        <ele>636.0</ele>
        <time>2020-11-28T09:22:57Z</time>
      </trkpt>
      <trkpt lat="38.78589" lon="-0.86068">
        <ele>636.0</ele>
        <time>2020-11-28T09:23:00Z</time>
      </trkpt>
      <trkpt lat="38.78605" lon="-0.86170">
        <ele>632.0</ele>
        <time>2020-11-28T09:23:03Z</time>
      </trkpt>
      <trkpt lat="38.78618" lon="-0.86258">
        <ele>629.0</ele>
        <time>2020-11-28T09:23:06Z</time>
      </trkpt>
      <trkpt lat="38.78631" lon="-0.86347">
        <ele>626.0</ele>
        <time>2020-11-28T09:23:09Z</time>
      </trkpt>
      <trkpt lat="38.78643" lon="-0.86428">
        <ele>625.0</ele>
        <time>2020-11-28T09:23:13Z</time>
      </trkpt>
      <trkpt lat="38.78654" lon="-0.86496">
        <ele>622.0</ele>
        <time>2020-11-28T09:23:16Z</time>
      </trkpt>
      <trkpt lat="38.78663" lon="-0.86556">
        <ele>620.0</ele>
        <time>2020-11-28T09:23:19Z</time>
      </trkpt>
      <trkpt lat="38.78675" lon="-0.86617">
        <ele>618.0</ele>
        <time>2020-11-28T09:23:22Z</time>
      </trkpt>
      <trkpt lat="38.78700" lon="-0.86672">
        <ele>617.0</ele>
        <time>2020-11-28T09:23:25Z</time>
      </trkpt>
      <trkpt lat="38.78739" lon="-0.86734">
        <ele>617.0</ele>
        <time>2020-11-28T09:23:29Z</time>
      </trkpt>
      <trkpt lat="38.78778" lon="-0.86794">
        <ele>615.0</ele>
        <time>2020-11-28T09:23:32Z</time>
      </trkpt>
      <trkpt lat="38.78815" lon="-0.86848">
        <ele>615.0</ele>
        <time>2020-11-28T09:23:35Z</time>
      </trkpt>
      <trkpt lat="38.78845" lon="-0.86893">
        <ele>614.0</ele>
        <time>2020-11-28T09:23:38Z</time>
      </trkpt>
      <trkpt lat="38.78877" lon="-0.86930">
        <ele>610.0</ele>
        <time>2020-11-28T09:23:41Z</time>
      </trkpt>
      <trkpt lat="38.78920" lon="-0.86956">
        <ele>606.0</ele>
        <time>2020-11-28T09:23:45Z</time>
      </trkpt>
      <trkpt lat="38.78980" lon="-0.86993">
        <ele>606.0</ele>
        <time>2020-11-28T09:23:48Z</time>
      </trkpt>
      <trkpt lat="38.79042" lon="-0.87028">
        <ele>606.0</ele>
        <time>2020-11-28T09:23:51Z</time>
      </trkpt>
      <trkpt lat="38.79098" lon="-0.87059">
        <ele>603.0</ele>
        <time>2020-11-28T09:23:54Z</time>
      </trkpt>
      <trkpt lat="38.79141" lon="-0.87091">
        <ele>604.0</ele>
        <time>2020-11-28T09:23:57Z</time>
      </trkpt>
      <trkpt lat="38.79182" lon="-0.87140">
        <ele>607.0</ele>
        <time>2020-11-28T09:24:00Z</time>
      </trkpt>
      <trkpt lat="38.79228" lon="-0.87202">
        <ele>606.0</ele>
        <time>2020-11-28T09:24:03Z</time>
      </trkpt>
      <trkpt lat="38.79268" lon="-0.87257">
        <ele>606.0</ele>
        <time>2020-11-28T09:24:07Z</time>
      </trkpt>
      <trkpt lat="38.79301" lon="-0.87303">
        <ele>603.0</ele>
        <time>2020-11-28T09:24:10Z</time>
      </trkpt>
      <trkpt lat="38.79330" lon="-0.87343">
        <ele>602.0</ele>
        <time>2020-11-28T09:24:13Z</time>
      </trkpt>
      <trkpt lat="38.79350" lon="-0.87374">
        <ele>600.0</ele>
        <time>2020-11-28T09:24:16Z</time>
      </trkpt>
      <trkpt lat="38.79368" lon="-0.87392">
        <ele>599.0</ele>
        <time>2020-11-28T09:24:19Z</time>
      </trkpt>
      <trkpt lat="38.79404" lon="-0.87400">
        <ele>600.0</ele>
        <time>2020-11-28T09:24:22Z</time>
      </trkpt>
      <trkpt lat="38.79449" lon="-0.87391">
        <ele>599.0</ele>
        <time>2020-11-28T09:24:26Z</time>
      </trkpt>
      <trkpt lat="38.79483" lon="-0.87387">
        <ele>598.0</ele>
        <time>2020-11-28T09:24:29Z</time>
      </trkpt>
      <trkpt lat="38.79510" lon="-0.87401">
        <ele>597.0</ele>
        <time>2020-11-28T09:24:32Z</time>
      </trkpt>
      <trkpt lat="38.79534" lon="-0.87426">
        <ele>594.0</ele>
        <time>2020-11-28T09:24:35Z</time>
      </trkpt>
      <trkpt lat="38.79542" lon="-0.87458">
        <ele>593.0</ele>
        <time>2020-11-28T09:24:38Z</time>
      </trkpt>
      <trkpt lat="38.79537" lon="-0.87515">
        <ele>592.0</ele>
        <time>2020-11-28T09:24:41Z</time>
      </trkpt>
      <trkpt lat="38.79537" lon="-0.87572">
        <ele>591.0</ele>
        <time>2020-11-28T09:24:44Z</time>
      </trkpt>
      <trkpt lat="38.79553" lon="-0.87633">
        <ele>588.0</ele>
        <time>2020-11-28T09:24:47Z</time>
      </trkpt>
      <trkpt lat="38.79575" lon="-0.87701">
        <ele>587.0</ele>
        <time>2020-11-28T09:24:51Z</time>
      </trkpt>
      <trkpt lat="38.79601" lon="-0.87758">
        <ele>584.0</ele>
        <time>2020-11-28T09:24:54Z</time>
      </trkpt>
      <trkpt lat="38.79627" lon="-0.87814">
        <ele>583.0</ele>
        <time>2020-11-28T09:24:57Z</time>
      </trkpt>
      <trkpt lat="38.79647" lon="-0.87854">
        <ele>580.0</ele>
        <time>2020-11-28T09:25:00Z</time>
      </trkpt>
      <trkpt lat="38.79667" lon="-0.87878">
        <ele>578.0</ele>
        <time>2020-11-28T09:25:03Z</time>
      </trkpt>
      <trkpt lat="38.79701" lon="-0.87882">
        <ele>576.0</ele>
        <time>2020-11-28T09:25:06Z</time>
      </trkpt>
      <trkpt lat="38.79749" lon="-0.87864">
        <ele>575.0</ele>
        <time>2020-11-28T09:25:10Z</time>
      </trkpt>
      <trkpt lat="38.79799" lon="-0.87843">
        <ele>573.0</ele>
        <time>2020-11-28T09:25:13Z</time>
      </trkpt>
      <trkpt lat="38.79843" lon="-0.87824">
        <ele>572.0</ele>
        <time>2020-11-28T09:25:16Z</time>
      </trkpt>
      <trkpt lat="38.79879" lon="-0.87812">
        <ele>569.0</ele>
        <time>2020-11-28T09:25:19Z</time>
      </trkpt>
      <trkpt lat="38.79915" lon="-0.87814">
        <ele>568.0</ele>
        <time>2020-11-28T09:25:22Z</time>
      </trkpt>
      <trkpt lat="38.79953" lon="-0.87833">
        <ele>567.0</ele>
        <time>2020-11-28T09:25:25Z</time>
      </trkpt>
      <trkpt lat="38.79989" lon="-0.87856">
        <ele>566.0</ele>
        <time>2020-11-28T09:25:29Z</time>
      </trkpt>
      <trkpt lat="38.80020" lon="-0.87874">
        <ele>565.0</ele>
        <time>2020-11-28T09:25:32Z</time>
      </trkpt>
      <trkpt lat="38.80047" lon="-0.87888">
        <ele>565.0</ele>
        <time>2020-11-28T09:25:35Z</time>
      </trkpt>
      <trkpt lat="38.80064" lon="-0.87888">
        <ele>563.0</ele>
        <time>2020-11-28T09:25:38Z</time>
      </trkpt>
      <trkpt lat="38.80072" lon="-0.87910">
        <ele>564.0</ele>
        <time>2020-11-28T09:26:03Z</time>
      </trkpt>
      <trkpt lat="38.80059" lon="-0.87930">
        <ele>567.0</ele>
        <time>2020-11-28T09:26:06Z</time>
      </trkpt>
      <trkpt lat="38.80037" lon="-0.87958">
        <ele>568.0</ele>
        <time>2020-11-28T09:26:09Z</time>
      </trkpt>
      <trkpt lat="38.80011" lon="-0.87989">
        <ele>570.0</ele>
        <time>2020-11-28T09:26:12Z</time>
      </trkpt>
      <trkpt lat="38.79982" lon="-0.88025">
        <ele>571.0</ele>
        <time>2020-11-28T09:26:15Z</time>
      </trkpt>
      <trkpt lat="38.79965" lon="-0.88045">
        <ele>575.0</ele>
        <time>2020-11-28T09:26:18Z</time>
      </trkpt>
      <trkpt lat="38.79920" lon="-0.88100">
        <ele>576.0</ele>
        <time>2020-11-28T09:26:21Z</time>
      </trkpt>
      <trkpt lat="38.79892" lon="-0.88142">
        <ele>577.0</ele>
        <time>2020-11-28T09:26:24Z</time>
      </trkpt>
      <trkpt lat="38.79870" lon="-0.88201">
        <ele>579.0</ele>
        <time>2020-11-28T09:26:27Z</time>
      </trkpt>
      <trkpt lat="38.79854" lon="-0.88250">
        <ele>580.0</ele>
        <time>2020-11-28T09:26:31Z</time>
      </trkpt>
      <trkpt lat="38.79834" lon="-0.88299">
        <ele>581.0</ele>
        <time>2020-11-28T09:26:34Z</time>
      </trkpt>
      <trkpt lat="38.79805" lon="-0.88344">
        <ele>582.0</ele>
        <time>2020-11-28T09:26:37Z</time>
      </trkpt>
      <trkpt lat="38.79767" lon="-0.88387">
        <ele>583.0</ele>
        <time>2020-11-28T09:26:40Z</time>
      </trkpt>
      <trkpt lat="38.79727" lon="-0.88430">
        <ele>581.0</ele>
        <time>2020-11-28T09:26:43Z</time>
      </trkpt>
      <trkpt lat="38.79688" lon="-0.88471">
        <ele>577.0</ele>
        <time>2020-11-28T09:26:46Z</time>
      </trkpt>
      <trkpt lat="38.79649" lon="-0.88513">
        <ele>576.0</ele>
        <time>2020-11-28T09:26:50Z</time>
      </trkpt>
      <trkpt lat="38.79610" lon="-0.88549">
        <ele>574.0</ele>
        <time>2020-11-28T09:26:53Z</time>
      </trkpt>
      <trkpt lat="38.79568" lon="-0.88577">
        <ele>573.0</ele>
        <time>2020-11-28T09:26:56Z</time>
      </trkpt>
      <trkpt lat="38.79521" lon="-0.88601">
        <ele>570.0</ele>
        <time>2020-11-28T09:26:59Z</time>
      </trkpt>
      <trkpt lat="38.79475" lon="-0.88623">
        <ele>568.0</ele>
        <time>2020-11-28T09:27:02Z</time>
      </trkpt>
      <trkpt lat="38.79428" lon="-0.88644">
        <ele>568.0</ele>
        <time>2020-11-28T09:27:06Z</time>
      </trkpt>
      <trkpt lat="38.79378" lon="-0.88667">
        <ele>567.0</ele>
        <time>2020-11-28T09:27:09Z</time>
      </trkpt>
      <trkpt lat="38.79315" lon="-0.88696">
        <ele>567.0</ele>
        <time>2020-11-28T09:27:12Z</time>
      </trkpt>
      <trkpt lat="38.79249" lon="-0.88727">
        <ele>567.0</ele>
        <time>2020-11-28T09:27:15Z</time>
      </trkpt>
      <trkpt lat="38.79183" lon="-0.88757">
        <ele>568.0</ele>
        <time>2020-11-28T09:27:18Z</time>
      </trkpt>
      <trkpt lat="38.79111" lon="-0.88791">
        <ele>569.0</ele>
        <time>2020-11-28T09:27:21Z</time>
      </trkpt>
      <trkpt lat="38.79046" lon="-0.88832">
        <ele>567.0</ele>
        <time>2020-11-28T09:27:24Z</time>
      </trkpt>
      <trkpt lat="38.78967" lon="-0.88857">
        <ele>568.0</ele>
        <time>2020-11-28T09:27:27Z</time>
      </trkpt>
      <trkpt lat="38.78891" lon="-0.88892">
        <ele>570.0</ele>
        <time>2020-11-28T09:27:30Z</time>
      </trkpt>
      <trkpt lat="38.78824" lon="-0.88923">
        <ele>572.0</ele>
        <time>2020-11-28T09:27:34Z</time>
      </trkpt>
      <trkpt lat="38.78758" lon="-0.88954">
        <ele>570.0</ele>
        <time>2020-11-28T09:27:37Z</time>
      </trkpt>
      <trkpt lat="38.78692" lon="-0.88984">
        <ele>570.0</ele>
        <time>2020-11-28T09:27:40Z</time>
      </trkpt>
      <trkpt lat="38.78633" lon="-0.89011">
        <ele>572.0</ele>
        <time>2020-11-28T09:27:43Z</time>
      </trkpt>
      <trkpt lat="38.78579" lon="-0.89036">
        <ele>572.0</ele>
        <time>2020-11-28T09:27:46Z</time>
      </trkpt>
      <trkpt lat="38.78531" lon="-0.89058">
        <ele>572.0</ele>
        <time>2020-11-28T09:27:49Z</time>
      </trkpt>
      <trkpt lat="38.78478" lon="-0.89085">
        <ele>573.0</ele>
        <time>2020-11-28T09:27:52Z</time>
      </trkpt>
      <trkpt lat="38.78442" lon="-0.89115">
        <ele>574.0</ele>
        <time>2020-11-28T09:27:56Z</time>
      </trkpt>
      <trkpt lat="38.78411" lon="-0.89139">
        <ele>575.0</ele>
        <time>2020-11-28T09:27:59Z</time>
      </trkpt>
      <trkpt lat="38.78375" lon="-0.89155">
        <ele>577.0</ele>
        <time>2020-11-28T09:28:02Z</time>
      </trkpt>
      <trkpt lat="38.78337" lon="-0.89159">
        <ele>578.0</ele>
        <time>2020-11-28T09:28:05Z</time>
      </trkpt>
      <trkpt lat="38.78316" lon="-0.89168">
        <ele>578.0</ele>
        <time>2020-11-28T09:28:08Z</time>
      </trkpt>
      <trkpt lat="38.78308" lon="-0.89192">
        <ele>579.0</ele>
        <time>2020-11-28T09:28:11Z</time>
      </trkpt>
      <trkpt lat="38.78316" lon="-0.89218">
        <ele>580.0</ele>
        <time>2020-11-28T09:28:14Z</time>
      </trkpt>
      <trkpt lat="38.78337" lon="-0.89240">
        <ele>579.0</ele>
        <time>2020-11-28T09:28:17Z</time>
      </trkpt>
      <trkpt lat="38.78349" lon="-0.89273">
        <ele>579.0</ele>
        <time>2020-11-28T09:28:21Z</time>
      </trkpt>
      <trkpt lat="38.78345" lon="-0.89306">
        <ele>580.0</ele>
        <time>2020-11-28T09:28:24Z</time>
      </trkpt>
      <trkpt lat="38.78327" lon="-0.89331">
        <ele>580.0</ele>
        <time>2020-11-28T09:28:27Z</time>
      </trkpt>
      <trkpt lat="38.78304" lon="-0.89339">
        <ele>580.0</ele>
        <time>2020-11-28T09:28:30Z</time>
      </trkpt>
      <trkpt lat="38.78277" lon="-0.89331">
        <ele>581.0</ele>
        <time>2020-11-28T09:28:33Z</time>
      </trkpt>
      <trkpt lat="38.78257" lon="-0.89299">
        <ele>581.0</ele>
        <time>2020-11-28T09:28:36Z</time>
      </trkpt>
      <trkpt lat="38.78192" lon="-0.89316">
        <ele>583.0</ele>
        <time>2020-11-28T09:28:40Z</time>
      </trkpt>
      <trkpt lat="38.78142" lon="-0.89308">
        <ele>589.0</ele>
        <time>2020-11-28T09:28:43Z</time>
      </trkpt>
      <trkpt lat="38.78084" lon="-0.89301">
        <ele>594.0</ele>
        <time>2020-11-28T09:28:46Z</time>
      </trkpt>
      <trkpt lat="38.78030" lon="-0.89295">
        <ele>600.0</ele>
        <time>2020-11-28T09:28:49Z</time>
      </trkpt>
      <trkpt lat="38.77977" lon="-0.89293">
        <ele>603.0</ele>
        <time>2020-11-28T09:28:52Z</time>
      </trkpt>
      <trkpt lat="38.77915" lon="-0.89291">
        <ele>606.0</ele>
        <time>2020-11-28T09:28:55Z</time>
      </trkpt>
      <trkpt lat="38.77841" lon="-0.89288">
        <ele>611.0</ele>
        <time>2020-11-28T09:28:58Z</time>
      </trkpt>
      <trkpt lat="38.77770" lon="-0.89286">
        <ele>613.0</ele>
        <time>2020-11-28T09:29:01Z</time>
      </trkpt>
      <trkpt lat="38.77690" lon="-0.89292">
        <ele>617.0</ele>
        <time>2020-11-28T09:29:05Z</time>
      </trkpt>
      <trkpt lat="38.77607" lon="-0.89300">
        <ele>620.0</ele>
        <time>2020-11-28T09:29:08Z</time>
      </trkpt>
      <trkpt lat="38.77523" lon="-0.89310">
        <ele>623.0</ele>
        <time>2020-11-28T09:29:11Z</time>
      </trkpt>
      <trkpt lat="38.77436" lon="-0.89322">
        <ele>626.0</ele>
        <time>2020-11-28T09:29:14Z</time>
      </trkpt>
      <trkpt lat="38.77351" lon="-0.89337">
        <ele>629.0</ele>
        <time>2020-11-28T09:29:17Z</time>
      </trkpt>
      <trkpt lat="38.77259" lon="-0.89351">
        <ele>633.0</ele>
        <time>2020-11-28T09:29:21Z</time>
      </trkpt>
      <trkpt lat="38.77172" lon="-0.89366">
        <ele>636.0</ele>
        <time>2020-11-28T09:29:24Z</time>
      </trkpt>
      <trkpt lat="38.77111" lon="-0.89377">
        <ele>638.0</ele>
        <time>2020-11-28T09:29:27Z</time>
      </trkpt>
      <trkpt lat="38.77002" lon="-0.89394">
        <ele>640.0</ele>
        <time>2020-11-28T09:29:30Z</time>
      </trkpt>
      <trkpt lat="38.76910" lon="-0.89410">
        <ele>642.0</ele>
        <time>2020-11-28T09:29:33Z</time>
      </trkpt>
      <trkpt lat="38.76819" lon="-0.89424">
        <ele>643.0</ele>
        <time>2020-11-28T09:29:37Z</time>
      </trkpt>
      <trkpt lat="38.76733" lon="-0.89438">
        <ele>644.0</ele>
        <time>2020-11-28T09:29:40Z</time>
      </trkpt>
      <trkpt lat="38.76644" lon="-0.89453">
        <ele>644.0</ele>
        <time>2020-11-28T09:29:43Z</time>
      </trkpt>
      <trkpt lat="38.76560" lon="-0.89468">
        <ele>641.0</ele>
        <time>2020-11-28T09:29:46Z</time>
      </trkpt>
      <trkpt lat="38.76470" lon="-0.89486">
        <ele>639.0</ele>
        <time>2020-11-28T09:29:49Z</time>
      </trkpt>
      <trkpt lat="38.76386" lon="-0.89509">
        <ele>638.0</ele>
        <time>2020-11-28T09:29:53Z</time>
      </trkpt>
      <trkpt lat="38.76298" lon="-0.89539">
        <ele>634.0</ele>
        <time>2020-11-28T09:29:56Z</time>
      </trkpt>
      <trkpt lat="38.76213" lon="-0.89577">
        <ele>632.0</ele>
        <time>2020-11-28T09:29:59Z</time>
      </trkpt>
      <trkpt lat="38.76128" lon="-0.89620">
        <ele>632.0</ele>
        <time>2020-11-28T09:30:02Z</time>
      </trkpt>
      <trkpt lat="38.76044" lon="-0.89670">
        <ele>633.0</ele>
        <time>2020-11-28T09:30:05Z</time>
      </trkpt>
      <trkpt lat="38.75973" lon="-0.89718">
        <ele>634.0</ele>
        <time>2020-11-28T09:30:09Z</time>
      </trkpt>
      <trkpt lat="38.75902" lon="-0.89772">
        <ele>631.0</ele>
        <time>2020-11-28T09:30:12Z</time>
      </trkpt>
      <trkpt lat="38.75834" lon="-0.89830">
        <ele>630.0</ele>
        <time>2020-11-28T09:30:15Z</time>
      </trkpt>
      <trkpt lat="38.75769" lon="-0.89892">
        <ele>628.0</ele>
        <time>2020-11-28T09:30:18Z</time>
      </trkpt>
      <trkpt lat="38.75706" lon="-0.89958">
        <ele>627.0</ele>
        <time>2020-11-28T09:30:21Z</time>
      </trkpt>
      <trkpt lat="38.75640" lon="-0.90036">
        <ele>628.0</ele>
        <time>2020-11-28T09:30:24Z</time>
      </trkpt>
      <trkpt lat="38.75592" lon="-0.90099">
        <ele>628.0</ele>
        <time>2020-11-28T09:30:28Z</time>
      </trkpt>
      <trkpt lat="38.75534" lon="-0.90183">
        <ele>627.0</ele>
        <time>2020-11-28T09:30:31Z</time>
      </trkpt>
      <trkpt lat="38.75485" lon="-0.90260">
        <ele>624.0</ele>
        <time>2020-11-28T09:30:34Z</time>
      </trkpt>
      <trkpt lat="38.75443" lon="-0.90334">
        <ele>624.0</ele>
        <time>2020-11-28T09:30:37Z</time>
      </trkpt>
      <trkpt lat="38.75402" lon="-0.90409">
        <ele>623.0</ele>
        <time>2020-11-28T09:30:40Z</time>
      </trkpt>
      <trkpt lat="38.75361" lon="-0.90487">
        <ele>624.0</ele>
        <time>2020-11-28T09:30:43Z</time>
      </trkpt>
      <trkpt lat="38.75319" lon="-0.90566">
        <ele>624.0</ele>
        <time>2020-11-28T09:30:46Z</time>
      </trkpt>
      <trkpt lat="38.75279" lon="-0.90641">
        <ele>623.0</ele>
        <time>2020-11-28T09:30:49Z</time>
      </trkpt>
      <trkpt lat="38.75241" lon="-0.90712">
        <ele>625.0</ele>
        <time>2020-11-28T09:30:53Z</time>
      </trkpt>
      <trkpt lat="38.75203" lon="-0.90783">
        <ele>626.0</ele>
        <time>2020-11-28T09:30:56Z</time>
      </trkpt>
      <trkpt lat="38.75164" lon="-0.90858">
        <ele>626.0</ele>
        <time>2020-11-28T09:30:59Z</time>
      </trkpt>
      <trkpt lat="38.75122" lon="-0.90936">
        <ele>627.0</ele>
        <time>2020-11-28T09:31:02Z</time>
      </trkpt>
      <trkpt lat="38.75081" lon="-0.91012">
        <ele>627.0</ele>
        <time>2020-11-28T09:31:05Z</time>
      </trkpt>
      <trkpt lat="38.75042" lon="-0.91085">
        <ele>628.0</ele>
        <time>2020-11-28T09:31:08Z</time>
      </trkpt>
      <trkpt lat="38.75004" lon="-0.91157">
        <ele>630.0</ele>
        <time>2020-11-28T09:31:11Z</time>
      </trkpt>
      <trkpt lat="38.74959" lon="-0.91242">
        <ele>629.0</ele>
        <time>2020-11-28T09:31:14Z</time>
      </trkpt>
      <trkpt lat="38.74919" lon="-0.91320">
        <ele>629.0</ele>
        <time>2020-11-28T09:31:18Z</time>
      </trkpt>
      <trkpt lat="38.74877" lon="-0.91408">
        <ele>626.0</ele>
        <time>2020-11-28T09:31:21Z</time>
      </trkpt>
      <trkpt lat="38.74830" lon="-0.91498">
        <ele>628.0</ele>
        <time>2020-11-28T09:31:24Z</time>
      </trkpt>
      <trkpt lat="38.74775" lon="-0.91574">
        <ele>628.0</ele>
        <time>2020-11-28T09:31:27Z</time>
      </trkpt>
      <trkpt lat="38.74722" lon="-0.91655">
        <ele>629.0</ele>
        <time>2020-11-28T09:31:30Z</time>
      </trkpt>
      <trkpt lat="38.74663" lon="-0.91737">
        <ele>627.0</ele>
        <time>2020-11-28T09:31:33Z</time>
      </trkpt>
      <trkpt lat="38.74604" lon="-0.91816">
        <ele>626.0</ele>
        <time>2020-11-28T09:31:36Z</time>
      </trkpt>
      <trkpt lat="38.74552" lon="-0.91879">
        <ele>627.0</ele>
        <time>2020-11-28T09:31:39Z</time>
      </trkpt>
      <trkpt lat="38.74477" lon="-0.91964">
        <ele>622.0</ele>
        <time>2020-11-28T09:31:43Z</time>
      </trkpt>
      <trkpt lat="38.74405" lon="-0.92036">
        <ele>620.0</ele>
        <time>2020-11-28T09:31:46Z</time>
      </trkpt>
      <trkpt lat="38.74332" lon="-0.92104">
        <ele>617.0</ele>
        <time>2020-11-28T09:31:49Z</time>
      </trkpt>
      <trkpt lat="38.74263" lon="-0.92163">
        <ele>616.0</ele>
        <time>2020-11-28T09:31:52Z</time>
      </trkpt>
      <trkpt lat="38.74194" lon="-0.92219">
        <ele>612.0</ele>
        <time>2020-11-28T09:31:55Z</time>
      </trkpt>
      <trkpt lat="38.74113" lon="-0.92276">
        <ele>613.0</ele>
        <time>2020-11-28T09:31:59Z</time>
      </trkpt>
      <trkpt lat="38.74038" lon="-0.92327">
        <ele>611.0</ele>
        <time>2020-11-28T09:32:02Z</time>
      </trkpt>
      <trkpt lat="38.73960" lon="-0.92374">
        <ele>610.0</ele>
        <time>2020-11-28T09:32:05Z</time>
      </trkpt>
      <trkpt lat="38.73884" lon="-0.92419">
        <ele>609.0</ele>
        <time>2020-11-28T09:32:08Z</time>
      </trkpt>
      <trkpt lat="38.73794" lon="-0.92468">
        <ele>605.0</ele>
        <time>2020-11-28T09:32:12Z</time>
      </trkpt>
      <trkpt lat="38.73716" lon="-0.92510">
        <ele>603.0</ele>
        <time>2020-11-28T09:32:15Z</time>
      </trkpt>
      <trkpt lat="38.73642" lon="-0.92550">
        <ele>601.0</ele>
        <time>2020-11-28T09:32:19Z</time>
      </trkpt>
      <trkpt lat="38.73571" lon="-0.92589">
        <ele>598.0</ele>
        <time>2020-11-28T09:32:22Z</time>
      </trkpt>
      <trkpt lat="38.73496" lon="-0.92629">
        <ele>594.0</ele>
        <time>2020-11-28T09:32:25Z</time>
      </trkpt>
      <trkpt lat="38.73429" lon="-0.92666">
        <ele>594.0</ele>
        <time>2020-11-28T09:32:28Z</time>
      </trkpt>
      <trkpt lat="38.73368" lon="-0.92702">
        <ele>594.0</ele>
        <time>2020-11-28T09:32:31Z</time>
      </trkpt>
      <trkpt lat="38.73314" lon="-0.92742">
        <ele>590.0</ele>
        <time>2020-11-28T09:32:34Z</time>
      </trkpt>
      <trkpt lat="38.73257" lon="-0.92796">
        <ele>591.0</ele>
        <time>2020-11-28T09:32:38Z</time>
      </trkpt>
      <trkpt lat="38.73211" lon="-0.92853">
        <ele>592.0</ele>
        <time>2020-11-28T09:32:41Z</time>
      </trkpt>
      <trkpt lat="38.73171" lon="-0.92918">
        <ele>594.0</ele>
        <time>2020-11-28T09:32:44Z</time>
      </trkpt>
      <trkpt lat="38.73133" lon="-0.92991">
        <ele>596.0</ele>
        <time>2020-11-28T09:32:47Z</time>
      </trkpt>
      <trkpt lat="38.73104" lon="-0.93072">
        <ele>598.0</ele>
        <time>2020-11-28T09:32:50Z</time>
      </trkpt>
      <trkpt lat="38.73082" lon="-0.93153">
        <ele>601.0</ele>
        <time>2020-11-28T09:32:53Z</time>
      </trkpt>
      <trkpt lat="38.73066" lon="-0.93249">
        <ele>605.0</ele>
        <time>2020-11-28T09:32:57Z</time>
      </trkpt>
      <trkpt lat="38.73052" lon="-0.93337">
        <ele>606.0</ele>
        <time>2020-11-28T09:33:00Z</time>
      </trkpt>
      <trkpt lat="38.73031" lon="-0.93425">
        <ele>608.0</ele>
        <time>2020-11-28T09:33:03Z</time>
      </trkpt>
      <trkpt lat="38.73006" lon="-0.93489">
        <ele>610.0</ele>
        <time>2020-11-28T09:33:06Z</time>
      </trkpt>
      <trkpt lat="38.72977" lon="-0.93554">
        <ele>610.0</ele>
        <time>2020-11-28T09:33:09Z</time>
      </trkpt>
      <trkpt lat="38.72939" lon="-0.93616">
        <ele>610.0</ele>
        <time>2020-11-28T09:33:12Z</time>
      </trkpt>
      <trkpt lat="38.72892" lon="-0.93678">
        <ele>611.0</ele>
        <time>2020-11-28T09:33:15Z</time>
      </trkpt>
      <trkpt lat="38.72835" lon="-0.93736">
        <ele>610.0</ele>
        <time>2020-11-28T09:33:19Z</time>
      </trkpt>
      <trkpt lat="38.72777" lon="-0.93780">
        <ele>605.0</ele>
        <time>2020-11-28T09:33:22Z</time>
      </trkpt>
      <trkpt lat="38.72714" lon="-0.93816">
        <ele>603.0</ele>
        <time>2020-11-28T09:33:25Z</time>
      </trkpt>
      <trkpt lat="38.72646" lon="-0.93843">
        <ele>599.0</ele>
        <time>2020-11-28T09:33:28Z</time>
      </trkpt>
      <trkpt lat="38.72575" lon="-0.93861">
        <ele>596.0</ele>
        <time>2020-11-28T09:33:31Z</time>
      </trkpt>
      <trkpt lat="38.72498" lon="-0.93861">
        <ele>594.0</ele>
        <time>2020-11-28T09:33:34Z</time>
      </trkpt>
      <trkpt lat="38.72419" lon="-0.93847">
        <ele>591.0</ele>
        <time>2020-11-28T09:33:37Z</time>
      </trkpt>
      <trkpt lat="38.72342" lon="-0.93822">
        <ele>589.0</ele>
        <time>2020-11-28T09:33:40Z</time>
      </trkpt>
      <trkpt lat="38.72270" lon="-0.93780">
        <ele>583.0</ele>
        <time>2020-11-28T09:33:44Z</time>
      </trkpt>
      <trkpt lat="38.72202" lon="-0.93724">
        <ele>580.0</ele>
        <time>2020-11-28T09:33:47Z</time>
      </trkpt>
      <trkpt lat="38.72143" lon="-0.93654">
        <ele>576.0</ele>
        <time>2020-11-28T09:33:50Z</time>
      </trkpt>
      <trkpt lat="38.72093" lon="-0.93576">
        <ele>572.0</ele>
        <time>2020-11-28T09:33:53Z</time>
      </trkpt>
      <trkpt lat="38.72052" lon="-0.93494">
        <ele>569.0</ele>
        <time>2020-11-28T09:33:56Z</time>
      </trkpt>
      <trkpt lat="38.72016" lon="-0.93419">
        <ele>565.0</ele>
        <time>2020-11-28T09:33:59Z</time>
      </trkpt>
      <trkpt lat="38.71984" lon="-0.93355">
        <ele>563.0</ele>
        <time>2020-11-28T09:34:03Z</time>
      </trkpt>
      <trkpt lat="38.71934" lon="-0.93273">
        <ele>558.0</ele>
        <time>2020-11-28T09:34:06Z</time>
      </trkpt>
      <trkpt lat="38.71878" lon="-0.93200">
        <ele>553.0</ele>
        <time>2020-11-28T09:34:09Z</time>
      </trkpt>
      <trkpt lat="38.71818" lon="-0.93141">
        <ele>548.0</ele>
        <time>2020-11-28T09:34:12Z</time>
      </trkpt>
      <trkpt lat="38.71755" lon="-0.93095">
        <ele>545.0</ele>
        <time>2020-11-28T09:34:15Z</time>
      </trkpt>
      <trkpt lat="38.71699" lon="-0.93040">
        <ele>542.0</ele>
        <time>2020-11-28T09:34:18Z</time>
      </trkpt>
      <trkpt lat="38.71628" lon="-0.92996">
        <ele>541.0</ele>
        <time>2020-11-28T09:34:22Z</time>
      </trkpt>
      <trkpt lat="38.71562" lon="-0.92969">
        <ele>540.0</ele>
        <time>2020-11-28T09:34:25Z</time>
      </trkpt>
      <trkpt lat="38.71493" lon="-0.92915">
        <ele>540.0</ele>
        <time>2020-11-28T09:34:28Z</time>
      </trkpt>
      <trkpt lat="38.71411" lon="-0.92865">
        <ele>540.0</ele>
        <time>2020-11-28T09:34:31Z</time>
      </trkpt>
      <trkpt lat="38.71337" lon="-0.92829">
        <ele>540.0</ele>
        <time>2020-11-28T09:34:34Z</time>
      </trkpt>
      <trkpt lat="38.71263" lon="-0.92795">
        <ele>538.0</ele>
        <time>2020-11-28T09:34:37Z</time>
      </trkpt>
      <trkpt lat="38.71183" lon="-0.92766">
        <ele>539.0</ele>
        <time>2020-11-28T09:34:40Z</time>
      </trkpt>
      <trkpt lat="38.71097" lon="-0.92739">
        <ele>542.0</ele>
        <time>2020-11-28T09:34:43Z</time>
      </trkpt>
      <trkpt lat="38.71011" lon="-0.92720">
        <ele>541.0</ele>
        <time>2020-11-28T09:34:46Z</time>
      </trkpt>
      <trkpt lat="38.70930" lon="-0.92701">
        <ele>546.0</ele>
        <time>2020-11-28T09:34:50Z</time>
      </trkpt>
      <trkpt lat="38.70842" lon="-0.92677">
        <ele>543.0</ele>
        <time>2020-11-28T09:34:53Z</time>
      </trkpt>
      <trkpt lat="38.70751" lon="-0.92647">
        <ele>546.0</ele>
        <time>2020-11-28T09:34:56Z</time>
      </trkpt>
      <trkpt lat="38.70664" lon="-0.92612">
        <ele>547.0</ele>
        <time>2020-11-28T09:34:59Z</time>
      </trkpt>
      <trkpt lat="38.70577" lon="-0.92563">
        <ele>551.0</ele>
        <time>2020-11-28T09:35:02Z</time>
      </trkpt>
      <trkpt lat="38.70492" lon="-0.92509">
        <ele>553.0</ele>
        <time>2020-11-28T09:35:05Z</time>
      </trkpt>
      <trkpt lat="38.70406" lon="-0.92444">
        <ele>557.0</ele>
        <time>2020-11-28T09:35:09Z</time>
      </trkpt>
      <trkpt lat="38.70328" lon="-0.92375">
        <ele>559.0</ele>
        <time>2020-11-28T09:35:12Z</time>
      </trkpt>
      <trkpt lat="38.70255" lon="-0.92301">
        <ele>557.0</ele>
        <time>2020-11-28T09:35:15Z</time>
      </trkpt>
      <trkpt lat="38.70178" lon="-0.92216">
        <ele>555.0</ele>
        <time>2020-11-28T09:35:18Z</time>
      </trkpt>
      <trkpt lat="38.70109" lon="-0.92140">
        <ele>555.0</ele>
        <time>2020-11-28T09:35:21Z</time>
      </trkpt>
      <trkpt lat="38.70042" lon="-0.92066">
        <ele>551.0</ele>
        <time>2020-11-28T09:35:24Z</time>
      </trkpt>
      <trkpt lat="38.69973" lon="-0.91990">
        <ele>549.0</ele>
        <time>2020-11-28T09:35:27Z</time>
      </trkpt>
      <trkpt lat="38.69905" lon="-0.91916">
        <ele>547.0</ele>
        <time>2020-11-28T09:35:31Z</time>
      </trkpt>
      <trkpt lat="38.69839" lon="-0.91842">
        <ele>543.0</ele>
        <time>2020-11-28T09:35:34Z</time>
      </trkpt>
      <trkpt lat="38.69770" lon="-0.91763">
        <ele>543.0</ele>
        <time>2020-11-28T09:35:37Z</time>
      </trkpt>
      <trkpt lat="38.69702" lon="-0.91689">
        <ele>545.0</ele>
        <time>2020-11-28T09:35:40Z</time>
      </trkpt>
      <trkpt lat="38.69635" lon="-0.91615">
        <ele>543.0</ele>
        <time>2020-11-28T09:35:43Z</time>
      </trkpt>
      <trkpt lat="38.69567" lon="-0.91541">
        <ele>543.0</ele>
        <time>2020-11-28T09:35:46Z</time>
      </trkpt>
      <trkpt lat="38.69505" lon="-0.91470">
        <ele>541.0</ele>
        <time>2020-11-28T09:35:49Z</time>
      </trkpt>
      <trkpt lat="38.69438" lon="-0.91394">
        <ele>536.0</ele>
        <time>2020-11-28T09:35:52Z</time>
      </trkpt>
      <trkpt lat="38.69367" lon="-0.91315">
        <ele>529.0</ele>
        <time>2020-11-28T09:35:55Z</time>
      </trkpt>
      <trkpt lat="38.69297" lon="-0.91237">
        <ele>524.0</ele>
        <time>2020-11-28T09:35:59Z</time>
      </trkpt>
      <trkpt lat="38.69226" lon="-0.91157">
        <ele>520.0</ele>
        <time>2020-11-28T09:36:02Z</time>
      </trkpt>
      <trkpt lat="38.69154" lon="-0.91076">
        <ele>520.0</ele>
        <time>2020-11-28T09:36:05Z</time>
      </trkpt>
      <trkpt lat="38.69077" lon="-0.90990">
        <ele>521.0</ele>
        <time>2020-11-28T09:36:08Z</time>
      </trkpt>
      <trkpt lat="38.69006" lon="-0.90910">
        <ele>521.0</ele>
        <time>2020-11-28T09:36:11Z</time>
      </trkpt>
      <trkpt lat="38.68934" lon="-0.90829">
        <ele>519.0</ele>
        <time>2020-11-28T09:36:14Z</time>
      </trkpt>
      <trkpt lat="38.68866" lon="-0.90752">
        <ele>517.0</ele>
        <time>2020-11-28T09:36:18Z</time>
      </trkpt>
      <trkpt lat="38.68806" lon="-0.90684">
        <ele>515.0</ele>
        <time>2020-11-28T09:36:21Z</time>
      </trkpt>
      <trkpt lat="38.68750" lon="-0.90621">
        <ele>513.0</ele>
        <time>2020-11-28T09:36:24Z</time>
      </trkpt>
      <trkpt lat="38.68694" lon="-0.90558">
        <ele>513.0</ele>
        <time>2020-11-28T09:36:27Z</time>
      </trkpt>
      <trkpt lat="38.68630" lon="-0.90486">
        <ele>513.0</ele>
        <time>2020-11-28T09:36:30Z</time>
      </trkpt>
      <trkpt lat="38.68569" lon="-0.90417">
        <ele>516.0</ele>
        <time>2020-11-28T09:36:33Z</time>
      </trkpt>
      <trkpt lat="38.68496" lon="-0.90334">
        <ele>518.0</ele>
        <time>2020-11-28T09:36:36Z</time>
      </trkpt>
      <trkpt lat="38.68452" lon="-0.90285">
        <ele>518.0</ele>
        <time>2020-11-28T09:36:40Z</time>
      </trkpt>
      <trkpt lat="38.68397" lon="-0.90221">
        <ele>519.0</ele>
        <time>2020-11-28T09:36:43Z</time>
      </trkpt>
      <trkpt lat="38.68344" lon="-0.90161">
        <ele>518.0</ele>
        <time>2020-11-28T09:36:46Z</time>
      </trkpt>
      <trkpt lat="38.68292" lon="-0.90103">
        <ele>517.0</ele>
        <time>2020-11-28T09:36:49Z</time>
      </trkpt>
      <trkpt lat="38.68242" lon="-0.90045">
        <ele>516.0</ele>
        <time>2020-11-28T09:36:52Z</time>
      </trkpt>
      <trkpt lat="38.68191" lon="-0.89986">
        <ele>516.0</ele>
        <time>2020-11-28T09:36:55Z</time>
      </trkpt>
      <trkpt lat="38.68128" lon="-0.89914">
        <ele>514.0</ele>
        <time>2020-11-28T09:36:58Z</time>
      </trkpt>
      <trkpt lat="38.68068" lon="-0.89845">
        <ele>512.0</ele>
        <time>2020-11-28T09:37:02Z</time>
      </trkpt>
      <trkpt lat="38.68007" lon="-0.89775">
        <ele>512.0</ele>
        <time>2020-11-28T09:37:05Z</time>
      </trkpt>
      <trkpt lat="38.67948" lon="-0.89707">
        <ele>509.0</ele>
        <time>2020-11-28T09:37:08Z</time>
      </trkpt>
      <trkpt lat="38.67883" lon="-0.89632">
        <ele>507.0</ele>
        <time>2020-11-28T09:37:11Z</time>
      </trkpt>
      <trkpt lat="38.67820" lon="-0.89560">
        <ele>506.0</ele>
        <time>2020-11-28T09:37:14Z</time>
      </trkpt>
      <trkpt lat="38.67757" lon="-0.89485">
        <ele>504.0</ele>
        <time>2020-11-28T09:37:17Z</time>
      </trkpt>
      <trkpt lat="38.67701" lon="-0.89417">
        <ele>504.0</ele>
        <time>2020-11-28T09:37:20Z</time>
      </trkpt>
      <trkpt lat="38.67652" lon="-0.89350">
        <ele>505.0</ele>
        <time>2020-11-28T09:37:23Z</time>
      </trkpt>
      <trkpt lat="38.67604" lon="-0.89282">
        <ele>505.0</ele>
        <time>2020-11-28T09:37:27Z</time>
      </trkpt>
      <trkpt lat="38.67560" lon="-0.89225">
        <ele>503.0</ele>
        <time>2020-11-28T09:37:30Z</time>
      </trkpt>
      <trkpt lat="38.67519" lon="-0.89174">
        <ele>501.0</ele>
        <time>2020-11-28T09:37:33Z</time>
      </trkpt>
      <trkpt lat="38.67479" lon="-0.89132">
        <ele>501.0</ele>
        <time>2020-11-28T09:37:36Z</time>
      </trkpt>
      <trkpt lat="38.67444" lon="-0.89097">
        <ele>500.0</ele>
        <time>2020-11-28T09:37:39Z</time>
      </trkpt>
      <trkpt lat="38.67409" lon="-0.89042">
        <ele>499.0</ele>
        <time>2020-11-28T09:37:42Z</time>
      </trkpt>
      <trkpt lat="38.67377" lon="-0.89003">
        <ele>500.0</ele>
        <time>2020-11-28T09:37:46Z</time>
      </trkpt>
      <trkpt lat="38.67335" lon="-0.88954">
        <ele>500.0</ele>
        <time>2020-11-28T09:37:49Z</time>
      </trkpt>
      <trkpt lat="38.67296" lon="-0.88907">
        <ele>500.0</ele>
        <time>2020-11-28T09:37:52Z</time>
      </trkpt>
      <trkpt lat="38.67256" lon="-0.88860">
        <ele>500.0</ele>
        <time>2020-11-28T09:37:55Z</time>
      </trkpt>
      <trkpt lat="38.67222" lon="-0.88821">
        <ele>501.0</ele>
        <time>2020-11-28T09:37:58Z</time>
      </trkpt>
      <trkpt lat="38.67189" lon="-0.88784">
        <ele>501.0</ele>
        <time>2020-11-28T09:38:01Z</time>
      </trkpt>
      <trkpt lat="38.67155" lon="-0.88745">
        <ele>500.0</ele>
        <time>2020-11-28T09:38:04Z</time>
      </trkpt>
      <trkpt lat="38.67120" lon="-0.88710">
        <ele>500.0</ele>
        <time>2020-11-28T09:38:07Z</time>
      </trkpt>
      <trkpt lat="38.67072" lon="-0.88664">
        <ele>502.0</ele>
        <time>2020-11-28T09:38:11Z</time>
      </trkpt>
      <trkpt lat="38.67013" lon="-0.88606">
        <ele>502.0</ele>
        <time>2020-11-28T09:38:14Z</time>
      </trkpt>
      <trkpt lat="38.66946" lon="-0.88541">
        <ele>502.0</ele>
        <time>2020-11-28T09:38:17Z</time>
      </trkpt>
      <trkpt lat="38.66873" lon="-0.88469">
        <ele>504.0</ele>
        <time>2020-11-28T09:38:20Z</time>
      </trkpt>
      <trkpt lat="38.66793" lon="-0.88391">
        <ele>505.0</ele>
        <time>2020-11-28T09:38:23Z</time>
      </trkpt>
      <trkpt lat="38.66712" lon="-0.88311">
        <ele>502.0</ele>
        <time>2020-11-28T09:38:26Z</time>
      </trkpt>
      <trkpt lat="38.66640" lon="-0.88240">
        <ele>502.0</ele>
        <time>2020-11-28T09:38:30Z</time>
      </trkpt>
      <trkpt lat="38.66579" lon="-0.88180">
        <ele>500.0</ele>
        <time>2020-11-28T09:38:33Z</time>
      </trkpt>
      <trkpt lat="38.66514" lon="-0.88119">
        <ele>505.0</ele>
        <time>2020-11-28T09:38:36Z</time>
      </trkpt>
      <trkpt lat="38.66438" lon="-0.88068">
        <ele>506.0</ele>
        <time>2020-11-28T09:38:39Z</time>
      </trkpt>
      <trkpt lat="38.66350" lon="-0.88016">
        <ele>507.0</ele>
        <time>2020-11-28T09:38:42Z</time>
      </trkpt>
      <trkpt lat="38.66257" lon="-0.87961">
        <ele>509.0</ele>
        <time>2020-11-28T09:38:45Z</time>
      </trkpt>
      <trkpt lat="38.66156" lon="-0.87907">
        <ele>510.0</ele>
        <time>2020-11-28T09:38:49Z</time>
      </trkpt>
      <trkpt lat="38.66049" lon="-0.87854">
        <ele>510.0</ele>
        <time>2020-11-28T09:38:52Z</time>
      </trkpt>
      <trkpt lat="38.65948" lon="-0.87804">
        <ele>511.0</ele>
        <time>2020-11-28T09:38:55Z</time>
      </trkpt>
      <trkpt lat="38.65854" lon="-0.87757">
        <ele>513.0</ele>
        <time>2020-11-28T09:38:58Z</time>
      </trkpt>
      <trkpt lat="38.65735" lon="-0.87688">
        <ele>514.0</ele>
        <time>2020-11-28T09:39:02Z</time>
      </trkpt>
      <trkpt lat="38.65638" lon="-0.87625">
        <ele>516.0</ele>
        <time>2020-11-28T09:39:05Z</time>
      </trkpt>
      <trkpt lat="38.65553" lon="-0.87569">
        <ele>515.0</ele>
        <time>2020-11-28T09:39:09Z</time>
      </trkpt>
      <trkpt lat="38.65467" lon="-0.87513">
        <ele>511.0</ele>
        <time>2020-11-28T09:39:12Z</time>
      </trkpt>
      <trkpt lat="38.65376" lon="-0.87454">
        <ele>510.0</ele>
        <time>2020-11-28T09:39:15Z</time>
      </trkpt>
      <trkpt lat="38.65293" lon="-0.87401">
        <ele>510.0</ele>
        <time>2020-11-28T09:39:18Z</time>
      </trkpt>
      <trkpt lat="38.65225" lon="-0.87357">
        <ele>505.0</ele>
        <time>2020-11-28T09:39:21Z</time>
      </trkpt>
      <trkpt lat="38.65168" lon="-0.87320">
        <ele>508.0</ele>
        <time>2020-11-28T09:39:24Z</time>
      </trkpt>
      <trkpt lat="38.65120" lon="-0.87288">
        <ele>503.0</ele>
        <time>2020-11-28T09:39:27Z</time>
      </trkpt>
      <trkpt lat="38.65078" lon="-0.87268">
        <ele>503.0</ele>
        <time>2020-11-28T09:39:30Z</time>
      </trkpt>
      <trkpt lat="38.65053" lon="-0.87253">
        <ele>503.0</ele>
        <time>2020-11-28T09:39:34Z</time>
      </trkpt>
      <trkpt lat="38.65036" lon="-0.87252">
        <ele>502.0</ele>
        <time>2020-11-28T09:39:37Z</time>
      </trkpt>
      <trkpt lat="38.65026" lon="-0.87258">
        <ele>503.0</ele>
        <time>2020-11-28T09:39:40Z</time>
      </trkpt>
      <trkpt lat="38.65020" lon="-0.87288">
        <ele>503.0</ele>
        <time>2020-11-28T09:39:43Z</time>
      </trkpt>
      <trkpt lat="38.65006" lon="-0.87303">
        <ele>503.0</ele>
        <time>2020-11-28T09:39:46Z</time>
      </trkpt>
      <trkpt lat="38.64979" lon="-0.87299">
        <ele>503.0</ele>
        <time>2020-11-28T09:39:49Z</time>
      </trkpt>
      <trkpt lat="38.64958" lon="-0.87342">
        <ele>504.0</ele>
        <time>2020-11-28T09:39:52Z</time>
      </trkpt>
      <trkpt lat="38.64920" lon="-0.87412">
        <ele>506.0</ele>
        <time>2020-11-28T09:39:56Z</time>
      </trkpt>
      <trkpt lat="38.64880" lon="-0.87484">
        <ele>506.0</ele>
        <time>2020-11-28T09:39:59Z</time>
      </trkpt>
      <trkpt lat="38.64849" lon="-0.87541">
        <ele>506.0</ele>
        <time>2020-11-28T09:40:02Z</time>
      </trkpt>
      <trkpt lat="38.64825" lon="-0.87591">
        <ele>510.0</ele>
        <time>2020-11-28T09:40:05Z</time>
      </trkpt>
      <trkpt lat="38.64798" lon="-0.87691">
        <ele>512.0</ele>
        <time>2020-11-28T09:40:08Z</time>
      </trkpt>
      <trkpt lat="38.64800" lon="-0.87770">
        <ele>515.0</ele>
        <time>2020-11-28T09:40:11Z</time>
      </trkpt>
      <trkpt lat="38.64806" lon="-0.87849">
        <ele>515.0</ele>
        <time>2020-11-28T09:40:14Z</time>
      </trkpt>
      <trkpt lat="38.64813" lon="-0.87931">
        <ele>514.0</ele>
        <time>2020-11-28T09:40:17Z</time>
      </trkpt>
      <trkpt lat="38.64821" lon="-0.88013">
        <ele>509.0</ele>
        <time>2020-11-28T09:40:20Z</time>
      </trkpt>
      <trkpt lat="38.64831" lon="-0.88070">
        <ele>505.0</ele>
        <time>2020-11-28T09:40:24Z</time>
      </trkpt>
      <trkpt lat="38.64813" lon="-0.88171">
        <ele>504.0</ele>
        <time>2020-11-28T09:40:27Z</time>
      </trkpt>
      <trkpt lat="38.64790" lon="-0.88247">
        <ele>505.0</ele>
        <time>2020-11-28T09:40:30Z</time>
      </trkpt>
      <trkpt lat="38.64764" lon="-0.88319">
        <ele>505.0</ele>
        <time>2020-11-28T09:40:33Z</time>
      </trkpt>
      <trkpt lat="38.64731" lon="-0.88411">
        <ele>507.0</ele>
        <time>2020-11-28T09:40:36Z</time>
      </trkpt>
      <trkpt lat="38.64699" lon="-0.88501">
        <ele>509.0</ele>
        <time>2020-11-28T09:40:39Z</time>
      </trkpt>
      <trkpt lat="38.64673" lon="-0.88574">
        <ele>510.0</ele>
        <time>2020-11-28T09:40:42Z</time>
      </trkpt>
      <trkpt lat="38.64661" lon="-0.88630">
        <ele>509.0</ele>
        <time>2020-11-28T09:40:46Z</time>
      </trkpt>
      <trkpt lat="38.64652" lon="-0.88674">
        <ele>509.0</ele>
        <time>2020-11-28T09:40:49Z</time>
      </trkpt>
      <trkpt lat="38.64655" lon="-0.88699">
        <ele>508.0</ele>
        <time>2020-11-28T09:40:52Z</time>
      </trkpt>
      <trkpt lat="38.64655" lon="-0.88728">
        <ele>507.0</ele>
        <time>2020-11-28T09:40:55Z</time>
      </trkpt>
      <trkpt lat="38.64636" lon="-0.88739">
        <ele>507.0</ele>
        <time>2020-11-28T09:40:58Z</time>
      </trkpt>
      <trkpt lat="38.64617" lon="-0.88724">
        <ele>506.0</ele>
        <time>2020-11-28T09:41:01Z</time>
      </trkpt>
      <trkpt lat="38.64585" lon="-0.88693">
        <ele>504.0</ele>
        <time>2020-11-28T09:41:04Z</time>
      </trkpt>
      <trkpt lat="38.64549" lon="-0.88664">
        <ele>505.0</ele>
        <time>2020-11-28T09:41:08Z</time>
      </trkpt>
      <trkpt lat="38.64514" lon="-0.88638">
        <ele>505.0</ele>
        <time>2020-11-28T09:41:11Z</time>
      </trkpt>
      <trkpt lat="38.64475" lon="-0.88614">
        <ele>504.0</ele>
        <time>2020-11-28T09:41:14Z</time>
      </trkpt>
      <trkpt lat="38.64425" lon="-0.88585">
        <ele>503.0</ele>
        <time>2020-11-28T09:41:18Z</time>
      </trkpt>
      <trkpt lat="38.64377" lon="-0.88559">
        <ele>501.0</ele>
        <time>2020-11-28T09:41:21Z</time>
      </trkpt>
      <trkpt lat="38.64313" lon="-0.88521">
        <ele>501.0</ele>
        <time>2020-11-28T09:41:24Z</time>
      </trkpt>
      <trkpt lat="38.64249" lon="-0.88484">
        <ele>499.0</ele>
        <time>2020-11-28T09:41:28Z</time>
      </trkpt>
      <trkpt lat="38.64194" lon="-0.88452">
        <ele>497.0</ele>
        <time>2020-11-28T09:41:31Z</time>
      </trkpt>
      <trkpt lat="38.64142" lon="-0.88417">
        <ele>497.0</ele>
        <time>2020-11-28T09:41:34Z</time>
      </trkpt>
      <trkpt lat="38.64102" lon="-0.88388">
        <ele>494.0</ele>
        <time>2020-11-28T09:41:37Z</time>
      </trkpt>
      <trkpt lat="38.64069" lon="-0.88359">
        <ele>494.0</ele>
        <time>2020-11-28T09:41:40Z</time>
      </trkpt>
      <trkpt lat="38.64051" lon="-0.88345">
        <ele>495.0</ele>
        <time>2020-11-28T09:41:43Z</time>
      </trkpt>
      <trkpt lat="38.64028" lon="-0.88347">
        <ele>495.0</ele>
        <time>2020-11-28T09:41:46Z</time>
      </trkpt>
      <trkpt lat="38.64011" lon="-0.88322">
        <ele>495.0</ele>
        <time>2020-11-28T09:41:49Z</time>
      </trkpt>
      <trkpt lat="38.63987" lon="-0.88292">
        <ele>496.0</ele>
        <time>2020-11-28T09:41:52Z</time>
      </trkpt>
      <trkpt lat="38.63942" lon="-0.88258">
        <ele>496.0</ele>
        <time>2020-11-28T09:41:56Z</time>
      </trkpt>
      <trkpt lat="38.63901" lon="-0.88219">
        <ele>496.0</ele>
        <time>2020-11-28T09:41:59Z</time>
      </trkpt>
      <trkpt lat="38.63862" lon="-0.88177">
        <ele>495.0</ele>
        <time>2020-11-28T09:42:02Z</time>
      </trkpt>
      <trkpt lat="38.63829" lon="-0.88131">
        <ele>499.0</ele>
        <time>2020-11-28T09:42:05Z</time>
      </trkpt>
      <trkpt lat="38.63802" lon="-0.88094">
        <ele>498.0</ele>
        <time>2020-11-28T09:42:08Z</time>
      </trkpt>
      <trkpt lat="38.63774" lon="-0.88053">
        <ele>497.0</ele>
        <time>2020-11-28T09:42:12Z</time>
      </trkpt>
      <trkpt lat="38.63749" lon="-0.88013">
        <ele>498.0</ele>
        <time>2020-11-28T09:42:15Z</time>
      </trkpt>
      <trkpt lat="38.63710" lon="-0.87953">
        <ele>501.0</ele>
        <time>2020-11-28T09:42:18Z</time>
      </trkpt>
      <trkpt lat="38.63674" lon="-0.87897">
        <ele>502.0</ele>
        <time>2020-11-28T09:42:21Z</time>
      </trkpt>
      <trkpt lat="38.63644" lon="-0.87849">
        <ele>500.0</ele>
        <time>2020-11-28T09:42:24Z</time>
      </trkpt>
      <trkpt lat="38.63612" lon="-0.87799">
        <ele>502.0</ele>
        <time>2020-11-28T09:42:27Z</time>
      </trkpt>
      <trkpt lat="38.63587" lon="-0.87760">
        <ele>501.0</ele>
        <time>2020-11-28T09:42:31Z</time>
      </trkpt>
      <trkpt lat="38.63572" lon="-0.87736">
        <ele>501.0</ele>
        <time>2020-11-28T09:42:34Z</time>
      </trkpt>
      <trkpt lat="38.63565" lon="-0.87724">
        <ele>502.0</ele>
        <time>2020-11-28T09:42:37Z</time>
      </trkpt>
      <trkpt lat="38.63558" lon="-0.87713">
        <ele>502.0</ele>
        <time>2020-11-28T09:42:45Z</time>
      </trkpt>
      <trkpt lat="38.63549" lon="-0.87698">
        <ele>502.0</ele>
        <time>2020-11-28T09:42:48Z</time>
      </trkpt>
      <trkpt lat="38.63540" lon="-0.87688">
        <ele>501.0</ele>
        <time>2020-11-28T09:42:51Z</time>
      </trkpt>
      <trkpt lat="38.63541" lon="-0.87651">
        <ele>500.0</ele>
        <time>2020-11-28T09:42:55Z</time>
      </trkpt>
      <trkpt lat="38.63546" lon="-0.87602">
        <ele>497.0</ele>
        <time>2020-11-28T09:42:58Z</time>
      </trkpt>
      <trkpt lat="38.63550" lon="-0.87559">
        <ele>499.0</ele>
        <time>2020-11-28T09:43:01Z</time>
      </trkpt>
      <trkpt lat="38.63553" lon="-0.87526">
        <ele>499.0</ele>
        <time>2020-11-28T09:43:04Z</time>
      </trkpt>
      <trkpt lat="38.63554" lon="-0.87491">
        <ele>500.0</ele>
        <time>2020-11-28T09:43:07Z</time>
      </trkpt>
      <trkpt lat="38.63556" lon="-0.87458">
        <ele>501.0</ele>
        <time>2020-11-28T09:43:10Z</time>
      </trkpt>
      <trkpt lat="38.63558" lon="-0.87424">
        <ele>503.0</ele>
        <time>2020-11-28T09:43:14Z</time>
      </trkpt>
      <trkpt lat="38.63559" lon="-0.87403">
        <ele>504.0</ele>
        <time>2020-11-28T09:43:17Z</time>
      </trkpt>
      <trkpt lat="38.63541" lon="-0.87403">
        <ele>504.0</ele>
        <time>2020-11-28T09:43:20Z</time>
      </trkpt>
      <trkpt lat="38.63527" lon="-0.87409">
        <ele>505.0</ele>
        <time>2020-11-28T09:43:23Z</time>
      </trkpt>
      <trkpt lat="38.63503" lon="-0.87430">
        <ele>505.0</ele>
        <time>2020-11-28T09:43:26Z</time>
      </trkpt>
      <trkpt lat="38.63464" lon="-0.87477">
        <ele>505.0</ele>
        <time>2020-11-28T09:43:29Z</time>
      </trkpt>
      <trkpt lat="38.63431" lon="-0.87523">
        <ele>503.0</ele>
        <time>2020-11-28T09:43:32Z</time>
      </trkpt>
      <trkpt lat="38.63406" lon="-0.87558">
        <ele>505.0</ele>
        <time>2020-11-28T09:43:35Z</time>
      </trkpt>
      <trkpt lat="38.63376" lon="-0.87568">
        <ele>502.0</ele>
        <time>2020-11-28T09:43:38Z</time>
      </trkpt>
      <trkpt lat="38.63318" lon="-0.87566">
        <ele>502.0</ele>
        <time>2020-11-28T09:43:42Z</time>
      </trkpt>
      <trkpt lat="38.63256" lon="-0.87564">
        <ele>501.0</ele>
        <time>2020-11-28T09:43:45Z</time>
      </trkpt>
      <trkpt lat="38.63197" lon="-0.87562">
        <ele>501.0</ele>
        <time>2020-11-28T09:43:48Z</time>
      </trkpt>
      <trkpt lat="38.63157" lon="-0.87561">
        <ele>499.0</ele>
        <time>2020-11-28T09:43:51Z</time>
      </trkpt>
      <trkpt lat="38.63129" lon="-0.87562">
        <ele>497.0</ele>
        <time>2020-11-28T09:43:54Z</time>
      </trkpt>
      <trkpt lat="38.63094" lon="-0.87595">
        <ele>498.0</ele>
        <time>2020-11-28T09:43:57Z</time>
      </trkpt>
      <trkpt lat="38.63048" lon="-0.87663">
        <ele>502.0</ele>
        <time>2020-11-28T09:44:00Z</time>
      </trkpt>
      <trkpt lat="38.63011" lon="-0.87719">
        <ele>500.0</ele>
        <time>2020-11-28T09:44:03Z</time>
      </trkpt>
      <trkpt lat="38.62982" lon="-0.87773">
        <ele>500.0</ele>
        <time>2020-11-28T09:44:07Z</time>
      </trkpt>
      <trkpt lat="38.62947" lon="-0.87858">
        <ele>502.0</ele>
        <time>2020-11-28T09:44:10Z</time>
      </trkpt>
      <trkpt lat="38.62910" lon="-0.87954">
        <ele>502.0</ele>
        <time>2020-11-28T09:44:13Z</time>
      </trkpt>
      <trkpt lat="38.62869" lon="-0.88047">
        <ele>499.0</ele>
        <time>2020-11-28T09:44:16Z</time>
      </trkpt>
      <trkpt lat="38.62824" lon="-0.88137">
        <ele>499.0</ele>
        <time>2020-11-28T09:44:19Z</time>
      </trkpt>
      <trkpt lat="38.62780" lon="-0.88225">
        <ele>499.0</ele>
        <time>2020-11-28T09:44:22Z</time>
      </trkpt>
      <trkpt lat="38.62737" lon="-0.88309">
        <ele>499.0</ele>
        <time>2020-11-28T09:44:26Z</time>
      </trkpt>
      <trkpt lat="38.62698" lon="-0.88385">
        <ele>503.0</ele>
        <time>2020-11-28T09:44:29Z</time>
      </trkpt>
      <trkpt lat="38.62667" lon="-0.88439">
        <ele>502.0</ele>
        <time>2020-11-28T09:44:32Z</time>
      </trkpt>
      <trkpt lat="38.62634" lon="-0.88514">
        <ele>501.0</ele>
        <time>2020-11-28T09:44:35Z</time>
      </trkpt>
      <trkpt lat="38.62561" lon="-0.88565">
        <ele>501.0</ele>
        <time>2020-11-28T09:44:38Z</time>
      </trkpt>
      <trkpt lat="38.62512" lon="-0.88629">
        <ele>502.0</ele>
        <time>2020-11-28T09:44:41Z</time>
      </trkpt>
      <trkpt lat="38.62471" lon="-0.88680">
        <ele>504.0</ele>
        <time>2020-11-28T09:44:45Z</time>
      </trkpt>
      <trkpt lat="38.62409" lon="-0.88739">
        <ele>501.0</ele>
        <time>2020-11-28T09:44:48Z</time>
      </trkpt>
      <trkpt lat="38.62349" lon="-0.88802">
        <ele>502.0</ele>
        <time>2020-11-28T09:44:51Z</time>
      </trkpt>
      <trkpt lat="38.62290" lon="-0.88857">
        <ele>502.0</ele>
        <time>2020-11-28T09:44:54Z</time>
      </trkpt>
      <trkpt lat="38.62228" lon="-0.88897">
        <ele>500.0</ele>
        <time>2020-11-28T09:44:57Z</time>
      </trkpt>
      <trkpt lat="38.62156" lon="-0.88930">
        <ele>499.0</ele>
        <time>2020-11-28T09:45:01Z</time>
      </trkpt>
      <trkpt lat="38.62106" lon="-0.88953">
        <ele>498.0</ele>
        <time>2020-11-28T09:45:04Z</time>
      </trkpt>
      <trkpt lat="38.62063" lon="-0.88983">
        <ele>496.0</ele>
        <time>2020-11-28T09:45:07Z</time>
      </trkpt>
      <trkpt lat="38.62000" lon="-0.89020">
        <ele>494.0</ele>
        <time>2020-11-28T09:45:10Z</time>
      </trkpt>
      <trkpt lat="38.61942" lon="-0.89032">
        <ele>494.0</ele>
        <time>2020-11-28T09:45:13Z</time>
      </trkpt>
      <trkpt lat="38.61878" lon="-0.89042">
        <ele>493.0</ele>
        <time>2020-11-28T09:45:17Z</time>
      </trkpt>
      <trkpt lat="38.61824" lon="-0.89056">
        <ele>490.0</ele>
        <time>2020-11-28T09:45:20Z</time>
      </trkpt>
      <trkpt lat="38.61776" lon="-0.89076">
        <ele>490.0</ele>
        <time>2020-11-28T09:45:23Z</time>
      </trkpt>
      <trkpt lat="38.61723" lon="-0.89112">
        <ele>492.0</ele>
        <time>2020-11-28T09:45:26Z</time>
      </trkpt>
      <trkpt lat="38.61670" lon="-0.89162">
        <ele>493.0</ele>
        <time>2020-11-28T09:45:29Z</time>
      </trkpt>
      <trkpt lat="38.61601" lon="-0.89193">
        <ele>492.0</ele>
        <time>2020-11-28T09:45:32Z</time>
      </trkpt>
      <trkpt lat="38.61495" lon="-0.89223">
        <ele>492.0</ele>
        <time>2020-11-28T09:45:37Z</time>
      </trkpt>
      <trkpt lat="38.61432" lon="-0.89248">
        <ele>492.0</ele>
        <time>2020-11-28T09:45:40Z</time>
      </trkpt>
      <trkpt lat="38.61361" lon="-0.89275">
        <ele>492.0</ele>
        <time>2020-11-28T09:45:43Z</time>
      </trkpt>
      <trkpt lat="38.61301" lon="-0.89300">
        <ele>490.0</ele>
        <time>2020-11-28T09:45:46Z</time>
      </trkpt>
      <trkpt lat="38.61250" lon="-0.89320">
        <ele>488.0</ele>
        <time>2020-11-28T09:45:49Z</time>
      </trkpt>
      <trkpt lat="38.61202" lon="-0.89323">
        <ele>487.0</ele>
        <time>2020-11-28T09:45:52Z</time>
      </trkpt>
      <trkpt lat="38.61174" lon="-0.89322">
        <ele>483.0</ele>
        <time>2020-11-28T09:45:56Z</time>
      </trkpt>
      <trkpt lat="38.61154" lon="-0.89321">
        <ele>480.0</ele>
        <time>2020-11-28T09:45:59Z</time>
      </trkpt>
      <trkpt lat="38.61141" lon="-0.89321">
        <ele>479.0</ele>
        <time>2020-11-28T09:46:02Z</time>
      </trkpt>
      <trkpt lat="38.61122" lon="-0.89320">
        <ele>482.0</ele>
        <time>2020-11-28T09:47:29Z</time>
      </trkpt>
      <trkpt lat="38.61100" lon="-0.89321">
        <ele>480.0</ele>
        <time>2020-11-28T09:47:33Z</time>
      </trkpt>
      <trkpt lat="38.61063" lon="-0.89322">
        <ele>480.0</ele>
        <time>2020-11-28T09:47:36Z</time>
      </trkpt>
      <trkpt lat="38.61022" lon="-0.89326">
        <ele>480.0</ele>
        <time>2020-11-28T09:47:39Z</time>
      </trkpt>
      <trkpt lat="38.60983" lon="-0.89338">
        <ele>479.0</ele>
        <time>2020-11-28T09:47:42Z</time>
      </trkpt>
      <trkpt lat="38.60933" lon="-0.89363">
        <ele>482.0</ele>
        <time>2020-11-28T09:47:45Z</time>
      </trkpt>
      <trkpt lat="38.60877" lon="-0.89393">
        <ele>484.0</ele>
        <time>2020-11-28T09:47:48Z</time>
      </trkpt>
      <trkpt lat="38.60799" lon="-0.89434">
        <ele>487.0</ele>
        <time>2020-11-28T09:47:51Z</time>
      </trkpt>
      <trkpt lat="38.60726" lon="-0.89472">
        <ele>492.0</ele>
        <time>2020-11-28T09:47:55Z</time>
      </trkpt>
      <trkpt lat="38.60645" lon="-0.89514">
        <ele>496.0</ele>
        <time>2020-11-28T09:47:58Z</time>
      </trkpt>
      <trkpt lat="38.60565" lon="-0.89557">
        <ele>495.0</ele>
        <time>2020-11-28T09:48:01Z</time>
      </trkpt>
      <trkpt lat="38.60491" lon="-0.89595">
        <ele>499.0</ele>
        <time>2020-11-28T09:48:04Z</time>
      </trkpt>
      <trkpt lat="38.60430" lon="-0.89628">
        <ele>501.0</ele>
        <time>2020-11-28T09:48:07Z</time>
      </trkpt>
      <trkpt lat="38.60378" lon="-0.89655">
        <ele>500.0</ele>
        <time>2020-11-28T09:48:10Z</time>
      </trkpt>
      <trkpt lat="38.60324" lon="-0.89688">
        <ele>502.0</ele>
        <time>2020-11-28T09:48:14Z</time>
      </trkpt>
      <trkpt lat="38.60272" lon="-0.89726">
        <ele>502.0</ele>
        <time>2020-11-28T09:48:17Z</time>
      </trkpt>
      <trkpt lat="38.60219" lon="-0.89752">
        <ele>505.0</ele>
        <time>2020-11-28T09:48:20Z</time>
      </trkpt>
      <trkpt lat="38.60156" lon="-0.89779">
        <ele>503.0</ele>
        <time>2020-11-28T09:48:23Z</time>
      </trkpt>
      <trkpt lat="38.60106" lon="-0.89797">
        <ele>507.0</ele>
        <time>2020-11-28T09:48:26Z</time>
      </trkpt>
      <trkpt lat="38.60062" lon="-0.89824">
        <ele>508.0</ele>
        <time>2020-11-28T09:48:30Z</time>
      </trkpt>
      <trkpt lat="38.60022" lon="-0.89872">
        <ele>511.0</ele>
        <time>2020-11-28T09:48:33Z</time>
      </trkpt>
      <trkpt lat="38.59971" lon="-0.89940">
        <ele>515.0</ele>
        <time>2020-11-28T09:48:36Z</time>
      </trkpt>
      <trkpt lat="38.59925" lon="-0.89998">
        <ele>519.0</ele>
        <time>2020-11-28T09:48:39Z</time>
      </trkpt>
      <trkpt lat="38.59871" lon="-0.90050">
        <ele>523.0</ele>
        <time>2020-11-28T09:48:42Z</time>
      </trkpt>
      <trkpt lat="38.59815" lon="-0.90096">
        <ele>522.0</ele>
        <time>2020-11-28T09:48:45Z</time>
      </trkpt>
      <trkpt lat="38.59746" lon="-0.90158">
        <ele>526.0</ele>
        <time>2020-11-28T09:48:49Z</time>
      </trkpt>
      <trkpt lat="38.59699" lon="-0.90205">
        <ele>524.0</ele>
        <time>2020-11-28T09:48:52Z</time>
      </trkpt>
      <trkpt lat="38.59654" lon="-0.90258">
        <ele>525.0</ele>
        <time>2020-11-28T09:48:55Z</time>
      </trkpt>
      <trkpt lat="38.59592" lon="-0.90345">
        <ele>526.0</ele>
        <time>2020-11-28T09:48:58Z</time>
      </trkpt>
      <trkpt lat="38.59535" lon="-0.90424">
        <ele>528.0</ele>
        <time>2020-11-28T09:49:01Z</time>
      </trkpt>
      <trkpt lat="38.59490" lon="-0.90487">
        <ele>527.0</ele>
        <time>2020-11-28T09:49:05Z</time>
      </trkpt>
      <trkpt lat="38.59454" lon="-0.90529">
        <ele>525.0</ele>
        <time>2020-11-28T09:49:08Z</time>
      </trkpt>
      <trkpt lat="38.59412" lon="-0.90566">
        <ele>525.0</ele>
        <time>2020-11-28T09:49:11Z</time>
      </trkpt>
      <trkpt lat="38.59366" lon="-0.90595">
        <ele>522.0</ele>
        <time>2020-11-28T09:49:14Z</time>
      </trkpt>
      <trkpt lat="38.59328" lon="-0.90635">
        <ele>520.0</ele>
        <time>2020-11-28T09:49:18Z</time>
      </trkpt>
      <trkpt lat="38.59289" lon="-0.90707">
        <ele>518.0</ele>
        <time>2020-11-28T09:49:21Z</time>
      </trkpt>
      <trkpt lat="38.59248" lon="-0.90783">
        <ele>518.0</ele>
        <time>2020-11-28T09:49:24Z</time>
      </trkpt>
      <trkpt lat="38.59209" lon="-0.90851">
        <ele>516.0</ele>
        <time>2020-11-28T09:49:27Z</time>
      </trkpt>
      <trkpt lat="38.59178" lon="-0.90901">
        <ele>516.0</ele>
        <time>2020-11-28T09:49:30Z</time>
      </trkpt>
      <trkpt lat="38.59135" lon="-0.90955">
        <ele>517.0</ele>
        <time>2020-11-28T09:49:33Z</time>
      </trkpt>
      <trkpt lat="38.59072" lon="-0.91014">
        <ele>518.0</ele>
        <time>2020-11-28T09:49:37Z</time>
      </trkpt>
      <trkpt lat="38.59012" lon="-0.91073">
        <ele>515.0</ele>
        <time>2020-11-28T09:49:40Z</time>
      </trkpt>
      <trkpt lat="38.58951" lon="-0.91135">
        <ele>513.0</ele>
        <time>2020-11-28T09:49:43Z</time>
      </trkpt>
      <trkpt lat="38.58895" lon="-0.91190">
        <ele>511.0</ele>
        <time>2020-11-28T09:49:46Z</time>
      </trkpt>
      <trkpt lat="38.58833" lon="-0.91249">
        <ele>506.0</ele>
        <time>2020-11-28T09:49:49Z</time>
      </trkpt>
      <trkpt lat="38.58764" lon="-0.91298">
        <ele>504.0</ele>
        <time>2020-11-28T09:49:52Z</time>
      </trkpt>
      <trkpt lat="38.58702" lon="-0.91339">
        <ele>503.0</ele>
        <time>2020-11-28T09:49:55Z</time>
      </trkpt>
      <trkpt lat="38.58662" lon="-0.91364">
        <ele>500.0</ele>
        <time>2020-11-28T09:49:58Z</time>
      </trkpt>
      <trkpt lat="38.58644" lon="-0.91376">
        <ele>497.0</ele>
        <time>2020-11-28T09:50:01Z</time>
      </trkpt>
      <trkpt lat="38.58626" lon="-0.91369">
        <ele>497.0</ele>
        <time>2020-11-28T09:50:05Z</time>
      </trkpt>
      <trkpt lat="38.58586" lon="-0.91341">
        <ele>497.0</ele>
        <time>2020-11-28T09:50:08Z</time>
      </trkpt>
      <trkpt lat="38.58544" lon="-0.91319">
        <ele>498.0</ele>
        <time>2020-11-28T09:50:11Z</time>
      </trkpt>
      <trkpt lat="38.58502" lon="-0.91297">
        <ele>497.0</ele>
        <time>2020-11-28T09:50:14Z</time>
      </trkpt>
      <trkpt lat="38.58467" lon="-0.91266">
        <ele>497.0</ele>
        <time>2020-11-28T09:50:17Z</time>
      </trkpt>
      <trkpt lat="38.58440" lon="-0.91213">
        <ele>496.0</ele>
        <time>2020-11-28T09:50:20Z</time>
      </trkpt>
      <trkpt lat="38.58414" lon="-0.91159">
        <ele>496.0</ele>
        <time>2020-11-28T09:50:24Z</time>
      </trkpt>
      <trkpt lat="38.58384" lon="-0.91111">
        <ele>497.0</ele>
        <time>2020-11-28T09:50:27Z</time>
      </trkpt>
      <trkpt lat="38.58358" lon="-0.91076">
        <ele>498.0</ele>
        <time>2020-11-28T09:50:30Z</time>
      </trkpt>
      <trkpt lat="38.58324" lon="-0.91049">
        <ele>498.0</ele>
        <time>2020-11-28T09:50:33Z</time>
      </trkpt>
      <trkpt lat="38.58297" lon="-0.91028">
        <ele>496.0</ele>
        <time>2020-11-28T09:50:36Z</time>
      </trkpt>
      <trkpt lat="38.58278" lon="-0.91021">
        <ele>495.0</ele>
        <time>2020-11-28T09:50:39Z</time>
      </trkpt>
      <trkpt lat="38.58266" lon="-0.91019">
        <ele>495.0</ele>
        <time>2020-11-28T09:50:42Z</time>
      </trkpt>
      <trkpt lat="38.58250" lon="-0.91016">
        <ele>493.0</ele>
        <time>2020-11-28T09:50:47Z</time>
      </trkpt>
      <trkpt lat="38.58228" lon="-0.91011">
        <ele>495.0</ele>
        <time>2020-11-28T09:50:50Z</time>
      </trkpt>
      <trkpt lat="38.58180" lon="-0.91005">
        <ele>495.0</ele>
        <time>2020-11-28T09:50:53Z</time>
      </trkpt>
      <trkpt lat="38.58131" lon="-0.90999">
        <ele>496.0</ele>
        <time>2020-11-28T09:50:56Z</time>
      </trkpt>
      <trkpt lat="38.58083" lon="-0.90982">
        <ele>497.0</ele>
        <time>2020-11-28T09:50:59Z</time>
      </trkpt>
      <trkpt lat="38.58042" lon="-0.90970">
        <ele>498.0</ele>
        <time>2020-11-28T09:51:03Z</time>
      </trkpt>
      <trkpt lat="38.57982" lon="-0.90941">
        <ele>497.0</ele>
        <time>2020-11-28T09:51:06Z</time>
      </trkpt>
      <trkpt lat="38.57924" lon="-0.90906">
        <ele>500.0</ele>
        <time>2020-11-28T09:51:09Z</time>
      </trkpt>
      <trkpt lat="38.57865" lon="-0.90872">
        <ele>499.0</ele>
        <time>2020-11-28T09:51:12Z</time>
      </trkpt>
      <trkpt lat="38.57807" lon="-0.90839">
        <ele>499.0</ele>
        <time>2020-11-28T09:51:15Z</time>
      </trkpt>
      <trkpt lat="38.57746" lon="-0.90811">
        <ele>498.0</ele>
        <time>2020-11-28T09:51:18Z</time>
      </trkpt>
      <trkpt lat="38.57688" lon="-0.90784">
        <ele>497.0</ele>
        <time>2020-11-28T09:51:22Z</time>
      </trkpt>
      <trkpt lat="38.57634" lon="-0.90759">
        <ele>496.0</ele>
        <time>2020-11-28T09:51:25Z</time>
      </trkpt>
      <trkpt lat="38.57579" lon="-0.90732">
        <ele>495.0</ele>
        <time>2020-11-28T09:51:28Z</time>
      </trkpt>
      <trkpt lat="38.57533" lon="-0.90698">
        <ele>495.0</ele>
        <time>2020-11-28T09:51:31Z</time>
      </trkpt>
      <trkpt lat="38.57474" lon="-0.90681">
        <ele>494.0</ele>
        <time>2020-11-28T09:51:34Z</time>
      </trkpt>
      <trkpt lat="38.57409" lon="-0.90649">
        <ele>493.0</ele>
        <time>2020-11-28T09:51:37Z</time>
      </trkpt>
      <trkpt lat="38.57353" lon="-0.90621">
        <ele>492.0</ele>
        <time>2020-11-28T09:51:40Z</time>
      </trkpt>
      <trkpt lat="38.57302" lon="-0.90596">
        <ele>492.0</ele>
        <time>2020-11-28T09:51:43Z</time>
      </trkpt>
      <trkpt lat="38.57271" lon="-0.90579">
        <ele>491.0</ele>
        <time>2020-11-28T09:51:46Z</time>
      </trkpt>
      <trkpt lat="38.57235" lon="-0.90545">
        <ele>493.0</ele>
        <time>2020-11-28T09:51:50Z</time>
      </trkpt>
      <trkpt lat="38.57200" lon="-0.90521">
        <ele>494.0</ele>
        <time>2020-11-28T09:51:53Z</time>
      </trkpt>
      <trkpt lat="38.57156" lon="-0.90504">
        <ele>496.0</ele>
        <time>2020-11-28T09:51:56Z</time>
      </trkpt>
      <trkpt lat="38.57098" lon="-0.90485">
        <ele>497.0</ele>
        <time>2020-11-28T09:52:00Z</time>
      </trkpt>
      <trkpt lat="38.57061" lon="-0.90475">
        <ele>497.0</ele>
        <time>2020-11-28T09:52:03Z</time>
      </trkpt>
      <trkpt lat="38.57018" lon="-0.90455">
        <ele>499.0</ele>
        <time>2020-11-28T09:52:06Z</time>
      </trkpt>
      <trkpt lat="38.56968" lon="-0.90409">
        <ele>500.0</ele>
        <time>2020-11-28T09:52:09Z</time>
      </trkpt>
      <trkpt lat="38.56931" lon="-0.90364">
        <ele>501.0</ele>
        <time>2020-11-28T09:52:12Z</time>
      </trkpt>
      <trkpt lat="38.56904" lon="-0.90314">
        <ele>501.0</ele>
        <time>2020-11-28T09:52:16Z</time>
      </trkpt>
      <trkpt lat="38.56880" lon="-0.90280">
        <ele>503.0</ele>
        <time>2020-11-28T09:52:19Z</time>
      </trkpt>
      <trkpt lat="38.56847" lon="-0.90252">
        <ele>504.0</ele>
        <time>2020-11-28T09:52:22Z</time>
      </trkpt>
      <trkpt lat="38.56803" lon="-0.90224">
        <ele>506.0</ele>
        <time>2020-11-28T09:52:25Z</time>
      </trkpt>
      <trkpt lat="38.56768" lon="-0.90205">
        <ele>508.0</ele>
        <time>2020-11-28T09:52:28Z</time>
      </trkpt>
      <trkpt lat="38.56745" lon="-0.90193">
        <ele>507.0</ele>
        <time>2020-11-28T09:52:31Z</time>
      </trkpt>
      <trkpt lat="38.56703" lon="-0.90179">
        <ele>509.0</ele>
        <time>2020-11-28T09:52:35Z</time>
      </trkpt>
      <trkpt lat="38.56652" lon="-0.90169">
        <ele>513.0</ele>
        <time>2020-11-28T09:52:38Z</time>
      </trkpt>
      <trkpt lat="38.56601" lon="-0.90164">
        <ele>514.0</ele>
        <time>2020-11-28T09:52:41Z</time>
      </trkpt>
      <trkpt lat="38.56574" lon="-0.90155">
        <ele>514.0</ele>
        <time>2020-11-28T09:52:44Z</time>
      </trkpt>
      <trkpt lat="38.56549" lon="-0.90133">
        <ele>511.0</ele>
        <time>2020-11-28T09:52:47Z</time>
      </trkpt>
      <trkpt lat="38.56516" lon="-0.90098">
        <ele>511.0</ele>
        <time>2020-11-28T09:52:50Z</time>
      </trkpt>
      <trkpt lat="38.56494" lon="-0.90075">
        <ele>512.0</ele>
        <time>2020-11-28T09:52:53Z</time>
      </trkpt>
      <trkpt lat="38.56470" lon="-0.90058">
        <ele>514.0</ele>
        <time>2020-11-28T09:52:56Z</time>
      </trkpt>
      <trkpt lat="38.56438" lon="-0.90061">
        <ele>515.0</ele>
        <time>2020-11-28T09:53:00Z</time>
      </trkpt>
      <trkpt lat="38.56393" lon="-0.90077">
        <ele>518.0</ele>
        <time>2020-11-28T09:53:03Z</time>
      </trkpt>
      <trkpt lat="38.56345" lon="-0.90095">
        <ele>519.0</ele>
        <time>2020-11-28T09:53:06Z</time>
      </trkpt>
      <trkpt lat="38.56303" lon="-0.90112">
        <ele>521.0</ele>
        <time>2020-11-28T09:53:09Z</time>
      </trkpt>
      <trkpt lat="38.56271" lon="-0.90118">
        <ele>520.0</ele>
        <time>2020-11-28T09:53:12Z</time>
      </trkpt>
      <trkpt lat="38.56225" lon="-0.90109">
        <ele>523.0</ele>
        <time>2020-11-28T09:53:16Z</time>
      </trkpt>
      <trkpt lat="38.56184" lon="-0.90095">
        <ele>526.0</ele>
        <time>2020-11-28T09:53:19Z</time>
      </trkpt>
      <trkpt lat="38.56160" lon="-0.90088">
        <ele>526.0</ele>
        <time>2020-11-28T09:53:22Z</time>
      </trkpt>
      <trkpt lat="38.56133" lon="-0.90066">
        <ele>528.0</ele>
        <time>2020-11-28T09:53:25Z</time>
      </trkpt>
      <trkpt lat="38.56113" lon="-0.90046">
        <ele>529.0</ele>
        <time>2020-11-28T09:53:28Z</time>
      </trkpt>
      <trkpt lat="38.56087" lon="-0.90041">
        <ele>531.0</ele>
        <time>2020-11-28T09:53:31Z</time>
      </trkpt>
      <trkpt lat="38.56050" lon="-0.90033">
        <ele>534.0</ele>
        <time>2020-11-28T09:53:35Z</time>
      </trkpt>
      <trkpt lat="38.56014" lon="-0.90022">
        <ele>537.0</ele>
        <time>2020-11-28T09:53:38Z</time>
      </trkpt>
      <trkpt lat="38.55978" lon="-0.90008">
        <ele>540.0</ele>
        <time>2020-11-28T09:53:41Z</time>
      </trkpt>
      <trkpt lat="38.55945" lon="-0.89987">
        <ele>543.0</ele>
        <time>2020-11-28T09:53:44Z</time>
      </trkpt>
      <trkpt lat="38.55915" lon="-0.89963">
        <ele>548.0</ele>
        <time>2020-11-28T09:53:47Z</time>
      </trkpt>
      <trkpt lat="38.55883" lon="-0.89930">
        <ele>550.0</ele>
        <time>2020-11-28T09:53:50Z</time>
      </trkpt>
      <trkpt lat="38.55854" lon="-0.89887">
        <ele>551.0</ele>
        <time>2020-11-28T09:53:53Z</time>
      </trkpt>
      <trkpt lat="38.55826" lon="-0.89839">
        <ele>556.0</ele>
        <time>2020-11-28T09:53:57Z</time>
      </trkpt>
      <trkpt lat="38.55807" lon="-0.89802">
        <ele>554.0</ele>
        <time>2020-11-28T09:54:00Z</time>
      </trkpt>
      <trkpt lat="38.55775" lon="-0.89751">
        <ele>557.0</ele>
        <time>2020-11-28T09:54:03Z</time>
      </trkpt>
      <trkpt lat="38.55739" lon="-0.89697">
        <ele>558.0</ele>
        <time>2020-11-28T09:54:06Z</time>
      </trkpt>
      <trkpt lat="38.55713" lon="-0.89655">
        <ele>559.0</ele>
        <time>2020-11-28T09:54:10Z</time>
      </trkpt>
      <trkpt lat="38.55679" lon="-0.89615">
        <ele>559.0</ele>
        <time>2020-11-28T09:54:13Z</time>
      </trkpt>
      <trkpt lat="38.55634" lon="-0.89580">
        <ele>560.0</ele>
        <time>2020-11-28T09:54:16Z</time>
      </trkpt>
      <trkpt lat="38.55588" lon="-0.89548">
        <ele>562.0</ele>
        <time>2020-11-28T09:54:19Z</time>
      </trkpt>
      <trkpt lat="38.55552" lon="-0.89526">
        <ele>562.0</ele>
        <time>2020-11-28T09:54:22Z</time>
      </trkpt>
      <trkpt lat="38.55519" lon="-0.89513">
        <ele>563.0</ele>
        <time>2020-11-28T09:54:25Z</time>
      </trkpt>
      <trkpt lat="38.55488" lon="-0.89502">
        <ele>563.0</ele>
        <time>2020-11-28T09:54:28Z</time>
      </trkpt>
      <trkpt lat="38.55465" lon="-0.89489">
        <ele>563.0</ele>
        <time>2020-11-28T09:54:32Z</time>
      </trkpt>
      <trkpt lat="38.55420" lon="-0.89446">
        <ele>562.0</ele>
        <time>2020-11-28T09:54:35Z</time>
      </trkpt>
      <trkpt lat="38.55383" lon="-0.89414">
        <ele>562.0</ele>
        <time>2020-11-28T09:54:38Z</time>
      </trkpt>
      <trkpt lat="38.55338" lon="-0.89387">
        <ele>563.0</ele>
        <time>2020-11-28T09:54:41Z</time>
      </trkpt>
      <trkpt lat="38.55293" lon="-0.89365">
        <ele>566.0</ele>
        <time>2020-11-28T09:54:45Z</time>
      </trkpt>
      <trkpt lat="38.55242" lon="-0.89340">
        <ele>567.0</ele>
        <time>2020-11-28T09:54:48Z</time>
      </trkpt>
      <trkpt lat="38.55194" lon="-0.89318">
        <ele>568.0</ele>
        <time>2020-11-28T09:54:51Z</time>
      </trkpt>
      <trkpt lat="38.55148" lon="-0.89296">
        <ele>567.0</ele>
        <time>2020-11-28T09:54:54Z</time>
      </trkpt>
      <trkpt lat="38.55102" lon="-0.89278">
        <ele>567.0</ele>
        <time>2020-11-28T09:54:57Z</time>
      </trkpt>
      <trkpt lat="38.55075" lon="-0.89266">
        <ele>564.0</ele>
        <time>2020-11-28T09:55:00Z</time>
      </trkpt>
      <trkpt lat="38.55042" lon="-0.89245">
        <ele>561.0</ele>
        <time>2020-11-28T09:55:03Z</time>
      </trkpt>
      <trkpt lat="38.55018" lon="-0.89211">
        <ele>558.0</ele>
        <time>2020-11-28T09:55:07Z</time>
      </trkpt>
      <trkpt lat="38.54997" lon="-0.89201">
        <ele>559.0</ele>
        <time>2020-11-28T09:55:10Z</time>
      </trkpt>
      <trkpt lat="38.54975" lon="-0.89204">
        <ele>559.0</ele>
        <time>2020-11-28T09:55:13Z</time>
      </trkpt>
      <trkpt lat="38.54934" lon="-0.89217">
        <ele>557.0</ele>
        <time>2020-11-28T09:55:16Z</time>
      </trkpt>
      <trkpt lat="38.54886" lon="-0.89225">
        <ele>556.0</ele>
        <time>2020-11-28T09:55:19Z</time>
      </trkpt>
      <trkpt lat="38.54841" lon="-0.89229">
        <ele>554.0</ele>
        <time>2020-11-28T09:55:22Z</time>
      </trkpt>
      <trkpt lat="38.54805" lon="-0.89233">
        <ele>551.0</ele>
        <time>2020-11-28T09:55:25Z</time>
      </trkpt>
      <trkpt lat="38.54763" lon="-0.89249">
        <ele>552.0</ele>
        <time>2020-11-28T09:55:28Z</time>
      </trkpt>
      <trkpt lat="38.54736" lon="-0.89250">
        <ele>552.0</ele>
        <time>2020-11-28T09:55:31Z</time>
      </trkpt>
      <trkpt lat="38.54712" lon="-0.89247">
        <ele>550.0</ele>
        <time>2020-11-28T09:55:35Z</time>
      </trkpt>
      <trkpt lat="38.54682" lon="-0.89247">
        <ele>550.0</ele>
        <time>2020-11-28T09:55:38Z</time>
      </trkpt>
      <trkpt lat="38.54642" lon="-0.89274">
        <ele>550.0</ele>
        <time>2020-11-28T09:55:41Z</time>
      </trkpt>
      <trkpt lat="38.54605" lon="-0.89329">
        <ele>552.0</ele>
        <time>2020-11-28T09:55:44Z</time>
      </trkpt>
      <trkpt lat="38.54570" lon="-0.89375">
        <ele>552.0</ele>
        <time>2020-11-28T09:55:47Z</time>
      </trkpt>
      <trkpt lat="38.54539" lon="-0.89404">
        <ele>552.0</ele>
        <time>2020-11-28T09:55:50Z</time>
      </trkpt>
      <trkpt lat="38.54505" lon="-0.89428">
        <ele>551.0</ele>
        <time>2020-11-28T09:55:54Z</time>
      </trkpt>
      <trkpt lat="38.54465" lon="-0.89438">
        <ele>549.0</ele>
        <time>2020-11-28T09:55:57Z</time>
      </trkpt>
      <trkpt lat="38.54426" lon="-0.89438">
        <ele>547.0</ele>
        <time>2020-11-28T09:56:00Z</time>
      </trkpt>
      <trkpt lat="38.54369" lon="-0.89458">
        <ele>545.0</ele>
        <time>2020-11-28T09:56:03Z</time>
      </trkpt>
      <trkpt lat="38.54319" lon="-0.89467">
        <ele>543.0</ele>
        <time>2020-11-28T09:56:06Z</time>
      </trkpt>
      <trkpt lat="38.54275" lon="-0.89472">
        <ele>539.0</ele>
        <time>2020-11-28T09:56:09Z</time>
      </trkpt>
      <trkpt lat="38.54235" lon="-0.89494">
        <ele>538.0</ele>
        <time>2020-11-28T09:56:12Z</time>
      </trkpt>
      <trkpt lat="38.54201" lon="-0.89517">
        <ele>535.0</ele>
        <time>2020-11-28T09:56:15Z</time>
      </trkpt>
      <trkpt lat="38.54160" lon="-0.89536">
        <ele>537.0</ele>
        <time>2020-11-28T09:56:19Z</time>
      </trkpt>
      <trkpt lat="38.54101" lon="-0.89538">
        <ele>533.0</ele>
        <time>2020-11-28T09:56:22Z</time>
      </trkpt>
      <trkpt lat="38.54062" lon="-0.89533">
        <ele>531.0</ele>
        <time>2020-11-28T09:56:25Z</time>
      </trkpt>
      <trkpt lat="38.54027" lon="-0.89541">
        <ele>528.0</ele>
        <time>2020-11-28T09:56:28Z</time>
      </trkpt>
      <trkpt lat="38.53979" lon="-0.89561">
        <ele>527.0</ele>
        <time>2020-11-28T09:56:31Z</time>
      </trkpt>
      <trkpt lat="38.53931" lon="-0.89580">
        <ele>527.0</ele>
        <time>2020-11-28T09:56:34Z</time>
      </trkpt>
      <trkpt lat="38.53883" lon="-0.89595">
        <ele>524.0</ele>
        <time>2020-11-28T09:56:37Z</time>
      </trkpt>
      <trkpt lat="38.53834" lon="-0.89603">
        <ele>522.0</ele>
        <time>2020-11-28T09:56:40Z</time>
      </trkpt>
      <trkpt lat="38.53788" lon="-0.89610">
        <ele>523.0</ele>
        <time>2020-11-28T09:56:44Z</time>
      </trkpt>
      <trkpt lat="38.53742" lon="-0.89623">
        <ele>520.0</ele>
        <time>2020-11-28T09:56:47Z</time>
      </trkpt>
      <trkpt lat="38.53691" lon="-0.89651">
        <ele>519.0</ele>
        <time>2020-11-28T09:56:50Z</time>
      </trkpt>
      <trkpt lat="38.53662" lon="-0.89671">
        <ele>518.0</ele>
        <time>2020-11-28T09:56:53Z</time>
      </trkpt>
      <trkpt lat="38.53573" lon="-0.89723">
        <ele>516.0</ele>
        <time>2020-11-28T09:56:56Z</time>
      </trkpt>
      <trkpt lat="38.53518" lon="-0.89752">
        <ele>515.0</ele>
        <time>2020-11-28T09:56:59Z</time>
      </trkpt>
      <trkpt lat="38.53472" lon="-0.89783">
        <ele>514.0</ele>
        <time>2020-11-28T09:57:02Z</time>
      </trkpt>
      <trkpt lat="38.53421" lon="-0.89821">
        <ele>512.0</ele>
        <time>2020-11-28T09:57:05Z</time>
      </trkpt>
      <trkpt lat="38.53379" lon="-0.89854">
        <ele>510.0</ele>
        <time>2020-11-28T09:57:09Z</time>
      </trkpt>
      <trkpt lat="38.53328" lon="-0.89892">
        <ele>507.0</ele>
        <time>2020-11-28T09:57:12Z</time>
      </trkpt>
      <trkpt lat="38.53268" lon="-0.89920">
        <ele>507.0</ele>
        <time>2020-11-28T09:57:15Z</time>
      </trkpt>
      <trkpt lat="38.53215" lon="-0.89945">
        <ele>505.0</ele>
        <time>2020-11-28T09:57:18Z</time>
      </trkpt>
      <trkpt lat="38.53166" lon="-0.89964">
        <ele>504.0</ele>
        <time>2020-11-28T09:57:21Z</time>
      </trkpt>
      <trkpt lat="38.53118" lon="-0.89993">
        <ele>503.0</ele>
        <time>2020-11-28T09:57:24Z</time>
      </trkpt>
      <trkpt lat="38.53066" lon="-0.90026">
        <ele>501.0</ele>
        <time>2020-11-28T09:57:27Z</time>
      </trkpt>
      <trkpt lat="38.53022" lon="-0.90058">
        <ele>501.0</ele>
        <time>2020-11-28T09:57:31Z</time>
      </trkpt>
      <trkpt lat="38.52978" lon="-0.90102">
        <ele>501.0</ele>
        <time>2020-11-28T09:57:34Z</time>
      </trkpt>
      <trkpt lat="38.52928" lon="-0.90161">
        <ele>501.0</ele>
        <time>2020-11-28T09:57:37Z</time>
      </trkpt>
      <trkpt lat="38.52891" lon="-0.90205">
        <ele>499.0</ele>
        <time>2020-11-28T09:57:40Z</time>
      </trkpt>
      <trkpt lat="38.52867" lon="-0.90236">
        <ele>498.0</ele>
        <time>2020-11-28T09:57:43Z</time>
      </trkpt>
      <trkpt lat="38.52846" lon="-0.90277">
        <ele>497.0</ele>
        <time>2020-11-28T09:57:46Z</time>
      </trkpt>
      <trkpt lat="38.52824" lon="-0.90334">
        <ele>500.0</ele>
        <time>2020-11-28T09:57:50Z</time>
      </trkpt>
      <trkpt lat="38.52797" lon="-0.90385">
        <ele>499.0</ele>
        <time>2020-11-28T09:57:53Z</time>
      </trkpt>
      <trkpt lat="38.52766" lon="-0.90440">
        <ele>498.0</ele>
        <time>2020-11-28T09:57:56Z</time>
      </trkpt>
      <trkpt lat="38.52731" lon="-0.90483">
        <ele>496.0</ele>
        <time>2020-11-28T09:57:59Z</time>
      </trkpt>
      <trkpt lat="38.52701" lon="-0.90522">
        <ele>496.0</ele>
        <time>2020-11-28T09:58:02Z</time>
      </trkpt>
      <trkpt lat="38.52676" lon="-0.90568">
        <ele>493.0</ele>
        <time>2020-11-28T09:58:05Z</time>
      </trkpt>
      <trkpt lat="38.52652" lon="-0.90597">
        <ele>491.0</ele>
        <time>2020-11-28T09:58:08Z</time>
      </trkpt>
      <trkpt lat="38.52620" lon="-0.90619">
        <ele>490.0</ele>
        <time>2020-11-28T09:58:11Z</time>
      </trkpt>
      <trkpt lat="38.52595" lon="-0.90634">
        <ele>489.0</ele>
        <time>2020-11-28T09:58:14Z</time>
      </trkpt>
      <trkpt lat="38.52578" lon="-0.90654">
        <ele>487.0</ele>
        <time>2020-11-28T09:58:17Z</time>
      </trkpt>
      <trkpt lat="38.52547" lon="-0.90658">
        <ele>487.0</ele>
        <time>2020-11-28T09:58:21Z</time>
      </trkpt>
      <trkpt lat="38.52527" lon="-0.90697">
        <ele>485.0</ele>
        <time>2020-11-28T09:58:24Z</time>
      </trkpt>
      <trkpt lat="38.52500" lon="-0.90747">
        <ele>483.0</ele>
        <time>2020-11-28T09:58:27Z</time>
      </trkpt>
      <trkpt lat="38.52475" lon="-0.90794">
        <ele>485.0</ele>
        <time>2020-11-28T09:58:30Z</time>
      </trkpt>
      <trkpt lat="38.52452" lon="-0.90826">
        <ele>483.0</ele>
        <time>2020-11-28T09:58:33Z</time>
      </trkpt>
      <trkpt lat="38.52432" lon="-0.90855">
        <ele>483.0</ele>
        <time>2020-11-28T09:58:36Z</time>
      </trkpt>
      <trkpt lat="38.52414" lon="-0.90890">
        <ele>483.0</ele>
        <time>2020-11-28T09:58:40Z</time>
      </trkpt>
      <trkpt lat="38.52391" lon="-0.90937">
        <ele>482.0</ele>
        <time>2020-11-28T09:58:43Z</time>
      </trkpt>
      <trkpt lat="38.52370" lon="-0.90983">
        <ele>484.0</ele>
        <time>2020-11-28T09:58:46Z</time>
      </trkpt>
      <trkpt lat="38.52346" lon="-0.91014">
        <ele>483.0</ele>
        <time>2020-11-28T09:58:49Z</time>
      </trkpt>
      <trkpt lat="38.52309" lon="-0.91044">
        <ele>483.0</ele>
        <time>2020-11-28T09:58:52Z</time>
      </trkpt>
      <trkpt lat="38.52281" lon="-0.91067">
        <ele>480.0</ele>
        <time>2020-11-28T09:58:55Z</time>
      </trkpt>
      <trkpt lat="38.52267" lon="-0.91078">
        <ele>481.0</ele>
        <time>2020-11-28T09:58:58Z</time>
      </trkpt>
      <trkpt lat="38.52258" lon="-0.91085">
        <ele>481.0</ele>
        <time>2020-11-28T09:59:01Z</time>
      </trkpt>
      <trkpt lat="38.52237" lon="-0.91024">
        <ele>483.0</ele>
        <time>2020-11-28T09:59:05Z</time>
      </trkpt>
      <trkpt lat="38.52222" lon="-0.90998">
        <ele>484.0</ele>
        <time>2020-11-28T09:59:08Z</time>
      </trkpt>
      <trkpt lat="38.52192" lon="-0.90982">
        <ele>484.0</ele>
        <time>2020-11-28T09:59:11Z</time>
      </trkpt>
      <trkpt lat="38.52145" lon="-0.90957">
        <ele>483.0</ele>
        <time>2020-11-28T09:59:14Z</time>
      </trkpt>
      <trkpt lat="38.52098" lon="-0.90929">
        <ele>482.0</ele>
        <time>2020-11-28T09:59:17Z</time>
      </trkpt>
      <trkpt lat="38.52060" lon="-0.90905">
        <ele>482.0</ele>
        <time>2020-11-28T09:59:20Z</time>
      </trkpt>
      <trkpt lat="38.52031" lon="-0.90886">
        <ele>482.0</ele>
        <time>2020-11-28T09:59:23Z</time>
      </trkpt>
      <trkpt lat="38.52012" lon="-0.90879">
        <ele>482.0</ele>
        <time>2020-11-28T09:59:26Z</time>
      </trkpt>
      <trkpt lat="38.51996" lon="-0.90879">
        <ele>481.0</ele>
        <time>2020-11-28T09:59:30Z</time>
      </trkpt>
      <trkpt lat="38.51973" lon="-0.90888">
        <ele>481.0</ele>
        <time>2020-11-28T09:59:33Z</time>
      </trkpt>
      <trkpt lat="38.51951" lon="-0.90914">
        <ele>482.0</ele>
        <time>2020-11-28T09:59:36Z</time>
      </trkpt>
      <trkpt lat="38.51932" lon="-0.90946">
        <ele>482.0</ele>
        <time>2020-11-28T09:59:39Z</time>
      </trkpt>
      <trkpt lat="38.51916" lon="-0.90998">
        <ele>483.0</ele>
        <time>2020-11-28T09:59:42Z</time>
      </trkpt>
      <trkpt lat="38.51908" lon="-0.91049">
        <ele>485.0</ele>
        <time>2020-11-28T09:59:45Z</time>
      </trkpt>
      <trkpt lat="38.51899" lon="-0.91092">
        <ele>487.0</ele>
        <time>2020-11-28T09:59:49Z</time>
      </trkpt>
      <trkpt lat="38.51896" lon="-0.91131">
        <ele>487.0</ele>
        <time>2020-11-28T09:59:52Z</time>
      </trkpt>
      <trkpt lat="38.51893" lon="-0.91180">
        <ele>489.0</ele>
        <time>2020-11-28T09:59:55Z</time>
      </trkpt>
      <trkpt lat="38.51890" lon="-0.91217">
        <ele>489.0</ele>
        <time>2020-11-28T09:59:58Z</time>
      </trkpt>
      <trkpt lat="38.51884" lon="-0.91239">
        <ele>490.0</ele>
        <time>2020-11-28T10:00:01Z</time>
      </trkpt>
      <trkpt lat="38.51863" lon="-0.91263">
        <ele>489.0</ele>
        <time>2020-11-28T10:00:05Z</time>
      </trkpt>
      <trkpt lat="38.51833" lon="-0.91281">
        <ele>487.0</ele>
        <time>2020-11-28T10:00:08Z</time>
      </trkpt>
      <trkpt lat="38.51806" lon="-0.91293">
        <ele>489.0</ele>
        <time>2020-11-28T10:00:11Z</time>
      </trkpt>
      <trkpt lat="38.51765" lon="-0.91311">
        <ele>490.0</ele>
        <time>2020-11-28T10:00:14Z</time>
      </trkpt>
      <trkpt lat="38.51731" lon="-0.91326">
        <ele>487.0</ele>
        <time>2020-11-28T10:00:17Z</time>
      </trkpt>
      <trkpt lat="38.51693" lon="-0.91343">
        <ele>489.0</ele>
        <time>2020-11-28T10:00:20Z</time>
      </trkpt>
      <trkpt lat="38.51646" lon="-0.91363">
        <ele>491.0</ele>
        <time>2020-11-28T10:00:24Z</time>
      </trkpt>
      <trkpt lat="38.51615" lon="-0.91375">
        <ele>488.0</ele>
        <time>2020-11-28T10:00:27Z</time>
      </trkpt>
      <trkpt lat="38.51598" lon="-0.91386">
        <ele>488.0</ele>
        <time>2020-11-28T10:00:30Z</time>
      </trkpt>
      <trkpt lat="38.51586" lon="-0.91406">
        <ele>490.0</ele>
        <time>2020-11-28T10:00:33Z</time>
      </trkpt>
      <trkpt lat="38.51566" lon="-0.91402">
        <ele>489.0</ele>
        <time>2020-11-28T10:00:36Z</time>
      </trkpt>
      <trkpt lat="38.51531" lon="-0.91406">
        <ele>490.0</ele>
        <time>2020-11-28T10:00:39Z</time>
      </trkpt>
      <trkpt lat="38.51481" lon="-0.91419">
        <ele>492.0</ele>
        <time>2020-11-28T10:00:42Z</time>
      </trkpt>
      <trkpt lat="38.51414" lon="-0.91437">
        <ele>493.0</ele>
        <time>2020-11-28T10:00:45Z</time>
      </trkpt>
      <trkpt lat="38.51362" lon="-0.91438">
        <ele>494.0</ele>
        <time>2020-11-28T10:00:48Z</time>
      </trkpt>
      <trkpt lat="38.51321" lon="-0.91431">
        <ele>491.0</ele>
        <time>2020-11-28T10:00:52Z</time>
      </trkpt>
      <trkpt lat="38.51268" lon="-0.91405">
        <ele>492.0</ele>
        <time>2020-11-28T10:00:55Z</time>
      </trkpt>
      <trkpt lat="38.51215" lon="-0.91368">
        <ele>493.0</ele>
        <time>2020-11-28T10:00:58Z</time>
      </trkpt>
      <trkpt lat="38.51158" lon="-0.91334">
        <ele>493.0</ele>
        <time>2020-11-28T10:01:01Z</time>
      </trkpt>
      <trkpt lat="38.51094" lon="-0.91308">
        <ele>495.0</ele>
        <time>2020-11-28T10:01:04Z</time>
      </trkpt>
      <trkpt lat="38.51028" lon="-0.91284">
        <ele>494.0</ele>
        <time>2020-11-28T10:01:08Z</time>
      </trkpt>
      <trkpt lat="38.50960" lon="-0.91260">
        <ele>493.0</ele>
        <time>2020-11-28T10:01:11Z</time>
      </trkpt>
      <trkpt lat="38.50898" lon="-0.91243">
        <ele>494.0</ele>
        <time>2020-11-28T10:01:14Z</time>
      </trkpt>
      <trkpt lat="38.50821" lon="-0.91210">
        <ele>498.0</ele>
        <time>2020-11-28T10:01:17Z</time>
      </trkpt>
      <trkpt lat="38.50744" lon="-0.91168">
        <ele>499.0</ele>
        <time>2020-11-28T10:01:20Z</time>
      </trkpt>
      <trkpt lat="38.50670" lon="-0.91127">
        <ele>498.0</ele>
        <time>2020-11-28T10:01:23Z</time>
      </trkpt>
      <trkpt lat="38.50602" lon="-0.91084">
        <ele>497.0</ele>
        <time>2020-11-28T10:01:27Z</time>
      </trkpt>
      <trkpt lat="38.50526" lon="-0.91049">
        <ele>496.0</ele>
        <time>2020-11-28T10:01:30Z</time>
      </trkpt>
      <trkpt lat="38.50441" lon="-0.91014">
        <ele>497.0</ele>
        <time>2020-11-28T10:01:33Z</time>
      </trkpt>
      <trkpt lat="38.50369" lon="-0.90985">
        <ele>498.0</ele>
        <time>2020-11-28T10:01:36Z</time>
      </trkpt>
      <trkpt lat="38.50288" lon="-0.90946">
        <ele>500.0</ele>
        <time>2020-11-28T10:01:40Z</time>
      </trkpt>
      <trkpt lat="38.50210" lon="-0.90906">
        <ele>501.0</ele>
        <time>2020-11-28T10:01:43Z</time>
      </trkpt>
      <trkpt lat="38.50134" lon="-0.90867">
        <ele>501.0</ele>
        <time>2020-11-28T10:01:46Z</time>
      </trkpt>
      <trkpt lat="38.50053" lon="-0.90830">
        <ele>502.0</ele>
        <time>2020-11-28T10:01:49Z</time>
      </trkpt>
      <trkpt lat="38.49948" lon="-0.90794">
        <ele>502.0</ele>
        <time>2020-11-28T10:01:53Z</time>
      </trkpt>
      <trkpt lat="38.49873" lon="-0.90769">
        <ele>502.0</ele>
        <time>2020-11-28T10:01:56Z</time>
      </trkpt>
      <trkpt lat="38.49813" lon="-0.90739">
        <ele>500.0</ele>
        <time>2020-11-28T10:01:59Z</time>
      </trkpt>
      <trkpt lat="38.49742" lon="-0.90691">
        <ele>499.0</ele>
        <time>2020-11-28T10:02:03Z</time>
      </trkpt>
      <trkpt lat="38.49668" lon="-0.90643">
        <ele>498.0</ele>
        <time>2020-11-28T10:02:06Z</time>
      </trkpt>
      <trkpt lat="38.49595" lon="-0.90594">
        <ele>496.0</ele>
        <time>2020-11-28T10:02:09Z</time>
      </trkpt>
      <trkpt lat="38.49554" lon="-0.90565">
        <ele>494.0</ele>
        <time>2020-11-28T10:02:12Z</time>
      </trkpt>
      <trkpt lat="38.49512" lon="-0.90541">
        <ele>492.0</ele>
        <time>2020-11-28T10:02:15Z</time>
      </trkpt>
      <trkpt lat="38.49467" lon="-0.90530">
        <ele>490.0</ele>
        <time>2020-11-28T10:02:19Z</time>
      </trkpt>
      <trkpt lat="38.49413" lon="-0.90530">
        <ele>487.0</ele>
        <time>2020-11-28T10:02:22Z</time>
      </trkpt>
      <trkpt lat="38.49340" lon="-0.90532">
        <ele>485.0</ele>
        <time>2020-11-28T10:02:25Z</time>
      </trkpt>
      <trkpt lat="38.49282" lon="-0.90540">
        <ele>481.0</ele>
        <time>2020-11-28T10:02:28Z</time>
      </trkpt>
      <trkpt lat="38.49226" lon="-0.90543">
        <ele>480.0</ele>
        <time>2020-11-28T10:02:31Z</time>
      </trkpt>
      <trkpt lat="38.49163" lon="-0.90522">
        <ele>481.0</ele>
        <time>2020-11-28T10:02:34Z</time>
      </trkpt>
      <trkpt lat="38.49101" lon="-0.90506">
        <ele>482.0</ele>
        <time>2020-11-28T10:02:37Z</time>
      </trkpt>
      <trkpt lat="38.49028" lon="-0.90496">
        <ele>483.0</ele>
        <time>2020-11-28T10:02:41Z</time>
      </trkpt>
      <trkpt lat="38.48968" lon="-0.90493">
        <ele>485.0</ele>
        <time>2020-11-28T10:02:44Z</time>
      </trkpt>
      <trkpt lat="38.48911" lon="-0.90497">
        <ele>485.0</ele>
        <time>2020-11-28T10:02:47Z</time>
      </trkpt>
      <trkpt lat="38.48860" lon="-0.90505">
        <ele>488.0</ele>
        <time>2020-11-28T10:02:50Z</time>
      </trkpt>
      <trkpt lat="38.48758" lon="-0.90518">
        <ele>494.0</ele>
        <time>2020-11-28T10:02:53Z</time>
      </trkpt>
      <trkpt lat="38.48680" lon="-0.90528">
        <ele>497.0</ele>
        <time>2020-11-28T10:02:56Z</time>
      </trkpt>
      <trkpt lat="38.48621" lon="-0.90539">
        <ele>498.0</ele>
        <time>2020-11-28T10:03:00Z</time>
      </trkpt>
      <trkpt lat="38.48575" lon="-0.90548">
        <ele>501.0</ele>
        <time>2020-11-28T10:03:03Z</time>
      </trkpt>
      <trkpt lat="38.48523" lon="-0.90563">
        <ele>504.0</ele>
        <time>2020-11-28T10:03:06Z</time>
      </trkpt>
      <trkpt lat="38.48456" lon="-0.90596">
        <ele>509.0</ele>
        <time>2020-11-28T10:03:09Z</time>
      </trkpt>
      <trkpt lat="38.48407" lon="-0.90624">
        <ele>508.0</ele>
        <time>2020-11-28T10:03:12Z</time>
      </trkpt>
      <trkpt lat="38.48362" lon="-0.90640">
        <ele>507.0</ele>
        <time>2020-11-28T10:03:16Z</time>
      </trkpt>
      <trkpt lat="38.48294" lon="-0.90628">
        <ele>508.0</ele>
        <time>2020-11-28T10:03:19Z</time>
      </trkpt>
      <trkpt lat="38.48248" lon="-0.90611">
        <ele>508.0</ele>
        <time>2020-11-28T10:03:22Z</time>
      </trkpt>
      <trkpt lat="38.48188" lon="-0.90584">
        <ele>508.0</ele>
        <time>2020-11-28T10:03:25Z</time>
      </trkpt>
      <trkpt lat="38.48126" lon="-0.90546">
        <ele>504.0</ele>
        <time>2020-11-28T10:03:28Z</time>
      </trkpt>
      <trkpt lat="38.48071" lon="-0.90503">
        <ele>503.0</ele>
        <time>2020-11-28T10:03:31Z</time>
      </trkpt>
      <trkpt lat="38.48021" lon="-0.90463">
        <ele>504.0</ele>
        <time>2020-11-28T10:03:35Z</time>
      </trkpt>
      <trkpt lat="38.47960" lon="-0.90420">
        <ele>505.0</ele>
        <time>2020-11-28T10:03:38Z</time>
      </trkpt>
      <trkpt lat="38.47912" lon="-0.90398">
        <ele>507.0</ele>
        <time>2020-11-28T10:03:41Z</time>
      </trkpt>
      <trkpt lat="38.47870" lon="-0.90390">
        <ele>507.0</ele>
        <time>2020-11-28T10:03:44Z</time>
      </trkpt>
      <trkpt lat="38.47810" lon="-0.90395">
        <ele>509.0</ele>
        <time>2020-11-28T10:03:48Z</time>
      </trkpt>
      <trkpt lat="38.47731" lon="-0.90414">
        <ele>512.0</ele>
        <time>2020-11-28T10:03:51Z</time>
      </trkpt>
      <trkpt lat="38.47661" lon="-0.90431">
        <ele>513.0</ele>
        <time>2020-11-28T10:03:54Z</time>
      </trkpt>
      <trkpt lat="38.47590" lon="-0.90448">
        <ele>515.0</ele>
        <time>2020-11-28T10:03:57Z</time>
      </trkpt>
      <trkpt lat="38.47525" lon="-0.90463">
        <ele>516.0</ele>
        <time>2020-11-28T10:04:00Z</time>
      </trkpt>
      <trkpt lat="38.47479" lon="-0.90475">
        <ele>515.0</ele>
        <time>2020-11-28T10:04:03Z</time>
      </trkpt>
      <trkpt lat="38.47427" lon="-0.90499">
        <ele>516.0</ele>
        <time>2020-11-28T10:04:07Z</time>
      </trkpt>
      <trkpt lat="38.47358" lon="-0.90550">
        <ele>522.0</ele>
        <time>2020-11-28T10:04:10Z</time>
      </trkpt>
      <trkpt lat="38.47296" lon="-0.90597">
        <ele>523.0</ele>
        <time>2020-11-28T10:04:13Z</time>
      </trkpt>
      <trkpt lat="38.47238" lon="-0.90640">
        <ele>523.0</ele>
        <time>2020-11-28T10:04:16Z</time>
      </trkpt>
      <trkpt lat="38.47171" lon="-0.90672">
        <ele>523.0</ele>
        <time>2020-11-28T10:04:19Z</time>
      </trkpt>
      <trkpt lat="38.47114" lon="-0.90695">
        <ele>522.0</ele>
        <time>2020-11-28T10:04:22Z</time>
      </trkpt>
      <trkpt lat="38.47067" lon="-0.90721">
        <ele>522.0</ele>
        <time>2020-11-28T10:04:26Z</time>
      </trkpt>
      <trkpt lat="38.47014" lon="-0.90757">
        <ele>524.0</ele>
        <time>2020-11-28T10:04:29Z</time>
      </trkpt>
      <trkpt lat="38.46964" lon="-0.90781">
        <ele>523.0</ele>
        <time>2020-11-28T10:04:32Z</time>
      </trkpt>
      <trkpt lat="38.46899" lon="-0.90788">
        <ele>522.0</ele>
        <time>2020-11-28T10:04:35Z</time>
      </trkpt>
      <trkpt lat="38.46819" lon="-0.90792">
        <ele>521.0</ele>
        <time>2020-11-28T10:04:38Z</time>
      </trkpt>
      <trkpt lat="38.46741" lon="-0.90793">
        <ele>524.0</ele>
        <time>2020-11-28T10:04:41Z</time>
      </trkpt>
      <trkpt lat="38.46677" lon="-0.90791">
        <ele>523.0</ele>
        <time>2020-11-28T10:04:45Z</time>
      </trkpt>
      <trkpt lat="38.46608" lon="-0.90778">
        <ele>523.0</ele>
        <time>2020-11-28T10:04:48Z</time>
      </trkpt>
      <trkpt lat="38.46543" lon="-0.90768">
        <ele>524.0</ele>
        <time>2020-11-28T10:04:51Z</time>
      </trkpt>
      <trkpt lat="38.46463" lon="-0.90763">
        <ele>526.0</ele>
        <time>2020-11-28T10:04:54Z</time>
      </trkpt>
      <trkpt lat="38.46376" lon="-0.90758">
        <ele>528.0</ele>
        <time>2020-11-28T10:04:57Z</time>
      </trkpt>
      <trkpt lat="38.46301" lon="-0.90755">
        <ele>527.0</ele>
        <time>2020-11-28T10:05:01Z</time>
      </trkpt>
      <trkpt lat="38.46221" lon="-0.90749">
        <ele>524.0</ele>
        <time>2020-11-28T10:05:04Z</time>
      </trkpt>
      <trkpt lat="38.46152" lon="-0.90743">
        <ele>524.0</ele>
        <time>2020-11-28T10:05:07Z</time>
      </trkpt>
      <trkpt lat="38.46059" lon="-0.90729">
        <ele>525.0</ele>
        <time>2020-11-28T10:05:10Z</time>
      </trkpt>
      <trkpt lat="38.45945" lon="-0.90712">
        <ele>525.0</ele>
        <time>2020-11-28T10:05:13Z</time>
      </trkpt>
      <trkpt lat="38.45852" lon="-0.90694">
        <ele>525.0</ele>
        <time>2020-11-28T10:05:16Z</time>
      </trkpt>
      <trkpt lat="38.45773" lon="-0.90678">
        <ele>525.0</ele>
        <time>2020-11-28T10:05:20Z</time>
      </trkpt>
      <trkpt lat="38.45707" lon="-0.90666">
        <ele>518.0</ele>
        <time>2020-11-28T10:05:23Z</time>
      </trkpt>
      <trkpt lat="38.45658" lon="-0.90662">
        <ele>515.0</ele>
        <time>2020-11-28T10:05:26Z</time>
      </trkpt>
      <trkpt lat="38.45611" lon="-0.90646">
        <ele>515.0</ele>
        <time>2020-11-28T10:05:29Z</time>
      </trkpt>
      <trkpt lat="38.45541" lon="-0.90620">
        <ele>515.0</ele>
        <time>2020-11-28T10:05:32Z</time>
      </trkpt>
      <trkpt lat="38.45477" lon="-0.90595">
        <ele>517.0</ele>
        <time>2020-11-28T10:05:35Z</time>
      </trkpt>
      <trkpt lat="38.45427" lon="-0.90571">
        <ele>517.0</ele>
        <time>2020-11-28T10:05:39Z</time>
      </trkpt>
      <trkpt lat="38.45389" lon="-0.90550">
        <ele>519.0</ele>
        <time>2020-11-28T10:05:42Z</time>
      </trkpt>
      <trkpt lat="38.45343" lon="-0.90504">
        <ele>518.0</ele>
        <time>2020-11-28T10:05:45Z</time>
      </trkpt>
      <trkpt lat="38.45298" lon="-0.90444">
        <ele>520.0</ele>
        <time>2020-11-28T10:05:48Z</time>
      </trkpt>
      <trkpt lat="38.45251" lon="-0.90375">
        <ele>520.0</ele>
        <time>2020-11-28T10:05:51Z</time>
      </trkpt>
      <trkpt lat="38.45208" lon="-0.90311">
        <ele>522.0</ele>
        <time>2020-11-28T10:05:54Z</time>
      </trkpt>
      <trkpt lat="38.45158" lon="-0.90244">
        <ele>522.0</ele>
        <time>2020-11-28T10:05:58Z</time>
      </trkpt>
      <trkpt lat="38.45100" lon="-0.90178">
        <ele>523.0</ele>
        <time>2020-11-28T10:06:01Z</time>
      </trkpt>
      <trkpt lat="38.45041" lon="-0.90107">
        <ele>524.0</ele>
        <time>2020-11-28T10:06:04Z</time>
      </trkpt>
      <trkpt lat="38.44991" lon="-0.90047">
        <ele>527.0</ele>
        <time>2020-11-28T10:06:07Z</time>
      </trkpt>
      <trkpt lat="38.44947" lon="-0.90002">
        <ele>524.0</ele>
        <time>2020-11-28T10:06:10Z</time>
      </trkpt>
      <trkpt lat="38.44887" lon="-0.89962">
        <ele>527.0</ele>
        <time>2020-11-28T10:06:13Z</time>
      </trkpt>
      <trkpt lat="38.44819" lon="-0.89924">
        <ele>528.0</ele>
        <time>2020-11-28T10:06:17Z</time>
      </trkpt>
      <trkpt lat="38.44747" lon="-0.89883">
        <ele>529.0</ele>
        <time>2020-11-28T10:06:20Z</time>
      </trkpt>
      <trkpt lat="38.44685" lon="-0.89849">
        <ele>526.0</ele>
        <time>2020-11-28T10:06:23Z</time>
      </trkpt>
      <trkpt lat="38.44630" lon="-0.89819">
        <ele>525.0</ele>
        <time>2020-11-28T10:06:26Z</time>
      </trkpt>
      <trkpt lat="38.44584" lon="-0.89793">
        <ele>524.0</ele>
        <time>2020-11-28T10:06:29Z</time>
      </trkpt>
      <trkpt lat="38.44531" lon="-0.89784">
        <ele>522.0</ele>
        <time>2020-11-28T10:06:33Z</time>
      </trkpt>
      <trkpt lat="38.44443" lon="-0.89775">
        <ele>522.0</ele>
        <time>2020-11-28T10:06:36Z</time>
      </trkpt>
      <trkpt lat="38.44374" lon="-0.89768">
        <ele>521.0</ele>
        <time>2020-11-28T10:06:39Z</time>
      </trkpt>
      <trkpt lat="38.44306" lon="-0.89760">
        <ele>520.0</ele>
        <time>2020-11-28T10:06:42Z</time>
      </trkpt>
      <trkpt lat="38.44236" lon="-0.89733">
        <ele>517.0</ele>
        <time>2020-11-28T10:06:45Z</time>
      </trkpt>
      <trkpt lat="38.44167" lon="-0.89705">
        <ele>519.0</ele>
        <time>2020-11-28T10:06:48Z</time>
      </trkpt>
      <trkpt lat="38.44111" lon="-0.89682">
        <ele>518.0</ele>
        <time>2020-11-28T10:06:52Z</time>
      </trkpt>
      <trkpt lat="38.44050" lon="-0.89659">
        <ele>517.0</ele>
        <time>2020-11-28T10:06:55Z</time>
      </trkpt>
      <trkpt lat="38.43984" lon="-0.89637">
        <ele>523.0</ele>
        <time>2020-11-28T10:06:58Z</time>
      </trkpt>
      <trkpt lat="38.43942" lon="-0.89625">
        <ele>524.0</ele>
        <time>2020-11-28T10:07:01Z</time>
      </trkpt>
      <trkpt lat="38.43918" lon="-0.89619">
        <ele>523.0</ele>
        <time>2020-11-28T10:07:04Z</time>
      </trkpt>
      <trkpt lat="38.43900" lon="-0.89613">
        <ele>523.0</ele>
        <time>2020-11-28T10:07:07Z</time>
      </trkpt>
      <trkpt lat="38.43883" lon="-0.89633">
        <ele>525.0</ele>
        <time>2020-11-28T10:07:10Z</time>
      </trkpt>
      <trkpt lat="38.43871" lon="-0.89666">
        <ele>527.0</ele>
        <time>2020-11-28T10:07:14Z</time>
      </trkpt>
      <trkpt lat="38.43856" lon="-0.89733">
        <ele>530.0</ele>
        <time>2020-11-28T10:07:17Z</time>
      </trkpt>
      <trkpt lat="38.43836" lon="-0.89825">
        <ele>533.0</ele>
        <time>2020-11-28T10:07:20Z</time>
      </trkpt>
      <trkpt lat="38.43808" lon="-0.89943">
        <ele>534.0</ele>
        <time>2020-11-28T10:07:23Z</time>
      </trkpt>
      <trkpt lat="38.43782" lon="-0.90060">
        <ele>537.0</ele>
        <time>2020-11-28T10:07:26Z</time>
      </trkpt>
      <trkpt lat="38.43756" lon="-0.90176">
        <ele>536.0</ele>
        <time>2020-11-28T10:07:29Z</time>
      </trkpt>
      <trkpt lat="38.43732" lon="-0.90282">
        <ele>537.0</ele>
        <time>2020-11-28T10:07:32Z</time>
      </trkpt>
      <trkpt lat="38.43708" lon="-0.90384">
        <ele>536.0</ele>
        <time>2020-11-28T10:07:35Z</time>
      </trkpt>
      <trkpt lat="38.43686" lon="-0.90480">
        <ele>537.0</ele>
        <time>2020-11-28T10:07:39Z</time>
      </trkpt>
      <trkpt lat="38.43663" lon="-0.90581">
        <ele>536.0</ele>
        <time>2020-11-28T10:07:42Z</time>
      </trkpt>
      <trkpt lat="38.43643" lon="-0.90672">
        <ele>533.0</ele>
        <time>2020-11-28T10:07:45Z</time>
      </trkpt>
      <trkpt lat="38.43623" lon="-0.90762">
        <ele>528.0</ele>
        <time>2020-11-28T10:07:48Z</time>
      </trkpt>
      <trkpt lat="38.43602" lon="-0.90854">
        <ele>528.0</ele>
        <time>2020-11-28T10:07:51Z</time>
      </trkpt>
      <trkpt lat="38.43574" lon="-0.90952">
        <ele>526.0</ele>
        <time>2020-11-28T10:07:54Z</time>
      </trkpt>
      <trkpt lat="38.43543" lon="-0.91039">
        <ele>524.0</ele>
        <time>2020-11-28T10:07:58Z</time>
      </trkpt>
      <trkpt lat="38.43515" lon="-0.91120">
        <ele>524.0</ele>
        <time>2020-11-28T10:08:01Z</time>
      </trkpt>
      <trkpt lat="38.43490" lon="-0.91191">
        <ele>520.0</ele>
        <time>2020-11-28T10:08:04Z</time>
      </trkpt>
      <trkpt lat="38.43465" lon="-0.91260">
        <ele>516.0</ele>
        <time>2020-11-28T10:08:07Z</time>
      </trkpt>
      <trkpt lat="38.43448" lon="-0.91308">
        <ele>513.0</ele>
        <time>2020-11-28T10:08:10Z</time>
      </trkpt>
      <trkpt lat="38.43429" lon="-0.91361">
        <ele>512.0</ele>
        <time>2020-11-28T10:08:13Z</time>
      </trkpt>
      <trkpt lat="38.43408" lon="-0.91420">
        <ele>512.0</ele>
        <time>2020-11-28T10:08:16Z</time>
      </trkpt>
      <trkpt lat="38.43381" lon="-0.91497">
        <ele>513.0</ele>
        <time>2020-11-28T10:08:20Z</time>
      </trkpt>
      <trkpt lat="38.43350" lon="-0.91587">
        <ele>510.0</ele>
        <time>2020-11-28T10:08:23Z</time>
      </trkpt>
      <trkpt lat="38.43324" lon="-0.91668">
        <ele>507.0</ele>
        <time>2020-11-28T10:08:26Z</time>
      </trkpt>
      <trkpt lat="38.43302" lon="-0.91732">
        <ele>504.0</ele>
        <time>2020-11-28T10:08:29Z</time>
      </trkpt>
      <trkpt lat="38.43287" lon="-0.91779">
        <ele>501.0</ele>
        <time>2020-11-28T10:08:32Z</time>
      </trkpt>
      <trkpt lat="38.43279" lon="-0.91811">
        <ele>498.0</ele>
        <time>2020-11-28T10:08:35Z</time>
      </trkpt>
      <trkpt lat="38.43280" lon="-0.91843">
        <ele>497.0</ele>
        <time>2020-11-28T10:08:39Z</time>
      </trkpt>
      <trkpt lat="38.43259" lon="-0.91859">
        <ele>498.0</ele>
        <time>2020-11-28T10:08:42Z</time>
      </trkpt>
      <trkpt lat="38.43236" lon="-0.91836">
        <ele>498.0</ele>
        <time>2020-11-28T10:08:45Z</time>
      </trkpt>
      <trkpt lat="38.43189" lon="-0.91836">
        <ele>497.0</ele>
        <time>2020-11-28T10:08:48Z</time>
      </trkpt>
      <trkpt lat="38.43117" lon="-0.91838">
        <ele>499.0</ele>
        <time>2020-11-28T10:08:51Z</time>
      </trkpt>
      <trkpt lat="38.43051" lon="-0.91834">
        <ele>498.0</ele>
        <time>2020-11-28T10:08:54Z</time>
      </trkpt>
      <trkpt lat="38.42977" lon="-0.91840">
        <ele>498.0</ele>
        <time>2020-11-28T10:08:57Z</time>
      </trkpt>
      <trkpt lat="38.42910" lon="-0.91836">
        <ele>495.0</ele>
        <time>2020-11-28T10:09:00Z</time>
      </trkpt>
      <trkpt lat="38.42839" lon="-0.91847">
        <ele>495.0</ele>
        <time>2020-11-28T10:09:04Z</time>
      </trkpt>
      <trkpt lat="38.42769" lon="-0.91853">
        <ele>496.0</ele>
        <time>2020-11-28T10:09:07Z</time>
      </trkpt>
      <trkpt lat="38.42708" lon="-0.91848">
        <ele>498.0</ele>
        <time>2020-11-28T10:09:10Z</time>
      </trkpt>
      <trkpt lat="38.42635" lon="-0.91831">
        <ele>498.0</ele>
        <time>2020-11-28T10:09:13Z</time>
      </trkpt>
      <trkpt lat="38.42577" lon="-0.91808">
        <ele>500.0</ele>
        <time>2020-11-28T10:09:16Z</time>
      </trkpt>
      <trkpt lat="38.42530" lon="-0.91792">
        <ele>499.0</ele>
        <time>2020-11-28T10:09:20Z</time>
      </trkpt>
      <trkpt lat="38.42473" lon="-0.91792">
        <ele>499.0</ele>
        <time>2020-11-28T10:09:23Z</time>
      </trkpt>
      <trkpt lat="38.42416" lon="-0.91794">
        <ele>498.0</ele>
        <time>2020-11-28T10:09:26Z</time>
      </trkpt>
      <trkpt lat="38.42349" lon="-0.91789">
        <ele>498.0</ele>
        <time>2020-11-28T10:09:29Z</time>
      </trkpt>
      <trkpt lat="38.42272" lon="-0.91776">
        <ele>499.0</ele>
        <time>2020-11-28T10:09:32Z</time>
      </trkpt>
      <trkpt lat="38.42209" lon="-0.91765">
        <ele>499.0</ele>
        <time>2020-11-28T10:09:35Z</time>
      </trkpt>
      <trkpt lat="38.42142" lon="-0.91744">
        <ele>498.0</ele>
        <time>2020-11-28T10:09:39Z</time>
      </trkpt>
      <trkpt lat="38.42054" lon="-0.91714">
        <ele>497.0</ele>
        <time>2020-11-28T10:09:42Z</time>
      </trkpt>
      <trkpt lat="38.41976" lon="-0.91687">
        <ele>499.0</ele>
        <time>2020-11-28T10:09:45Z</time>
      </trkpt>
      <trkpt lat="38.41907" lon="-0.91661">
        <ele>498.0</ele>
        <time>2020-11-28T10:09:48Z</time>
      </trkpt>
      <trkpt lat="38.41845" lon="-0.91641">
        <ele>499.0</ele>
        <time>2020-11-28T10:09:51Z</time>
      </trkpt>
      <trkpt lat="38.41786" lon="-0.91640">
        <ele>498.0</ele>
        <time>2020-11-28T10:09:55Z</time>
      </trkpt>
      <trkpt lat="38.41704" lon="-0.91641">
        <ele>500.0</ele>
        <time>2020-11-28T10:09:58Z</time>
      </trkpt>
      <trkpt lat="38.41628" lon="-0.91640">
        <ele>498.0</ele>
        <time>2020-11-28T10:10:01Z</time>
      </trkpt>
      <trkpt lat="38.41557" lon="-0.91635">
        <ele>495.0</ele>
        <time>2020-11-28T10:10:04Z</time>
      </trkpt>
      <trkpt lat="38.41475" lon="-0.91619">
        <ele>495.0</ele>
        <time>2020-11-28T10:10:07Z</time>
      </trkpt>
      <trkpt lat="38.41388" lon="-0.91606">
        <ele>493.0</ele>
        <time>2020-11-28T10:10:10Z</time>
      </trkpt>
      <trkpt lat="38.41305" lon="-0.91596">
        <ele>492.0</ele>
        <time>2020-11-28T10:10:13Z</time>
      </trkpt>
      <trkpt lat="38.41217" lon="-0.91584">
        <ele>490.0</ele>
        <time>2020-11-28T10:10:17Z</time>
      </trkpt>
      <trkpt lat="38.41149" lon="-0.91576">
        <ele>489.0</ele>
        <time>2020-11-28T10:10:20Z</time>
      </trkpt>
      <trkpt lat="38.41086" lon="-0.91562">
        <ele>486.0</ele>
        <time>2020-11-28T10:10:23Z</time>
      </trkpt>
      <trkpt lat="38.41017" lon="-0.91537">
        <ele>486.0</ele>
        <time>2020-11-28T10:10:26Z</time>
      </trkpt>
      <trkpt lat="38.40950" lon="-0.91520">
        <ele>487.0</ele>
        <time>2020-11-28T10:10:29Z</time>
      </trkpt>
      <trkpt lat="38.40893" lon="-0.91508">
        <ele>487.0</ele>
        <time>2020-11-28T10:10:33Z</time>
      </trkpt>
      <trkpt lat="38.40850" lon="-0.91501">
        <ele>484.0</ele>
        <time>2020-11-28T10:10:36Z</time>
      </trkpt>
      <trkpt lat="38.40802" lon="-0.91510">
        <ele>484.0</ele>
        <time>2020-11-28T10:10:39Z</time>
      </trkpt>
      <trkpt lat="38.40740" lon="-0.91544">
        <ele>484.0</ele>
        <time>2020-11-28T10:10:42Z</time>
      </trkpt>
      <trkpt lat="38.40691" lon="-0.91561">
        <ele>484.0</ele>
        <time>2020-11-28T10:10:45Z</time>
      </trkpt>
      <trkpt lat="38.40639" lon="-0.91553">
        <ele>485.0</ele>
        <time>2020-11-28T10:10:49Z</time>
      </trkpt>
      <trkpt lat="38.40588" lon="-0.91530">
        <ele>487.0</ele>
        <time>2020-11-28T10:10:52Z</time>
      </trkpt>
      <trkpt lat="38.40527" lon="-0.91512">
        <ele>486.0</ele>
        <time>2020-11-28T10:10:55Z</time>
      </trkpt>
      <trkpt lat="38.40465" lon="-0.91498">
        <ele>487.0</ele>
        <time>2020-11-28T10:10:58Z</time>
      </trkpt>
      <trkpt lat="38.40387" lon="-0.91491">
        <ele>487.0</ele>
        <time>2020-11-28T10:11:02Z</time>
      </trkpt>
      <trkpt lat="38.40316" lon="-0.91485">
        <ele>488.0</ele>
        <time>2020-11-28T10:11:05Z</time>
      </trkpt>
      <trkpt lat="38.40256" lon="-0.91481">
        <ele>489.0</ele>
        <time>2020-11-28T10:11:08Z</time>
      </trkpt>
      <trkpt lat="38.40201" lon="-0.91490">
        <ele>486.0</ele>
        <time>2020-11-28T10:11:11Z</time>
      </trkpt>
      <trkpt lat="38.40125" lon="-0.91510">
        <ele>482.0</ele>
        <time>2020-11-28T10:11:14Z</time>
      </trkpt>
      <trkpt lat="38.40059" lon="-0.91529">
        <ele>483.0</ele>
        <time>2020-11-28T10:11:17Z</time>
      </trkpt>
      <trkpt lat="38.39989" lon="-0.91550">
        <ele>485.0</ele>
        <time>2020-11-28T10:11:21Z</time>
      </trkpt>
      <trkpt lat="38.39924" lon="-0.91563">
        <ele>483.0</ele>
        <time>2020-11-28T10:11:24Z</time>
      </trkpt>
      <trkpt lat="38.39878" lon="-0.91574">
        <ele>482.0</ele>
        <time>2020-11-28T10:11:27Z</time>
      </trkpt>
      <trkpt lat="38.39824" lon="-0.91613">
        <ele>481.0</ele>
        <time>2020-11-28T10:11:31Z</time>
      </trkpt>
      <trkpt lat="38.39785" lon="-0.91633">
        <ele>480.0</ele>
        <time>2020-11-28T10:11:34Z</time>
      </trkpt>
      <trkpt lat="38.39732" lon="-0.91627">
        <ele>479.0</ele>
        <time>2020-11-28T10:11:37Z</time>
      </trkpt>
      <trkpt lat="38.39682" lon="-0.91626">
        <ele>477.0</ele>
        <time>2020-11-28T10:11:40Z</time>
      </trkpt>
      <trkpt lat="38.39630" lon="-0.91646">
        <ele>477.0</ele>
        <time>2020-11-28T10:11:44Z</time>
      </trkpt>
      <trkpt lat="38.39566" lon="-0.91674">
        <ele>477.0</ele>
        <time>2020-11-28T10:11:47Z</time>
      </trkpt>
      <trkpt lat="38.39491" lon="-0.91695">
        <ele>476.0</ele>
        <time>2020-11-28T10:11:50Z</time>
      </trkpt>
      <trkpt lat="38.39425" lon="-0.91705">
        <ele>474.0</ele>
        <time>2020-11-28T10:11:53Z</time>
      </trkpt>
      <trkpt lat="38.39343" lon="-0.91701">
        <ele>473.0</ele>
        <time>2020-11-28T10:11:56Z</time>
      </trkpt>
      <trkpt lat="38.39264" lon="-0.91696">
        <ele>473.0</ele>
        <time>2020-11-28T10:11:59Z</time>
      </trkpt>
      <trkpt lat="38.39199" lon="-0.91692">
        <ele>470.0</ele>
        <time>2020-11-28T10:12:03Z</time>
      </trkpt>
      <trkpt lat="38.39124" lon="-0.91687">
        <ele>467.0</ele>
        <time>2020-11-28T10:12:06Z</time>
      </trkpt>
      <trkpt lat="38.39066" lon="-0.91682">
        <ele>464.0</ele>
        <time>2020-11-28T10:12:09Z</time>
      </trkpt>
      <trkpt lat="38.39021" lon="-0.91665">
        <ele>464.0</ele>
        <time>2020-11-28T10:12:12Z</time>
      </trkpt>
      <trkpt lat="38.38958" lon="-0.91622">
        <ele>465.0</ele>
        <time>2020-11-28T10:12:15Z</time>
      </trkpt>
      <trkpt lat="38.38911" lon="-0.91588">
        <ele>468.0</ele>
        <time>2020-11-28T10:12:19Z</time>
      </trkpt>
      <trkpt lat="38.38882" lon="-0.91548">
        <ele>465.0</ele>
        <time>2020-11-28T10:12:22Z</time>
      </trkpt>
      <trkpt lat="38.38854" lon="-0.91478">
        <ele>465.0</ele>
        <time>2020-11-28T10:12:25Z</time>
      </trkpt>
      <trkpt lat="38.38825" lon="-0.91406">
        <ele>464.0</ele>
        <time>2020-11-28T10:12:28Z</time>
      </trkpt>
      <trkpt lat="38.38797" lon="-0.91327">
        <ele>463.0</ele>
        <time>2020-11-28T10:12:31Z</time>
      </trkpt>
      <trkpt lat="38.38770" lon="-0.91242">
        <ele>463.0</ele>
        <time>2020-11-28T10:12:35Z</time>
      </trkpt>
      <trkpt lat="38.38747" lon="-0.91167">
        <ele>459.0</ele>
        <time>2020-11-28T10:12:38Z</time>
      </trkpt>
      <trkpt lat="38.38715" lon="-0.91099">
        <ele>453.0</ele>
        <time>2020-11-28T10:12:41Z</time>
      </trkpt>
      <trkpt lat="38.38697" lon="-0.91052">
        <ele>453.0</ele>
        <time>2020-11-28T10:12:44Z</time>
      </trkpt>
      <trkpt lat="38.38699" lon="-0.90999">
        <ele>455.0</ele>
        <time>2020-11-28T10:12:47Z</time>
      </trkpt>
      <trkpt lat="38.38711" lon="-0.90926">
        <ele>452.0</ele>
        <time>2020-11-28T10:12:51Z</time>
      </trkpt>
      <trkpt lat="38.38714" lon="-0.90872">
        <ele>449.0</ele>
        <time>2020-11-28T10:12:54Z</time>
      </trkpt>
      <trkpt lat="38.38708" lon="-0.90805">
        <ele>447.0</ele>
        <time>2020-11-28T10:12:57Z</time>
      </trkpt>
      <trkpt lat="38.38691" lon="-0.90755">
        <ele>452.0</ele>
        <time>2020-11-28T10:13:01Z</time>
      </trkpt>
      <trkpt lat="38.38655" lon="-0.90711">
        <ele>452.0</ele>
        <time>2020-11-28T10:13:04Z</time>
      </trkpt>
      <trkpt lat="38.38607" lon="-0.90654">
        <ele>451.0</ele>
        <time>2020-11-28T10:13:07Z</time>
      </trkpt>
      <trkpt lat="38.38561" lon="-0.90600">
        <ele>451.0</ele>
        <time>2020-11-28T10:13:11Z</time>
      </trkpt>
      <trkpt lat="38.38523" lon="-0.90573">
        <ele>446.0</ele>
        <time>2020-11-28T10:13:14Z</time>
      </trkpt>
      <trkpt lat="38.38484" lon="-0.90550">
        <ele>446.0</ele>
        <time>2020-11-28T10:13:17Z</time>
      </trkpt>
      <trkpt lat="38.38452" lon="-0.90520">
        <ele>443.0</ele>
        <time>2020-11-28T10:13:20Z</time>
      </trkpt>
      <trkpt lat="38.38427" lon="-0.90494">
        <ele>444.0</ele>
        <time>2020-11-28T10:13:23Z</time>
      </trkpt>
      <trkpt lat="38.38399" lon="-0.90481">
        <ele>445.0</ele>
        <time>2020-11-28T10:13:27Z</time>
      </trkpt>
      <trkpt lat="38.38373" lon="-0.90475">
        <ele>445.0</ele>
        <time>2020-11-28T10:13:30Z</time>
      </trkpt>
      <trkpt lat="38.38342" lon="-0.90476">
        <ele>444.0</ele>
        <time>2020-11-28T10:13:33Z</time>
      </trkpt>
      <trkpt lat="38.38308" lon="-0.90475">
        <ele>444.0</ele>
        <time>2020-11-28T10:13:36Z</time>
      </trkpt>
      <trkpt lat="38.38267" lon="-0.90461">
        <ele>444.0</ele>
        <time>2020-11-28T10:13:39Z</time>
      </trkpt>
      <trkpt lat="38.38224" lon="-0.90434">
        <ele>442.0</ele>
        <time>2020-11-28T10:13:42Z</time>
      </trkpt>
      <trkpt lat="38.38189" lon="-0.90395">
        <ele>438.0</ele>
        <time>2020-11-28T10:13:46Z</time>
      </trkpt>
      <trkpt lat="38.38157" lon="-0.90350">
        <ele>435.0</ele>
        <time>2020-11-28T10:13:49Z</time>
      </trkpt>
      <trkpt lat="38.38122" lon="-0.90323">
        <ele>433.0</ele>
        <time>2020-11-28T10:13:52Z</time>
      </trkpt>
      <trkpt lat="38.38070" lon="-0.90306">
        <ele>432.0</ele>
        <time>2020-11-28T10:13:55Z</time>
      </trkpt>
      <trkpt lat="38.38027" lon="-0.90285">
        <ele>431.0</ele>
        <time>2020-11-28T10:13:58Z</time>
      </trkpt>
      <trkpt lat="38.37982" lon="-0.90241">
        <ele>432.0</ele>
        <time>2020-11-28T10:14:02Z</time>
      </trkpt>
      <trkpt lat="38.37936" lon="-0.90194">
        <ele>435.0</ele>
        <time>2020-11-28T10:14:05Z</time>
      </trkpt>
      <trkpt lat="38.37879" lon="-0.90138">
        <ele>437.0</ele>
        <time>2020-11-28T10:14:08Z</time>
      </trkpt>
      <trkpt lat="38.37822" lon="-0.90080">
        <ele>434.0</ele>
        <time>2020-11-28T10:14:11Z</time>
      </trkpt>
      <trkpt lat="38.37759" lon="-0.90019">
        <ele>429.0</ele>
        <time>2020-11-28T10:14:14Z</time>
      </trkpt>
      <trkpt lat="38.37692" lon="-0.89953">
        <ele>426.0</ele>
        <time>2020-11-28T10:14:18Z</time>
      </trkpt>
      <trkpt lat="38.37648" lon="-0.89908">
        <ele>426.0</ele>
        <time>2020-11-28T10:14:21Z</time>
      </trkpt>
      <trkpt lat="38.37613" lon="-0.89873">
        <ele>425.0</ele>
        <time>2020-11-28T10:14:24Z</time>
      </trkpt>
      <trkpt lat="38.37560" lon="-0.89835">
        <ele>429.0</ele>
        <time>2020-11-28T10:14:27Z</time>
      </trkpt>
      <trkpt lat="38.37506" lon="-0.89798">
        <ele>428.0</ele>
        <time>2020-11-28T10:14:30Z</time>
      </trkpt>
      <trkpt lat="38.37465" lon="-0.89771">
        <ele>424.0</ele>
        <time>2020-11-28T10:14:33Z</time>
      </trkpt>
      <trkpt lat="38.37425" lon="-0.89756">
        <ele>422.0</ele>
        <time>2020-11-28T10:14:36Z</time>
      </trkpt>
      <trkpt lat="38.37366" lon="-0.89750">
        <ele>422.0</ele>
        <time>2020-11-28T10:14:39Z</time>
      </trkpt>
      <trkpt lat="38.37320" lon="-0.89747">
        <ele>421.0</ele>
        <time>2020-11-28T10:14:43Z</time>
      </trkpt>
      <trkpt lat="38.37288" lon="-0.89735">
        <ele>418.0</ele>
        <time>2020-11-28T10:14:46Z</time>
      </trkpt>
      <trkpt lat="38.37266" lon="-0.89724">
        <ele>418.0</ele>
        <time>2020-11-28T10:14:49Z</time>
      </trkpt>
      <trkpt lat="38.37250" lon="-0.89716">
        <ele>418.0</ele>
        <time>2020-11-28T10:14:52Z</time>
      </trkpt>
      <trkpt lat="38.37214" lon="-0.89697">
        <ele>416.0</ele>
        <time>2020-11-28T10:14:55Z</time>
      </trkpt>
      <trkpt lat="38.37188" lon="-0.89649">
        <ele>414.0</ele>
        <time>2020-11-28T10:14:58Z</time>
      </trkpt>
      <trkpt lat="38.37137" lon="-0.89590">
        <ele>412.0</ele>
        <time>2020-11-28T10:15:01Z</time>
      </trkpt>
      <trkpt lat="38.37080" lon="-0.89528">
        <ele>412.0</ele>
        <time>2020-11-28T10:15:05Z</time>
      </trkpt>
      <trkpt lat="38.37029" lon="-0.89471">
        <ele>410.0</ele>
        <time>2020-11-28T10:15:08Z</time>
      </trkpt>
      <trkpt lat="38.36983" lon="-0.89425">
        <ele>410.0</ele>
        <time>2020-11-28T10:15:11Z</time>
      </trkpt>
      <trkpt lat="38.36919" lon="-0.89379">
        <ele>406.0</ele>
        <time>2020-11-28T10:15:14Z</time>
      </trkpt>
      <trkpt lat="38.36842" lon="-0.89328">
        <ele>404.0</ele>
        <time>2020-11-28T10:15:17Z</time>
      </trkpt>
      <trkpt lat="38.36772" lon="-0.89280">
        <ele>403.0</ele>
        <time>2020-11-28T10:15:20Z</time>
      </trkpt>
      <trkpt lat="38.36703" lon="-0.89235">
        <ele>400.0</ele>
        <time>2020-11-28T10:15:24Z</time>
      </trkpt>
      <trkpt lat="38.36635" lon="-0.89191">
        <ele>396.0</ele>
        <time>2020-11-28T10:15:27Z</time>
      </trkpt>
      <trkpt lat="38.36574" lon="-0.89152">
        <ele>396.0</ele>
        <time>2020-11-28T10:15:30Z</time>
      </trkpt>
      <trkpt lat="38.36525" lon="-0.89117">
        <ele>396.0</ele>
        <time>2020-11-28T10:15:33Z</time>
      </trkpt>
      <trkpt lat="38.36489" lon="-0.89099">
        <ele>395.0</ele>
        <time>2020-11-28T10:15:36Z</time>
      </trkpt>
      <trkpt lat="38.36452" lon="-0.89086">
        <ele>395.0</ele>
        <time>2020-11-28T10:15:39Z</time>
      </trkpt>
      <trkpt lat="38.36426" lon="-0.89085">
        <ele>395.0</ele>
        <time>2020-11-28T10:15:42Z</time>
      </trkpt>
      <trkpt lat="38.36402" lon="-0.89092">
        <ele>397.0</ele>
        <time>2020-11-28T10:15:46Z</time>
      </trkpt>
      <trkpt lat="38.36383" lon="-0.89077">
        <ele>397.0</ele>
        <time>2020-11-28T10:15:49Z</time>
      </trkpt>
      <trkpt lat="38.36391" lon="-0.89030">
        <ele>395.0</ele>
        <time>2020-11-28T10:15:52Z</time>
      </trkpt>
      <trkpt lat="38.36397" lon="-0.88963">
        <ele>392.0</ele>
        <time>2020-11-28T10:15:55Z</time>
      </trkpt>
      <trkpt lat="38.36408" lon="-0.88881">
        <ele>392.0</ele>
        <time>2020-11-28T10:15:58Z</time>
      </trkpt>
      <trkpt lat="38.36413" lon="-0.88805">
        <ele>391.0</ele>
        <time>2020-11-28T10:16:01Z</time>
      </trkpt>
      <trkpt lat="38.36407" lon="-0.88741">
        <ele>393.0</ele>
        <time>2020-11-28T10:16:04Z</time>
      </trkpt>
      <trkpt lat="38.36391" lon="-0.88637">
        <ele>392.0</ele>
        <time>2020-11-28T10:16:08Z</time>
      </trkpt>
      <trkpt lat="38.36376" lon="-0.88542">
        <ele>391.0</ele>
        <time>2020-11-28T10:16:11Z</time>
      </trkpt>
      <trkpt lat="38.36365" lon="-0.88458">
        <ele>390.0</ele>
        <time>2020-11-28T10:16:14Z</time>
      </trkpt>
      <trkpt lat="38.36356" lon="-0.88375">
        <ele>390.0</ele>
        <time>2020-11-28T10:16:17Z</time>
      </trkpt>
      <trkpt lat="38.36349" lon="-0.88281">
        <ele>392.0</ele>
        <time>2020-11-28T10:16:20Z</time>
      </trkpt>
      <trkpt lat="38.36343" lon="-0.88189">
        <ele>392.0</ele>
        <time>2020-11-28T10:16:23Z</time>
      </trkpt>
      <trkpt lat="38.36338" lon="-0.88108">
        <ele>392.0</ele>
        <time>2020-11-28T10:16:26Z</time>
      </trkpt>
      <trkpt lat="38.36333" lon="-0.88027">
        <ele>389.0</ele>
        <time>2020-11-28T10:16:30Z</time>
      </trkpt>
      <trkpt lat="38.36331" lon="-0.87949">
        <ele>391.0</ele>
        <time>2020-11-28T10:16:33Z</time>
      </trkpt>
      <trkpt lat="38.36337" lon="-0.87867">
        <ele>390.0</ele>
        <time>2020-11-28T10:16:36Z</time>
      </trkpt>
      <trkpt lat="38.36343" lon="-0.87779">
        <ele>387.0</ele>
        <time>2020-11-28T10:16:39Z</time>
      </trkpt>
      <trkpt lat="38.36349" lon="-0.87703">
        <ele>385.0</ele>
        <time>2020-11-28T10:16:42Z</time>
      </trkpt>
      <trkpt lat="38.36355" lon="-0.87617">
        <ele>385.0</ele>
        <time>2020-11-28T10:16:45Z</time>
      </trkpt>
      <trkpt lat="38.36364" lon="-0.87536">
        <ele>382.0</ele>
        <time>2020-11-28T10:16:49Z</time>
      </trkpt>
      <trkpt lat="38.36374" lon="-0.87465">
        <ele>382.0</ele>
        <time>2020-11-28T10:16:52Z</time>
      </trkpt>
      <trkpt lat="38.36377" lon="-0.87404">
        <ele>385.0</ele>
        <time>2020-11-28T10:16:55Z</time>
      </trkpt>
      <trkpt lat="38.36375" lon="-0.87363">
        <ele>388.0</ele>
        <time>2020-11-28T10:16:58Z</time>
      </trkpt>
      <trkpt lat="38.36370" lon="-0.87345">
        <ele>390.0</ele>
        <time>2020-11-28T10:17:01Z</time>
      </trkpt>
      <trkpt lat="38.36364" lon="-0.87336">
        <ele>390.0</ele>
        <time>2020-11-28T10:17:04Z</time>
      </trkpt>
      <trkpt lat="38.36338" lon="-0.87323">
        <ele>390.0</ele>
        <time>2020-11-28T10:17:07Z</time>
      </trkpt>
      <trkpt lat="38.36326" lon="-0.87299">
        <ele>389.0</ele>
        <time>2020-11-28T10:17:11Z</time>
      </trkpt>
      <trkpt lat="38.36334" lon="-0.87270">
        <ele>389.0</ele>
        <time>2020-11-28T10:17:14Z</time>
      </trkpt>
      <trkpt lat="38.36327" lon="-0.87248">
        <ele>389.0</ele>
        <time>2020-11-28T10:17:18Z</time>
      </trkpt>
      <trkpt lat="38.36304" lon="-0.87212">
        <ele>389.0</ele>
        <time>2020-11-28T10:17:21Z</time>
      </trkpt>
      <trkpt lat="38.36282" lon="-0.87182">
        <ele>387.0</ele>
        <time>2020-11-28T10:17:24Z</time>
      </trkpt>
      <trkpt lat="38.36264" lon="-0.87162">
        <ele>387.0</ele>
        <time>2020-11-28T10:17:27Z</time>
      </trkpt>
      <trkpt lat="38.36243" lon="-0.87145">
        <ele>387.0</ele>
        <time>2020-11-28T10:17:30Z</time>
      </trkpt>
      <trkpt lat="38.36190" lon="-0.87149">
        <ele>386.0</ele>
        <time>2020-11-28T10:17:34Z</time>
      </trkpt>
      <trkpt lat="38.36149" lon="-0.87159">
        <ele>385.0</ele>
        <time>2020-11-28T10:17:37Z</time>
      </trkpt>
      <trkpt lat="38.36097" lon="-0.87174">
        <ele>381.0</ele>
        <time>2020-11-28T10:17:40Z</time>
      </trkpt>
      <trkpt lat="38.36055" lon="-0.87188">
        <ele>380.0</ele>
        <time>2020-11-28T10:17:43Z</time>
      </trkpt>
      <trkpt lat="38.36011" lon="-0.87198">
        <ele>377.0</ele>
        <time>2020-11-28T10:17:46Z</time>
      </trkpt>
      <trkpt lat="38.35979" lon="-0.87189">
        <ele>374.0</ele>
        <time>2020-11-28T10:17:49Z</time>
      </trkpt>
      <trkpt lat="38.35958" lon="-0.87157">
        <ele>375.0</ele>
        <time>2020-11-28T10:17:52Z</time>
      </trkpt>
      <trkpt lat="38.35945" lon="-0.87122">
        <ele>373.0</ele>
        <time>2020-11-28T10:17:56Z</time>
      </trkpt>
      <trkpt lat="38.35930" lon="-0.87076">
        <ele>375.0</ele>
        <time>2020-11-28T10:17:59Z</time>
      </trkpt>
      <trkpt lat="38.35921" lon="-0.87048">
        <ele>375.0</ele>
        <time>2020-11-28T10:18:02Z</time>
      </trkpt>
      <trkpt lat="38.35895" lon="-0.86972">
        <ele>379.0</ele>
        <time>2020-11-28T10:18:05Z</time>
      </trkpt>
      <trkpt lat="38.35874" lon="-0.86916">
        <ele>377.0</ele>
        <time>2020-11-28T10:18:08Z</time>
      </trkpt>
      <trkpt lat="38.35843" lon="-0.86861">
        <ele>375.0</ele>
        <time>2020-11-28T10:18:11Z</time>
      </trkpt>
      <trkpt lat="38.35801" lon="-0.86799">
        <ele>379.0</ele>
        <time>2020-11-28T10:18:14Z</time>
      </trkpt>
      <trkpt lat="38.35762" lon="-0.86743">
        <ele>379.0</ele>
        <time>2020-11-28T10:18:17Z</time>
      </trkpt>
      <trkpt lat="38.35729" lon="-0.86704">
        <ele>379.0</ele>
        <time>2020-11-28T10:18:21Z</time>
      </trkpt>
      <trkpt lat="38.35689" lon="-0.86678">
        <ele>379.0</ele>
        <time>2020-11-28T10:18:24Z</time>
      </trkpt>
      <trkpt lat="38.35636" lon="-0.86653">
        <ele>376.0</ele>
        <time>2020-11-28T10:18:27Z</time>
      </trkpt>
      <trkpt lat="38.35606" lon="-0.86632">
        <ele>374.0</ele>
        <time>2020-11-28T10:18:30Z</time>
      </trkpt>
      <trkpt lat="38.35585" lon="-0.86583">
        <ele>373.0</ele>
        <time>2020-11-28T10:18:33Z</time>
      </trkpt>
      <trkpt lat="38.35555" lon="-0.86515">
        <ele>373.0</ele>
        <time>2020-11-28T10:18:37Z</time>
      </trkpt>
      <trkpt lat="38.35524" lon="-0.86456">
        <ele>372.0</ele>
        <time>2020-11-28T10:18:40Z</time>
      </trkpt>
      <trkpt lat="38.35495" lon="-0.86410">
        <ele>369.0</ele>
        <time>2020-11-28T10:18:43Z</time>
      </trkpt>
      <trkpt lat="38.35448" lon="-0.86365">
        <ele>370.0</ele>
        <time>2020-11-28T10:18:46Z</time>
      </trkpt>
      <trkpt lat="38.35412" lon="-0.86336">
        <ele>370.0</ele>
        <time>2020-11-28T10:18:49Z</time>
      </trkpt>
      <trkpt lat="38.35386" lon="-0.86332">
        <ele>371.0</ele>
        <time>2020-11-28T10:18:52Z</time>
      </trkpt>
      <trkpt lat="38.35340" lon="-0.86348">
        <ele>371.0</ele>
        <time>2020-11-28T10:18:55Z</time>
      </trkpt>
      <trkpt lat="38.35288" lon="-0.86368">
        <ele>369.0</ele>
        <time>2020-11-28T10:18:59Z</time>
      </trkpt>
      <trkpt lat="38.35235" lon="-0.86371">
        <ele>368.0</ele>
        <time>2020-11-28T10:19:02Z</time>
      </trkpt>
      <trkpt lat="38.35190" lon="-0.86356">
        <ele>369.0</ele>
        <time>2020-11-28T10:19:05Z</time>
      </trkpt>
      <trkpt lat="38.35147" lon="-0.86329">
        <ele>370.0</ele>
        <time>2020-11-28T10:19:08Z</time>
      </trkpt>
      <trkpt lat="38.35118" lon="-0.86328">
        <ele>372.0</ele>
        <time>2020-11-28T10:19:11Z</time>
      </trkpt>
      <trkpt lat="38.35063" lon="-0.86336">
        <ele>371.0</ele>
        <time>2020-11-28T10:19:14Z</time>
      </trkpt>
      <trkpt lat="38.35006" lon="-0.86336">
        <ele>370.0</ele>
        <time>2020-11-28T10:19:18Z</time>
      </trkpt>
      <trkpt lat="38.34958" lon="-0.86330">
        <ele>369.0</ele>
        <time>2020-11-28T10:19:21Z</time>
      </trkpt>
      <trkpt lat="38.34913" lon="-0.86321">
        <ele>369.0</ele>
        <time>2020-11-28T10:19:24Z</time>
      </trkpt>
      <trkpt lat="38.34874" lon="-0.86306">
        <ele>369.0</ele>
        <time>2020-11-28T10:19:27Z</time>
      </trkpt>
      <trkpt lat="38.34821" lon="-0.86267">
        <ele>365.0</ele>
        <time>2020-11-28T10:19:30Z</time>
      </trkpt>
      <trkpt lat="38.34756" lon="-0.86220">
        <ele>364.0</ele>
        <time>2020-11-28T10:19:33Z</time>
      </trkpt>
      <trkpt lat="38.34692" lon="-0.86173">
        <ele>364.0</ele>
        <time>2020-11-28T10:19:37Z</time>
      </trkpt>
      <trkpt lat="38.34627" lon="-0.86125">
        <ele>363.0</ele>
        <time>2020-11-28T10:19:40Z</time>
      </trkpt>
      <trkpt lat="38.34568" lon="-0.86083">
        <ele>360.0</ele>
        <time>2020-11-28T10:19:43Z</time>
      </trkpt>
      <trkpt lat="38.34503" lon="-0.86037">
        <ele>360.0</ele>
        <time>2020-11-28T10:19:46Z</time>
      </trkpt>
      <trkpt lat="38.34443" lon="-0.85993">
        <ele>357.0</ele>
        <time>2020-11-28T10:19:49Z</time>
      </trkpt>
      <trkpt lat="38.34397" lon="-0.85960">
        <ele>355.0</ele>
        <time>2020-11-28T10:19:53Z</time>
      </trkpt>
      <trkpt lat="38.34357" lon="-0.85944">
        <ele>356.0</ele>
        <time>2020-11-28T10:19:56Z</time>
      </trkpt>
      <trkpt lat="38.34310" lon="-0.85945">
        <ele>357.0</ele>
        <time>2020-11-28T10:19:59Z</time>
      </trkpt>
      <trkpt lat="38.34251" lon="-0.85954">
        <ele>359.0</ele>
        <time>2020-11-28T10:20:02Z</time>
      </trkpt>
      <trkpt lat="38.34191" lon="-0.85978">
        <ele>360.0</ele>
        <time>2020-11-28T10:20:05Z</time>
      </trkpt>
      <trkpt lat="38.34130" lon="-0.86008">
        <ele>361.0</ele>
        <time>2020-11-28T10:20:08Z</time>
      </trkpt>
      <trkpt lat="38.34066" lon="-0.86047">
        <ele>364.0</ele>
        <time>2020-11-28T10:20:12Z</time>
      </trkpt>
      <trkpt lat="38.33998" lon="-0.86091">
        <ele>366.0</ele>
        <time>2020-11-28T10:20:15Z</time>
      </trkpt>
      <trkpt lat="38.33931" lon="-0.86140">
        <ele>367.0</ele>
        <time>2020-11-28T10:20:18Z</time>
      </trkpt>
      <trkpt lat="38.33872" lon="-0.86184">
        <ele>369.0</ele>
        <time>2020-11-28T10:20:21Z</time>
      </trkpt>
      <trkpt lat="38.33823" lon="-0.86233">
        <ele>369.0</ele>
        <time>2020-11-28T10:20:24Z</time>
      </trkpt>
      <trkpt lat="38.33765" lon="-0.86298">
        <ele>372.0</ele>
        <time>2020-11-28T10:20:27Z</time>
      </trkpt>
      <trkpt lat="38.33714" lon="-0.86354">
        <ele>375.0</ele>
        <time>2020-11-28T10:20:31Z</time>
      </trkpt>
      <trkpt lat="38.33668" lon="-0.86393">
        <ele>376.0</ele>
        <time>2020-11-28T10:20:34Z</time>
      </trkpt>
      <trkpt lat="38.33603" lon="-0.86436">
        <ele>375.0</ele>
        <time>2020-11-28T10:20:37Z</time>
      </trkpt>
      <trkpt lat="38.33541" lon="-0.86471">
        <ele>377.0</ele>
        <time>2020-11-28T10:20:40Z</time>
      </trkpt>
      <trkpt lat="38.33488" lon="-0.86495">
        <ele>377.0</ele>
        <time>2020-11-28T10:20:43Z</time>
      </trkpt>
      <trkpt lat="38.33437" lon="-0.86518">
        <ele>377.0</ele>
        <time>2020-11-28T10:20:47Z</time>
      </trkpt>
      <trkpt lat="38.33374" lon="-0.86555">
        <ele>379.0</ele>
        <time>2020-11-28T10:20:50Z</time>
      </trkpt>
      <trkpt lat="38.33311" lon="-0.86594">
        <ele>380.0</ele>
        <time>2020-11-28T10:20:53Z</time>
      </trkpt>
      <trkpt lat="38.33248" lon="-0.86631">
        <ele>380.0</ele>
        <time>2020-11-28T10:20:56Z</time>
      </trkpt>
      <trkpt lat="38.33188" lon="-0.86660">
        <ele>379.0</ele>
        <time>2020-11-28T10:20:59Z</time>
      </trkpt>
      <trkpt lat="38.33141" lon="-0.86685">
        <ele>379.0</ele>
        <time>2020-11-28T10:21:02Z</time>
      </trkpt>
      <trkpt lat="38.33078" lon="-0.86732">
        <ele>380.0</ele>
        <time>2020-11-28T10:21:06Z</time>
      </trkpt>
      <trkpt lat="38.33034" lon="-0.86766">
        <ele>379.0</ele>
        <time>2020-11-28T10:21:09Z</time>
      </trkpt>
      <trkpt lat="38.32990" lon="-0.86786">
        <ele>378.0</ele>
        <time>2020-11-28T10:21:12Z</time>
      </trkpt>
      <trkpt lat="38.32928" lon="-0.86802">
        <ele>378.0</ele>
        <time>2020-11-28T10:21:15Z</time>
      </trkpt>
      <trkpt lat="38.32860" lon="-0.86828">
        <ele>377.0</ele>
        <time>2020-11-28T10:21:19Z</time>
      </trkpt>
      <trkpt lat="38.32804" lon="-0.86856">
        <ele>375.0</ele>
        <time>2020-11-28T10:21:22Z</time>
      </trkpt>
      <trkpt lat="38.32743" lon="-0.86902">
        <ele>374.0</ele>
        <time>2020-11-28T10:21:25Z</time>
      </trkpt>
      <trkpt lat="38.32678" lon="-0.86943">
        <ele>373.0</ele>
        <time>2020-11-28T10:21:28Z</time>
      </trkpt>
      <trkpt lat="38.32613" lon="-0.86976">
        <ele>374.0</ele>
        <time>2020-11-28T10:21:31Z</time>
      </trkpt>
      <trkpt lat="38.32560" lon="-0.87000">
        <ele>370.0</ele>
        <time>2020-11-28T10:21:35Z</time>
      </trkpt>
      <trkpt lat="38.32505" lon="-0.87006">
        <ele>369.0</ele>
        <time>2020-11-28T10:21:38Z</time>
      </trkpt>
      <trkpt lat="38.32445" lon="-0.86992">
        <ele>364.0</ele>
        <time>2020-11-28T10:21:41Z</time>
      </trkpt>
      <trkpt lat="38.32393" lon="-0.86969">
        <ele>363.0</ele>
        <time>2020-11-28T10:21:44Z</time>
      </trkpt>
      <trkpt lat="38.32350" lon="-0.86927">
        <ele>363.0</ele>
        <time>2020-11-28T10:21:47Z</time>
      </trkpt>
      <trkpt lat="38.32306" lon="-0.86873">
        <ele>364.0</ele>
        <time>2020-11-28T10:21:50Z</time>
      </trkpt>
      <trkpt lat="38.32264" lon="-0.86838">
        <ele>363.0</ele>
        <time>2020-11-28T10:21:54Z</time>
      </trkpt>
      <trkpt lat="38.32218" lon="-0.86818">
        <ele>363.0</ele>
        <time>2020-11-28T10:21:57Z</time>
      </trkpt>
      <trkpt lat="38.32166" lon="-0.86785">
        <ele>362.0</ele>
        <time>2020-11-28T10:22:00Z</time>
      </trkpt>
      <trkpt lat="38.32105" lon="-0.86731">
        <ele>365.0</ele>
        <time>2020-11-28T10:22:03Z</time>
      </trkpt>
      <trkpt lat="38.32041" lon="-0.86672">
        <ele>366.0</ele>
        <time>2020-11-28T10:22:06Z</time>
      </trkpt>
      <trkpt lat="38.31971" lon="-0.86606">
        <ele>366.0</ele>
        <time>2020-11-28T10:22:09Z</time>
      </trkpt>
      <trkpt lat="38.31911" lon="-0.86548">
        <ele>367.0</ele>
        <time>2020-11-28T10:22:13Z</time>
      </trkpt>
      <trkpt lat="38.31856" lon="-0.86494">
        <ele>369.0</ele>
        <time>2020-11-28T10:22:16Z</time>
      </trkpt>
      <trkpt lat="38.31793" lon="-0.86438">
        <ele>372.0</ele>
        <time>2020-11-28T10:22:19Z</time>
      </trkpt>
      <trkpt lat="38.31716" lon="-0.86383">
        <ele>373.0</ele>
        <time>2020-11-28T10:22:22Z</time>
      </trkpt>
      <trkpt lat="38.31641" lon="-0.86332">
        <ele>376.0</ele>
        <time>2020-11-28T10:22:25Z</time>
      </trkpt>
      <trkpt lat="38.31570" lon="-0.86274">
        <ele>375.0</ele>
        <time>2020-11-28T10:22:28Z</time>
      </trkpt>
      <trkpt lat="38.31509" lon="-0.86225">
        <ele>376.0</ele>
        <time>2020-11-28T10:22:31Z</time>
      </trkpt>
      <trkpt lat="38.31448" lon="-0.86167">
        <ele>376.0</ele>
        <time>2020-11-28T10:22:35Z</time>
      </trkpt>
      <trkpt lat="38.31393" lon="-0.86101">
        <ele>380.0</ele>
        <time>2020-11-28T10:22:38Z</time>
      </trkpt>
      <trkpt lat="38.31355" lon="-0.86044">
        <ele>383.0</ele>
        <time>2020-11-28T10:22:41Z</time>
      </trkpt>
      <trkpt lat="38.31320" lon="-0.85981">
        <ele>385.0</ele>
        <time>2020-11-28T10:22:44Z</time>
      </trkpt>
      <trkpt lat="38.31297" lon="-0.85936">
        <ele>385.0</ele>
        <time>2020-11-28T10:22:47Z</time>
      </trkpt>
      <trkpt lat="38.31267" lon="-0.85901">
        <ele>383.0</ele>
        <time>2020-11-28T10:22:50Z</time>
      </trkpt>
      <trkpt lat="38.31219" lon="-0.85860">
        <ele>381.0</ele>
        <time>2020-11-28T10:22:54Z</time>
      </trkpt>
      <trkpt lat="38.31162" lon="-0.85816">
        <ele>379.0</ele>
        <time>2020-11-28T10:22:57Z</time>
      </trkpt>
      <trkpt lat="38.31108" lon="-0.85779">
        <ele>381.0</ele>
        <time>2020-11-28T10:23:00Z</time>
      </trkpt>
      <trkpt lat="38.31060" lon="-0.85752">
        <ele>381.0</ele>
        <time>2020-11-28T10:23:03Z</time>
      </trkpt>
      <trkpt lat="38.31021" lon="-0.85711">
        <ele>379.0</ele>
        <time>2020-11-28T10:23:06Z</time>
      </trkpt>
      <trkpt lat="38.30991" lon="-0.85674">
        <ele>378.0</ele>
        <time>2020-11-28T10:23:09Z</time>
      </trkpt>
      <trkpt lat="38.30961" lon="-0.85648">
        <ele>376.0</ele>
        <time>2020-11-28T10:23:13Z</time>
      </trkpt>
      <trkpt lat="38.30933" lon="-0.85620">
        <ele>376.0</ele>
        <time>2020-11-28T10:23:16Z</time>
      </trkpt>
      <trkpt lat="38.30918" lon="-0.85604">
        <ele>373.0</ele>
        <time>2020-11-28T10:23:19Z</time>
      </trkpt>
      <trkpt lat="38.30909" lon="-0.85601">
        <ele>373.0</ele>
        <time>2020-11-28T10:23:22Z</time>
      </trkpt>
      <trkpt lat="38.30897" lon="-0.85603">
        <ele>371.0</ele>
        <time>2020-11-28T10:23:35Z</time>
      </trkpt>
      <trkpt lat="38.30890" lon="-0.85558">
        <ele>370.0</ele>
        <time>2020-11-28T10:23:38Z</time>
      </trkpt>
      <trkpt lat="38.30881" lon="-0.85520">
        <ele>371.0</ele>
        <time>2020-11-28T10:23:41Z</time>
      </trkpt>
      <trkpt lat="38.30872" lon="-0.85493">
        <ele>371.0</ele>
        <time>2020-11-28T10:23:44Z</time>
      </trkpt>
      <trkpt lat="38.30870" lon="-0.85470">
        <ele>371.0</ele>
        <time>2020-11-28T10:23:47Z</time>
      </trkpt>
      <trkpt lat="38.30870" lon="-0.85457">
        <ele>370.0</ele>
        <time>2020-11-28T10:23:51Z</time>
      </trkpt>
      <trkpt lat="38.30871" lon="-0.85442">
        <ele>380.0</ele>
        <time>2020-11-28T10:24:32Z</time>
      </trkpt>
      <trkpt lat="38.30871" lon="-0.85429">
        <ele>381.0</ele>
        <time>2020-11-28T10:24:36Z</time>
      </trkpt>
      <trkpt lat="38.30874" lon="-0.85410">
        <ele>381.0</ele>
        <time>2020-11-28T10:24:39Z</time>
      </trkpt>
      <trkpt lat="38.30879" lon="-0.85381">
        <ele>381.0</ele>
        <time>2020-11-28T10:24:42Z</time>
      </trkpt>
      <trkpt lat="38.30883" lon="-0.85353">
        <ele>381.0</ele>
        <time>2020-11-28T10:24:45Z</time>
      </trkpt>
      <trkpt lat="38.30886" lon="-0.85327">
        <ele>379.0</ele>
        <time>2020-11-28T10:24:49Z</time>
      </trkpt>
      <trkpt lat="38.30889" lon="-0.85305">
        <ele>378.0</ele>
        <time>2020-11-28T10:24:52Z</time>
      </trkpt>
      <trkpt lat="38.30892" lon="-0.85284">
        <ele>376.0</ele>
        <time>2020-11-28T10:24:55Z</time>
      </trkpt>
      <trkpt lat="38.30895" lon="-0.85259">
        <ele>376.0</ele>
        <time>2020-11-28T10:24:58Z</time>
      </trkpt>
      <trkpt lat="38.30903" lon="-0.85224">
        <ele>374.0</ele>
        <time>2020-11-28T10:25:01Z</time>
      </trkpt>
      <trkpt lat="38.30911" lon="-0.85195">
        <ele>374.0</ele>
        <time>2020-11-28T10:25:05Z</time>
      </trkpt>
      <trkpt lat="38.30921" lon="-0.85167">
        <ele>372.0</ele>
        <time>2020-11-28T10:25:08Z</time>
      </trkpt>
      <trkpt lat="38.30927" lon="-0.85153">
        <ele>370.0</ele>
        <time>2020-11-28T10:25:11Z</time>
      </trkpt>
      <trkpt lat="38.30934" lon="-0.85133">
        <ele>369.0</ele>
        <time>2020-11-28T10:25:14Z</time>
      </trkpt>
      <trkpt lat="38.30943" lon="-0.85107">
        <ele>367.0</ele>
        <time>2020-11-28T10:25:17Z</time>
      </trkpt>
      <trkpt lat="38.30955" lon="-0.85077">
        <ele>364.0</ele>
        <time>2020-11-28T10:25:20Z</time>
      </trkpt>
      <trkpt lat="38.30968" lon="-0.85042">
        <ele>363.0</ele>
        <time>2020-11-28T10:25:24Z</time>
      </trkpt>
      <trkpt lat="38.30980" lon="-0.85013">
        <ele>361.0</ele>
        <time>2020-11-28T10:25:27Z</time>
      </trkpt>
      <trkpt lat="38.30989" lon="-0.84989">
        <ele>360.0</ele>
        <time>2020-11-28T10:25:30Z</time>
      </trkpt>
      <trkpt lat="38.31006" lon="-0.84941">
        <ele>359.0</ele>
        <time>2020-11-28T10:25:33Z</time>
      </trkpt>
      <trkpt lat="38.31028" lon="-0.84879">
        <ele>360.0</ele>
        <time>2020-11-28T10:25:36Z</time>
      </trkpt>
      <trkpt lat="38.31045" lon="-0.84814">
        <ele>360.0</ele>
        <time>2020-11-28T10:25:39Z</time>
      </trkpt>
      <trkpt lat="38.31054" lon="-0.84741">
        <ele>361.0</ele>
        <time>2020-11-28T10:25:42Z</time>
      </trkpt>
      <trkpt lat="38.31058" lon="-0.84670">
        <ele>362.0</ele>
        <time>2020-11-28T10:25:46Z</time>
      </trkpt>
      <trkpt lat="38.31059" lon="-0.84614">
        <ele>363.0</ele>
        <time>2020-11-28T10:25:49Z</time>
      </trkpt>
      <trkpt lat="38.31058" lon="-0.84559">
        <ele>363.0</ele>
        <time>2020-11-28T10:25:52Z</time>
      </trkpt>
      <trkpt lat="38.31055" lon="-0.84509">
        <ele>365.0</ele>
        <time>2020-11-28T10:25:55Z</time>
      </trkpt>
      <trkpt lat="38.31053" lon="-0.84469">
        <ele>366.0</ele>
        <time>2020-11-28T10:25:58Z</time>
      </trkpt>
      <trkpt lat="38.31048" lon="-0.84435">
        <ele>364.0</ele>
        <time>2020-11-28T10:26:01Z</time>
      </trkpt>
      <trkpt lat="38.31044" lon="-0.84408">
        <ele>364.0</ele>
        <time>2020-11-28T10:26:04Z</time>
      </trkpt>
      <trkpt lat="38.31035" lon="-0.84386">
        <ele>363.0</ele>
        <time>2020-11-28T10:26:08Z</time>
      </trkpt>
      <trkpt lat="38.31017" lon="-0.84367">
        <ele>362.0</ele>
        <time>2020-11-28T10:26:11Z</time>
      </trkpt>
      <trkpt lat="38.31023" lon="-0.84334">
        <ele>362.0</ele>
        <time>2020-11-28T10:26:14Z</time>
      </trkpt>
      <trkpt lat="38.31036" lon="-0.84295">
        <ele>361.0</ele>
        <time>2020-11-28T10:26:17Z</time>
      </trkpt>
      <trkpt lat="38.31039" lon="-0.84235">
        <ele>362.0</ele>
        <time>2020-11-28T10:26:20Z</time>
      </trkpt>
      <trkpt lat="38.31038" lon="-0.84149">
        <ele>361.0</ele>
        <time>2020-11-28T10:26:23Z</time>
      </trkpt>
      <trkpt lat="38.31035" lon="-0.84075">
        <ele>361.0</ele>
        <time>2020-11-28T10:26:27Z</time>
      </trkpt>
      <trkpt lat="38.31032" lon="-0.83990">
        <ele>362.0</ele>
        <time>2020-11-28T10:26:30Z</time>
      </trkpt>
      <trkpt lat="38.31041" lon="-0.83915">
        <ele>364.0</ele>
        <time>2020-11-28T10:26:33Z</time>
      </trkpt>
      <trkpt lat="38.31061" lon="-0.83840">
        <ele>370.0</ele>
        <time>2020-11-28T10:26:36Z</time>
      </trkpt>
      <trkpt lat="38.31080" lon="-0.83775">
        <ele>370.0</ele>
        <time>2020-11-28T10:26:39Z</time>
      </trkpt>
      <trkpt lat="38.31099" lon="-0.83712">
        <ele>367.0</ele>
        <time>2020-11-28T10:26:42Z</time>
      </trkpt>
      <trkpt lat="38.31113" lon="-0.83661">
        <ele>363.0</ele>
        <time>2020-11-28T10:26:45Z</time>
      </trkpt>
      <trkpt lat="38.31120" lon="-0.83618">
        <ele>363.0</ele>
        <time>2020-11-28T10:26:49Z</time>
      </trkpt>
      <trkpt lat="38.31115" lon="-0.83573">
        <ele>358.0</ele>
        <time>2020-11-28T10:26:52Z</time>
      </trkpt>
      <trkpt lat="38.31105" lon="-0.83519">
        <ele>358.0</ele>
        <time>2020-11-28T10:26:55Z</time>
      </trkpt>
      <trkpt lat="38.31107" lon="-0.83471">
        <ele>356.0</ele>
        <time>2020-11-28T10:26:58Z</time>
      </trkpt>
      <trkpt lat="38.31125" lon="-0.83424">
        <ele>354.0</ele>
        <time>2020-11-28T10:27:01Z</time>
      </trkpt>
      <trkpt lat="38.31153" lon="-0.83377">
        <ele>349.0</ele>
        <time>2020-11-28T10:27:04Z</time>
      </trkpt>
      <trkpt lat="38.31179" lon="-0.83330">
        <ele>348.0</ele>
        <time>2020-11-28T10:27:07Z</time>
      </trkpt>
      <trkpt lat="38.31206" lon="-0.83291">
        <ele>344.0</ele>
        <time>2020-11-28T10:27:10Z</time>
      </trkpt>
      <trkpt lat="38.31239" lon="-0.83251">
        <ele>344.0</ele>
        <time>2020-11-28T10:27:14Z</time>
      </trkpt>
      <trkpt lat="38.31274" lon="-0.83219">
        <ele>343.0</ele>
        <time>2020-11-28T10:27:17Z</time>
      </trkpt>
      <trkpt lat="38.31300" lon="-0.83191">
        <ele>338.0</ele>
        <time>2020-11-28T10:27:20Z</time>
      </trkpt>
      <trkpt lat="38.31324" lon="-0.83153">
        <ele>339.0</ele>
        <time>2020-11-28T10:27:23Z</time>
      </trkpt>
      <trkpt lat="38.31340" lon="-0.83104">
        <ele>336.0</ele>
        <time>2020-11-28T10:27:26Z</time>
      </trkpt>
      <trkpt lat="38.31355" lon="-0.83041">
        <ele>339.0</ele>
        <time>2020-11-28T10:27:29Z</time>
      </trkpt>
      <trkpt lat="38.31367" lon="-0.82991">
        <ele>337.0</ele>
        <time>2020-11-28T10:27:33Z</time>
      </trkpt>
      <trkpt lat="38.31382" lon="-0.82937">
        <ele>334.0</ele>
        <time>2020-11-28T10:27:36Z</time>
      </trkpt>
      <trkpt lat="38.31413" lon="-0.82878">
        <ele>332.0</ele>
        <time>2020-11-28T10:27:39Z</time>
      </trkpt>
      <trkpt lat="38.31437" lon="-0.82831">
        <ele>331.0</ele>
        <time>2020-11-28T10:27:42Z</time>
      </trkpt>
      <trkpt lat="38.31452" lon="-0.82786">
        <ele>328.0</ele>
        <time>2020-11-28T10:27:45Z</time>
      </trkpt>
      <trkpt lat="38.31459" lon="-0.82743">
        <ele>328.0</ele>
        <time>2020-11-28T10:27:48Z</time>
      </trkpt>
      <trkpt lat="38.31455" lon="-0.82698">
        <ele>325.0</ele>
        <time>2020-11-28T10:27:52Z</time>
      </trkpt>
      <trkpt lat="38.31437" lon="-0.82655">
        <ele>324.0</ele>
        <time>2020-11-28T10:27:55Z</time>
      </trkpt>
      <trkpt lat="38.31421" lon="-0.82599">
        <ele>320.0</ele>
        <time>2020-11-28T10:27:58Z</time>
      </trkpt>
      <trkpt lat="38.31421" lon="-0.82534">
        <ele>319.0</ele>
        <time>2020-11-28T10:28:01Z</time>
      </trkpt>
      <trkpt lat="38.31433" lon="-0.82480">
        <ele>318.0</ele>
        <time>2020-11-28T10:28:04Z</time>
      </trkpt>
      <trkpt lat="38.31450" lon="-0.82412">
        <ele>315.0</ele>
        <time>2020-11-28T10:28:07Z</time>
      </trkpt>
      <trkpt lat="38.31461" lon="-0.82342">
        <ele>310.0</ele>
        <time>2020-11-28T10:28:11Z</time>
      </trkpt>
      <trkpt lat="38.31470" lon="-0.82282">
        <ele>308.0</ele>
        <time>2020-11-28T10:28:14Z</time>
      </trkpt>
      <trkpt lat="38.31477" lon="-0.82234">
        <ele>305.0</ele>
        <time>2020-11-28T10:28:17Z</time>
      </trkpt>
      <trkpt lat="38.31486" lon="-0.82181">
        <ele>305.0</ele>
        <time>2020-11-28T10:28:20Z</time>
      </trkpt>
      <trkpt lat="38.31503" lon="-0.82120">
        <ele>305.0</ele>
        <time>2020-11-28T10:28:23Z</time>
      </trkpt>
      <trkpt lat="38.31521" lon="-0.82066">
        <ele>303.0</ele>
        <time>2020-11-28T10:28:26Z</time>
      </trkpt>
      <trkpt lat="38.31537" lon="-0.82015">
        <ele>301.0</ele>
        <time>2020-11-28T10:28:30Z</time>
      </trkpt>
      <trkpt lat="38.31555" lon="-0.81966">
        <ele>296.0</ele>
        <time>2020-11-28T10:28:33Z</time>
      </trkpt>
      <trkpt lat="38.31574" lon="-0.81911">
        <ele>295.0</ele>
        <time>2020-11-28T10:28:36Z</time>
      </trkpt>
      <trkpt lat="38.31592" lon="-0.81859">
        <ele>296.0</ele>
        <time>2020-11-28T10:28:39Z</time>
      </trkpt>
      <trkpt lat="38.31611" lon="-0.81806">
        <ele>291.0</ele>
        <time>2020-11-28T10:28:43Z</time>
      </trkpt>
      <trkpt lat="38.31632" lon="-0.81747">
        <ele>292.0</ele>
        <time>2020-11-28T10:28:46Z</time>
      </trkpt>
      <trkpt lat="38.31653" lon="-0.81690">
        <ele>292.0</ele>
        <time>2020-11-28T10:28:49Z</time>
      </trkpt>
      <trkpt lat="38.31674" lon="-0.81637">
        <ele>292.0</ele>
        <time>2020-11-28T10:28:52Z</time>
      </trkpt>
      <trkpt lat="38.31695" lon="-0.81583">
        <ele>293.0</ele>
        <time>2020-11-28T10:28:55Z</time>
      </trkpt>
      <trkpt lat="38.31714" lon="-0.81536">
        <ele>291.0</ele>
        <time>2020-11-28T10:28:58Z</time>
      </trkpt>
      <trkpt lat="38.31733" lon="-0.81486">
        <ele>293.0</ele>
        <time>2020-11-28T10:29:01Z</time>
      </trkpt>
      <trkpt lat="38.31753" lon="-0.81434">
        <ele>294.0</ele>
        <time>2020-11-28T10:29:05Z</time>
      </trkpt>
      <trkpt lat="38.31775" lon="-0.81380">
        <ele>295.0</ele>
        <time>2020-11-28T10:29:08Z</time>
      </trkpt>
      <trkpt lat="38.31795" lon="-0.81328">
        <ele>292.0</ele>
        <time>2020-11-28T10:29:11Z</time>
      </trkpt>
      <trkpt lat="38.31817" lon="-0.81273">
        <ele>293.0</ele>
        <time>2020-11-28T10:29:14Z</time>
      </trkpt>
      <trkpt lat="38.31839" lon="-0.81216">
        <ele>296.0</ele>
        <time>2020-11-28T10:29:18Z</time>
      </trkpt>
      <trkpt lat="38.31860" lon="-0.81161">
        <ele>296.0</ele>
        <time>2020-11-28T10:29:21Z</time>
      </trkpt>
      <trkpt lat="38.31886" lon="-0.81096">
        <ele>297.0</ele>
        <time>2020-11-28T10:29:24Z</time>
      </trkpt>
      <trkpt lat="38.31923" lon="-0.81002">
        <ele>295.0</ele>
        <time>2020-11-28T10:29:27Z</time>
      </trkpt>
      <trkpt lat="38.31961" lon="-0.80905">
        <ele>294.0</ele>
        <time>2020-11-28T10:29:30Z</time>
      </trkpt>
      <trkpt lat="38.31996" lon="-0.80815">
        <ele>294.0</ele>
        <time>2020-11-28T10:29:33Z</time>
      </trkpt>
      <trkpt lat="38.32025" lon="-0.80740">
        <ele>294.0</ele>
        <time>2020-11-28T10:29:37Z</time>
      </trkpt>
      <trkpt lat="38.32053" lon="-0.80669">
        <ele>294.0</ele>
        <time>2020-11-28T10:29:40Z</time>
      </trkpt>
      <trkpt lat="38.32084" lon="-0.80588">
        <ele>294.0</ele>
        <time>2020-11-28T10:29:43Z</time>
      </trkpt>
      <trkpt lat="38.32120" lon="-0.80497">
        <ele>292.0</ele>
        <time>2020-11-28T10:29:46Z</time>
      </trkpt>
      <trkpt lat="38.32158" lon="-0.80399">
        <ele>291.0</ele>
        <time>2020-11-28T10:29:50Z</time>
      </trkpt>
      <trkpt lat="38.32198" lon="-0.80296">
        <ele>290.0</ele>
        <time>2020-11-28T10:29:53Z</time>
      </trkpt>
      <trkpt lat="38.32236" lon="-0.80200">
        <ele>288.0</ele>
        <time>2020-11-28T10:29:56Z</time>
      </trkpt>
      <trkpt lat="38.32271" lon="-0.80112">
        <ele>286.0</ele>
        <time>2020-11-28T10:29:59Z</time>
      </trkpt>
      <trkpt lat="38.32308" lon="-0.80020">
        <ele>284.0</ele>
        <time>2020-11-28T10:30:02Z</time>
      </trkpt>
      <trkpt lat="38.32346" lon="-0.79918">
        <ele>281.0</ele>
        <time>2020-11-28T10:30:05Z</time>
      </trkpt>
      <trkpt lat="38.32380" lon="-0.79831">
        <ele>278.0</ele>
        <time>2020-11-28T10:30:09Z</time>
      </trkpt>
      <trkpt lat="38.32414" lon="-0.79741">
        <ele>276.0</ele>
        <time>2020-11-28T10:30:12Z</time>
      </trkpt>
      <trkpt lat="38.32454" lon="-0.79639">
        <ele>275.0</ele>
        <time>2020-11-28T10:30:15Z</time>
      </trkpt>
      <trkpt lat="38.32494" lon="-0.79537">
        <ele>273.0</ele>
        <time>2020-11-28T10:30:18Z</time>
      </trkpt>
      <trkpt lat="38.32531" lon="-0.79445">
        <ele>273.0</ele>
        <time>2020-11-28T10:30:21Z</time>
      </trkpt>
      <trkpt lat="38.32569" lon="-0.79347">
        <ele>273.0</ele>
        <time>2020-11-28T10:30:24Z</time>
      </trkpt>
      <trkpt lat="38.32604" lon="-0.79259">
        <ele>271.0</ele>
        <time>2020-11-28T10:30:27Z</time>
      </trkpt>
      <trkpt lat="38.32638" lon="-0.79174">
        <ele>270.0</ele>
        <time>2020-11-28T10:30:31Z</time>
      </trkpt>
      <trkpt lat="38.32666" lon="-0.79100">
        <ele>270.0</ele>
        <time>2020-11-28T10:30:34Z</time>
      </trkpt>
      <trkpt lat="38.32709" lon="-0.78991">
        <ele>267.0</ele>
        <time>2020-11-28T10:30:37Z</time>
      </trkpt>
      <trkpt lat="38.32742" lon="-0.78908">
        <ele>265.0</ele>
        <time>2020-11-28T10:30:40Z</time>
      </trkpt>
      <trkpt lat="38.32778" lon="-0.78816">
        <ele>263.0</ele>
        <time>2020-11-28T10:30:43Z</time>
      </trkpt>
      <trkpt lat="38.32812" lon="-0.78727">
        <ele>262.0</ele>
        <time>2020-11-28T10:30:47Z</time>
      </trkpt>
      <trkpt lat="38.32844" lon="-0.78649">
        <ele>259.0</ele>
        <time>2020-11-28T10:30:50Z</time>
      </trkpt>
      <trkpt lat="38.32879" lon="-0.78563">
        <ele>260.0</ele>
        <time>2020-11-28T10:30:53Z</time>
      </trkpt>
      <trkpt lat="38.32912" lon="-0.78475">
        <ele>260.0</ele>
        <time>2020-11-28T10:30:56Z</time>
      </trkpt>
      <trkpt lat="38.32943" lon="-0.78397">
        <ele>259.0</ele>
        <time>2020-11-28T10:30:59Z</time>
      </trkpt>
      <trkpt lat="38.32970" lon="-0.78328">
        <ele>258.0</ele>
        <time>2020-11-28T10:31:02Z</time>
      </trkpt>
      <trkpt lat="38.32984" lon="-0.78267">
        <ele>258.0</ele>
        <time>2020-11-28T10:31:06Z</time>
      </trkpt>
      <trkpt lat="38.32999" lon="-0.78223">
        <ele>264.0</ele>
        <time>2020-11-28T10:31:09Z</time>
      </trkpt>
      <trkpt lat="38.33006" lon="-0.78193">
        <ele>264.0</ele>
        <time>2020-11-28T10:31:12Z</time>
      </trkpt>
      <trkpt lat="38.32998" lon="-0.78165">
        <ele>264.0</ele>
        <time>2020-11-28T10:31:15Z</time>
      </trkpt>
      <trkpt lat="38.32991" lon="-0.78121">
        <ele>267.0</ele>
        <time>2020-11-28T10:31:18Z</time>
      </trkpt>
      <trkpt lat="38.33011" lon="-0.78098">
        <ele>268.0</ele>
        <time>2020-11-28T10:31:21Z</time>
      </trkpt>
      <trkpt lat="38.33054" lon="-0.78081">
        <ele>265.0</ele>
        <time>2020-11-28T10:31:24Z</time>
      </trkpt>
      <trkpt lat="38.33115" lon="-0.78054">
        <ele>261.0</ele>
        <time>2020-11-28T10:31:28Z</time>
      </trkpt>
      <trkpt lat="38.33173" lon="-0.78033">
        <ele>259.0</ele>
        <time>2020-11-28T10:31:31Z</time>
      </trkpt>
      <trkpt lat="38.33234" lon="-0.78011">
        <ele>256.0</ele>
        <time>2020-11-28T10:31:34Z</time>
      </trkpt>
      <trkpt lat="38.33291" lon="-0.77986">
        <ele>258.0</ele>
        <time>2020-11-28T10:31:37Z</time>
      </trkpt>
      <trkpt lat="38.33342" lon="-0.77965">
        <ele>255.0</ele>
        <time>2020-11-28T10:31:40Z</time>
      </trkpt>
      <trkpt lat="38.33392" lon="-0.77943">
        <ele>254.0</ele>
        <time>2020-11-28T10:31:43Z</time>
      </trkpt>
      <trkpt lat="38.33432" lon="-0.77926">
        <ele>252.0</ele>
        <time>2020-11-28T10:31:46Z</time>
      </trkpt>
      <trkpt lat="38.33469" lon="-0.77907">
        <ele>252.0</ele>
        <time>2020-11-28T10:31:49Z</time>
      </trkpt>
      <trkpt lat="38.33505" lon="-0.77886">
        <ele>252.0</ele>
        <time>2020-11-28T10:31:53Z</time>
      </trkpt>
      <trkpt lat="38.33526" lon="-0.77876">
        <ele>253.0</ele>
        <time>2020-11-28T10:31:56Z</time>
      </trkpt>
      <trkpt lat="38.33535" lon="-0.77871">
        <ele>253.0</ele>
        <time>2020-11-28T10:31:59Z</time>
      </trkpt>
      <trkpt lat="38.33542" lon="-0.77844">
        <ele>257.0</ele>
        <time>2020-11-28T10:32:02Z</time>
      </trkpt>
      <trkpt lat="38.33567" lon="-0.77825">
        <ele>255.0</ele>
        <time>2020-11-28T10:32:05Z</time>
      </trkpt>
      <trkpt lat="38.33593" lon="-0.77829">
        <ele>255.0</ele>
        <time>2020-11-28T10:32:08Z</time>
      </trkpt>
      <trkpt lat="38.33597" lon="-0.77866">
        <ele>257.0</ele>
        <time>2020-11-28T10:32:11Z</time>
      </trkpt>
      <trkpt lat="38.33640" lon="-0.77897">
        <ele>257.0</ele>
        <time>2020-11-28T10:32:15Z</time>
      </trkpt>
      <trkpt lat="38.33691" lon="-0.77929">
        <ele>257.0</ele>
        <time>2020-11-28T10:32:18Z</time>
      </trkpt>
      <trkpt lat="38.33747" lon="-0.77960">
        <ele>253.0</ele>
        <time>2020-11-28T10:32:21Z</time>
      </trkpt>
      <trkpt lat="38.33803" lon="-0.77986">
        <ele>253.0</ele>
        <time>2020-11-28T10:32:24Z</time>
      </trkpt>
      <trkpt lat="38.33870" lon="-0.78014">
        <ele>253.0</ele>
        <time>2020-11-28T10:32:27Z</time>
      </trkpt>
      <trkpt lat="38.33942" lon="-0.78028">
        <ele>253.0</ele>
        <time>2020-11-28T10:32:30Z</time>
      </trkpt>
      <trkpt lat="38.34014" lon="-0.78037">
        <ele>253.0</ele>
        <time>2020-11-28T10:32:33Z</time>
      </trkpt>
      <trkpt lat="38.34089" lon="-0.78046">
        <ele>253.0</ele>
        <time>2020-11-28T10:32:37Z</time>
      </trkpt>
      <trkpt lat="38.34166" lon="-0.78055">
        <ele>249.0</ele>
        <time>2020-11-28T10:32:40Z</time>
      </trkpt>
      <trkpt lat="38.34234" lon="-0.78063">
        <ele>248.0</ele>
        <time>2020-11-28T10:32:43Z</time>
      </trkpt>
      <trkpt lat="38.34301" lon="-0.78070">
        <ele>248.0</ele>
        <time>2020-11-28T10:32:46Z</time>
      </trkpt>
      <trkpt lat="38.34365" lon="-0.78073">
        <ele>246.0</ele>
        <time>2020-11-28T10:32:49Z</time>
      </trkpt>
      <trkpt lat="38.34433" lon="-0.78068">
        <ele>247.0</ele>
        <time>2020-11-28T10:32:53Z</time>
      </trkpt>
      <trkpt lat="38.34503" lon="-0.78054">
        <ele>246.0</ele>
        <time>2020-11-28T10:32:56Z</time>
      </trkpt>
      <trkpt lat="38.34566" lon="-0.78034">
        <ele>245.0</ele>
        <time>2020-11-28T10:32:59Z</time>
      </trkpt>
      <trkpt lat="38.34635" lon="-0.78003">
        <ele>245.0</ele>
        <time>2020-11-28T10:33:02Z</time>
      </trkpt>
      <trkpt lat="38.34700" lon="-0.77964">
        <ele>245.0</ele>
        <time>2020-11-28T10:33:06Z</time>
      </trkpt>
      <trkpt lat="38.34762" lon="-0.77917">
        <ele>242.0</ele>
        <time>2020-11-28T10:33:09Z</time>
      </trkpt>
      <trkpt lat="38.34830" lon="-0.77856">
        <ele>239.0</ele>
        <time>2020-11-28T10:33:12Z</time>
      </trkpt>
      <trkpt lat="38.34899" lon="-0.77794">
        <ele>239.0</ele>
        <time>2020-11-28T10:33:15Z</time>
      </trkpt>
      <trkpt lat="38.34974" lon="-0.77724">
        <ele>234.0</ele>
        <time>2020-11-28T10:33:18Z</time>
      </trkpt>
      <trkpt lat="38.35024" lon="-0.77677">
        <ele>232.0</ele>
        <time>2020-11-28T10:33:21Z</time>
      </trkpt>
      <trkpt lat="38.35103" lon="-0.77604">
        <ele>232.0</ele>
        <time>2020-11-28T10:33:25Z</time>
      </trkpt>
      <trkpt lat="38.35168" lon="-0.77544">
        <ele>230.0</ele>
        <time>2020-11-28T10:33:28Z</time>
      </trkpt>
      <trkpt lat="38.35228" lon="-0.77489">
        <ele>230.0</ele>
        <time>2020-11-28T10:33:31Z</time>
      </trkpt>
      <trkpt lat="38.35288" lon="-0.77433">
        <ele>230.0</ele>
        <time>2020-11-28T10:33:34Z</time>
      </trkpt>
      <trkpt lat="38.35339" lon="-0.77386">
        <ele>231.0</ele>
        <time>2020-11-28T10:33:37Z</time>
      </trkpt>
      <trkpt lat="38.35380" lon="-0.77348">
        <ele>230.0</ele>
        <time>2020-11-28T10:33:40Z</time>
      </trkpt>
      <trkpt lat="38.35413" lon="-0.77322">
        <ele>232.0</ele>
        <time>2020-11-28T10:33:43Z</time>
      </trkpt>
      <trkpt lat="38.35424" lon="-0.77306">
        <ele>233.0</ele>
        <time>2020-11-28T10:33:46Z</time>
      </trkpt>
      <trkpt lat="38.35430" lon="-0.77274">
        <ele>232.0</ele>
        <time>2020-11-28T10:33:50Z</time>
      </trkpt>
      <trkpt lat="38.35419" lon="-0.77252">
        <ele>231.0</ele>
        <time>2020-11-28T10:33:53Z</time>
      </trkpt>
      <trkpt lat="38.35392" lon="-0.77233">
        <ele>233.0</ele>
        <time>2020-11-28T10:33:56Z</time>
      </trkpt>
      <trkpt lat="38.35377" lon="-0.77223">
        <ele>236.0</ele>
        <time>2020-11-28T10:33:59Z</time>
      </trkpt>
      <trkpt lat="38.35358" lon="-0.77216">
        <ele>236.0</ele>
        <time>2020-11-28T10:34:02Z</time>
      </trkpt>
      <trkpt lat="38.35322" lon="-0.77192">
        <ele>236.0</ele>
        <time>2020-11-28T10:34:05Z</time>
      </trkpt>
      <trkpt lat="38.35274" lon="-0.77167">
        <ele>238.0</ele>
        <time>2020-11-28T10:34:08Z</time>
      </trkpt>
      <trkpt lat="38.35246" lon="-0.77153">
        <ele>239.0</ele>
        <time>2020-11-28T10:34:12Z</time>
      </trkpt>
      <trkpt lat="38.35227" lon="-0.77143">
        <ele>237.0</ele>
        <time>2020-11-28T10:34:15Z</time>
      </trkpt>
      <trkpt lat="38.35184" lon="-0.77120">
        <ele>237.0</ele>
        <time>2020-11-28T10:34:18Z</time>
      </trkpt>
      <trkpt lat="38.35130" lon="-0.77093">
        <ele>237.0</ele>
        <time>2020-11-28T10:34:21Z</time>
      </trkpt>
      <trkpt lat="38.35105" lon="-0.77081">
        <ele>235.0</ele>
        <time>2020-11-28T10:34:24Z</time>
      </trkpt>
      <trkpt lat="38.35093" lon="-0.77075">
        <ele>235.0</ele>
        <time>2020-11-28T10:34:27Z</time>
      </trkpt>
      <trkpt lat="38.35075" lon="-0.77077">
        <ele>234.0</ele>
        <time>2020-11-28T10:34:31Z</time>
      </trkpt>
      <trkpt lat="38.35092" lon="-0.77032">
        <ele>234.0</ele>
        <time>2020-11-28T10:34:35Z</time>
      </trkpt>
      <trkpt lat="38.35101" lon="-0.77005">
        <ele>232.0</ele>
        <time>2020-11-28T10:34:38Z</time>
      </trkpt>
      <trkpt lat="38.35110" lon="-0.76979">
        <ele>234.0</ele>
        <time>2020-11-28T10:34:41Z</time>
      </trkpt>
      <trkpt lat="38.35122" lon="-0.76944">
        <ele>232.0</ele>
        <time>2020-11-28T10:34:44Z</time>
      </trkpt>
      <trkpt lat="38.35140" lon="-0.76889">
        <ele>231.0</ele>
        <time>2020-11-28T10:34:47Z</time>
      </trkpt>
      <trkpt lat="38.35153" lon="-0.76850">
        <ele>228.0</ele>
        <time>2020-11-28T10:34:50Z</time>
      </trkpt>
      <trkpt lat="38.35166" lon="-0.76820">
        <ele>226.0</ele>
        <time>2020-11-28T10:34:53Z</time>
      </trkpt>
      <trkpt lat="38.35190" lon="-0.76779">
        <ele>224.0</ele>
        <time>2020-11-28T10:34:56Z</time>
      </trkpt>
      <trkpt lat="38.35203" lon="-0.76753">
        <ele>224.0</ele>
        <time>2020-11-28T10:35:00Z</time>
      </trkpt>
      <trkpt lat="38.35203" lon="-0.76724">
        <ele>223.0</ele>
        <time>2020-11-28T10:35:03Z</time>
      </trkpt>
      <trkpt lat="38.35187" lon="-0.76696">
        <ele>222.0</ele>
        <time>2020-11-28T10:35:06Z</time>
      </trkpt>
      <trkpt lat="38.35167" lon="-0.76682">
        <ele>221.0</ele>
        <time>2020-11-28T10:35:09Z</time>
      </trkpt>
      <trkpt lat="38.35150" lon="-0.76678">
        <ele>221.0</ele>
        <time>2020-11-28T10:35:12Z</time>
      </trkpt>
      <trkpt lat="38.35135" lon="-0.76676">
        <ele>220.0</ele>
        <time>2020-11-28T10:35:15Z</time>
      </trkpt>
      <trkpt lat="38.35127" lon="-0.76655">
        <ele>220.0</ele>
        <time>2020-11-28T10:35:18Z</time>
      </trkpt>
      <trkpt lat="38.35166" lon="-0.76623">
        <ele>219.0</ele>
        <time>2020-11-28T10:35:22Z</time>
      </trkpt>
      <trkpt lat="38.35203" lon="-0.76570">
        <ele>219.0</ele>
        <time>2020-11-28T10:35:25Z</time>
      </trkpt>
      <trkpt lat="38.35243" lon="-0.76505">
        <ele>220.0</ele>
        <time>2020-11-28T10:35:28Z</time>
      </trkpt>
      <trkpt lat="38.35288" lon="-0.76432">
        <ele>220.0</ele>
        <time>2020-11-28T10:35:31Z</time>
      </trkpt>
      <trkpt lat="38.35336" lon="-0.76362">
        <ele>219.0</ele>
        <time>2020-11-28T10:35:34Z</time>
      </trkpt>
      <trkpt lat="38.35390" lon="-0.76280">
        <ele>218.0</ele>
        <time>2020-11-28T10:35:37Z</time>
      </trkpt>
      <trkpt lat="38.35436" lon="-0.76211">
        <ele>217.0</ele>
        <time>2020-11-28T10:35:40Z</time>
      </trkpt>
      <trkpt lat="38.35487" lon="-0.76136">
        <ele>215.0</ele>
        <time>2020-11-28T10:35:44Z</time>
      </trkpt>
      <trkpt lat="38.35538" lon="-0.76058">
        <ele>211.0</ele>
        <time>2020-11-28T10:35:47Z</time>
      </trkpt>
      <trkpt lat="38.35580" lon="-0.75994">
        <ele>210.0</ele>
        <time>2020-11-28T10:35:50Z</time>
      </trkpt>
      <trkpt lat="38.35631" lon="-0.75942">
        <ele>208.0</ele>
        <time>2020-11-28T10:35:53Z</time>
      </trkpt>
      <trkpt lat="38.35687" lon="-0.75890">
        <ele>206.0</ele>
        <time>2020-11-28T10:35:56Z</time>
      </trkpt>
      <trkpt lat="38.35740" lon="-0.75841">
        <ele>206.0</ele>
        <time>2020-11-28T10:35:59Z</time>
      </trkpt>
      <trkpt lat="38.35781" lon="-0.75794">
        <ele>203.0</ele>
        <time>2020-11-28T10:36:02Z</time>
      </trkpt>
      <trkpt lat="38.35831" lon="-0.75723">
        <ele>203.0</ele>
        <time>2020-11-28T10:36:06Z</time>
      </trkpt>
      <trkpt lat="38.35877" lon="-0.75660">
        <ele>202.0</ele>
        <time>2020-11-28T10:36:09Z</time>
      </trkpt>
      <trkpt lat="38.35916" lon="-0.75591">
        <ele>201.0</ele>
        <time>2020-11-28T10:36:12Z</time>
      </trkpt>
      <trkpt lat="38.35943" lon="-0.75538">
        <ele>203.0</ele>
        <time>2020-11-28T10:36:15Z</time>
      </trkpt>
      <trkpt lat="38.35961" lon="-0.75470">
        <ele>203.0</ele>
        <time>2020-11-28T10:36:18Z</time>
      </trkpt>
      <trkpt lat="38.35981" lon="-0.75382">
        <ele>202.0</ele>
        <time>2020-11-28T10:36:22Z</time>
      </trkpt>
      <trkpt lat="38.35995" lon="-0.75317">
        <ele>199.0</ele>
        <time>2020-11-28T10:36:25Z</time>
      </trkpt>
      <trkpt lat="38.36032" lon="-0.75248">
        <ele>197.0</ele>
        <time>2020-11-28T10:36:28Z</time>
      </trkpt>
      <trkpt lat="38.36073" lon="-0.75174">
        <ele>203.0</ele>
        <time>2020-11-28T10:36:31Z</time>
      </trkpt>
      <trkpt lat="38.36109" lon="-0.75108">
        <ele>206.0</ele>
        <time>2020-11-28T10:36:34Z</time>
      </trkpt>
      <trkpt lat="38.36140" lon="-0.75040">
        <ele>205.0</ele>
        <time>2020-11-28T10:36:38Z</time>
      </trkpt>
      <trkpt lat="38.36180" lon="-0.74948">
        <ele>205.0</ele>
        <time>2020-11-28T10:36:41Z</time>
      </trkpt>
      <trkpt lat="38.36214" lon="-0.74868">
        <ele>206.0</ele>
        <time>2020-11-28T10:36:44Z</time>
      </trkpt>
      <trkpt lat="38.36251" lon="-0.74783">
        <ele>208.0</ele>
        <time>2020-11-28T10:36:47Z</time>
      </trkpt>
      <trkpt lat="38.36283" lon="-0.74709">
        <ele>210.0</ele>
        <time>2020-11-28T10:36:50Z</time>
      </trkpt>
      <trkpt lat="38.36309" lon="-0.74648">
        <ele>211.0</ele>
        <time>2020-11-28T10:36:53Z</time>
      </trkpt>
      <trkpt lat="38.36339" lon="-0.74599">
        <ele>211.0</ele>
        <time>2020-11-28T10:36:56Z</time>
      </trkpt>
      <trkpt lat="38.36385" lon="-0.74545">
        <ele>213.0</ele>
        <time>2020-11-28T10:37:00Z</time>
      </trkpt>
      <trkpt lat="38.36434" lon="-0.74491">
        <ele>214.0</ele>
        <time>2020-11-28T10:37:03Z</time>
      </trkpt>
      <trkpt lat="38.36471" lon="-0.74443">
        <ele>211.0</ele>
        <time>2020-11-28T10:37:06Z</time>
      </trkpt>
      <trkpt lat="38.36512" lon="-0.74376">
        <ele>210.0</ele>
        <time>2020-11-28T10:37:09Z</time>
      </trkpt>
      <trkpt lat="38.36554" lon="-0.74290">
        <ele>211.0</ele>
        <time>2020-11-28T10:37:12Z</time>
      </trkpt>
      <trkpt lat="38.36588" lon="-0.74228">
        <ele>211.0</ele>
        <time>2020-11-28T10:37:15Z</time>
      </trkpt>
      <trkpt lat="38.36620" lon="-0.74187">
        <ele>211.0</ele>
        <time>2020-11-28T10:37:18Z</time>
      </trkpt>
      <trkpt lat="38.36675" lon="-0.74138">
        <ele>209.0</ele>
        <time>2020-11-28T10:37:22Z</time>
      </trkpt>
      <trkpt lat="38.36728" lon="-0.74090">
        <ele>207.0</ele>
        <time>2020-11-28T10:37:25Z</time>
      </trkpt>
      <trkpt lat="38.36778" lon="-0.74041">
        <ele>206.0</ele>
        <time>2020-11-28T10:37:28Z</time>
      </trkpt>
      <trkpt lat="38.36832" lon="-0.73971">
        <ele>206.0</ele>
        <time>2020-11-28T10:37:31Z</time>
      </trkpt>
      <trkpt lat="38.36881" lon="-0.73908">
        <ele>205.0</ele>
        <time>2020-11-28T10:37:34Z</time>
      </trkpt>
      <trkpt lat="38.36934" lon="-0.73832">
        <ele>204.0</ele>
        <time>2020-11-28T10:37:38Z</time>
      </trkpt>
      <trkpt lat="38.36991" lon="-0.73745">
        <ele>204.0</ele>
        <time>2020-11-28T10:37:41Z</time>
      </trkpt>
      <trkpt lat="38.37040" lon="-0.73670">
        <ele>205.0</ele>
        <time>2020-11-28T10:37:44Z</time>
      </trkpt>
      <trkpt lat="38.37082" lon="-0.73609">
        <ele>206.0</ele>
        <time>2020-11-28T10:37:47Z</time>
      </trkpt>
      <trkpt lat="38.37120" lon="-0.73561">
        <ele>206.0</ele>
        <time>2020-11-28T10:37:50Z</time>
      </trkpt>
      <trkpt lat="38.37165" lon="-0.73523">
        <ele>207.0</ele>
        <time>2020-11-28T10:37:54Z</time>
      </trkpt>
      <trkpt lat="38.37221" lon="-0.73494">
        <ele>205.0</ele>
        <time>2020-11-28T10:37:57Z</time>
      </trkpt>
      <trkpt lat="38.37274" lon="-0.73473">
        <ele>206.0</ele>
        <time>2020-11-28T10:38:00Z</time>
      </trkpt>
      <trkpt lat="38.37322" lon="-0.73455">
        <ele>206.0</ele>
        <time>2020-11-28T10:38:03Z</time>
      </trkpt>
      <trkpt lat="38.37371" lon="-0.73435">
        <ele>207.0</ele>
        <time>2020-11-28T10:38:06Z</time>
      </trkpt>
      <trkpt lat="38.37418" lon="-0.73415">
        <ele>207.0</ele>
        <time>2020-11-28T10:38:09Z</time>
      </trkpt>
      <trkpt lat="38.37463" lon="-0.73396">
        <ele>207.0</ele>
        <time>2020-11-28T10:38:13Z</time>
      </trkpt>
      <trkpt lat="38.37509" lon="-0.73371">
        <ele>205.0</ele>
        <time>2020-11-28T10:38:16Z</time>
      </trkpt>
      <trkpt lat="38.37561" lon="-0.73339">
        <ele>206.0</ele>
        <time>2020-11-28T10:38:19Z</time>
      </trkpt>
      <trkpt lat="38.37606" lon="-0.73314">
        <ele>206.0</ele>
        <time>2020-11-28T10:38:22Z</time>
      </trkpt>
      <trkpt lat="38.37653" lon="-0.73294">
        <ele>206.0</ele>
        <time>2020-11-28T10:38:25Z</time>
      </trkpt>
      <trkpt lat="38.37697" lon="-0.73274">
        <ele>207.0</ele>
        <time>2020-11-28T10:38:28Z</time>
      </trkpt>
      <trkpt lat="38.37730" lon="-0.73259">
        <ele>205.0</ele>
        <time>2020-11-28T10:38:32Z</time>
      </trkpt>
      <trkpt lat="38.37756" lon="-0.73247">
        <ele>205.0</ele>
        <time>2020-11-28T10:38:35Z</time>
      </trkpt>
      <trkpt lat="38.37772" lon="-0.73236">
        <ele>206.0</ele>
        <time>2020-11-28T10:38:38Z</time>
      </trkpt>
      <trkpt lat="38.37785" lon="-0.73217">
        <ele>210.0</ele>
        <time>2020-11-28T10:38:41Z</time>
      </trkpt>
      <trkpt lat="38.37808" lon="-0.73226">
        <ele>209.0</ele>
        <time>2020-11-28T10:38:44Z</time>
      </trkpt>
      <trkpt lat="38.37835" lon="-0.73212">
        <ele>213.0</ele>
        <time>2020-11-28T10:38:47Z</time>
      </trkpt>
      <trkpt lat="38.37861" lon="-0.73202">
        <ele>214.0</ele>
        <time>2020-11-28T10:38:51Z</time>
      </trkpt>
      <trkpt lat="38.37888" lon="-0.73191">
        <ele>218.0</ele>
        <time>2020-11-28T10:38:54Z</time>
      </trkpt>
      <trkpt lat="38.37910" lon="-0.73183">
        <ele>217.0</ele>
        <time>2020-11-28T10:38:57Z</time>
      </trkpt>
      <trkpt lat="38.37926" lon="-0.73176">
        <ele>217.0</ele>
        <time>2020-11-28T10:39:00Z</time>
      </trkpt>
      <trkpt lat="38.37936" lon="-0.73172">
        <ele>216.0</ele>
        <time>2020-11-28T10:39:03Z</time>
      </trkpt>
      <trkpt lat="38.37952" lon="-0.73164">
        <ele>217.0</ele>
        <time>2020-11-28T10:39:33Z</time>
      </trkpt>
      <trkpt lat="38.37970" lon="-0.73151">
        <ele>218.0</ele>
        <time>2020-11-28T10:39:36Z</time>
      </trkpt>
      <trkpt lat="38.37987" lon="-0.73132">
        <ele>218.0</ele>
        <time>2020-11-28T10:39:39Z</time>
      </trkpt>
      <trkpt lat="38.38004" lon="-0.73113">
        <ele>218.0</ele>
        <time>2020-11-28T10:39:42Z</time>
      </trkpt>
      <trkpt lat="38.38024" lon="-0.73091">
        <ele>218.0</ele>
        <time>2020-11-28T10:39:45Z</time>
      </trkpt>
      <trkpt lat="38.38042" lon="-0.73071">
        <ele>219.0</ele>
        <time>2020-11-28T10:39:49Z</time>
      </trkpt>
      <trkpt lat="38.38049" lon="-0.73062">
        <ele>218.0</ele>
        <time>2020-11-28T10:39:53Z</time>
      </trkpt>
      <trkpt lat="38.38060" lon="-0.73046">
        <ele>218.0</ele>
        <time>2020-11-28T10:39:56Z</time>
      </trkpt>
      <trkpt lat="38.38067" lon="-0.73033">
        <ele>218.0</ele>
        <time>2020-11-28T10:39:59Z</time>
      </trkpt>
      <trkpt lat="38.38073" lon="-0.73020">
        <ele>218.0</ele>
        <time>2020-11-28T10:40:03Z</time>
      </trkpt>
      <trkpt lat="38.38074" lon="-0.72994">
        <ele>220.0</ele>
        <time>2020-11-28T10:40:06Z</time>
      </trkpt>
      <trkpt lat="38.38071" lon="-0.72972">
        <ele>220.0</ele>
        <time>2020-11-28T10:40:09Z</time>
      </trkpt>
      <trkpt lat="38.38074" lon="-0.72942">
        <ele>219.0</ele>
        <time>2020-11-28T10:40:12Z</time>
      </trkpt>
      <trkpt lat="38.38094" lon="-0.72902">
        <ele>221.0</ele>
        <time>2020-11-28T10:40:16Z</time>
      </trkpt>
      <trkpt lat="38.38109" lon="-0.72877">
        <ele>223.0</ele>
        <time>2020-11-28T10:40:19Z</time>
      </trkpt>
      <trkpt lat="38.38124" lon="-0.72851">
        <ele>222.0</ele>
        <time>2020-11-28T10:40:22Z</time>
      </trkpt>
      <trkpt lat="38.38136" lon="-0.72808">
        <ele>222.0</ele>
        <time>2020-11-28T10:40:25Z</time>
      </trkpt>
      <trkpt lat="38.38146" lon="-0.72761">
        <ele>222.0</ele>
        <time>2020-11-28T10:40:28Z</time>
      </trkpt>
      <trkpt lat="38.38154" lon="-0.72716">
        <ele>222.0</ele>
        <time>2020-11-28T10:40:31Z</time>
      </trkpt>
      <trkpt lat="38.38161" lon="-0.72674">
        <ele>225.0</ele>
        <time>2020-11-28T10:40:34Z</time>
      </trkpt>
      <trkpt lat="38.38173" lon="-0.72626">
        <ele>224.0</ele>
        <time>2020-11-28T10:40:38Z</time>
      </trkpt>
      <trkpt lat="38.38185" lon="-0.72585">
        <ele>226.0</ele>
        <time>2020-11-28T10:40:41Z</time>
      </trkpt>
      <trkpt lat="38.38192" lon="-0.72559">
        <ele>226.0</ele>
        <time>2020-11-28T10:40:44Z</time>
      </trkpt>
      <trkpt lat="38.38186" lon="-0.72535">
        <ele>228.0</ele>
        <time>2020-11-28T10:40:47Z</time>
      </trkpt>
      <trkpt lat="38.38202" lon="-0.72516">
        <ele>230.0</ele>
        <time>2020-11-28T10:40:50Z</time>
      </trkpt>
      <trkpt lat="38.38198" lon="-0.72470">
        <ele>230.0</ele>
        <time>2020-11-28T10:40:53Z</time>
      </trkpt>
      <trkpt lat="38.38192" lon="-0.72437">
        <ele>229.0</ele>
        <time>2020-11-28T10:40:56Z</time>
      </trkpt>
      <trkpt lat="38.38183" lon="-0.72399">
        <ele>229.0</ele>
        <time>2020-11-28T10:40:59Z</time>
      </trkpt>
      <trkpt lat="38.38180" lon="-0.72382">
        <ele>227.0</ele>
        <time>2020-11-28T10:41:02Z</time>
      </trkpt>
      <trkpt lat="38.38167" lon="-0.72323">
        <ele>228.0</ele>
        <time>2020-11-28T10:41:05Z</time>
      </trkpt>
      <trkpt lat="38.38155" lon="-0.72271">
        <ele>228.0</ele>
        <time>2020-11-28T10:41:09Z</time>
      </trkpt>
      <trkpt lat="38.38148" lon="-0.72238">
        <ele>226.0</ele>
        <time>2020-11-28T10:41:12Z</time>
      </trkpt>
      <trkpt lat="38.38144" lon="-0.72208">
        <ele>224.0</ele>
        <time>2020-11-28T10:41:15Z</time>
      </trkpt>
      <trkpt lat="38.38121" lon="-0.72148">
        <ele>223.0</ele>
        <time>2020-11-28T10:41:18Z</time>
      </trkpt>
      <trkpt lat="38.38111" lon="-0.72116">
        <ele>221.0</ele>
        <time>2020-11-28T10:41:21Z</time>
      </trkpt>
      <trkpt lat="38.38108" lon="-0.72097">
        <ele>222.0</ele>
        <time>2020-11-28T10:41:24Z</time>
      </trkpt>
      <trkpt lat="38.38106" lon="-0.72016">
        <ele>222.0</ele>
        <time>2020-11-28T10:41:27Z</time>
      </trkpt>
      <trkpt lat="38.38106" lon="-0.71974">
        <ele>219.0</ele>
        <time>2020-11-28T10:41:30Z</time>
      </trkpt>
      <trkpt lat="38.38105" lon="-0.71935">
        <ele>217.0</ele>
        <time>2020-11-28T10:41:33Z</time>
      </trkpt>
      <trkpt lat="38.38106" lon="-0.71888">
        <ele>216.0</ele>
        <time>2020-11-28T10:41:37Z</time>
      </trkpt>
      <trkpt lat="38.38105" lon="-0.71843">
        <ele>217.0</ele>
        <time>2020-11-28T10:41:40Z</time>
      </trkpt>
      <trkpt lat="38.38105" lon="-0.71792">
        <ele>216.0</ele>
        <time>2020-11-28T10:41:43Z</time>
      </trkpt>
      <trkpt lat="38.38104" lon="-0.71759">
        <ele>218.0</ele>
        <time>2020-11-28T10:41:46Z</time>
      </trkpt>
      <trkpt lat="38.38105" lon="-0.71699">
        <ele>216.0</ele>
        <time>2020-11-28T10:41:49Z</time>
      </trkpt>
      <trkpt lat="38.38107" lon="-0.71647">
        <ele>215.0</ele>
        <time>2020-11-28T10:41:53Z</time>
      </trkpt>
      <trkpt lat="38.38108" lon="-0.71616">
        <ele>216.0</ele>
        <time>2020-11-28T10:41:56Z</time>
      </trkpt>
      <trkpt lat="38.38092" lon="-0.71595">
        <ele>216.0</ele>
        <time>2020-11-28T10:41:59Z</time>
      </trkpt>
      <trkpt lat="38.38057" lon="-0.71570">
        <ele>215.0</ele>
        <time>2020-11-28T10:42:02Z</time>
      </trkpt>
      <trkpt lat="38.38027" lon="-0.71546">
        <ele>215.0</ele>
        <time>2020-11-28T10:42:05Z</time>
      </trkpt>
      <trkpt lat="38.38011" lon="-0.71522">
        <ele>214.0</ele>
        <time>2020-11-28T10:42:08Z</time>
      </trkpt>
      <trkpt lat="38.38008" lon="-0.71463">
        <ele>212.0</ele>
        <time>2020-11-28T10:42:11Z</time>
      </trkpt>
      <trkpt lat="38.38006" lon="-0.71421">
        <ele>214.0</ele>
        <time>2020-11-28T10:42:15Z</time>
      </trkpt>
      <trkpt lat="38.38001" lon="-0.71384">
        <ele>212.0</ele>
        <time>2020-11-28T10:42:18Z</time>
      </trkpt>
      <trkpt lat="38.37980" lon="-0.71334">
        <ele>212.0</ele>
        <time>2020-11-28T10:42:21Z</time>
      </trkpt>
      <trkpt lat="38.37959" lon="-0.71274">
        <ele>214.0</ele>
        <time>2020-11-28T10:42:24Z</time>
      </trkpt>
      <trkpt lat="38.37942" lon="-0.71210">
        <ele>215.0</ele>
        <time>2020-11-28T10:42:27Z</time>
      </trkpt>
      <trkpt lat="38.37937" lon="-0.71155">
        <ele>219.0</ele>
        <time>2020-11-28T10:42:30Z</time>
      </trkpt>
      <trkpt lat="38.37929" lon="-0.71098">
        <ele>218.0</ele>
        <time>2020-11-28T10:42:33Z</time>
      </trkpt>
      <trkpt lat="38.37920" lon="-0.71040">
        <ele>221.0</ele>
        <time>2020-11-28T10:42:37Z</time>
      </trkpt>
      <trkpt lat="38.37914" lon="-0.70995">
        <ele>222.0</ele>
        <time>2020-11-28T10:42:40Z</time>
      </trkpt>
      <trkpt lat="38.37911" lon="-0.70959">
        <ele>222.0</ele>
        <time>2020-11-28T10:42:43Z</time>
      </trkpt>
      <trkpt lat="38.37919" lon="-0.70926">
        <ele>221.0</ele>
        <time>2020-11-28T10:42:46Z</time>
      </trkpt>
      <trkpt lat="38.37940" lon="-0.70880">
        <ele>221.0</ele>
        <time>2020-11-28T10:42:49Z</time>
      </trkpt>
      <trkpt lat="38.37956" lon="-0.70847">
        <ele>221.0</ele>
        <time>2020-11-28T10:42:52Z</time>
      </trkpt>
      <trkpt lat="38.37948" lon="-0.70831">
        <ele>221.0</ele>
        <time>2020-11-28T10:42:59Z</time>
      </trkpt>
      <trkpt lat="38.37932" lon="-0.70818">
        <ele>221.0</ele>
        <time>2020-11-28T10:43:02Z</time>
      </trkpt>
      <trkpt lat="38.37927" lon="-0.70796">
        <ele>222.0</ele>
        <time>2020-11-28T10:43:05Z</time>
      </trkpt>
      <trkpt lat="38.37929" lon="-0.70750">
        <ele>224.0</ele>
        <time>2020-11-28T10:43:08Z</time>
      </trkpt>
      <trkpt lat="38.37915" lon="-0.70704">
        <ele>225.0</ele>
        <time>2020-11-28T10:43:12Z</time>
      </trkpt>
      <trkpt lat="38.37896" lon="-0.70644">
        <ele>226.0</ele>
        <time>2020-11-28T10:43:15Z</time>
      </trkpt>
      <trkpt lat="38.37880" lon="-0.70593">
        <ele>225.0</ele>
        <time>2020-11-28T10:43:18Z</time>
      </trkpt>
      <trkpt lat="38.37870" lon="-0.70552">
        <ele>227.0</ele>
        <time>2020-11-28T10:43:21Z</time>
      </trkpt>
      <trkpt lat="38.37864" lon="-0.70504">
        <ele>228.0</ele>
        <time>2020-11-28T10:43:24Z</time>
      </trkpt>
      <trkpt lat="38.37863" lon="-0.70446">
        <ele>229.0</ele>
        <time>2020-11-28T10:43:27Z</time>
      </trkpt>
      <trkpt lat="38.37858" lon="-0.70404">
        <ele>230.0</ele>
        <time>2020-11-28T10:43:31Z</time>
      </trkpt>
      <trkpt lat="38.37841" lon="-0.70348">
        <ele>232.0</ele>
        <time>2020-11-28T10:43:34Z</time>
      </trkpt>
      <trkpt lat="38.37821" lon="-0.70282">
        <ele>234.0</ele>
        <time>2020-11-28T10:43:37Z</time>
      </trkpt>
      <trkpt lat="38.37802" lon="-0.70226">
        <ele>235.0</ele>
        <time>2020-11-28T10:43:40Z</time>
      </trkpt>
      <trkpt lat="38.37784" lon="-0.70193">
        <ele>236.0</ele>
        <time>2020-11-28T10:43:43Z</time>
      </trkpt>
      <trkpt lat="38.37767" lon="-0.70168">
        <ele>235.0</ele>
        <time>2020-11-28T10:43:46Z</time>
      </trkpt>
      <trkpt lat="38.37759" lon="-0.70122">
        <ele>236.0</ele>
        <time>2020-11-28T10:43:49Z</time>
      </trkpt>
      <trkpt lat="38.37752" lon="-0.70069">
        <ele>243.0</ele>
        <time>2020-11-28T10:43:53Z</time>
      </trkpt>
      <trkpt lat="38.37737" lon="-0.70016">
        <ele>246.0</ele>
        <time>2020-11-28T10:43:56Z</time>
      </trkpt>
      <trkpt lat="38.37715" lon="-0.69966">
        <ele>249.0</ele>
        <time>2020-11-28T10:43:59Z</time>
      </trkpt>
      <trkpt lat="38.37697" lon="-0.69924">
        <ele>249.0</ele>
        <time>2020-11-28T10:44:02Z</time>
      </trkpt>
      <trkpt lat="38.37676" lon="-0.69878">
        <ele>251.0</ele>
        <time>2020-11-28T10:44:06Z</time>
      </trkpt>
      <trkpt lat="38.37654" lon="-0.69826">
        <ele>248.0</ele>
        <time>2020-11-28T10:44:09Z</time>
      </trkpt>
      <trkpt lat="38.37634" lon="-0.69768">
        <ele>246.0</ele>
        <time>2020-11-28T10:44:12Z</time>
      </trkpt>
      <trkpt lat="38.37618" lon="-0.69708">
        <ele>247.0</ele>
        <time>2020-11-28T10:44:15Z</time>
      </trkpt>
      <trkpt lat="38.37601" lon="-0.69647">
        <ele>248.0</ele>
        <time>2020-11-28T10:44:18Z</time>
      </trkpt>
      <trkpt lat="38.37586" lon="-0.69591">
        <ele>249.0</ele>
        <time>2020-11-28T10:44:21Z</time>
      </trkpt>
      <trkpt lat="38.37575" lon="-0.69540">
        <ele>251.0</ele>
        <time>2020-11-28T10:44:24Z</time>
      </trkpt>
      <trkpt lat="38.37570" lon="-0.69494">
        <ele>253.0</ele>
        <time>2020-11-28T10:44:28Z</time>
      </trkpt>
      <trkpt lat="38.37577" lon="-0.69461">
        <ele>254.0</ele>
        <time>2020-11-28T10:44:31Z</time>
      </trkpt>
      <trkpt lat="38.37588" lon="-0.69420">
        <ele>255.0</ele>
        <time>2020-11-28T10:44:34Z</time>
      </trkpt>
      <trkpt lat="38.37597" lon="-0.69384">
        <ele>254.0</ele>
        <time>2020-11-28T10:44:37Z</time>
      </trkpt>
      <trkpt lat="38.37606" lon="-0.69348">
        <ele>255.0</ele>
        <time>2020-11-28T10:44:40Z</time>
      </trkpt>
      <trkpt lat="38.37614" lon="-0.69316">
        <ele>253.0</ele>
        <time>2020-11-28T10:44:44Z</time>
      </trkpt>
      <trkpt lat="38.37620" lon="-0.69292">
        <ele>255.0</ele>
        <time>2020-11-28T10:44:47Z</time>
      </trkpt>
      <trkpt lat="38.37605" lon="-0.69272">
        <ele>255.0</ele>
        <time>2020-11-28T10:44:50Z</time>
      </trkpt>
      <trkpt lat="38.37604" lon="-0.69231">
        <ele>257.0</ele>
        <time>2020-11-28T10:44:53Z</time>
      </trkpt>
      <trkpt lat="38.37605" lon="-0.69189">
        <ele>259.0</ele>
        <time>2020-11-28T10:44:56Z</time>
      </trkpt>
      <trkpt lat="38.37607" lon="-0.69128">
        <ele>259.0</ele>
        <time>2020-11-28T10:44:59Z</time>
      </trkpt>
      <trkpt lat="38.37609" lon="-0.69082">
        <ele>258.0</ele>
        <time>2020-11-28T10:45:02Z</time>
      </trkpt>
      <trkpt lat="38.37611" lon="-0.69044">
        <ele>259.0</ele>
        <time>2020-11-28T10:45:06Z</time>
      </trkpt>
      <trkpt lat="38.37614" lon="-0.69000">
        <ele>262.0</ele>
        <time>2020-11-28T10:45:09Z</time>
      </trkpt>
      <trkpt lat="38.37616" lon="-0.68964">
        <ele>263.0</ele>
        <time>2020-11-28T10:45:12Z</time>
      </trkpt>
      <trkpt lat="38.37618" lon="-0.68937">
        <ele>263.0</ele>
        <time>2020-11-28T10:45:15Z</time>
      </trkpt>
      <trkpt lat="38.37620" lon="-0.68921">
        <ele>263.0</ele>
        <time>2020-11-28T10:45:18Z</time>
      </trkpt>
      <trkpt lat="38.37595" lon="-0.68907">
        <ele>266.0</ele>
        <time>2020-11-28T10:45:44Z</time>
      </trkpt>
      <trkpt lat="38.37576" lon="-0.68915">
        <ele>266.0</ele>
        <time>2020-11-28T10:45:47Z</time>
      </trkpt>
      <trkpt lat="38.37527" lon="-0.68937">
        <ele>266.0</ele>
        <time>2020-11-28T10:45:51Z</time>
      </trkpt>
      <trkpt lat="38.37493" lon="-0.68943">
        <ele>265.0</ele>
        <time>2020-11-28T10:45:54Z</time>
      </trkpt>
      <trkpt lat="38.37464" lon="-0.68946">
        <ele>264.0</ele>
        <time>2020-11-28T10:45:57Z</time>
      </trkpt>
      <trkpt lat="38.37434" lon="-0.68951">
        <ele>263.0</ele>
        <time>2020-11-28T10:46:00Z</time>
      </trkpt>
      <trkpt lat="38.37393" lon="-0.68956">
        <ele>263.0</ele>
        <time>2020-11-28T10:46:03Z</time>
      </trkpt>
      <trkpt lat="38.37350" lon="-0.68958">
        <ele>263.0</ele>
        <time>2020-11-28T10:46:06Z</time>
      </trkpt>
      <trkpt lat="38.37329" lon="-0.68956">
        <ele>261.0</ele>
        <time>2020-11-28T10:46:09Z</time>
      </trkpt>
      <trkpt lat="38.37283" lon="-0.68946">
        <ele>259.0</ele>
        <time>2020-11-28T10:46:12Z</time>
      </trkpt>
      <trkpt lat="38.37266" lon="-0.68946">
        <ele>258.0</ele>
        <time>2020-11-28T10:46:15Z</time>
      </trkpt>
      <trkpt lat="38.37255" lon="-0.68948">
        <ele>258.0</ele>
        <time>2020-11-28T10:46:18Z</time>
      </trkpt>
      <trkpt lat="38.37241" lon="-0.68954">
        <ele>258.0</ele>
        <time>2020-11-28T10:46:22Z</time>
      </trkpt>
      <trkpt lat="38.37217" lon="-0.68989">
        <ele>259.0</ele>
        <time>2020-11-28T10:46:25Z</time>
      </trkpt>
      <trkpt lat="38.37198" lon="-0.69030">
        <ele>258.0</ele>
        <time>2020-11-28T10:46:28Z</time>
      </trkpt>
      <trkpt lat="38.37177" lon="-0.69073">
        <ele>257.0</ele>
        <time>2020-11-28T10:46:31Z</time>
      </trkpt>
      <trkpt lat="38.37147" lon="-0.69119">
        <ele>256.0</ele>
        <time>2020-11-28T10:46:34Z</time>
      </trkpt>
      <trkpt lat="38.37113" lon="-0.69169">
        <ele>256.0</ele>
        <time>2020-11-28T10:46:37Z</time>
      </trkpt>
      <trkpt lat="38.37078" lon="-0.69220">
        <ele>254.0</ele>
        <time>2020-11-28T10:46:40Z</time>
      </trkpt>
      <trkpt lat="38.37049" lon="-0.69262">
        <ele>251.0</ele>
        <time>2020-11-28T10:46:43Z</time>
      </trkpt>
      <trkpt lat="38.37018" lon="-0.69306">
        <ele>250.0</ele>
        <time>2020-11-28T10:46:46Z</time>
      </trkpt>
      <trkpt lat="38.36985" lon="-0.69354">
        <ele>247.0</ele>
        <time>2020-11-28T10:46:50Z</time>
      </trkpt>
      <trkpt lat="38.36962" lon="-0.69385">
        <ele>245.0</ele>
        <time>2020-11-28T10:46:53Z</time>
      </trkpt>
      <trkpt lat="38.36909" lon="-0.69453">
        <ele>242.0</ele>
        <time>2020-11-28T10:46:56Z</time>
      </trkpt>
      <trkpt lat="38.36873" lon="-0.69498">
        <ele>238.0</ele>
        <time>2020-11-28T10:46:59Z</time>
      </trkpt>
      <trkpt lat="38.36843" lon="-0.69537">
        <ele>238.0</ele>
        <time>2020-11-28T10:47:02Z</time>
      </trkpt>
      <trkpt lat="38.36817" lon="-0.69568">
        <ele>237.0</ele>
        <time>2020-11-28T10:47:05Z</time>
      </trkpt>
      <trkpt lat="38.36796" lon="-0.69592">
        <ele>236.0</ele>
        <time>2020-11-28T10:47:08Z</time>
      </trkpt>
      <trkpt lat="38.36788" lon="-0.69611">
        <ele>236.0</ele>
        <time>2020-11-28T10:47:11Z</time>
      </trkpt>
      <trkpt lat="38.36778" lon="-0.69630">
        <ele>235.0</ele>
        <time>2020-11-28T10:47:15Z</time>
      </trkpt>
      <trkpt lat="38.36764" lon="-0.69624">
        <ele>234.0</ele>
        <time>2020-11-28T10:47:40Z</time>
      </trkpt>
      <trkpt lat="38.36769" lon="-0.69609">
        <ele>235.0</ele>
        <time>2020-11-28T10:47:43Z</time>
      </trkpt>
      <trkpt lat="38.36791" lon="-0.69598">
        <ele>234.0</ele>
        <time>2020-11-28T10:47:47Z</time>
      </trkpt>
      <trkpt lat="38.36817" lon="-0.69569">
        <ele>234.0</ele>
        <time>2020-11-28T10:47:50Z</time>
      </trkpt>
      <trkpt lat="38.36858" lon="-0.69517">
        <ele>237.0</ele>
        <time>2020-11-28T10:47:53Z</time>
      </trkpt>
      <trkpt lat="38.36901" lon="-0.69464">
        <ele>240.0</ele>
        <time>2020-11-28T10:47:56Z</time>
      </trkpt>
      <trkpt lat="38.36938" lon="-0.69416">
        <ele>243.0</ele>
        <time>2020-11-28T10:47:59Z</time>
      </trkpt>
      <trkpt lat="38.36981" lon="-0.69360">
        <ele>247.0</ele>
        <time>2020-11-28T10:48:02Z</time>
      </trkpt>
      <trkpt lat="38.37031" lon="-0.69287">
        <ele>248.0</ele>
        <time>2020-11-28T10:48:05Z</time>
      </trkpt>
      <trkpt lat="38.37080" lon="-0.69217">
        <ele>250.0</ele>
        <time>2020-11-28T10:48:09Z</time>
      </trkpt>
      <trkpt lat="38.37125" lon="-0.69152">
        <ele>251.0</ele>
        <time>2020-11-28T10:48:12Z</time>
      </trkpt>
      <trkpt lat="38.37159" lon="-0.69101">
        <ele>254.0</ele>
        <time>2020-11-28T10:48:15Z</time>
      </trkpt>
      <trkpt lat="38.37192" lon="-0.69044">
        <ele>253.0</ele>
        <time>2020-11-28T10:48:18Z</time>
      </trkpt>
      <trkpt lat="38.37219" lon="-0.68985">
        <ele>253.0</ele>
        <time>2020-11-28T10:48:21Z</time>
      </trkpt>
      <trkpt lat="38.37245" lon="-0.68952">
        <ele>253.0</ele>
        <time>2020-11-28T10:48:24Z</time>
      </trkpt>
      <trkpt lat="38.37275" lon="-0.68946">
        <ele>253.0</ele>
        <time>2020-11-28T10:48:27Z</time>
      </trkpt>
      <trkpt lat="38.37317" lon="-0.68953">
        <ele>254.0</ele>
        <time>2020-11-28T10:48:30Z</time>
      </trkpt>
      <trkpt lat="38.37367" lon="-0.68958">
        <ele>256.0</ele>
        <time>2020-11-28T10:48:33Z</time>
      </trkpt>
      <trkpt lat="38.37415" lon="-0.68953">
        <ele>259.0</ele>
        <time>2020-11-28T10:48:36Z</time>
      </trkpt>
      <trkpt lat="38.37457" lon="-0.68947">
        <ele>263.0</ele>
        <time>2020-11-28T10:48:39Z</time>
      </trkpt>
      <trkpt lat="38.37500" lon="-0.68942">
        <ele>261.0</ele>
        <time>2020-11-28T10:48:43Z</time>
      </trkpt>
      <trkpt lat="38.37544" lon="-0.68930">
        <ele>263.0</ele>
        <time>2020-11-28T10:48:46Z</time>
      </trkpt>
      <trkpt lat="38.37576" lon="-0.68916">
        <ele>262.0</ele>
        <time>2020-11-28T10:48:49Z</time>
      </trkpt>
      <trkpt lat="38.37601" lon="-0.68891">
        <ele>261.0</ele>
        <time>2020-11-28T10:48:52Z</time>
      </trkpt>
      <trkpt lat="38.37623" lon="-0.68862">
        <ele>265.0</ele>
        <time>2020-11-28T10:48:55Z</time>
      </trkpt>
      <trkpt lat="38.37646" lon="-0.68824">
        <ele>267.0</ele>
        <time>2020-11-28T10:48:58Z</time>
      </trkpt>
      <trkpt lat="38.37673" lon="-0.68780">
        <ele>272.0</ele>
        <time>2020-11-28T10:49:02Z</time>
      </trkpt>
      <trkpt lat="38.37695" lon="-0.68742">
        <ele>271.0</ele>
        <time>2020-11-28T10:49:05Z</time>
      </trkpt>
      <trkpt lat="38.37714" lon="-0.68713">
        <ele>271.0</ele>
        <time>2020-11-28T10:49:08Z</time>
      </trkpt>
      <trkpt lat="38.37743" lon="-0.68681">
        <ele>270.0</ele>
        <time>2020-11-28T10:49:11Z</time>
      </trkpt>
      <trkpt lat="38.37777" lon="-0.68661">
        <ele>268.0</ele>
        <time>2020-11-28T10:49:14Z</time>
      </trkpt>
      <trkpt lat="38.37806" lon="-0.68661">
        <ele>267.0</ele>
        <time>2020-11-28T10:49:17Z</time>
      </trkpt>
      <trkpt lat="38.37835" lon="-0.68672">
        <ele>266.0</ele>
        <time>2020-11-28T10:49:21Z</time>
      </trkpt>
      <trkpt lat="38.37870" lon="-0.68681">
        <ele>263.0</ele>
        <time>2020-11-28T10:49:24Z</time>
      </trkpt>
      <trkpt lat="38.37907" lon="-0.68671">
        <ele>264.0</ele>
        <time>2020-11-28T10:49:27Z</time>
      </trkpt>
      <trkpt lat="38.37957" lon="-0.68649">
        <ele>265.0</ele>
        <time>2020-11-28T10:49:30Z</time>
      </trkpt>
      <trkpt lat="38.37996" lon="-0.68640">
        <ele>263.0</ele>
        <time>2020-11-28T10:49:33Z</time>
      </trkpt>
      <trkpt lat="38.38040" lon="-0.68647">
        <ele>264.0</ele>
        <time>2020-11-28T10:49:36Z</time>
      </trkpt>
      <trkpt lat="38.38109" lon="-0.68666">
        <ele>264.0</ele>
        <time>2020-11-28T10:49:40Z</time>
      </trkpt>
      <trkpt lat="38.38177" lon="-0.68685">
        <ele>265.0</ele>
        <time>2020-11-28T10:49:43Z</time>
      </trkpt>
      <trkpt lat="38.38240" lon="-0.68702">
        <ele>265.0</ele>
        <time>2020-11-28T10:49:46Z</time>
      </trkpt>
      <trkpt lat="38.38307" lon="-0.68739">
        <ele>267.0</ele>
        <time>2020-11-28T10:49:49Z</time>
      </trkpt>
      <trkpt lat="38.38363" lon="-0.68801">
        <ele>268.0</ele>
        <time>2020-11-28T10:49:53Z</time>
      </trkpt>
      <trkpt lat="38.38400" lon="-0.68832">
        <ele>269.0</ele>
        <time>2020-11-28T10:49:56Z</time>
      </trkpt>
      <trkpt lat="38.38446" lon="-0.68850">
        <ele>269.0</ele>
        <time>2020-11-28T10:49:59Z</time>
      </trkpt>
      <trkpt lat="38.38511" lon="-0.68866">
        <ele>266.0</ele>
        <time>2020-11-28T10:50:02Z</time>
      </trkpt>
      <trkpt lat="38.38565" lon="-0.68879">
        <ele>264.0</ele>
        <time>2020-11-28T10:50:06Z</time>
      </trkpt>
      <trkpt lat="38.38606" lon="-0.68897">
        <ele>263.0</ele>
        <time>2020-11-28T10:50:09Z</time>
      </trkpt>
      <trkpt lat="38.38648" lon="-0.68929">
        <ele>267.0</ele>
        <time>2020-11-28T10:50:12Z</time>
      </trkpt>
      <trkpt lat="38.38691" lon="-0.68979">
        <ele>266.0</ele>
        <time>2020-11-28T10:50:15Z</time>
      </trkpt>
      <trkpt lat="38.38716" lon="-0.69018">
        <ele>264.0</ele>
        <time>2020-11-28T10:50:18Z</time>
      </trkpt>
      <trkpt lat="38.38748" lon="-0.69083">
        <ele>268.0</ele>
        <time>2020-11-28T10:50:21Z</time>
      </trkpt>
      <trkpt lat="38.38768" lon="-0.69133">
        <ele>265.0</ele>
        <time>2020-11-28T10:50:25Z</time>
      </trkpt>
      <trkpt lat="38.38795" lon="-0.69161">
        <ele>262.0</ele>
        <time>2020-11-28T10:50:28Z</time>
      </trkpt>
      <trkpt lat="38.38836" lon="-0.69177">
        <ele>261.0</ele>
        <time>2020-11-28T10:50:31Z</time>
      </trkpt>
      <trkpt lat="38.38892" lon="-0.69187">
        <ele>261.0</ele>
        <time>2020-11-28T10:50:34Z</time>
      </trkpt>
      <trkpt lat="38.38949" lon="-0.69197">
        <ele>262.0</ele>
        <time>2020-11-28T10:50:37Z</time>
      </trkpt>
      <trkpt lat="38.39005" lon="-0.69207">
        <ele>262.0</ele>
        <time>2020-11-28T10:50:40Z</time>
      </trkpt>
      <trkpt lat="38.39056" lon="-0.69217">
        <ele>259.0</ele>
        <time>2020-11-28T10:50:44Z</time>
      </trkpt>
      <trkpt lat="38.39111" lon="-0.69226">
        <ele>257.0</ele>
        <time>2020-11-28T10:50:47Z</time>
      </trkpt>
      <trkpt lat="38.39172" lon="-0.69237">
        <ele>254.0</ele>
        <time>2020-11-28T10:50:50Z</time>
      </trkpt>
      <trkpt lat="38.39220" lon="-0.69246">
        <ele>253.0</ele>
        <time>2020-11-28T10:50:53Z</time>
      </trkpt>
      <trkpt lat="38.39260" lon="-0.69253">
        <ele>249.0</ele>
        <time>2020-11-28T10:50:56Z</time>
      </trkpt>
      <trkpt lat="38.39307" lon="-0.69269">
        <ele>247.0</ele>
        <time>2020-11-28T10:51:00Z</time>
      </trkpt>
      <trkpt lat="38.39385" lon="-0.69285">
        <ele>247.0</ele>
        <time>2020-11-28T10:51:03Z</time>
      </trkpt>
      <trkpt lat="38.39464" lon="-0.69302">
        <ele>246.0</ele>
        <time>2020-11-28T10:51:06Z</time>
      </trkpt>
      <trkpt lat="38.39558" lon="-0.69320">
        <ele>244.0</ele>
        <time>2020-11-28T10:51:09Z</time>
      </trkpt>
      <trkpt lat="38.39638" lon="-0.69337">
        <ele>243.0</ele>
        <time>2020-11-28T10:51:13Z</time>
      </trkpt>
      <trkpt lat="38.39715" lon="-0.69352">
        <ele>245.0</ele>
        <time>2020-11-28T10:51:16Z</time>
      </trkpt>
      <trkpt lat="38.39791" lon="-0.69368">
        <ele>247.0</ele>
        <time>2020-11-28T10:51:19Z</time>
      </trkpt>
      <trkpt lat="38.39870" lon="-0.69384">
        <ele>248.0</ele>
        <time>2020-11-28T10:51:22Z</time>
      </trkpt>
      <trkpt lat="38.39950" lon="-0.69400">
        <ele>251.0</ele>
        <time>2020-11-28T10:51:25Z</time>
      </trkpt>
      <trkpt lat="38.40014" lon="-0.69413">
        <ele>254.0</ele>
        <time>2020-11-28T10:51:28Z</time>
      </trkpt>
      <trkpt lat="38.40070" lon="-0.69425">
        <ele>255.0</ele>
        <time>2020-11-28T10:51:31Z</time>
      </trkpt>
      <trkpt lat="38.40127" lon="-0.69437">
        <ele>256.0</ele>
        <time>2020-11-28T10:51:35Z</time>
      </trkpt>
      <trkpt lat="38.40150" lon="-0.69442">
        <ele>255.0</ele>
        <time>2020-11-28T10:51:38Z</time>
      </trkpt>
      <trkpt lat="38.40197" lon="-0.69452">
        <ele>257.0</ele>
        <time>2020-11-28T10:51:41Z</time>
      </trkpt>
      <trkpt lat="38.40240" lon="-0.69461">
        <ele>259.0</ele>
        <time>2020-11-28T10:51:44Z</time>
      </trkpt>
      <trkpt lat="38.40307" lon="-0.69475">
        <ele>261.0</ele>
        <time>2020-11-28T10:51:47Z</time>
      </trkpt>
      <trkpt lat="38.40357" lon="-0.69485">
        <ele>264.0</ele>
        <time>2020-11-28T10:51:51Z</time>
      </trkpt>
      <trkpt lat="38.40394" lon="-0.69497">
        <ele>266.0</ele>
        <time>2020-11-28T10:51:54Z</time>
      </trkpt>
      <trkpt lat="38.40420" lon="-0.69527">
        <ele>266.0</ele>
        <time>2020-11-28T10:51:57Z</time>
      </trkpt>
      <trkpt lat="38.40436" lon="-0.69578">
        <ele>266.0</ele>
        <time>2020-11-28T10:52:00Z</time>
      </trkpt>
      <trkpt lat="38.40443" lon="-0.69643">
        <ele>267.0</ele>
        <time>2020-11-28T10:52:03Z</time>
      </trkpt>
      <trkpt lat="38.40443" lon="-0.69690">
        <ele>264.0</ele>
        <time>2020-11-28T10:52:06Z</time>
      </trkpt>
      <trkpt lat="38.40441" lon="-0.69725">
        <ele>263.0</ele>
        <time>2020-11-28T10:52:10Z</time>
      </trkpt>
      <trkpt lat="38.40445" lon="-0.69748">
        <ele>262.0</ele>
        <time>2020-11-28T10:52:13Z</time>
      </trkpt>
      <trkpt lat="38.40474" lon="-0.69765">
        <ele>262.0</ele>
        <time>2020-11-28T10:52:16Z</time>
      </trkpt>
      <trkpt lat="38.40545" lon="-0.69759">
        <ele>262.0</ele>
        <time>2020-11-28T10:52:19Z</time>
      </trkpt>
      <trkpt lat="38.40610" lon="-0.69755">
        <ele>262.0</ele>
        <time>2020-11-28T10:52:22Z</time>
      </trkpt>
      <trkpt lat="38.40709" lon="-0.69750">
        <ele>266.0</ele>
        <time>2020-11-28T10:52:25Z</time>
      </trkpt>
      <trkpt lat="38.40805" lon="-0.69745">
        <ele>270.0</ele>
        <time>2020-11-28T10:52:29Z</time>
      </trkpt>
      <trkpt lat="38.40899" lon="-0.69740">
        <ele>277.0</ele>
        <time>2020-11-28T10:52:32Z</time>
      </trkpt>
      <trkpt lat="38.40972" lon="-0.69736">
        <ele>281.0</ele>
        <time>2020-11-28T10:52:35Z</time>
      </trkpt>
      <trkpt lat="38.41049" lon="-0.69730">
        <ele>285.0</ele>
        <time>2020-11-28T10:52:38Z</time>
      </trkpt>
      <trkpt lat="38.41129" lon="-0.69725">
        <ele>289.0</ele>
        <time>2020-11-28T10:52:41Z</time>
      </trkpt>
      <trkpt lat="38.41198" lon="-0.69720">
        <ele>292.0</ele>
        <time>2020-11-28T10:52:44Z</time>
      </trkpt>
      <trkpt lat="38.41264" lon="-0.69715">
        <ele>294.0</ele>
        <time>2020-11-28T10:52:47Z</time>
      </trkpt>
      <trkpt lat="38.41318" lon="-0.69711">
        <ele>297.0</ele>
        <time>2020-11-28T10:52:50Z</time>
      </trkpt>
      <trkpt lat="38.41366" lon="-0.69707">
        <ele>300.0</ele>
        <time>2020-11-28T10:52:54Z</time>
      </trkpt>
      <trkpt lat="38.41419" lon="-0.69703">
        <ele>300.0</ele>
        <time>2020-11-28T10:52:57Z</time>
      </trkpt>
      <trkpt lat="38.41485" lon="-0.69698">
        <ele>301.0</ele>
        <time>2020-11-28T10:53:00Z</time>
      </trkpt>
      <trkpt lat="38.41529" lon="-0.69700">
        <ele>302.0</ele>
        <time>2020-11-28T10:53:03Z</time>
      </trkpt>
      <trkpt lat="38.41559" lon="-0.69707">
        <ele>304.0</ele>
        <time>2020-11-28T10:53:06Z</time>
      </trkpt>
      <trkpt lat="38.41575" lon="-0.69706">
        <ele>302.0</ele>
        <time>2020-11-28T10:53:09Z</time>
      </trkpt>
      <trkpt lat="38.41594" lon="-0.69701">
        <ele>304.0</ele>
        <time>2020-11-28T10:53:13Z</time>
      </trkpt>
      <trkpt lat="38.41621" lon="-0.69633">
        <ele>302.0</ele>
        <time>2020-11-28T10:53:16Z</time>
      </trkpt>
      <trkpt lat="38.41650" lon="-0.69558">
        <ele>304.0</ele>
        <time>2020-11-28T10:53:19Z</time>
      </trkpt>
      <trkpt lat="38.41680" lon="-0.69481">
        <ele>307.0</ele>
        <time>2020-11-28T10:53:22Z</time>
      </trkpt>
      <trkpt lat="38.41706" lon="-0.69411">
        <ele>311.0</ele>
        <time>2020-11-28T10:53:25Z</time>
      </trkpt>
      <trkpt lat="38.41732" lon="-0.69343">
        <ele>311.0</ele>
        <time>2020-11-28T10:53:28Z</time>
      </trkpt>
      <trkpt lat="38.41757" lon="-0.69287">
        <ele>311.0</ele>
        <time>2020-11-28T10:53:32Z</time>
      </trkpt>
      <trkpt lat="38.41793" lon="-0.69229">
        <ele>312.0</ele>
        <time>2020-11-28T10:53:35Z</time>
      </trkpt>
      <trkpt lat="38.41832" lon="-0.69171">
        <ele>316.0</ele>
        <time>2020-11-28T10:53:38Z</time>
      </trkpt>
      <trkpt lat="38.41863" lon="-0.69115">
        <ele>317.0</ele>
        <time>2020-11-28T10:53:41Z</time>
      </trkpt>
      <trkpt lat="38.41904" lon="-0.69040">
        <ele>318.0</ele>
        <time>2020-11-28T10:53:44Z</time>
      </trkpt>
      <trkpt lat="38.41940" lon="-0.68976">
        <ele>318.0</ele>
        <time>2020-11-28T10:53:48Z</time>
      </trkpt>
      <trkpt lat="38.41968" lon="-0.68923">
        <ele>314.0</ele>
        <time>2020-11-28T10:53:51Z</time>
      </trkpt>
      <trkpt lat="38.41990" lon="-0.68858">
        <ele>316.0</ele>
        <time>2020-11-28T10:53:54Z</time>
      </trkpt>
      <trkpt lat="38.42018" lon="-0.68770">
        <ele>314.0</ele>
        <time>2020-11-28T10:53:57Z</time>
      </trkpt>
      <trkpt lat="38.42046" lon="-0.68678">
        <ele>314.0</ele>
        <time>2020-11-28T10:54:00Z</time>
      </trkpt>
      <trkpt lat="38.42073" lon="-0.68593">
        <ele>311.0</ele>
        <time>2020-11-28T10:54:03Z</time>
      </trkpt>
      <trkpt lat="38.42100" lon="-0.68506">
        <ele>310.0</ele>
        <time>2020-11-28T10:54:07Z</time>
      </trkpt>
      <trkpt lat="38.42129" lon="-0.68414">
        <ele>308.0</ele>
        <time>2020-11-28T10:54:10Z</time>
      </trkpt>
      <trkpt lat="38.42160" lon="-0.68312">
        <ele>306.0</ele>
        <time>2020-11-28T10:54:13Z</time>
      </trkpt>
      <trkpt lat="38.42193" lon="-0.68209">
        <ele>306.0</ele>
        <time>2020-11-28T10:54:16Z</time>
      </trkpt>
      <trkpt lat="38.42222" lon="-0.68115">
        <ele>308.0</ele>
        <time>2020-11-28T10:54:19Z</time>
      </trkpt>
      <trkpt lat="38.42261" lon="-0.68001">
        <ele>309.0</ele>
        <time>2020-11-28T10:54:22Z</time>
      </trkpt>
      <trkpt lat="38.42276" lon="-0.67953">
        <ele>309.0</ele>
        <time>2020-11-28T10:54:26Z</time>
      </trkpt>
      <trkpt lat="38.42298" lon="-0.67896">
        <ele>311.0</ele>
        <time>2020-11-28T10:54:29Z</time>
      </trkpt>
      <trkpt lat="38.42335" lon="-0.67817">
        <ele>310.0</ele>
        <time>2020-11-28T10:54:32Z</time>
      </trkpt>
      <trkpt lat="38.42377" lon="-0.67732">
        <ele>309.0</ele>
        <time>2020-11-28T10:54:35Z</time>
      </trkpt>
      <trkpt lat="38.42421" lon="-0.67644">
        <ele>310.0</ele>
        <time>2020-11-28T10:54:38Z</time>
      </trkpt>
      <trkpt lat="38.42457" lon="-0.67573">
        <ele>310.0</ele>
        <time>2020-11-28T10:54:41Z</time>
      </trkpt>
      <trkpt lat="38.42486" lon="-0.67511">
        <ele>309.0</ele>
        <time>2020-11-28T10:54:45Z</time>
      </trkpt>
      <trkpt lat="38.42505" lon="-0.67447">
        <ele>310.0</ele>
        <time>2020-11-28T10:54:48Z</time>
      </trkpt>
      <trkpt lat="38.42524" lon="-0.67373">
        <ele>309.0</ele>
        <time>2020-11-28T10:54:51Z</time>
      </trkpt>
      <trkpt lat="38.42549" lon="-0.67311">
        <ele>307.0</ele>
        <time>2020-11-28T10:54:54Z</time>
      </trkpt>
      <trkpt lat="38.42570" lon="-0.67260">
        <ele>309.0</ele>
        <time>2020-11-28T10:54:57Z</time>
      </trkpt>
      <trkpt lat="38.42580" lon="-0.67190">
        <ele>310.0</ele>
        <time>2020-11-28T10:55:01Z</time>
      </trkpt>
      <trkpt lat="38.42594" lon="-0.67115">
        <ele>310.0</ele>
        <time>2020-11-28T10:55:04Z</time>
      </trkpt>
      <trkpt lat="38.42628" lon="-0.67033">
        <ele>312.0</ele>
        <time>2020-11-28T10:55:07Z</time>
      </trkpt>
      <trkpt lat="38.42665" lon="-0.66944">
        <ele>311.0</ele>
        <time>2020-11-28T10:55:10Z</time>
      </trkpt>
      <trkpt lat="38.42704" lon="-0.66858">
        <ele>309.0</ele>
        <time>2020-11-28T10:55:13Z</time>
      </trkpt>
      <trkpt lat="38.42746" lon="-0.66775">
        <ele>308.0</ele>
        <time>2020-11-28T10:55:17Z</time>
      </trkpt>
      <trkpt lat="38.42789" lon="-0.66676">
        <ele>307.0</ele>
        <time>2020-11-28T10:55:20Z</time>
      </trkpt>
      <trkpt lat="38.42827" lon="-0.66587">
        <ele>307.0</ele>
        <time>2020-11-28T10:55:23Z</time>
      </trkpt>
      <trkpt lat="38.42865" lon="-0.66495">
        <ele>309.0</ele>
        <time>2020-11-28T10:55:26Z</time>
      </trkpt>
      <trkpt lat="38.42895" lon="-0.66421">
        <ele>308.0</ele>
        <time>2020-11-28T10:55:29Z</time>
      </trkpt>
      <trkpt lat="38.42921" lon="-0.66359">
        <ele>309.0</ele>
        <time>2020-11-28T10:55:32Z</time>
      </trkpt>
      <trkpt lat="38.42940" lon="-0.66292">
        <ele>309.0</ele>
        <time>2020-11-28T10:55:36Z</time>
      </trkpt>
      <trkpt lat="38.42957" lon="-0.66225">
        <ele>311.0</ele>
        <time>2020-11-28T10:55:39Z</time>
      </trkpt>
      <trkpt lat="38.42968" lon="-0.66180">
        <ele>310.0</ele>
        <time>2020-11-28T10:55:42Z</time>
      </trkpt>
      <trkpt lat="38.42976" lon="-0.66149">
        <ele>306.0</ele>
        <time>2020-11-28T10:55:45Z</time>
      </trkpt>
      <trkpt lat="38.42968" lon="-0.66114">
        <ele>311.0</ele>
        <time>2020-11-28T10:55:48Z</time>
      </trkpt>
      <trkpt lat="38.42989" lon="-0.66099">
        <ele>311.0</ele>
        <time>2020-11-28T10:55:51Z</time>
      </trkpt>
      <trkpt lat="38.43010" lon="-0.66019">
        <ele>311.0</ele>
        <time>2020-11-28T10:55:54Z</time>
      </trkpt>
      <trkpt lat="38.43030" lon="-0.65941">
        <ele>312.0</ele>
        <time>2020-11-28T10:55:58Z</time>
      </trkpt>
      <trkpt lat="38.43047" lon="-0.65872">
        <ele>315.0</ele>
        <time>2020-11-28T10:56:01Z</time>
      </trkpt>
      <trkpt lat="38.43062" lon="-0.65789">
        <ele>314.0</ele>
        <time>2020-11-28T10:56:04Z</time>
      </trkpt>
      <trkpt lat="38.43074" lon="-0.65703">
        <ele>314.0</ele>
        <time>2020-11-28T10:56:07Z</time>
      </trkpt>
      <trkpt lat="38.43084" lon="-0.65630">
        <ele>314.0</ele>
        <time>2020-11-28T10:56:10Z</time>
      </trkpt>
      <trkpt lat="38.43095" lon="-0.65557">
        <ele>313.0</ele>
        <time>2020-11-28T10:56:13Z</time>
      </trkpt>
      <trkpt lat="38.43106" lon="-0.65486">
        <ele>313.0</ele>
        <time>2020-11-28T10:56:16Z</time>
      </trkpt>
      <trkpt lat="38.43126" lon="-0.65427">
        <ele>310.0</ele>
        <time>2020-11-28T10:56:20Z</time>
      </trkpt>
      <trkpt lat="38.43149" lon="-0.65368">
        <ele>309.0</ele>
        <time>2020-11-28T10:56:23Z</time>
      </trkpt>
      <trkpt lat="38.43170" lon="-0.65314">
        <ele>310.0</ele>
        <time>2020-11-28T10:56:26Z</time>
      </trkpt>
      <trkpt lat="38.43189" lon="-0.65258">
        <ele>310.0</ele>
        <time>2020-11-28T10:56:29Z</time>
      </trkpt>
      <trkpt lat="38.43205" lon="-0.65194">
        <ele>310.0</ele>
        <time>2020-11-28T10:56:32Z</time>
      </trkpt>
      <trkpt lat="38.43219" lon="-0.65130">
        <ele>310.0</ele>
        <time>2020-11-28T10:56:36Z</time>
      </trkpt>
      <trkpt lat="38.43236" lon="-0.65061">
        <ele>312.0</ele>
        <time>2020-11-28T10:56:39Z</time>
      </trkpt>
      <trkpt lat="38.43258" lon="-0.64988">
        <ele>314.0</ele>
        <time>2020-11-28T10:56:42Z</time>
      </trkpt>
      <trkpt lat="38.43279" lon="-0.64919">
        <ele>311.0</ele>
        <time>2020-11-28T10:56:45Z</time>
      </trkpt>
      <trkpt lat="38.43303" lon="-0.64842">
        <ele>311.0</ele>
        <time>2020-11-28T10:56:48Z</time>
      </trkpt>
      <trkpt lat="38.43322" lon="-0.64780">
        <ele>309.0</ele>
        <time>2020-11-28T10:56:52Z</time>
      </trkpt>
      <trkpt lat="38.43333" lon="-0.64720">
        <ele>307.0</ele>
        <time>2020-11-28T10:56:55Z</time>
      </trkpt>
      <trkpt lat="38.43337" lon="-0.64656">
        <ele>306.0</ele>
        <time>2020-11-28T10:56:58Z</time>
      </trkpt>
      <trkpt lat="38.43351" lon="-0.64605">
        <ele>304.0</ele>
        <time>2020-11-28T10:57:01Z</time>
      </trkpt>
      <trkpt lat="38.43386" lon="-0.64537">
        <ele>302.0</ele>
        <time>2020-11-28T10:57:05Z</time>
      </trkpt>
      <trkpt lat="38.43419" lon="-0.64476">
        <ele>302.0</ele>
        <time>2020-11-28T10:57:08Z</time>
      </trkpt>
      <trkpt lat="38.43451" lon="-0.64429">
        <ele>301.0</ele>
        <time>2020-11-28T10:57:11Z</time>
      </trkpt>
      <trkpt lat="38.43486" lon="-0.64386">
        <ele>298.0</ele>
        <time>2020-11-28T10:57:14Z</time>
      </trkpt>
      <trkpt lat="38.43513" lon="-0.64349">
        <ele>297.0</ele>
        <time>2020-11-28T10:57:17Z</time>
      </trkpt>
      <trkpt lat="38.43539" lon="-0.64307">
        <ele>296.0</ele>
        <time>2020-11-28T10:57:20Z</time>
      </trkpt>
      <trkpt lat="38.43564" lon="-0.64268">
        <ele>297.0</ele>
        <time>2020-11-28T10:57:23Z</time>
      </trkpt>
      <trkpt lat="38.43586" lon="-0.64232">
        <ele>297.0</ele>
        <time>2020-11-28T10:57:26Z</time>
      </trkpt>
      <trkpt lat="38.43605" lon="-0.64197">
        <ele>296.0</ele>
        <time>2020-11-28T10:57:30Z</time>
      </trkpt>
      <trkpt lat="38.43620" lon="-0.64168">
        <ele>296.0</ele>
        <time>2020-11-28T10:57:33Z</time>
      </trkpt>
      <trkpt lat="38.43625" lon="-0.64146">
        <ele>297.0</ele>
        <time>2020-11-28T10:57:36Z</time>
      </trkpt>
      <trkpt lat="38.43626" lon="-0.64117">
        <ele>297.0</ele>
        <time>2020-11-28T10:57:39Z</time>
      </trkpt>
      <trkpt lat="38.43622" lon="-0.64083">
        <ele>300.0</ele>
        <time>2020-11-28T10:57:42Z</time>
      </trkpt>
      <trkpt lat="38.43623" lon="-0.64053">
        <ele>302.0</ele>
        <time>2020-11-28T10:57:46Z</time>
      </trkpt>
      <trkpt lat="38.43623" lon="-0.64021">
        <ele>305.0</ele>
        <time>2020-11-28T10:57:49Z</time>
      </trkpt>
      <trkpt lat="38.43624" lon="-0.63994">
        <ele>306.0</ele>
        <time>2020-11-28T10:57:52Z</time>
      </trkpt>
      <trkpt lat="38.43625" lon="-0.63970">
        <ele>308.0</ele>
        <time>2020-11-28T10:57:55Z</time>
      </trkpt>
      <trkpt lat="38.43625" lon="-0.63942">
        <ele>310.0</ele>
        <time>2020-11-28T10:57:58Z</time>
      </trkpt>
      <trkpt lat="38.43625" lon="-0.63910">
        <ele>312.0</ele>
        <time>2020-11-28T10:58:01Z</time>
      </trkpt>
      <trkpt lat="38.43625" lon="-0.63884">
        <ele>314.0</ele>
        <time>2020-11-28T10:58:05Z</time>
      </trkpt>
      <trkpt lat="38.43625" lon="-0.63861">
        <ele>315.0</ele>
        <time>2020-11-28T10:58:08Z</time>
      </trkpt>
      <trkpt lat="38.43625" lon="-0.63848">
        <ele>314.0</ele>
        <time>2020-11-28T10:58:11Z</time>
      </trkpt>
      <trkpt lat="38.43619" lon="-0.63836">
        <ele>314.0</ele>
        <time>2020-11-28T10:58:19Z</time>
      </trkpt>
      <trkpt lat="38.43590" lon="-0.63825">
        <ele>314.0</ele>
        <time>2020-11-28T10:58:22Z</time>
      </trkpt>
      <trkpt lat="38.43553" lon="-0.63805">
        <ele>313.0</ele>
        <time>2020-11-28T10:58:26Z</time>
      </trkpt>
      <trkpt lat="38.43519" lon="-0.63779">
        <ele>312.0</ele>
        <time>2020-11-28T10:58:29Z</time>
      </trkpt>
      <trkpt lat="38.43491" lon="-0.63748">
        <ele>311.0</ele>
        <time>2020-11-28T10:58:32Z</time>
      </trkpt>
      <trkpt lat="38.43458" lon="-0.63705">
        <ele>312.0</ele>
        <time>2020-11-28T10:58:35Z</time>
      </trkpt>
      <trkpt lat="38.43432" lon="-0.63669">
        <ele>311.0</ele>
        <time>2020-11-28T10:58:38Z</time>
      </trkpt>
      <trkpt lat="38.43395" lon="-0.63620">
        <ele>311.0</ele>
        <time>2020-11-28T10:58:41Z</time>
      </trkpt>
      <trkpt lat="38.43355" lon="-0.63568">
        <ele>310.0</ele>
        <time>2020-11-28T10:58:44Z</time>
      </trkpt>
      <trkpt lat="38.43318" lon="-0.63519">
        <ele>307.0</ele>
        <time>2020-11-28T10:58:48Z</time>
      </trkpt>
      <trkpt lat="38.43286" lon="-0.63477">
        <ele>305.0</ele>
        <time>2020-11-28T10:58:51Z</time>
      </trkpt>
      <trkpt lat="38.43249" lon="-0.63428">
        <ele>301.0</ele>
        <time>2020-11-28T10:58:54Z</time>
      </trkpt>
      <trkpt lat="38.43208" lon="-0.63373">
        <ele>296.0</ele>
        <time>2020-11-28T10:58:57Z</time>
      </trkpt>
      <trkpt lat="38.43176" lon="-0.63315">
        <ele>293.0</ele>
        <time>2020-11-28T10:59:00Z</time>
      </trkpt>
      <trkpt lat="38.43152" lon="-0.63255">
        <ele>291.0</ele>
        <time>2020-11-28T10:59:04Z</time>
      </trkpt>
      <trkpt lat="38.43133" lon="-0.63212">
        <ele>290.0</ele>
        <time>2020-11-28T10:59:07Z</time>
      </trkpt>
      <trkpt lat="38.43109" lon="-0.63173">
        <ele>290.0</ele>
        <time>2020-11-28T10:59:10Z</time>
      </trkpt>
      <trkpt lat="38.43077" lon="-0.63136">
        <ele>292.0</ele>
        <time>2020-11-28T10:59:13Z</time>
      </trkpt>
      <trkpt lat="38.43050" lon="-0.63112">
        <ele>293.0</ele>
        <time>2020-11-28T10:59:16Z</time>
      </trkpt>
      <trkpt lat="38.43029" lon="-0.63099">
        <ele>292.0</ele>
        <time>2020-11-28T10:59:19Z</time>
      </trkpt>
      <trkpt lat="38.43005" lon="-0.63095">
        <ele>291.0</ele>
        <time>2020-11-28T10:59:22Z</time>
      </trkpt>
      <trkpt lat="38.42991" lon="-0.63058">
        <ele>291.0</ele>
        <time>2020-11-28T10:59:25Z</time>
      </trkpt>
      <trkpt lat="38.42962" lon="-0.63011">
        <ele>287.0</ele>
        <time>2020-11-28T10:59:29Z</time>
      </trkpt>
      <trkpt lat="38.42919" lon="-0.62959">
        <ele>288.0</ele>
        <time>2020-11-28T10:59:32Z</time>
      </trkpt>
      <trkpt lat="38.42874" lon="-0.62909">
        <ele>287.0</ele>
        <time>2020-11-28T10:59:35Z</time>
      </trkpt>
      <trkpt lat="38.42829" lon="-0.62859">
        <ele>288.0</ele>
        <time>2020-11-28T10:59:38Z</time>
      </trkpt>
      <trkpt lat="38.42790" lon="-0.62815">
        <ele>287.0</ele>
        <time>2020-11-28T10:59:42Z</time>
      </trkpt>
      <trkpt lat="38.42751" lon="-0.62773">
        <ele>284.0</ele>
        <time>2020-11-28T10:59:45Z</time>
      </trkpt>
      <trkpt lat="38.42716" lon="-0.62732">
        <ele>283.0</ele>
        <time>2020-11-28T10:59:48Z</time>
      </trkpt>
      <trkpt lat="38.42687" lon="-0.62687">
        <ele>281.0</ele>
        <time>2020-11-28T10:59:51Z</time>
      </trkpt>
      <trkpt lat="38.42660" lon="-0.62637">
        <ele>280.0</ele>
        <time>2020-11-28T10:59:54Z</time>
      </trkpt>
      <trkpt lat="38.42634" lon="-0.62586">
        <ele>278.0</ele>
        <time>2020-11-28T10:59:57Z</time>
      </trkpt>
      <trkpt lat="38.42613" lon="-0.62526">
        <ele>277.0</ele>
        <time>2020-11-28T11:00:01Z</time>
      </trkpt>
      <trkpt lat="38.42597" lon="-0.62469">
        <ele>274.0</ele>
        <time>2020-11-28T11:00:04Z</time>
      </trkpt>
      <trkpt lat="38.42581" lon="-0.62414">
        <ele>272.0</ele>
        <time>2020-11-28T11:00:07Z</time>
      </trkpt>
      <trkpt lat="38.42565" lon="-0.62359">
        <ele>269.0</ele>
        <time>2020-11-28T11:00:10Z</time>
      </trkpt>
      <trkpt lat="38.42549" lon="-0.62301">
        <ele>268.0</ele>
        <time>2020-11-28T11:00:13Z</time>
      </trkpt>
      <trkpt lat="38.42533" lon="-0.62248">
        <ele>265.0</ele>
        <time>2020-11-28T11:00:16Z</time>
      </trkpt>
      <trkpt lat="38.42514" lon="-0.62183">
        <ele>261.0</ele>
        <time>2020-11-28T11:00:19Z</time>
      </trkpt>
      <trkpt lat="38.42493" lon="-0.62114">
        <ele>261.0</ele>
        <time>2020-11-28T11:00:23Z</time>
      </trkpt>
      <trkpt lat="38.42473" lon="-0.62044">
        <ele>259.0</ele>
        <time>2020-11-28T11:00:26Z</time>
      </trkpt>
      <trkpt lat="38.42452" lon="-0.61974">
        <ele>258.0</ele>
        <time>2020-11-28T11:00:29Z</time>
      </trkpt>
      <trkpt lat="38.42432" lon="-0.61906">
        <ele>255.0</ele>
        <time>2020-11-28T11:00:32Z</time>
      </trkpt>
      <trkpt lat="38.42412" lon="-0.61838">
        <ele>255.0</ele>
        <time>2020-11-28T11:00:35Z</time>
      </trkpt>
      <trkpt lat="38.42386" lon="-0.61750">
        <ele>252.0</ele>
        <time>2020-11-28T11:00:39Z</time>
      </trkpt>
      <trkpt lat="38.42366" lon="-0.61680">
        <ele>249.0</ele>
        <time>2020-11-28T11:00:43Z</time>
      </trkpt>
      <trkpt lat="38.42347" lon="-0.61615">
        <ele>246.0</ele>
        <time>2020-11-28T11:00:46Z</time>
      </trkpt>
      <trkpt lat="38.42328" lon="-0.61552">
        <ele>244.0</ele>
        <time>2020-11-28T11:00:49Z</time>
      </trkpt>
      <trkpt lat="38.42311" lon="-0.61496">
        <ele>243.0</ele>
        <time>2020-11-28T11:00:52Z</time>
      </trkpt>
      <trkpt lat="38.42292" lon="-0.61430">
        <ele>241.0</ele>
        <time>2020-11-28T11:00:55Z</time>
      </trkpt>
      <trkpt lat="38.42271" lon="-0.61360">
        <ele>240.0</ele>
        <time>2020-11-28T11:00:59Z</time>
      </trkpt>
      <trkpt lat="38.42251" lon="-0.61291">
        <ele>238.0</ele>
        <time>2020-11-28T11:01:02Z</time>
      </trkpt>
      <trkpt lat="38.42232" lon="-0.61225">
        <ele>234.0</ele>
        <time>2020-11-28T11:01:05Z</time>
      </trkpt>
      <trkpt lat="38.42211" lon="-0.61164">
        <ele>233.0</ele>
        <time>2020-11-28T11:01:08Z</time>
      </trkpt>
      <trkpt lat="38.42177" lon="-0.61108">
        <ele>229.0</ele>
        <time>2020-11-28T11:01:11Z</time>
      </trkpt>
      <trkpt lat="38.42129" lon="-0.61037">
        <ele>228.0</ele>
        <time>2020-11-28T11:01:14Z</time>
      </trkpt>
      <trkpt lat="38.42087" lon="-0.60975">
        <ele>225.0</ele>
        <time>2020-11-28T11:01:18Z</time>
      </trkpt>
      <trkpt lat="38.42053" lon="-0.60924">
        <ele>224.0</ele>
        <time>2020-11-28T11:01:21Z</time>
      </trkpt>
      <trkpt lat="38.42026" lon="-0.60863">
        <ele>224.0</ele>
        <time>2020-11-28T11:01:24Z</time>
      </trkpt>
      <trkpt lat="38.42013" lon="-0.60791">
        <ele>224.0</ele>
        <time>2020-11-28T11:01:27Z</time>
      </trkpt>
      <trkpt lat="38.42018" lon="-0.60709">
        <ele>223.0</ele>
        <time>2020-11-28T11:01:30Z</time>
      </trkpt>
      <trkpt lat="38.42030" lon="-0.60635">
        <ele>222.0</ele>
        <time>2020-11-28T11:01:33Z</time>
      </trkpt>
      <trkpt lat="38.42032" lon="-0.60573">
        <ele>221.0</ele>
        <time>2020-11-28T11:01:36Z</time>
      </trkpt>
      <trkpt lat="38.42018" lon="-0.60503">
        <ele>218.0</ele>
        <time>2020-11-28T11:01:40Z</time>
      </trkpt>
      <trkpt lat="38.41992" lon="-0.60435">
        <ele>218.0</ele>
        <time>2020-11-28T11:01:43Z</time>
      </trkpt>
      <trkpt lat="38.41970" lon="-0.60349">
        <ele>217.0</ele>
        <time>2020-11-28T11:01:46Z</time>
      </trkpt>
      <trkpt lat="38.41953" lon="-0.60274">
        <ele>213.0</ele>
        <time>2020-11-28T11:01:49Z</time>
      </trkpt>
      <trkpt lat="38.41937" lon="-0.60201">
        <ele>210.0</ele>
        <time>2020-11-28T11:01:52Z</time>
      </trkpt>
      <trkpt lat="38.41920" lon="-0.60125">
        <ele>209.0</ele>
        <time>2020-11-28T11:01:56Z</time>
      </trkpt>
      <trkpt lat="38.41905" lon="-0.60055">
        <ele>207.0</ele>
        <time>2020-11-28T11:01:59Z</time>
      </trkpt>
      <trkpt lat="38.41890" lon="-0.59986">
        <ele>206.0</ele>
        <time>2020-11-28T11:02:02Z</time>
      </trkpt>
      <trkpt lat="38.41874" lon="-0.59917">
        <ele>204.0</ele>
        <time>2020-11-28T11:02:05Z</time>
      </trkpt>
      <trkpt lat="38.41860" lon="-0.59851">
        <ele>207.0</ele>
        <time>2020-11-28T11:02:08Z</time>
      </trkpt>
      <trkpt lat="38.41845" lon="-0.59784">
        <ele>209.0</ele>
        <time>2020-11-28T11:02:11Z</time>
      </trkpt>
      <trkpt lat="38.41829" lon="-0.59714">
        <ele>207.0</ele>
        <time>2020-11-28T11:02:14Z</time>
      </trkpt>
      <trkpt lat="38.41814" lon="-0.59645">
        <ele>202.0</ele>
        <time>2020-11-28T11:02:17Z</time>
      </trkpt>
      <trkpt lat="38.41798" lon="-0.59573">
        <ele>200.0</ele>
        <time>2020-11-28T11:02:20Z</time>
      </trkpt>
      <trkpt lat="38.41788" lon="-0.59528">
        <ele>199.0</ele>
        <time>2020-11-28T11:02:23Z</time>
      </trkpt>
      <trkpt lat="38.41766" lon="-0.59434">
        <ele>200.0</ele>
        <time>2020-11-28T11:02:26Z</time>
      </trkpt>
      <trkpt lat="38.41758" lon="-0.59389">
        <ele>198.0</ele>
        <time>2020-11-28T11:02:29Z</time>
      </trkpt>
      <trkpt lat="38.41745" lon="-0.59280">
        <ele>197.0</ele>
        <time>2020-11-28T11:02:33Z</time>
      </trkpt>
      <trkpt lat="38.41735" lon="-0.59200">
        <ele>190.0</ele>
        <time>2020-11-28T11:02:36Z</time>
      </trkpt>
      <trkpt lat="38.41725" lon="-0.59105">
        <ele>191.0</ele>
        <time>2020-11-28T11:02:39Z</time>
      </trkpt>
      <trkpt lat="38.41713" lon="-0.58998">
        <ele>188.0</ele>
        <time>2020-11-28T11:02:42Z</time>
      </trkpt>
      <trkpt lat="38.41701" lon="-0.58901">
        <ele>185.0</ele>
        <time>2020-11-28T11:02:45Z</time>
      </trkpt>
      <trkpt lat="38.41690" lon="-0.58807">
        <ele>184.0</ele>
        <time>2020-11-28T11:02:48Z</time>
      </trkpt>
      <trkpt lat="38.41678" lon="-0.58711">
        <ele>182.0</ele>
        <time>2020-11-28T11:02:51Z</time>
      </trkpt>
      <trkpt lat="38.41667" lon="-0.58612">
        <ele>180.0</ele>
        <time>2020-11-28T11:02:54Z</time>
      </trkpt>
      <trkpt lat="38.41655" lon="-0.58514">
        <ele>178.0</ele>
        <time>2020-11-28T11:02:58Z</time>
      </trkpt>
      <trkpt lat="38.41644" lon="-0.58423">
        <ele>182.0</ele>
        <time>2020-11-28T11:03:01Z</time>
      </trkpt>
      <trkpt lat="38.41634" lon="-0.58340">
        <ele>182.0</ele>
        <time>2020-11-28T11:03:04Z</time>
      </trkpt>
      <trkpt lat="38.41626" lon="-0.58270">
        <ele>182.0</ele>
        <time>2020-11-28T11:03:07Z</time>
      </trkpt>
      <trkpt lat="38.41621" lon="-0.58223">
        <ele>179.0</ele>
        <time>2020-11-28T11:03:10Z</time>
      </trkpt>
      <trkpt lat="38.41605" lon="-0.58125">
        <ele>174.0</ele>
        <time>2020-11-28T11:03:14Z</time>
      </trkpt>
      <trkpt lat="38.41592" lon="-0.58065">
        <ele>175.0</ele>
        <time>2020-11-28T11:03:17Z</time>
      </trkpt>
      <trkpt lat="38.41568" lon="-0.57984">
        <ele>176.0</ele>
        <time>2020-11-28T11:03:20Z</time>
      </trkpt>
      <trkpt lat="38.41542" lon="-0.57901">
        <ele>178.0</ele>
        <time>2020-11-28T11:03:23Z</time>
      </trkpt>
      <trkpt lat="38.41518" lon="-0.57826">
        <ele>178.0</ele>
        <time>2020-11-28T11:03:26Z</time>
      </trkpt>
      <trkpt lat="38.41501" lon="-0.57763">
        <ele>174.0</ele>
        <time>2020-11-28T11:03:30Z</time>
      </trkpt>
      <trkpt lat="38.41481" lon="-0.57702">
        <ele>172.0</ele>
        <time>2020-11-28T11:03:33Z</time>
      </trkpt>
      <trkpt lat="38.41462" lon="-0.57637">
        <ele>172.0</ele>
        <time>2020-11-28T11:03:36Z</time>
      </trkpt>
      <trkpt lat="38.41438" lon="-0.57571">
        <ele>174.0</ele>
        <time>2020-11-28T11:03:39Z</time>
      </trkpt>
      <trkpt lat="38.41415" lon="-0.57500">
        <ele>167.0</ele>
        <time>2020-11-28T11:03:42Z</time>
      </trkpt>
      <trkpt lat="38.41394" lon="-0.57430">
        <ele>165.0</ele>
        <time>2020-11-28T11:03:45Z</time>
      </trkpt>
      <trkpt lat="38.41372" lon="-0.57360">
        <ele>162.0</ele>
        <time>2020-11-28T11:03:48Z</time>
      </trkpt>
      <trkpt lat="38.41346" lon="-0.57281">
        <ele>160.0</ele>
        <time>2020-11-28T11:03:51Z</time>
      </trkpt>
      <trkpt lat="38.41320" lon="-0.57196">
        <ele>160.0</ele>
        <time>2020-11-28T11:03:55Z</time>
      </trkpt>
      <trkpt lat="38.41297" lon="-0.57123">
        <ele>163.0</ele>
        <time>2020-11-28T11:03:58Z</time>
      </trkpt>
      <trkpt lat="38.41272" lon="-0.57048">
        <ele>164.0</ele>
        <time>2020-11-28T11:04:01Z</time>
      </trkpt>
      <trkpt lat="38.41247" lon="-0.56970">
        <ele>164.0</ele>
        <time>2020-11-28T11:04:04Z</time>
      </trkpt>
      <trkpt lat="38.41223" lon="-0.56893">
        <ele>163.0</ele>
        <time>2020-11-28T11:04:07Z</time>
      </trkpt>
      <trkpt lat="38.41199" lon="-0.56821">
        <ele>161.0</ele>
        <time>2020-11-28T11:04:10Z</time>
      </trkpt>
      <trkpt lat="38.41177" lon="-0.56750">
        <ele>160.0</ele>
        <time>2020-11-28T11:04:13Z</time>
      </trkpt>
      <trkpt lat="38.41153" lon="-0.56676">
        <ele>159.0</ele>
        <time>2020-11-28T11:04:17Z</time>
      </trkpt>
      <trkpt lat="38.41128" lon="-0.56597">
        <ele>155.0</ele>
        <time>2020-11-28T11:04:20Z</time>
      </trkpt>
      <trkpt lat="38.41101" lon="-0.56514">
        <ele>151.0</ele>
        <time>2020-11-28T11:04:23Z</time>
      </trkpt>
      <trkpt lat="38.41075" lon="-0.56432">
        <ele>149.0</ele>
        <time>2020-11-28T11:04:26Z</time>
      </trkpt>
      <trkpt lat="38.41053" lon="-0.56366">
        <ele>146.0</ele>
        <time>2020-11-28T11:04:29Z</time>
      </trkpt>
      <trkpt lat="38.41033" lon="-0.56307">
        <ele>146.0</ele>
        <time>2020-11-28T11:04:32Z</time>
      </trkpt>
      <trkpt lat="38.41007" lon="-0.56226">
        <ele>149.0</ele>
        <time>2020-11-28T11:04:36Z</time>
      </trkpt>
      <trkpt lat="38.40978" lon="-0.56132">
        <ele>151.0</ele>
        <time>2020-11-28T11:04:39Z</time>
      </trkpt>
      <trkpt lat="38.40949" lon="-0.56040">
        <ele>152.0</ele>
        <time>2020-11-28T11:04:42Z</time>
      </trkpt>
      <trkpt lat="38.40921" lon="-0.55952">
        <ele>153.0</ele>
        <time>2020-11-28T11:04:45Z</time>
      </trkpt>
      <trkpt lat="38.40898" lon="-0.55881">
        <ele>155.0</ele>
        <time>2020-11-28T11:04:48Z</time>
      </trkpt>
      <trkpt lat="38.40872" lon="-0.55797">
        <ele>157.0</ele>
        <time>2020-11-28T11:04:51Z</time>
      </trkpt>
      <trkpt lat="38.40845" lon="-0.55712">
        <ele>157.0</ele>
        <time>2020-11-28T11:04:55Z</time>
      </trkpt>
      <trkpt lat="38.40818" lon="-0.55628">
        <ele>159.0</ele>
        <time>2020-11-28T11:04:58Z</time>
      </trkpt>
      <trkpt lat="38.40791" lon="-0.55545">
        <ele>159.0</ele>
        <time>2020-11-28T11:05:01Z</time>
      </trkpt>
      <trkpt lat="38.40761" lon="-0.55451">
        <ele>157.0</ele>
        <time>2020-11-28T11:05:04Z</time>
      </trkpt>
      <trkpt lat="38.40736" lon="-0.55365">
        <ele>154.0</ele>
        <time>2020-11-28T11:05:07Z</time>
      </trkpt>
      <trkpt lat="38.40712" lon="-0.55284">
        <ele>154.0</ele>
        <time>2020-11-28T11:05:10Z</time>
      </trkpt>
      <trkpt lat="38.40694" lon="-0.55225">
        <ele>152.0</ele>
        <time>2020-11-28T11:05:13Z</time>
      </trkpt>
      <trkpt lat="38.40683" lon="-0.55181">
        <ele>152.0</ele>
        <time>2020-11-28T11:05:17Z</time>
      </trkpt>
      <trkpt lat="38.40677" lon="-0.55155">
        <ele>151.0</ele>
        <time>2020-11-28T11:05:20Z</time>
      </trkpt>
      <trkpt lat="38.40661" lon="-0.55143">
        <ele>148.0</ele>
        <time>2020-11-28T11:05:25Z</time>
      </trkpt>
      <trkpt lat="38.40619" lon="-0.55128">
        <ele>147.0</ele>
        <time>2020-11-28T11:05:28Z</time>
      </trkpt>
      <trkpt lat="38.40566" lon="-0.55121">
        <ele>148.0</ele>
        <time>2020-11-28T11:05:31Z</time>
      </trkpt>
      <trkpt lat="38.40512" lon="-0.55119">
        <ele>146.0</ele>
        <time>2020-11-28T11:05:35Z</time>
      </trkpt>
      <trkpt lat="38.40444" lon="-0.55116">
        <ele>140.0</ele>
        <time>2020-11-28T11:05:38Z</time>
      </trkpt>
      <trkpt lat="38.40373" lon="-0.55104">
        <ele>136.0</ele>
        <time>2020-11-28T11:05:41Z</time>
      </trkpt>
      <trkpt lat="38.40296" lon="-0.55076">
        <ele>131.0</ele>
        <time>2020-11-28T11:05:44Z</time>
      </trkpt>
      <trkpt lat="38.40219" lon="-0.55034">
        <ele>130.0</ele>
        <time>2020-11-28T11:05:47Z</time>
      </trkpt>
      <trkpt lat="38.40150" lon="-0.54994">
        <ele>131.0</ele>
        <time>2020-11-28T11:05:50Z</time>
      </trkpt>
      <trkpt lat="38.40076" lon="-0.54966">
        <ele>131.0</ele>
        <time>2020-11-28T11:05:53Z</time>
      </trkpt>
      <trkpt lat="38.40016" lon="-0.54950">
        <ele>132.0</ele>
        <time>2020-11-28T11:05:57Z</time>
      </trkpt>
      <trkpt lat="38.39965" lon="-0.54934">
        <ele>130.0</ele>
        <time>2020-11-28T11:06:00Z</time>
      </trkpt>
      <trkpt lat="38.39908" lon="-0.54919">
        <ele>131.0</ele>
        <time>2020-11-28T11:06:03Z</time>
      </trkpt>
      <trkpt lat="38.39860" lon="-0.54906">
        <ele>130.0</ele>
        <time>2020-11-28T11:06:06Z</time>
      </trkpt>
      <trkpt lat="38.39828" lon="-0.54897">
        <ele>127.0</ele>
        <time>2020-11-28T11:06:09Z</time>
      </trkpt>
      <trkpt lat="38.39808" lon="-0.54892">
        <ele>125.0</ele>
        <time>2020-11-28T11:06:12Z</time>
      </trkpt>
      <trkpt lat="38.39783" lon="-0.54904">
        <ele>125.0</ele>
        <time>2020-11-28T11:06:15Z</time>
      </trkpt>
      <trkpt lat="38.39738" lon="-0.54900">
        <ele>124.0</ele>
        <time>2020-11-28T11:06:19Z</time>
      </trkpt>
      <trkpt lat="38.39711" lon="-0.54867">
        <ele>123.0</ele>
        <time>2020-11-28T11:06:22Z</time>
      </trkpt>
      <trkpt lat="38.39706" lon="-0.54823">
        <ele>124.0</ele>
        <time>2020-11-28T11:06:25Z</time>
      </trkpt>
      <trkpt lat="38.39716" lon="-0.54791">
        <ele>125.0</ele>
        <time>2020-11-28T11:06:28Z</time>
      </trkpt>
      <trkpt lat="38.39732" lon="-0.54771">
        <ele>124.0</ele>
        <time>2020-11-28T11:06:31Z</time>
      </trkpt>
      <trkpt lat="38.39787" lon="-0.54765">
        <ele>123.0</ele>
        <time>2020-11-28T11:06:34Z</time>
      </trkpt>
      <trkpt lat="38.39811" lon="-0.54752">
        <ele>119.0</ele>
        <time>2020-11-28T11:06:37Z</time>
      </trkpt>
      <trkpt lat="38.39835" lon="-0.54724">
        <ele>117.0</ele>
        <time>2020-11-28T11:06:41Z</time>
      </trkpt>
      <trkpt lat="38.39856" lon="-0.54661">
        <ele>119.0</ele>
        <time>2020-11-28T11:06:44Z</time>
      </trkpt>
      <trkpt lat="38.39862" lon="-0.54606">
        <ele>121.0</ele>
        <time>2020-11-28T11:06:47Z</time>
      </trkpt>
      <trkpt lat="38.39860" lon="-0.54558">
        <ele>120.0</ele>
        <time>2020-11-28T11:06:50Z</time>
      </trkpt>
      <trkpt lat="38.39847" lon="-0.54502">
        <ele>118.0</ele>
        <time>2020-11-28T11:06:53Z</time>
      </trkpt>
      <trkpt lat="38.39825" lon="-0.54445">
        <ele>118.0</ele>
        <time>2020-11-28T11:06:56Z</time>
      </trkpt>
      <trkpt lat="38.39813" lon="-0.54396">
        <ele>120.0</ele>
        <time>2020-11-28T11:07:00Z</time>
      </trkpt>
      <trkpt lat="38.39810" lon="-0.54332">
        <ele>118.0</ele>
        <time>2020-11-28T11:07:03Z</time>
      </trkpt>
      <trkpt lat="38.39807" lon="-0.54272">
        <ele>115.0</ele>
        <time>2020-11-28T11:07:06Z</time>
      </trkpt>
      <trkpt lat="38.39803" lon="-0.54200">
        <ele>114.0</ele>
        <time>2020-11-28T11:07:09Z</time>
      </trkpt>
      <trkpt lat="38.39797" lon="-0.54132">
        <ele>113.0</ele>
        <time>2020-11-28T11:07:12Z</time>
      </trkpt>
      <trkpt lat="38.39791" lon="-0.54036">
        <ele>113.0</ele>
        <time>2020-11-28T11:07:16Z</time>
      </trkpt>
      <trkpt lat="38.39790" lon="-0.53969">
        <ele>112.0</ele>
        <time>2020-11-28T11:07:19Z</time>
      </trkpt>
      <trkpt lat="38.39789" lon="-0.53920">
        <ele>112.0</ele>
        <time>2020-11-28T11:07:22Z</time>
      </trkpt>
      <trkpt lat="38.39784" lon="-0.53884">
        <ele>111.0</ele>
        <time>2020-11-28T11:07:25Z</time>
      </trkpt>
      <trkpt lat="38.39768" lon="-0.53826">
        <ele>110.0</ele>
        <time>2020-11-28T11:07:29Z</time>
      </trkpt>
      <trkpt lat="38.39753" lon="-0.53772">
        <ele>109.0</ele>
        <time>2020-11-28T11:07:32Z</time>
      </trkpt>
      <trkpt lat="38.39743" lon="-0.53733">
        <ele>106.0</ele>
        <time>2020-11-28T11:07:35Z</time>
      </trkpt>
      <trkpt lat="38.39735" lon="-0.53696">
        <ele>107.0</ele>
        <time>2020-11-28T11:07:38Z</time>
      </trkpt>
      <trkpt lat="38.39731" lon="-0.53668">
        <ele>105.0</ele>
        <time>2020-11-28T11:07:41Z</time>
      </trkpt>
      <trkpt lat="38.39731" lon="-0.53648">
        <ele>106.0</ele>
        <time>2020-11-28T11:07:44Z</time>
      </trkpt>
      <trkpt lat="38.39720" lon="-0.53616">
        <ele>106.0</ele>
        <time>2020-11-28T11:07:48Z</time>
      </trkpt>
      <trkpt lat="38.39703" lon="-0.53579">
        <ele>106.0</ele>
        <time>2020-11-28T11:07:51Z</time>
      </trkpt>
      <trkpt lat="38.39691" lon="-0.53546">
        <ele>106.0</ele>
        <time>2020-11-28T11:07:54Z</time>
      </trkpt>
      <trkpt lat="38.39681" lon="-0.53510">
        <ele>107.0</ele>
        <time>2020-11-28T11:07:57Z</time>
      </trkpt>
      <trkpt lat="38.39670" lon="-0.53472">
        <ele>106.0</ele>
        <time>2020-11-28T11:08:00Z</time>
      </trkpt>
      <trkpt lat="38.39661" lon="-0.53439">
        <ele>106.0</ele>
        <time>2020-11-28T11:08:03Z</time>
      </trkpt>
      <trkpt lat="38.39651" lon="-0.53401">
        <ele>106.0</ele>
        <time>2020-11-28T11:08:06Z</time>
      </trkpt>
      <trkpt lat="38.39631" lon="-0.53362">
        <ele>107.0</ele>
        <time>2020-11-28T11:08:10Z</time>
      </trkpt>
      <trkpt lat="38.39609" lon="-0.53322">
        <ele>108.0</ele>
        <time>2020-11-28T11:08:13Z</time>
      </trkpt>
      <trkpt lat="38.39593" lon="-0.53295">
        <ele>107.0</ele>
        <time>2020-11-28T11:08:16Z</time>
      </trkpt>
      <trkpt lat="38.39584" lon="-0.53272">
        <ele>108.0</ele>
        <time>2020-11-28T11:08:19Z</time>
      </trkpt>
      <trkpt lat="38.39563" lon="-0.53248">
        <ele>108.0</ele>
        <time>2020-11-28T11:08:22Z</time>
      </trkpt>
      <trkpt lat="38.39578" lon="-0.53232">
        <ele>109.0</ele>
        <time>2020-11-28T11:08:25Z</time>
      </trkpt>
      <trkpt lat="38.39551" lon="-0.53188">
        <ele>108.0</ele>
        <time>2020-11-28T11:08:29Z</time>
      </trkpt>
      <trkpt lat="38.39499" lon="-0.53170">
        <ele>108.0</ele>
        <time>2020-11-28T11:08:32Z</time>
      </trkpt>
      <trkpt lat="38.39460" lon="-0.53140">
        <ele>108.0</ele>
        <time>2020-11-28T11:08:35Z</time>
      </trkpt>
      <trkpt lat="38.39422" lon="-0.53112">
        <ele>107.0</ele>
        <time>2020-11-28T11:08:38Z</time>
      </trkpt>
      <trkpt lat="38.39394" lon="-0.53090">
        <ele>107.0</ele>
        <time>2020-11-28T11:08:41Z</time>
      </trkpt>
      <trkpt lat="38.39370" lon="-0.53078">
        <ele>107.0</ele>
        <time>2020-11-28T11:08:44Z</time>
      </trkpt>
      <trkpt lat="38.39340" lon="-0.53086">
        <ele>108.0</ele>
        <time>2020-11-28T11:08:47Z</time>
      </trkpt>
      <trkpt lat="38.39299" lon="-0.53110">
        <ele>107.0</ele>
        <time>2020-11-28T11:08:50Z</time>
      </trkpt>
      <trkpt lat="38.39257" lon="-0.53134">
        <ele>105.0</ele>
        <time>2020-11-28T11:08:54Z</time>
      </trkpt>
      <trkpt lat="38.39225" lon="-0.53153">
        <ele>105.0</ele>
        <time>2020-11-28T11:08:57Z</time>
      </trkpt>
      <trkpt lat="38.39196" lon="-0.53169">
        <ele>104.0</ele>
        <time>2020-11-28T11:09:00Z</time>
      </trkpt>
      <trkpt lat="38.39160" lon="-0.53188">
        <ele>104.0</ele>
        <time>2020-11-28T11:09:03Z</time>
      </trkpt>
      <trkpt lat="38.39120" lon="-0.53209">
        <ele>105.0</ele>
        <time>2020-11-28T11:09:06Z</time>
      </trkpt>
      <trkpt lat="38.39079" lon="-0.53227">
        <ele>104.0</ele>
        <time>2020-11-28T11:09:09Z</time>
      </trkpt>
      <trkpt lat="38.39040" lon="-0.53234">
        <ele>102.0</ele>
        <time>2020-11-28T11:09:13Z</time>
      </trkpt>
      <trkpt lat="38.39012" lon="-0.53239">
        <ele>100.0</ele>
        <time>2020-11-28T11:09:16Z</time>
      </trkpt>
      <trkpt lat="38.38995" lon="-0.53241">
        <ele>99.0</ele>
        <time>2020-11-28T11:09:19Z</time>
      </trkpt>
      <trkpt lat="38.38985" lon="-0.53241">
        <ele>99.0</ele>
        <time>2020-11-28T11:09:22Z</time>
      </trkpt>
      <trkpt lat="38.38973" lon="-0.53239">
        <ele>99.0</ele>
        <time>2020-11-28T11:09:26Z</time>
      </trkpt>
      <trkpt lat="38.38956" lon="-0.53247">
        <ele>99.0</ele>
        <time>2020-11-28T11:09:29Z</time>
      </trkpt>
      <trkpt lat="38.38954" lon="-0.53227">
        <ele>99.0</ele>
        <time>2020-11-28T11:09:33Z</time>
      </trkpt>
      <trkpt lat="38.38967" lon="-0.53211">
        <ele>99.0</ele>
        <time>2020-11-28T11:09:36Z</time>
      </trkpt>
      <trkpt lat="38.38971" lon="-0.53176">
        <ele>100.0</ele>
        <time>2020-11-28T11:09:39Z</time>
      </trkpt>
      <trkpt lat="38.38971" lon="-0.53155">
        <ele>98.0</ele>
        <time>2020-11-28T11:09:42Z</time>
      </trkpt>
      <trkpt lat="38.38966" lon="-0.53144">
        <ele>99.0</ele>
        <time>2020-11-28T11:09:46Z</time>
      </trkpt>
      <trkpt lat="38.38956" lon="-0.53135">
        <ele>99.0</ele>
        <time>2020-11-28T11:09:52Z</time>
      </trkpt>
      <trkpt lat="38.38941" lon="-0.53123">
        <ele>99.0</ele>
        <time>2020-11-28T11:09:55Z</time>
      </trkpt>
      <trkpt lat="38.38944" lon="-0.53096">
        <ele>99.0</ele>
        <time>2020-11-28T11:09:58Z</time>
      </trkpt>
      <trkpt lat="38.38966" lon="-0.53080">
        <ele>100.0</ele>
        <time>2020-11-28T11:10:01Z</time>
      </trkpt>
      <trkpt lat="38.38975" lon="-0.53060">
        <ele>99.0</ele>
        <time>2020-11-28T11:10:04Z</time>
      </trkpt>
      <trkpt lat="38.38970" lon="-0.53041">
        <ele>101.0</ele>
        <time>2020-11-28T11:10:07Z</time>
      </trkpt>
      <trkpt lat="38.38963" lon="-0.53033">
        <ele>101.0</ele>
        <time>2020-11-28T11:10:10Z</time>
      </trkpt>
      <trkpt lat="38.38952" lon="-0.53029">
        <ele>101.0</ele>
        <time>2020-11-28T11:10:13Z</time>
      </trkpt>
      <trkpt lat="38.38942" lon="-0.52995">
        <ele>101.0</ele>
        <time>2020-11-28T11:10:17Z</time>
      </trkpt>
      <trkpt lat="38.38957" lon="-0.52975">
        <ele>100.0</ele>
        <time>2020-11-28T11:10:20Z</time>
      </trkpt>
      <trkpt lat="38.38977" lon="-0.52978">
        <ele>101.0</ele>
        <time>2020-11-28T11:10:23Z</time>
      </trkpt>
      <trkpt lat="38.38985" lon="-0.52996">
        <ele>100.0</ele>
        <time>2020-11-28T11:10:26Z</time>
      </trkpt>
      <trkpt lat="38.38983" lon="-0.53019">
        <ele>100.0</ele>
        <time>2020-11-28T11:10:29Z</time>
      </trkpt>
      <trkpt lat="38.38966" lon="-0.53032">
        <ele>100.0</ele>
        <time>2020-11-28T11:10:32Z</time>
      </trkpt>
      <trkpt lat="38.38938" lon="-0.53046">
        <ele>100.0</ele>
        <time>2020-11-28T11:10:35Z</time>
      </trkpt>
      <trkpt lat="38.38907" lon="-0.53068">
        <ele>99.0</ele>
        <time>2020-11-28T11:10:38Z</time>
      </trkpt>
      <trkpt lat="38.38873" lon="-0.53086">
        <ele>97.0</ele>
        <time>2020-11-28T11:10:42Z</time>
      </trkpt>
      <trkpt lat="38.38844" lon="-0.53102">
        <ele>96.0</ele>
        <time>2020-11-28T11:10:45Z</time>
      </trkpt>
      <trkpt lat="38.38822" lon="-0.53114">
        <ele>94.0</ele>
        <time>2020-11-28T11:10:48Z</time>
      </trkpt>
      <trkpt lat="38.38809" lon="-0.53120">
        <ele>94.0</ele>
        <time>2020-11-28T11:10:51Z</time>
      </trkpt>
      <trkpt lat="38.38796" lon="-0.53113">
        <ele>95.0</ele>
        <time>2020-11-28T11:10:55Z</time>
      </trkpt>
      <trkpt lat="38.38804" lon="-0.53083">
        <ele>95.0</ele>
        <time>2020-11-28T11:10:58Z</time>
      </trkpt>
      <trkpt lat="38.38818" lon="-0.53040">
        <ele>97.0</ele>
        <time>2020-11-28T11:11:01Z</time>
      </trkpt>
      <trkpt lat="38.38821" lon="-0.52999">
        <ele>96.0</ele>
        <time>2020-11-28T11:11:04Z</time>
      </trkpt>
      <trkpt lat="38.38812" lon="-0.52958">
        <ele>93.0</ele>
        <time>2020-11-28T11:11:07Z</time>
      </trkpt>
      <trkpt lat="38.38789" lon="-0.52896">
        <ele>90.0</ele>
        <time>2020-11-28T11:11:11Z</time>
      </trkpt>
      <trkpt lat="38.38755" lon="-0.52833">
        <ele>88.0</ele>
        <time>2020-11-28T11:11:14Z</time>
      </trkpt>
      <trkpt lat="38.38714" lon="-0.52744">
        <ele>85.0</ele>
        <time>2020-11-28T11:11:17Z</time>
      </trkpt>
      <trkpt lat="38.38682" lon="-0.52651">
        <ele>89.0</ele>
        <time>2020-11-28T11:11:20Z</time>
      </trkpt>
      <trkpt lat="38.38661" lon="-0.52568">
        <ele>89.0</ele>
        <time>2020-11-28T11:11:23Z</time>
      </trkpt>
      <trkpt lat="38.38642" lon="-0.52493">
        <ele>91.0</ele>
        <time>2020-11-28T11:11:26Z</time>
      </trkpt>
      <trkpt lat="38.38625" lon="-0.52424">
        <ele>92.0</ele>
        <time>2020-11-28T11:11:29Z</time>
      </trkpt>
      <trkpt lat="38.38608" lon="-0.52370">
        <ele>93.0</ele>
        <time>2020-11-28T11:11:32Z</time>
      </trkpt>
      <trkpt lat="38.38589" lon="-0.52327">
        <ele>89.0</ele>
        <time>2020-11-28T11:11:36Z</time>
      </trkpt>
      <trkpt lat="38.38573" lon="-0.52295">
        <ele>89.0</ele>
        <time>2020-11-28T11:11:39Z</time>
      </trkpt>
      <trkpt lat="38.38566" lon="-0.52283">
        <ele>90.0</ele>
        <time>2020-11-28T11:11:42Z</time>
      </trkpt>
      <trkpt lat="38.38552" lon="-0.52270">
        <ele>91.0</ele>
        <time>2020-11-28T11:11:52Z</time>
      </trkpt>
      <trkpt lat="38.38526" lon="-0.52264">
        <ele>92.0</ele>
        <time>2020-11-28T11:11:55Z</time>
      </trkpt>
      <trkpt lat="38.38505" lon="-0.52239">
        <ele>92.0</ele>
        <time>2020-11-28T11:11:58Z</time>
      </trkpt>
      <trkpt lat="38.38497" lon="-0.52201">
        <ele>91.0</ele>
        <time>2020-11-28T11:12:01Z</time>
      </trkpt>
      <trkpt lat="38.38495" lon="-0.52163">
        <ele>92.0</ele>
        <time>2020-11-28T11:12:04Z</time>
      </trkpt>
      <trkpt lat="38.38475" lon="-0.52128">
        <ele>94.0</ele>
        <time>2020-11-28T11:12:08Z</time>
      </trkpt>
      <trkpt lat="38.38432" lon="-0.52073">
        <ele>96.0</ele>
        <time>2020-11-28T11:12:11Z</time>
      </trkpt>
      <trkpt lat="38.38387" lon="-0.52018">
        <ele>98.0</ele>
        <time>2020-11-28T11:12:14Z</time>
      </trkpt>
      <trkpt lat="38.38334" lon="-0.51946">
        <ele>99.0</ele>
        <time>2020-11-28T11:12:17Z</time>
      </trkpt>
      <trkpt lat="38.38282" lon="-0.51873">
        <ele>98.0</ele>
        <time>2020-11-28T11:12:20Z</time>
      </trkpt>
      <trkpt lat="38.38233" lon="-0.51802">
        <ele>97.0</ele>
        <time>2020-11-28T11:12:23Z</time>
      </trkpt>
      <trkpt lat="38.38179" lon="-0.51723">
        <ele>97.0</ele>
        <time>2020-11-28T11:12:27Z</time>
      </trkpt>
      <trkpt lat="38.38132" lon="-0.51657">
        <ele>96.0</ele>
        <time>2020-11-28T11:12:30Z</time>
      </trkpt>
      <trkpt lat="38.38094" lon="-0.51601">
        <ele>96.0</ele>
        <time>2020-11-28T11:12:33Z</time>
      </trkpt>
      <trkpt lat="38.38067" lon="-0.51562">
        <ele>92.0</ele>
        <time>2020-11-28T11:12:36Z</time>
      </trkpt>
      <trkpt lat="38.38045" lon="-0.51536">
        <ele>92.0</ele>
        <time>2020-11-28T11:12:39Z</time>
      </trkpt>
      <trkpt lat="38.38027" lon="-0.51525">
        <ele>93.0</ele>
        <time>2020-11-28T11:12:42Z</time>
      </trkpt>
      <trkpt lat="38.38005" lon="-0.51527">
        <ele>93.0</ele>
        <time>2020-11-28T11:12:45Z</time>
      </trkpt>
      <trkpt lat="38.37969" lon="-0.51532">
        <ele>93.0</ele>
        <time>2020-11-28T11:12:48Z</time>
      </trkpt>
      <trkpt lat="38.37932" lon="-0.51516">
        <ele>91.0</ele>
        <time>2020-11-28T11:12:51Z</time>
      </trkpt>
      <trkpt lat="38.37903" lon="-0.51485">
        <ele>90.0</ele>
        <time>2020-11-28T11:12:54Z</time>
      </trkpt>
      <trkpt lat="38.37886" lon="-0.51436">
        <ele>87.0</ele>
        <time>2020-11-28T11:12:58Z</time>
      </trkpt>
      <trkpt lat="38.37887" lon="-0.51380">
        <ele>89.0</ele>
        <time>2020-11-28T11:13:01Z</time>
      </trkpt>
      <trkpt lat="38.37896" lon="-0.51331">
        <ele>89.0</ele>
        <time>2020-11-28T11:13:04Z</time>
      </trkpt>
      <trkpt lat="38.37931" lon="-0.51310">
        <ele>89.0</ele>
        <time>2020-11-28T11:13:07Z</time>
      </trkpt>
      <trkpt lat="38.37964" lon="-0.51295">
        <ele>90.0</ele>
        <time>2020-11-28T11:13:10Z</time>
      </trkpt>
      <trkpt lat="38.37966" lon="-0.51242">
        <ele>91.0</ele>
        <time>2020-11-28T11:13:13Z</time>
      </trkpt>
      <trkpt lat="38.37968" lon="-0.51188">
        <ele>92.0</ele>
        <time>2020-11-28T11:13:17Z</time>
      </trkpt>
      <trkpt lat="38.37974" lon="-0.51126">
        <ele>92.0</ele>
        <time>2020-11-28T11:13:20Z</time>
      </trkpt>
      <trkpt lat="38.37978" lon="-0.51065">
        <ele>92.0</ele>
        <time>2020-11-28T11:13:23Z</time>
      </trkpt>
      <trkpt lat="38.37977" lon="-0.50989">
        <ele>92.0</ele>
        <time>2020-11-28T11:13:26Z</time>
      </trkpt>
      <trkpt lat="38.37974" lon="-0.50914">
        <ele>89.0</ele>
        <time>2020-11-28T11:13:29Z</time>
      </trkpt>
      <trkpt lat="38.37969" lon="-0.50833">
        <ele>88.0</ele>
        <time>2020-11-28T11:13:32Z</time>
      </trkpt>
      <trkpt lat="38.37958" lon="-0.50741">
        <ele>88.0</ele>
        <time>2020-11-28T11:13:35Z</time>
      </trkpt>
      <trkpt lat="38.37947" lon="-0.50645">
        <ele>86.0</ele>
        <time>2020-11-28T11:13:39Z</time>
      </trkpt>
      <trkpt lat="38.37939" lon="-0.50545">
        <ele>86.0</ele>
        <time>2020-11-28T11:13:42Z</time>
      </trkpt>
      <trkpt lat="38.37935" lon="-0.50443">
        <ele>86.0</ele>
        <time>2020-11-28T11:13:45Z</time>
      </trkpt>
      <trkpt lat="38.37936" lon="-0.50342">
        <ele>86.0</ele>
        <time>2020-11-28T11:13:48Z</time>
      </trkpt>
      <trkpt lat="38.37944" lon="-0.50244">
        <ele>86.0</ele>
        <time>2020-11-28T11:13:51Z</time>
      </trkpt>
      <trkpt lat="38.37958" lon="-0.50150">
        <ele>87.0</ele>
        <time>2020-11-28T11:13:54Z</time>
      </trkpt>
      <trkpt lat="38.37981" lon="-0.50047">
        <ele>86.0</ele>
        <time>2020-11-28T11:13:58Z</time>
      </trkpt>
      <trkpt lat="38.38009" lon="-0.49951">
        <ele>83.0</ele>
        <time>2020-11-28T11:14:01Z</time>
      </trkpt>
      <trkpt lat="38.38046" lon="-0.49855">
        <ele>78.0</ele>
        <time>2020-11-28T11:14:04Z</time>
      </trkpt>
      <trkpt lat="38.38089" lon="-0.49764">
        <ele>77.0</ele>
        <time>2020-11-28T11:14:07Z</time>
      </trkpt>
      <trkpt lat="38.38134" lon="-0.49686">
        <ele>76.0</ele>
        <time>2020-11-28T11:14:10Z</time>
      </trkpt>
      <trkpt lat="38.38187" lon="-0.49609">
        <ele>75.0</ele>
        <time>2020-11-28T11:14:13Z</time>
      </trkpt>
      <trkpt lat="38.38242" lon="-0.49536">
        <ele>72.0</ele>
        <time>2020-11-28T11:14:16Z</time>
      </trkpt>
      <trkpt lat="38.38293" lon="-0.49462">
        <ele>73.0</ele>
        <time>2020-11-28T11:14:20Z</time>
      </trkpt>
      <trkpt lat="38.38338" lon="-0.49381">
        <ele>72.0</ele>
        <time>2020-11-28T11:14:23Z</time>
      </trkpt>
      <trkpt lat="38.38375" lon="-0.49294">
        <ele>70.0</ele>
        <time>2020-11-28T11:14:26Z</time>
      </trkpt>
      <trkpt lat="38.38406" lon="-0.49200">
        <ele>71.0</ele>
        <time>2020-11-28T11:14:29Z</time>
      </trkpt>
      <trkpt lat="38.38428" lon="-0.49106">
        <ele>71.0</ele>
        <time>2020-11-28T11:14:32Z</time>
      </trkpt>
      <trkpt lat="38.38441" lon="-0.49008">
        <ele>66.0</ele>
        <time>2020-11-28T11:14:35Z</time>
      </trkpt>
      <trkpt lat="38.38446" lon="-0.48909">
        <ele>64.0</ele>
        <time>2020-11-28T11:14:38Z</time>
      </trkpt>
      <trkpt lat="38.38443" lon="-0.48807">
        <ele>63.0</ele>
        <time>2020-11-28T11:14:41Z</time>
      </trkpt>
      <trkpt lat="38.38419" lon="-0.48711">
        <ele>62.0</ele>
        <time>2020-11-28T11:14:45Z</time>
      </trkpt>
      <trkpt lat="38.38415" lon="-0.48604">
        <ele>57.0</ele>
        <time>2020-11-28T11:14:48Z</time>
      </trkpt>
      <trkpt lat="38.38407" lon="-0.48507">
        <ele>55.0</ele>
        <time>2020-11-28T11:14:51Z</time>
      </trkpt>
      <trkpt lat="38.38413" lon="-0.48408">
        <ele>53.0</ele>
        <time>2020-11-28T11:14:54Z</time>
      </trkpt>
      <trkpt lat="38.38430" lon="-0.48313">
        <ele>53.0</ele>
        <time>2020-11-28T11:14:57Z</time>
      </trkpt>
      <trkpt lat="38.38449" lon="-0.48221">
        <ele>51.0</ele>
        <time>2020-11-28T11:15:00Z</time>
      </trkpt>
      <trkpt lat="38.38461" lon="-0.48132">
        <ele>54.0</ele>
        <time>2020-11-28T11:15:04Z</time>
      </trkpt>
      <trkpt lat="38.38462" lon="-0.48044">
        <ele>53.0</ele>
        <time>2020-11-28T11:15:07Z</time>
      </trkpt>
      <trkpt lat="38.38452" lon="-0.47951">
        <ele>53.0</ele>
        <time>2020-11-28T11:15:10Z</time>
      </trkpt>
      <trkpt lat="38.38429" lon="-0.47861">
        <ele>49.0</ele>
        <time>2020-11-28T11:15:13Z</time>
      </trkpt>
      <trkpt lat="38.38393" lon="-0.47773">
        <ele>49.0</ele>
        <time>2020-11-28T11:15:16Z</time>
      </trkpt>
      <trkpt lat="38.38348" lon="-0.47680">
        <ele>47.0</ele>
        <time>2020-11-28T11:15:19Z</time>
      </trkpt>
      <trkpt lat="38.38303" lon="-0.47585">
        <ele>45.0</ele>
        <time>2020-11-28T11:15:22Z</time>
      </trkpt>
      <trkpt lat="38.38256" lon="-0.47490">
        <ele>44.0</ele>
        <time>2020-11-28T11:15:26Z</time>
      </trkpt>
      <trkpt lat="38.38210" lon="-0.47393">
        <ele>43.0</ele>
        <time>2020-11-28T11:15:29Z</time>
      </trkpt>
      <trkpt lat="38.38167" lon="-0.47305">
        <ele>43.0</ele>
        <time>2020-11-28T11:15:32Z</time>
      </trkpt>
      <trkpt lat="38.38133" lon="-0.47236">
        <ele>42.0</ele>
        <time>2020-11-28T11:15:35Z</time>
      </trkpt>
      <trkpt lat="38.38075" lon="-0.47115">
        <ele>39.0</ele>
        <time>2020-11-28T11:15:38Z</time>
      </trkpt>
      <trkpt lat="38.38033" lon="-0.47020">
        <ele>39.0</ele>
        <time>2020-11-28T11:15:41Z</time>
      </trkpt>
      <trkpt lat="38.38001" lon="-0.46922">
        <ele>37.0</ele>
        <time>2020-11-28T11:15:44Z</time>
      </trkpt>
      <trkpt lat="38.37977" lon="-0.46819">
        <ele>36.0</ele>
        <time>2020-11-28T11:15:48Z</time>
      </trkpt>
      <trkpt lat="38.37963" lon="-0.46720">
        <ele>35.0</ele>
        <time>2020-11-28T11:15:51Z</time>
      </trkpt>
      <trkpt lat="38.37958" lon="-0.46617">
        <ele>32.0</ele>
        <time>2020-11-28T11:15:54Z</time>
      </trkpt>
      <trkpt lat="38.37962" lon="-0.46516">
        <ele>31.0</ele>
        <time>2020-11-28T11:15:57Z</time>
      </trkpt>
      <trkpt lat="38.37976" lon="-0.46409">
        <ele>29.0</ele>
        <time>2020-11-28T11:16:00Z</time>
      </trkpt>
      <trkpt lat="38.37999" lon="-0.46309">
        <ele>28.0</ele>
        <time>2020-11-28T11:16:03Z</time>
      </trkpt>
      <trkpt lat="38.38026" lon="-0.46225">
        <ele>28.0</ele>
        <time>2020-11-28T11:16:06Z</time>
      </trkpt>
      <trkpt lat="38.38060" lon="-0.46139">
        <ele>28.0</ele>
        <time>2020-11-28T11:16:09Z</time>
      </trkpt>
      <trkpt lat="38.38098" lon="-0.46056">
        <ele>26.0</ele>
        <time>2020-11-28T11:16:13Z</time>
      </trkpt>
      <trkpt lat="38.38130" lon="-0.45995">
        <ele>27.0</ele>
        <time>2020-11-28T11:16:16Z</time>
      </trkpt>
      <trkpt lat="38.38159" lon="-0.45941">
        <ele>26.0</ele>
        <time>2020-11-28T11:16:19Z</time>
      </trkpt>
      <trkpt lat="38.38175" lon="-0.45892">
        <ele>27.0</ele>
        <time>2020-11-28T11:16:22Z</time>
      </trkpt>
      <trkpt lat="38.38181" lon="-0.45836">
        <ele>28.0</ele>
        <time>2020-11-28T11:16:25Z</time>
      </trkpt>
      <trkpt lat="38.38172" lon="-0.45779">
        <ele>30.0</ele>
        <time>2020-11-28T11:16:28Z</time>
      </trkpt>
      <trkpt lat="38.38153" lon="-0.45706">
        <ele>30.0</ele>
        <time>2020-11-28T11:16:32Z</time>
      </trkpt>
      <trkpt lat="38.38133" lon="-0.45634">
        <ele>29.0</ele>
        <time>2020-11-28T11:16:35Z</time>
      </trkpt>
      <trkpt lat="38.38105" lon="-0.45541">
        <ele>22.0</ele>
        <time>2020-11-28T11:16:38Z</time>
      </trkpt>
      <trkpt lat="38.38079" lon="-0.45468">
        <ele>21.0</ele>
        <time>2020-11-28T11:16:41Z</time>
      </trkpt>
      <trkpt lat="38.38053" lon="-0.45406">
        <ele>18.0</ele>
        <time>2020-11-28T11:16:44Z</time>
      </trkpt>
      <trkpt lat="38.38021" lon="-0.45345">
        <ele>16.0</ele>
        <time>2020-11-28T11:16:47Z</time>
      </trkpt>
      <trkpt lat="38.37993" lon="-0.45300">
        <ele>18.0</ele>
        <time>2020-11-28T11:16:50Z</time>
      </trkpt>
      <trkpt lat="38.37978" lon="-0.45277">
        <ele>17.0</ele>
        <time>2020-11-28T11:16:53Z</time>
      </trkpt>
      <trkpt lat="38.37970" lon="-0.45264">
        <ele>16.0</ele>
        <time>2020-11-28T11:16:56Z</time>
      </trkpt>
      <trkpt lat="38.37962" lon="-0.45258">
        <ele>16.0</ele>
        <time>2020-11-28T11:16:59Z</time>
      </trkpt>
      <trkpt lat="38.37943" lon="-0.45247">
        <ele>16.0</ele>
        <time>2020-11-28T11:17:03Z</time>
      </trkpt>
      <trkpt lat="38.37933" lon="-0.45227">
        <ele>16.0</ele>
        <time>2020-11-28T11:17:06Z</time>
      </trkpt>
      <trkpt lat="38.37936" lon="-0.45199">
        <ele>15.0</ele>
        <time>2020-11-28T11:17:09Z</time>
      </trkpt>
      <trkpt lat="38.37924" lon="-0.45181">
        <ele>14.0</ele>
        <time>2020-11-28T11:17:12Z</time>
      </trkpt>
      <trkpt lat="38.37896" lon="-0.45133">
        <ele>13.0</ele>
        <time>2020-11-28T11:17:15Z</time>
      </trkpt>
      <trkpt lat="38.37873" lon="-0.45095">
        <ele>13.0</ele>
        <time>2020-11-28T11:17:18Z</time>
      </trkpt>
      <trkpt lat="38.37856" lon="-0.45066">
        <ele>14.0</ele>
        <time>2020-11-28T11:17:21Z</time>
      </trkpt>
      <trkpt lat="38.37840" lon="-0.45040">
        <ele>14.0</ele>
        <time>2020-11-28T11:17:24Z</time>
      </trkpt>
      <trkpt lat="38.37824" lon="-0.45016">
        <ele>13.0</ele>
        <time>2020-11-28T11:17:28Z</time>
      </trkpt>
      <trkpt lat="38.37808" lon="-0.45004">
        <ele>12.0</ele>
        <time>2020-11-28T11:17:31Z</time>
      </trkpt>
      <trkpt lat="38.37785" lon="-0.44999">
        <ele>12.0</ele>
        <time>2020-11-28T11:17:34Z</time>
      </trkpt>
      <trkpt lat="38.37768" lon="-0.45005">
        <ele>12.0</ele>
        <time>2020-11-28T11:17:37Z</time>
      </trkpt>
      <trkpt lat="38.37745" lon="-0.45020">
        <ele>12.0</ele>
        <time>2020-11-28T11:17:40Z</time>
      </trkpt>
      <trkpt lat="38.37712" lon="-0.45037">
        <ele>13.0</ele>
        <time>2020-11-28T11:17:43Z</time>
      </trkpt>
      <trkpt lat="38.37669" lon="-0.45049">
        <ele>13.0</ele>
        <time>2020-11-28T11:17:47Z</time>
      </trkpt>
      <trkpt lat="38.37621" lon="-0.45051">
        <ele>13.0</ele>
        <time>2020-11-28T11:17:50Z</time>
      </trkpt>
      <trkpt lat="38.37570" lon="-0.45041">
        <ele>13.0</ele>
        <time>2020-11-28T11:17:53Z</time>
      </trkpt>
      <trkpt lat="38.37505" lon="-0.45013">
        <ele>13.0</ele>
        <time>2020-11-28T11:17:56Z</time>
      </trkpt>
      <trkpt lat="38.37448" lon="-0.44983">
        <ele>12.0</ele>
        <time>2020-11-28T11:18:00Z</time>
      </trkpt>
      <trkpt lat="38.37388" lon="-0.44952">
        <ele>12.0</ele>
        <time>2020-11-28T11:18:03Z</time>
      </trkpt>
      <trkpt lat="38.37320" lon="-0.44916">
        <ele>11.0</ele>
        <time>2020-11-28T11:18:06Z</time>
      </trkpt>
      <trkpt lat="38.37259" lon="-0.44884">
        <ele>10.0</ele>
        <time>2020-11-28T11:18:09Z</time>
      </trkpt>
      <trkpt lat="38.37202" lon="-0.44855">
        <ele>9.0</ele>
        <time>2020-11-28T11:18:12Z</time>
      </trkpt>
      <trkpt lat="38.37151" lon="-0.44828">
        <ele>8.0</ele>
        <time>2020-11-28T11:18:15Z</time>
      </trkpt>
      <trkpt lat="38.37096" lon="-0.44798">
        <ele>8.0</ele>
        <time>2020-11-28T11:18:18Z</time>
      </trkpt>
      <trkpt lat="38.37034" lon="-0.44766">
        <ele>7.0</ele>
        <time>2020-11-28T11:18:22Z</time>
      </trkpt>
      <trkpt lat="38.36984" lon="-0.44740">
        <ele>5.0</ele>
        <time>2020-11-28T11:18:25Z</time>
      </trkpt>
      <trkpt lat="38.36942" lon="-0.44718">
        <ele>8.0</ele>
        <time>2020-11-28T11:18:28Z</time>
      </trkpt>
      <trkpt lat="38.36906" lon="-0.44700">
        <ele>7.0</ele>
        <time>2020-11-28T11:18:31Z</time>
      </trkpt>
      <trkpt lat="38.36874" lon="-0.44683">
        <ele>6.0</ele>
        <time>2020-11-28T11:18:34Z</time>
      </trkpt>
      <trkpt lat="38.36848" lon="-0.44670">
        <ele>5.0</ele>
        <time>2020-11-28T11:18:37Z</time>
      </trkpt>
      <trkpt lat="38.36825" lon="-0.44659">
        <ele>5.0</ele>
        <time>2020-11-28T11:18:40Z</time>
      </trkpt>
      <trkpt lat="38.36803" lon="-0.44648">
        <ele>6.0</ele>
        <time>2020-11-28T11:18:43Z</time>
      </trkpt>
      <trkpt lat="38.36795" lon="-0.44614">
        <ele>6.0</ele>
        <time>2020-11-28T11:18:47Z</time>
      </trkpt>
      <trkpt lat="38.36805" lon="-0.44588">
        <ele>5.0</ele>
        <time>2020-11-28T11:18:50Z</time>
      </trkpt>
      <trkpt lat="38.36814" lon="-0.44582">
        <ele>5.0</ele>
        <time>2020-11-28T11:18:53Z</time>
      </trkpt>
      <trkpt lat="38.36839" lon="-0.44564">
        <ele>6.0</ele>
        <time>2020-11-28T11:18:56Z</time>
      </trkpt>
      <trkpt lat="38.36849" lon="-0.44533">
        <ele>4.0</ele>
        <time>2020-11-28T11:18:59Z</time>
      </trkpt>
      <trkpt lat="38.36866" lon="-0.44481">
        <ele>7.0</ele>
        <time>2020-11-28T11:19:02Z</time>
      </trkpt>
      <trkpt lat="38.36886" lon="-0.44421">
        <ele>7.0</ele>
        <time>2020-11-28T11:19:05Z</time>
      </trkpt>
      <trkpt lat="38.36906" lon="-0.44365">
        <ele>6.0</ele>
        <time>2020-11-28T11:19:09Z</time>
      </trkpt>
      <trkpt lat="38.36924" lon="-0.44310">
        <ele>6.0</ele>
        <time>2020-11-28T11:19:12Z</time>
      </trkpt>
      <trkpt lat="38.36940" lon="-0.44254">
        <ele>6.0</ele>
        <time>2020-11-28T11:19:15Z</time>
      </trkpt>
      <trkpt lat="38.36955" lon="-0.44197">
        <ele>5.0</ele>
        <time>2020-11-28T11:19:18Z</time>
      </trkpt>
      <trkpt lat="38.36971" lon="-0.44131">
        <ele>5.0</ele>
        <time>2020-11-28T11:19:21Z</time>
      </trkpt>
      <trkpt lat="38.36987" lon="-0.44065">
        <ele>3.0</ele>
        <time>2020-11-28T11:19:24Z</time>
      </trkpt>
      <trkpt lat="38.37002" lon="-0.43988">
        <ele>2.0</ele>
        <time>2020-11-28T11:19:27Z</time>
      </trkpt>
      <trkpt lat="38.37013" lon="-0.43926">
        <ele>3.0</ele>
        <time>2020-11-28T11:19:31Z</time>
      </trkpt>
      <trkpt lat="38.37020" lon="-0.43875">
        <ele>5.0</ele>
        <time>2020-11-28T11:19:34Z</time>
      </trkpt>
      <trkpt lat="38.37026" lon="-0.43835">
        <ele>8.0</ele>
        <time>2020-11-28T11:19:37Z</time>
      </trkpt>
      <trkpt lat="38.37032" lon="-0.43800">
        <ele>6.0</ele>
        <time>2020-11-28T11:19:40Z</time>
      </trkpt>
      <trkpt lat="38.37036" lon="-0.43763">
        <ele>5.0</ele>
        <time>2020-11-28T11:19:43Z</time>
      </trkpt>
      <trkpt lat="38.37030" lon="-0.43726">
        <ele>3.0</ele>
        <time>2020-11-28T11:19:46Z</time>
      </trkpt>
      <trkpt lat="38.37013" lon="-0.43690">
        <ele>1.0</ele>
        <time>2020-11-28T11:19:49Z</time>
      </trkpt>
      <trkpt lat="38.37022" lon="-0.43649">
        <ele>1.0</ele>
        <time>2020-11-28T11:19:52Z</time>
      </trkpt>
      <trkpt lat="38.37048" lon="-0.43629">
        <ele>2.0</ele>
        <time>2020-11-28T11:19:56Z</time>
      </trkpt>
      <trkpt lat="38.37065" lon="-0.43628">
        <ele>1.0</ele>
        <time>2020-11-28T11:19:59Z</time>
      </trkpt>
      <trkpt lat="38.37077" lon="-0.43610">
        <ele>4.0</ele>
        <time>2020-11-28T11:20:23Z</time>
      </trkpt>
      <trkpt lat="38.37090" lon="-0.43587">
        <ele>5.0</ele>
        <time>2020-11-28T11:20:26Z</time>
      </trkpt>
      <trkpt lat="38.37101" lon="-0.43562">
        <ele>5.0</ele>
        <time>2020-11-28T11:20:29Z</time>
      </trkpt>
      <trkpt lat="38.37114" lon="-0.43530">
        <ele>6.0</ele>
        <time>2020-11-28T11:20:32Z</time>
      </trkpt>
      <trkpt lat="38.37121" lon="-0.43512">
        <ele>5.0</ele>
        <time>2020-11-28T11:20:35Z</time>
      </trkpt>
      <trkpt lat="38.37140" lon="-0.43463">
        <ele>5.0</ele>
        <time>2020-11-28T11:20:39Z</time>
      </trkpt>
      <trkpt lat="38.37154" lon="-0.43429">
        <ele>6.0</ele>
        <time>2020-11-28T11:20:42Z</time>
      </trkpt>
      <trkpt lat="38.37168" lon="-0.43393">
        <ele>7.0</ele>
        <time>2020-11-28T11:20:45Z</time>
      </trkpt>
      <trkpt lat="38.37182" lon="-0.43357">
        <ele>8.0</ele>
        <time>2020-11-28T11:20:48Z</time>
      </trkpt>
      <trkpt lat="38.37190" lon="-0.43335">
        <ele>7.0</ele>
        <time>2020-11-28T11:20:51Z</time>
      </trkpt>
      <trkpt lat="38.37199" lon="-0.43314">
        <ele>8.0</ele>
        <time>2020-11-28T11:21:24Z</time>
      </trkpt>
      <trkpt lat="38.37213" lon="-0.43277">
        <ele>8.0</ele>
        <time>2020-11-28T11:21:28Z</time>
      </trkpt>
      <trkpt lat="38.37231" lon="-0.43232">
        <ele>9.0</ele>
        <time>2020-11-28T11:21:31Z</time>
      </trkpt>
      <trkpt lat="38.37250" lon="-0.43182">
        <ele>9.0</ele>
        <time>2020-11-28T11:21:34Z</time>
      </trkpt>
      <trkpt lat="38.37270" lon="-0.43130">
        <ele>9.0</ele>
        <time>2020-11-28T11:21:37Z</time>
      </trkpt>
      <trkpt lat="38.37287" lon="-0.43086">
        <ele>9.0</ele>
        <time>2020-11-28T11:21:40Z</time>
      </trkpt>
      <trkpt lat="38.37308" lon="-0.43028">
        <ele>10.0</ele>
        <time>2020-11-28T11:21:43Z</time>
      </trkpt>
      <trkpt lat="38.37326" lon="-0.42975">
        <ele>8.0</ele>
        <time>2020-11-28T11:21:46Z</time>
      </trkpt>
      <trkpt lat="38.37339" lon="-0.42935">
        <ele>7.0</ele>
        <time>2020-11-28T11:21:49Z</time>
      </trkpt>
      <trkpt lat="38.37353" lon="-0.42894">
        <ele>4.0</ele>
        <time>2020-11-28T11:21:52Z</time>
      </trkpt>
      <trkpt lat="38.37374" lon="-0.42834">
        <ele>4.0</ele>
        <time>2020-11-28T11:21:55Z</time>
      </trkpt>
      <trkpt lat="38.37387" lon="-0.42795">
        <ele>3.0</ele>
        <time>2020-11-28T11:21:59Z</time>
      </trkpt>
      <trkpt lat="38.37401" lon="-0.42752">
        <ele>-2.0</ele>
        <time>2020-11-28T11:22:02Z</time>
      </trkpt>
      <trkpt lat="38.37427" lon="-0.42676">
        <ele>-2.0</ele>
        <time>2020-11-28T11:22:05Z</time>
      </trkpt>
      <trkpt lat="38.37444" lon="-0.42625">
        <ele>-3.0</ele>
        <time>2020-11-28T11:22:08Z</time>
      </trkpt>
      <trkpt lat="38.37461" lon="-0.42578">
        <ele>-2.0</ele>
        <time>2020-11-28T11:22:11Z</time>
      </trkpt>
      <trkpt lat="38.37470" lon="-0.42550">
        <ele>-3.0</ele>
        <time>2020-11-28T11:22:14Z</time>
      </trkpt>
      <trkpt lat="38.37475" lon="-0.42537">
        <ele>-3.0</ele>
        <time>2020-11-28T11:22:18Z</time>
      </trkpt>
      <trkpt lat="38.37480" lon="-0.42522">
        <ele>0.0</ele>
        <time>2020-11-28T11:22:25Z</time>
      </trkpt>
      <trkpt lat="38.37490" lon="-0.42495">
        <ele>0.0</ele>
        <time>2020-11-28T11:22:28Z</time>
      </trkpt>
      <trkpt lat="38.37499" lon="-0.42470">
        <ele>2.0</ele>
        <time>2020-11-28T11:22:31Z</time>
      </trkpt>
      <trkpt lat="38.37507" lon="-0.42443">
        <ele>3.0</ele>
        <time>2020-11-28T11:22:34Z</time>
      </trkpt>
      <trkpt lat="38.37521" lon="-0.42403">
        <ele>3.0</ele>
        <time>2020-11-28T11:22:38Z</time>
      </trkpt>
      <trkpt lat="38.37533" lon="-0.42367">
        <ele>4.0</ele>
        <time>2020-11-28T11:22:41Z</time>
      </trkpt>
      <trkpt lat="38.37548" lon="-0.42323">
        <ele>3.0</ele>
        <time>2020-11-28T11:22:44Z</time>
      </trkpt>
      <trkpt lat="38.37561" lon="-0.42283">
        <ele>4.0</ele>
        <time>2020-11-28T11:22:47Z</time>
      </trkpt>
      <trkpt lat="38.37573" lon="-0.42247">
        <ele>4.0</ele>
        <time>2020-11-28T11:22:50Z</time>
      </trkpt>
      <trkpt lat="38.37585" lon="-0.42212">
        <ele>3.0</ele>
        <time>2020-11-28T11:22:53Z</time>
      </trkpt>
      <trkpt lat="38.37597" lon="-0.42177">
        <ele>4.0</ele>
        <time>2020-11-28T11:22:56Z</time>
      </trkpt>
      <trkpt lat="38.37609" lon="-0.42140">
        <ele>4.0</ele>
        <time>2020-11-28T11:22:59Z</time>
      </trkpt>
      <trkpt lat="38.37621" lon="-0.42106">
        <ele>3.0</ele>
        <time>2020-11-28T11:23:03Z</time>
      </trkpt>
      <trkpt lat="38.37626" lon="-0.42088">
        <ele>3.0</ele>
        <time>2020-11-28T11:23:06Z</time>
      </trkpt>
      <trkpt lat="38.37633" lon="-0.42069">
        <ele>5.0</ele>
        <time>2020-11-28T11:23:38Z</time>
      </trkpt>
      <trkpt lat="38.37634" lon="-0.42052">
        <ele>4.0</ele>
        <time>2020-11-28T11:23:43Z</time>
      </trkpt>
      <trkpt lat="38.37626" lon="-0.42028">
        <ele>3.0</ele>
        <time>2020-11-28T11:23:47Z</time>
      </trkpt>
      <trkpt lat="38.37611" lon="-0.42023">
        <ele>4.0</ele>
        <time>2020-11-28T11:23:50Z</time>
      </trkpt>
      <trkpt lat="38.37581" lon="-0.42022">
        <ele>4.0</ele>
        <time>2020-11-28T11:23:53Z</time>
      </trkpt>
      <trkpt lat="38.37548" lon="-0.42021">
        <ele>4.0</ele>
        <time>2020-11-28T11:23:56Z</time>
      </trkpt>
      <trkpt lat="38.37508" lon="-0.42019">
        <ele>3.0</ele>
        <time>2020-11-28T11:24:00Z</time>
      </trkpt>
      <trkpt lat="38.37456" lon="-0.42016">
        <ele>4.0</ele>
        <time>2020-11-28T11:24:03Z</time>
      </trkpt>
      <trkpt lat="38.37408" lon="-0.42014">
        <ele>3.0</ele>
        <time>2020-11-28T11:24:06Z</time>
      </trkpt>
      <trkpt lat="38.37367" lon="-0.42013">
        <ele>2.0</ele>
        <time>2020-11-28T11:24:09Z</time>
      </trkpt>
      <trkpt lat="38.37326" lon="-0.42012">
        <ele>2.0</ele>
        <time>2020-11-28T11:24:12Z</time>
      </trkpt>
      <trkpt lat="38.37285" lon="-0.42011">
        <ele>3.0</ele>
        <time>2020-11-28T11:24:16Z</time>
      </trkpt>
      <trkpt lat="38.37240" lon="-0.42009">
        <ele>3.0</ele>
        <time>2020-11-28T11:24:19Z</time>
      </trkpt>
      <trkpt lat="38.37182" lon="-0.42005">
        <ele>4.0</ele>
        <time>2020-11-28T11:24:22Z</time>
      </trkpt>
      <trkpt lat="38.37128" lon="-0.42003">
        <ele>5.0</ele>
        <time>2020-11-28T11:24:25Z</time>
      </trkpt>
      <trkpt lat="38.37082" lon="-0.42000">
        <ele>5.0</ele>
        <time>2020-11-28T11:24:28Z</time>
      </trkpt>
      <trkpt lat="38.37042" lon="-0.41998">
        <ele>3.0</ele>
        <time>2020-11-28T11:24:32Z</time>
      </trkpt>
      <trkpt lat="38.36994" lon="-0.41995">
        <ele>5.0</ele>
        <time>2020-11-28T11:24:35Z</time>
      </trkpt>
      <trkpt lat="38.36948" lon="-0.41994">
        <ele>6.0</ele>
        <time>2020-11-28T11:24:38Z</time>
      </trkpt>
      <trkpt lat="38.36910" lon="-0.41992">
        <ele>7.0</ele>
        <time>2020-11-28T11:24:41Z</time>
      </trkpt>
      <trkpt lat="38.36884" lon="-0.41993">
        <ele>7.0</ele>
        <time>2020-11-28T11:24:44Z</time>
      </trkpt>
      <trkpt lat="38.36865" lon="-0.41998">
        <ele>7.0</ele>
        <time>2020-11-28T11:24:47Z</time>
      </trkpt>
      <trkpt lat="38.36845" lon="-0.42039">
        <ele>9.0</ele>
        <time>2020-11-28T11:24:50Z</time>
      </trkpt>
      <trkpt lat="38.36814" lon="-0.42051">
        <ele>10.0</ele>
        <time>2020-11-28T11:24:53Z</time>
      </trkpt>
      <trkpt lat="38.36785" lon="-0.42040">
        <ele>9.0</ele>
        <time>2020-11-28T11:24:57Z</time>
      </trkpt>
      <trkpt lat="38.36769" lon="-0.42014">
        <ele>9.0</ele>
        <time>2020-11-28T11:25:00Z</time>
      </trkpt>
      <trkpt lat="38.36762" lon="-0.42000">
        <ele>8.0</ele>
        <time>2020-11-28T11:25:03Z</time>
      </trkpt>
      <trkpt lat="38.36753" lon="-0.41993">
        <ele>10.0</ele>
        <time>2020-11-28T11:25:19Z</time>
      </trkpt>
      <trkpt lat="38.36736" lon="-0.41987">
        <ele>10.0</ele>
        <time>2020-11-28T11:25:22Z</time>
      </trkpt>
      <trkpt lat="38.36715" lon="-0.41985">
        <ele>12.0</ele>
        <time>2020-11-28T11:25:25Z</time>
      </trkpt>
      <trkpt lat="38.36692" lon="-0.41984">
        <ele>14.0</ele>
        <time>2020-11-28T11:25:28Z</time>
      </trkpt>
      <trkpt lat="38.36670" lon="-0.41983">
        <ele>15.0</ele>
        <time>2020-11-28T11:25:32Z</time>
      </trkpt>
      <trkpt lat="38.36648" lon="-0.41982">
        <ele>16.0</ele>
        <time>2020-11-28T11:25:35Z</time>
      </trkpt>
      <trkpt lat="38.36624" lon="-0.41981">
        <ele>18.0</ele>
        <time>2020-11-28T11:25:38Z</time>
      </trkpt>
      <trkpt lat="38.36601" lon="-0.41980">
        <ele>19.0</ele>
        <time>2020-11-28T11:25:41Z</time>
      </trkpt>
      <trkpt lat="38.36581" lon="-0.41979">
        <ele>21.0</ele>
        <time>2020-11-28T11:25:44Z</time>
      </trkpt>
      <trkpt lat="38.36557" lon="-0.41978">
        <ele>23.0</ele>
        <time>2020-11-28T11:25:48Z</time>
      </trkpt>
      <trkpt lat="38.36537" lon="-0.41977">
        <ele>23.0</ele>
        <time>2020-11-28T11:25:51Z</time>
      </trkpt>
      <trkpt lat="38.36521" lon="-0.41977">
        <ele>25.0</ele>
        <time>2020-11-28T11:25:54Z</time>
      </trkpt>
      <trkpt lat="38.36496" lon="-0.41975">
        <ele>28.0</ele>
        <time>2020-11-28T11:26:19Z</time>
      </trkpt>
      <trkpt lat="38.36473" lon="-0.41974">
        <ele>29.0</ele>
        <time>2020-11-28T11:26:23Z</time>
      </trkpt>
      <trkpt lat="38.36445" lon="-0.41973">
        <ele>29.0</ele>
        <time>2020-11-28T11:26:26Z</time>
      </trkpt>
      <trkpt lat="38.36414" lon="-0.41972">
        <ele>30.0</ele>
        <time>2020-11-28T11:26:29Z</time>
      </trkpt>
      <trkpt lat="38.36389" lon="-0.41971">
        <ele>29.0</ele>
        <time>2020-11-28T11:26:32Z</time>
      </trkpt>
      <trkpt lat="38.36368" lon="-0.41969">
        <ele>30.0</ele>
        <time>2020-11-28T11:26:35Z</time>
      </trkpt>
      <trkpt lat="38.36346" lon="-0.41967">
        <ele>30.0</ele>
        <time>2020-11-28T11:26:38Z</time>
      </trkpt>
      <trkpt lat="38.36323" lon="-0.41957">
        <ele>30.0</ele>
        <time>2020-11-28T11:26:42Z</time>
      </trkpt>
      <trkpt lat="38.36306" lon="-0.41948">
        <ele>29.0</ele>
        <time>2020-11-28T11:26:45Z</time>
      </trkpt>
      <trkpt lat="38.36297" lon="-0.41944">
        <ele>29.0</ele>
        <time>2020-11-28T11:26:49Z</time>
      </trkpt>
      <trkpt lat="38.36286" lon="-0.41948">
        <ele>30.0</ele>
        <time>2020-11-28T11:26:55Z</time>
      </trkpt>
      <trkpt lat="38.36265" lon="-0.41954">
        <ele>30.0</ele>
        <time>2020-11-28T11:26:58Z</time>
      </trkpt>
      <trkpt lat="38.36240" lon="-0.41942">
        <ele>30.0</ele>
        <time>2020-11-28T11:27:02Z</time>
      </trkpt>
      <trkpt lat="38.36215" lon="-0.41928">
        <ele>32.0</ele>
        <time>2020-11-28T11:27:05Z</time>
      </trkpt>
      <trkpt lat="38.36191" lon="-0.41930">
        <ele>33.0</ele>
        <time>2020-11-28T11:27:08Z</time>
      </trkpt>
      <trkpt lat="38.36164" lon="-0.41941">
        <ele>33.0</ele>
        <time>2020-11-28T11:27:11Z</time>
      </trkpt>
      <trkpt lat="38.36133" lon="-0.41949">
        <ele>35.0</ele>
        <time>2020-11-28T11:27:14Z</time>
      </trkpt>
      <trkpt lat="38.36113" lon="-0.41952">
        <ele>37.0</ele>
        <time>2020-11-28T11:27:17Z</time>
      </trkpt>
      <trkpt lat="38.36099" lon="-0.41954">
        <ele>36.0</ele>
        <time>2020-11-28T11:27:20Z</time>
      </trkpt>
      <trkpt lat="38.36096" lon="-0.41969">
        <ele>36.0</ele>
        <time>2020-11-28T11:27:24Z</time>
      </trkpt>
      <trkpt lat="38.36095" lon="-0.42015">
        <ele>34.0</ele>
        <time>2020-11-28T11:27:28Z</time>
      </trkpt>
      <trkpt lat="38.36094" lon="-0.42057">
        <ele>36.0</ele>
        <time>2020-11-28T11:27:31Z</time>
      </trkpt>
      <trkpt lat="38.36093" lon="-0.42097">
        <ele>35.0</ele>
        <time>2020-11-28T11:27:34Z</time>
      </trkpt>
      <trkpt lat="38.36092" lon="-0.42130">
        <ele>34.0</ele>
        <time>2020-11-28T11:27:37Z</time>
      </trkpt>
      <trkpt lat="38.36092" lon="-0.42145">
        <ele>32.0</ele>
        <time>2020-11-28T11:27:40Z</time>
      </trkpt>
      <trkpt lat="38.36091" lon="-0.42162">
        <ele>32.0</ele>
        <time>2020-11-28T11:28:09Z</time>
      </trkpt>
      <trkpt lat="38.36095" lon="-0.42173">
        <ele>32.0</ele>
        <time>2020-11-28T11:28:14Z</time>
      </trkpt>
      <trkpt lat="38.36125" lon="-0.42162">
        <ele>32.0</ele>
        <time>2020-11-28T11:28:17Z</time>
      </trkpt>
      <trkpt lat="38.36149" lon="-0.42151">
        <ele>32.0</ele>
        <time>2020-11-28T11:28:20Z</time>
      </trkpt>
      <trkpt lat="38.36170" lon="-0.42146">
        <ele>30.0</ele>
        <time>2020-11-28T11:28:23Z</time>
      </trkpt>
      <trkpt lat="38.36191" lon="-0.42150">
        <ele>29.0</ele>
        <time>2020-11-28T11:28:26Z</time>
      </trkpt>
      <trkpt lat="38.36208" lon="-0.42155">
        <ele>29.0</ele>
        <time>2020-11-28T11:28:29Z</time>
      </trkpt>
      <trkpt lat="38.36219" lon="-0.42149">
        <ele>30.0</ele>
        <time>2020-11-28T11:28:42Z</time>
      </trkpt>
      <trkpt lat="38.36221" lon="-0.42125">
        <ele>31.0</ele>
        <time>2020-11-28T11:28:45Z</time>
      </trkpt>
      <trkpt lat="38.36222" lon="-0.42106">
        <ele>31.0</ele>
        <time>2020-11-28T11:29:50Z</time>
      </trkpt>
      <trkpt lat="38.36223" lon="-0.42093">
        <ele>31.0</ele>
        <time>2020-11-28T11:29:54Z</time>
      </trkpt>
    </trkseg>
  </trk>
</gpx>
